<?xml version="1.0" encoding="UTF-8" standalone="no" ?>
<gpx xmlns="http://www.topografix.com/GPX/1/1" xmlns:xsi="http://www.w3.org/2001/XMLSchema-instance" xsi:schemaLocation="http://www.topografix.com/GPX/1/1 http://www.topografix.com/GPX/1/1/gpx.xsd" version="1.1" creator="VisuGPX - https://www.visugpx.com">
  <metadata>
    <name>Sortie Enduro Monts du Lyonnais</name>
  </metadata>
  <trk>
    <name><![CDATA[Sortie à vélo l'après-midi, privilège j’ai pu rouler seul avec la team Veranduro!!! | Ride | Strava]]></name>
    <trkseg>
      <trkpt lat="45.76714" lon="4.65181">
        <ele>477.9</ele>
        <time>2020-06-15T12:28:00.000Z</time>
      </trkpt>
      <trkpt lat="45.76712" lon="4.65181">
        <ele>478</ele>
        <time>2020-06-15T12:28:01.000Z</time>
      </trkpt>
      <trkpt lat="45.76707" lon="4.65176">
        <ele>478.1</ele>
        <time>2020-06-15T12:28:03.000Z</time>
      </trkpt>
      <trkpt lat="45.76695" lon="4.65156">
        <ele>478.7</ele>
        <time>2020-06-15T12:28:09.000Z</time>
      </trkpt>
      <trkpt lat="45.76683" lon="4.6514">
        <ele>479.5</ele>
        <time>2020-06-15T12:28:15.000Z</time>
      </trkpt>
      <trkpt lat="45.76682" lon="4.65138">
        <ele>479.6</ele>
        <time>2020-06-15T12:28:16.000Z</time>
      </trkpt>
      <trkpt lat="45.76677" lon="4.65136">
        <ele>479.8</ele>
        <time>2020-06-15T12:28:19.000Z</time>
      </trkpt>
      <trkpt lat="45.76675" lon="4.65133">
        <ele>480</ele>
        <time>2020-06-15T12:28:21.000Z</time>
      </trkpt>
      <trkpt lat="45.76671" lon="4.65125">
        <ele>480.4</ele>
        <time>2020-06-15T12:28:24.000Z</time>
      </trkpt>
      <trkpt lat="45.76668" lon="4.65112">
        <ele>481.1</ele>
        <time>2020-06-15T12:28:29.000Z</time>
      </trkpt>
      <trkpt lat="45.76664" lon="4.65108">
        <ele>481.4</ele>
        <time>2020-06-15T12:28:33.000Z</time>
      </trkpt>
      <trkpt lat="45.76663" lon="4.65104">
        <ele>481.6</ele>
        <time>2020-06-15T12:28:35.000Z</time>
      </trkpt>
      <trkpt lat="45.76662" lon="4.65092">
        <ele>482.6</ele>
        <time>2020-06-15T12:28:40.000Z</time>
      </trkpt>
      <trkpt lat="45.7666" lon="4.65072">
        <ele>484.1</ele>
        <time>2020-06-15T12:28:47.000Z</time>
      </trkpt>
      <trkpt lat="45.7666" lon="4.65058">
        <ele>485.2</ele>
        <time>2020-06-15T12:28:53.000Z</time>
      </trkpt>
      <trkpt lat="45.76661" lon="4.65043">
        <ele>486.4</ele>
        <time>2020-06-15T12:28:59.000Z</time>
      </trkpt>
      <trkpt lat="45.76666" lon="4.65028">
        <ele>487.5</ele>
        <time>2020-06-15T12:29:05.000Z</time>
      </trkpt>
      <trkpt lat="45.76675" lon="4.6501">
        <ele>488.9</ele>
        <time>2020-06-15T12:29:13.000Z</time>
      </trkpt>
      <trkpt lat="45.76681" lon="4.64996">
        <ele>489.9</ele>
        <time>2020-06-15T12:29:19.000Z</time>
      </trkpt>
      <trkpt lat="45.76689" lon="4.64978">
        <ele>491.2</ele>
        <time>2020-06-15T12:29:27.000Z</time>
      </trkpt>
      <trkpt lat="45.76698" lon="4.6496">
        <ele>492.5</ele>
        <time>2020-06-15T12:29:34.000Z</time>
      </trkpt>
      <trkpt lat="45.76705" lon="4.64941">
        <ele>493.6</ele>
        <time>2020-06-15T12:29:41.000Z</time>
      </trkpt>
      <trkpt lat="45.76713" lon="4.64925">
        <ele>494.7</ele>
        <time>2020-06-15T12:29:48.000Z</time>
      </trkpt>
      <trkpt lat="45.76719" lon="4.64911">
        <ele>495.4</ele>
        <time>2020-06-15T12:29:54.000Z</time>
      </trkpt>
      <trkpt lat="45.76727" lon="4.64891">
        <ele>496.5</ele>
        <time>2020-06-15T12:30:01.000Z</time>
      </trkpt>
      <trkpt lat="45.76732" lon="4.6488">
        <ele>497.1</ele>
        <time>2020-06-15T12:30:06.000Z</time>
      </trkpt>
      <trkpt lat="45.7674" lon="4.64864">
        <ele>498</ele>
        <time>2020-06-15T12:30:12.000Z</time>
      </trkpt>
      <trkpt lat="45.76751" lon="4.64844">
        <ele>499.2</ele>
        <time>2020-06-15T12:30:20.000Z</time>
      </trkpt>
      <trkpt lat="45.76762" lon="4.64828">
        <ele>500.5</ele>
        <time>2020-06-15T12:30:28.000Z</time>
      </trkpt>
      <trkpt lat="45.76769" lon="4.64818">
        <ele>501.3</ele>
        <time>2020-06-15T12:30:33.000Z</time>
      </trkpt>
      <trkpt lat="45.76778" lon="4.64814">
        <ele>502.1</ele>
        <time>2020-06-15T12:30:38.000Z</time>
      </trkpt>
      <trkpt lat="45.76787" lon="4.64818">
        <ele>502.9</ele>
        <time>2020-06-15T12:30:43.000Z</time>
      </trkpt>
      <trkpt lat="45.76795" lon="4.64835">
        <ele>503.7</ele>
        <time>2020-06-15T12:30:49.000Z</time>
      </trkpt>
      <trkpt lat="45.76801" lon="4.64854">
        <ele>504.6</ele>
        <time>2020-06-15T12:30:54.000Z</time>
      </trkpt>
      <trkpt lat="45.76806" lon="4.6487">
        <ele>505.4</ele>
        <time>2020-06-15T12:30:59.000Z</time>
      </trkpt>
      <trkpt lat="45.76815" lon="4.64885">
        <ele>506.3</ele>
        <time>2020-06-15T12:31:05.000Z</time>
      </trkpt>
      <trkpt lat="45.7683" lon="4.64893">
        <ele>507.3</ele>
        <time>2020-06-15T12:31:12.000Z</time>
      </trkpt>
      <trkpt lat="45.76842" lon="4.64893">
        <ele>508.1</ele>
        <time>2020-06-15T12:31:19.000Z</time>
      </trkpt>
      <trkpt lat="45.76854" lon="4.64891">
        <ele>508.7</ele>
        <time>2020-06-15T12:31:25.000Z</time>
      </trkpt>
      <trkpt lat="45.76866" lon="4.64888">
        <ele>509.5</ele>
        <time>2020-06-15T12:31:31.000Z</time>
      </trkpt>
      <trkpt lat="45.76874" lon="4.64886">
        <ele>510</ele>
        <time>2020-06-15T12:31:36.000Z</time>
      </trkpt>
      <trkpt lat="45.76884" lon="4.64886">
        <ele>511.1</ele>
        <time>2020-06-15T12:31:42.000Z</time>
      </trkpt>
      <trkpt lat="45.76894" lon="4.64886">
        <ele>511.7</ele>
        <time>2020-06-15T12:31:47.000Z</time>
      </trkpt>
      <trkpt lat="45.76907" lon="4.64888">
        <ele>512.8</ele>
        <time>2020-06-15T12:31:53.000Z</time>
      </trkpt>
      <trkpt lat="45.76922" lon="4.64891">
        <ele>513.9</ele>
        <time>2020-06-15T12:31:59.000Z</time>
      </trkpt>
      <trkpt lat="45.7694" lon="4.64893">
        <ele>515.2</ele>
        <time>2020-06-15T12:32:07.000Z</time>
      </trkpt>
      <trkpt lat="45.76951" lon="4.64893">
        <ele>515.9</ele>
        <time>2020-06-15T12:32:12.000Z</time>
      </trkpt>
      <trkpt lat="45.76967" lon="4.6489">
        <ele>517.1</ele>
        <time>2020-06-15T12:32:19.000Z</time>
      </trkpt>
      <trkpt lat="45.76978" lon="4.64878">
        <ele>518.1</ele>
        <time>2020-06-15T12:32:25.000Z</time>
      </trkpt>
      <trkpt lat="45.76985" lon="4.64867">
        <ele>518.9</ele>
        <time>2020-06-15T12:32:30.000Z</time>
      </trkpt>
      <trkpt lat="45.7699" lon="4.64854">
        <ele>519.6</ele>
        <time>2020-06-15T12:32:35.000Z</time>
      </trkpt>
      <trkpt lat="45.76996" lon="4.64839">
        <ele>520.5</ele>
        <time>2020-06-15T12:32:41.000Z</time>
      </trkpt>
      <trkpt lat="45.77" lon="4.64827">
        <ele>521.1</ele>
        <time>2020-06-15T12:32:46.000Z</time>
      </trkpt>
      <trkpt lat="45.77007" lon="4.6481">
        <ele>522.1</ele>
        <time>2020-06-15T12:32:52.000Z</time>
      </trkpt>
      <trkpt lat="45.77013" lon="4.64794">
        <ele>523</ele>
        <time>2020-06-15T12:32:58.000Z</time>
      </trkpt>
      <trkpt lat="45.77019" lon="4.64778">
        <ele>523.8</ele>
        <time>2020-06-15T12:33:04.000Z</time>
      </trkpt>
      <trkpt lat="45.77024" lon="4.64764">
        <ele>524.5</ele>
        <time>2020-06-15T12:33:09.000Z</time>
      </trkpt>
      <trkpt lat="45.77032" lon="4.64743">
        <ele>525.7</ele>
        <time>2020-06-15T12:33:16.000Z</time>
      </trkpt>
      <trkpt lat="45.77035" lon="4.64733">
        <ele>526.2</ele>
        <time>2020-06-15T12:33:20.000Z</time>
      </trkpt>
      <trkpt lat="45.77036" lon="4.64731">
        <ele>526.4</ele>
        <time>2020-06-15T12:33:21.000Z</time>
      </trkpt>
      <trkpt lat="45.77043" lon="4.64709">
        <ele>527.5</ele>
        <time>2020-06-15T12:33:28.000Z</time>
      </trkpt>
      <trkpt lat="45.77048" lon="4.64691">
        <ele>528.4</ele>
        <time>2020-06-15T12:33:34.000Z</time>
      </trkpt>
      <trkpt lat="45.77054" lon="4.64672">
        <ele>529.3</ele>
        <time>2020-06-15T12:33:40.000Z</time>
      </trkpt>
      <trkpt lat="45.77063" lon="4.64648">
        <ele>530.5</ele>
        <time>2020-06-15T12:33:48.000Z</time>
      </trkpt>
      <trkpt lat="45.77074" lon="4.64635">
        <ele>531.3</ele>
        <time>2020-06-15T12:33:54.000Z</time>
      </trkpt>
      <trkpt lat="45.77087" lon="4.6463">
        <ele>532.3</ele>
        <time>2020-06-15T12:34:00.000Z</time>
      </trkpt>
      <trkpt lat="45.77103" lon="4.64629">
        <ele>533.5</ele>
        <time>2020-06-15T12:34:07.000Z</time>
      </trkpt>
      <trkpt lat="45.77118" lon="4.64628">
        <ele>534.5</ele>
        <time>2020-06-15T12:34:14.000Z</time>
      </trkpt>
      <trkpt lat="45.77129" lon="4.64626">
        <ele>535.2</ele>
        <time>2020-06-15T12:34:20.000Z</time>
      </trkpt>
      <trkpt lat="45.77131" lon="4.64625">
        <ele>535.3</ele>
        <time>2020-06-15T12:34:21.000Z</time>
      </trkpt>
      <trkpt lat="45.77139" lon="4.64621">
        <ele>535.9</ele>
        <time>2020-06-15T12:34:25.000Z</time>
      </trkpt>
      <trkpt lat="45.77148" lon="4.64611">
        <ele>536.7</ele>
        <time>2020-06-15T12:34:30.000Z</time>
      </trkpt>
      <trkpt lat="45.77157" lon="4.64595">
        <ele>537.7</ele>
        <time>2020-06-15T12:34:36.000Z</time>
      </trkpt>
      <trkpt lat="45.77166" lon="4.64575">
        <ele>539</ele>
        <time>2020-06-15T12:34:43.000Z</time>
      </trkpt>
      <trkpt lat="45.77168" lon="4.64559">
        <ele>539.8</ele>
        <time>2020-06-15T12:34:48.000Z</time>
      </trkpt>
      <trkpt lat="45.77169" lon="4.64536">
        <ele>541</ele>
        <time>2020-06-15T12:34:56.000Z</time>
      </trkpt>
      <trkpt lat="45.77168" lon="4.64522">
        <ele>541.6</ele>
        <time>2020-06-15T12:35:01.000Z</time>
      </trkpt>
      <trkpt lat="45.77168" lon="4.64499">
        <ele>542.6</ele>
        <time>2020-06-15T12:35:07.000Z</time>
      </trkpt>
      <trkpt lat="45.77167" lon="4.64477">
        <ele>543.7</ele>
        <time>2020-06-15T12:35:13.000Z</time>
      </trkpt>
      <trkpt lat="45.77165" lon="4.64462">
        <ele>544.6</ele>
        <time>2020-06-15T12:35:18.000Z</time>
      </trkpt>
      <trkpt lat="45.77165" lon="4.64442">
        <ele>545.6</ele>
        <time>2020-06-15T12:35:24.000Z</time>
      </trkpt>
      <trkpt lat="45.77164" lon="4.64428">
        <ele>546.3</ele>
        <time>2020-06-15T12:35:28.000Z</time>
      </trkpt>
      <trkpt lat="45.77164" lon="4.64405">
        <ele>547.4</ele>
        <time>2020-06-15T12:35:35.000Z</time>
      </trkpt>
      <trkpt lat="45.77166" lon="4.6439">
        <ele>548.1</ele>
        <time>2020-06-15T12:35:40.000Z</time>
      </trkpt>
      <trkpt lat="45.77169" lon="4.64371">
        <ele>549</ele>
        <time>2020-06-15T12:35:47.000Z</time>
      </trkpt>
      <trkpt lat="45.77171" lon="4.64365">
        <ele>549.3</ele>
        <time>2020-06-15T12:35:49.000Z</time>
      </trkpt>
      <trkpt lat="45.77175" lon="4.64357">
        <ele>549.8</ele>
        <time>2020-06-15T12:35:52.000Z</time>
      </trkpt>
      <trkpt lat="45.77178" lon="4.64354">
        <ele>550.1</ele>
        <time>2020-06-15T12:35:54.000Z</time>
      </trkpt>
      <trkpt lat="45.77181" lon="4.64351">
        <ele>550.3</ele>
        <time>2020-06-15T12:35:56.000Z</time>
      </trkpt>
      <trkpt lat="45.7719" lon="4.64348">
        <ele>551</ele>
        <time>2020-06-15T12:36:01.000Z</time>
      </trkpt>
      <trkpt lat="45.77197" lon="4.64348">
        <ele>551.6</ele>
        <time>2020-06-15T12:36:05.000Z</time>
      </trkpt>
      <trkpt lat="45.77202" lon="4.64347">
        <ele>551.9</ele>
        <time>2020-06-15T12:36:07.000Z</time>
      </trkpt>
      <trkpt lat="45.77214" lon="4.64351">
        <ele>552.6</ele>
        <time>2020-06-15T12:36:12.000Z</time>
      </trkpt>
      <trkpt lat="45.77226" lon="4.64358">
        <ele>553.5</ele>
        <time>2020-06-15T12:36:18.000Z</time>
      </trkpt>
      <trkpt lat="45.77237" lon="4.64366">
        <ele>554.2</ele>
        <time>2020-06-15T12:36:23.000Z</time>
      </trkpt>
      <trkpt lat="45.77251" lon="4.64376">
        <ele>555</ele>
        <time>2020-06-15T12:36:29.000Z</time>
      </trkpt>
      <trkpt lat="45.77258" lon="4.64379">
        <ele>555.5</ele>
        <time>2020-06-15T12:36:33.000Z</time>
      </trkpt>
      <trkpt lat="45.77266" lon="4.64382">
        <ele>556</ele>
        <time>2020-06-15T12:36:37.000Z</time>
      </trkpt>
      <trkpt lat="45.7727" lon="4.6438">
        <ele>556.3</ele>
        <time>2020-06-15T12:36:39.000Z</time>
      </trkpt>
      <trkpt lat="45.77276" lon="4.64378">
        <ele>556.7</ele>
        <time>2020-06-15T12:36:42.000Z</time>
      </trkpt>
      <trkpt lat="45.77282" lon="4.64374">
        <ele>557.1</ele>
        <time>2020-06-15T12:36:45.000Z</time>
      </trkpt>
      <trkpt lat="45.77297" lon="4.64368">
        <ele>558.1</ele>
        <time>2020-06-15T12:36:52.000Z</time>
      </trkpt>
      <trkpt lat="45.77308" lon="4.64361">
        <ele>558.8</ele>
        <time>2020-06-15T12:36:57.000Z</time>
      </trkpt>
      <trkpt lat="45.77319" lon="4.64353">
        <ele>559.6</ele>
        <time>2020-06-15T12:37:03.000Z</time>
      </trkpt>
      <trkpt lat="45.77333" lon="4.6434">
        <ele>560.8</ele>
        <time>2020-06-15T12:37:10.000Z</time>
      </trkpt>
      <trkpt lat="45.77346" lon="4.64322">
        <ele>562.1</ele>
        <time>2020-06-15T12:37:18.000Z</time>
      </trkpt>
      <trkpt lat="45.77358" lon="4.64304">
        <ele>563.4</ele>
        <time>2020-06-15T12:37:26.000Z</time>
      </trkpt>
      <trkpt lat="45.77365" lon="4.64291">
        <ele>564.2</ele>
        <time>2020-06-15T12:37:31.000Z</time>
      </trkpt>
      <trkpt lat="45.77376" lon="4.64275">
        <ele>565.3</ele>
        <time>2020-06-15T12:37:38.000Z</time>
      </trkpt>
      <trkpt lat="45.77384" lon="4.64261">
        <ele>566.4</ele>
        <time>2020-06-15T12:37:44.000Z</time>
      </trkpt>
      <trkpt lat="45.77392" lon="4.64248">
        <ele>567.4</ele>
        <time>2020-06-15T12:37:50.000Z</time>
      </trkpt>
      <trkpt lat="45.77402" lon="4.64231">
        <ele>568.5</ele>
        <time>2020-06-15T12:37:57.000Z</time>
      </trkpt>
      <trkpt lat="45.77411" lon="4.64217">
        <ele>569.3</ele>
        <time>2020-06-15T12:38:03.000Z</time>
      </trkpt>
      <trkpt lat="45.77419" lon="4.64201">
        <ele>570.2</ele>
        <time>2020-06-15T12:38:08.000Z</time>
      </trkpt>
      <trkpt lat="45.77427" lon="4.64181">
        <ele>571.3</ele>
        <time>2020-06-15T12:38:13.000Z</time>
      </trkpt>
      <trkpt lat="45.77431" lon="4.64157">
        <ele>572.5</ele>
        <time>2020-06-15T12:38:20.000Z</time>
      </trkpt>
      <trkpt lat="45.77434" lon="4.64135">
        <ele>573.6</ele>
        <time>2020-06-15T12:38:27.000Z</time>
      </trkpt>
      <trkpt lat="45.77436" lon="4.64111">
        <ele>574.9</ele>
        <time>2020-06-15T12:38:35.000Z</time>
      </trkpt>
      <trkpt lat="45.77442" lon="4.64094">
        <ele>575.8</ele>
        <time>2020-06-15T12:38:41.000Z</time>
      </trkpt>
      <trkpt lat="45.77446" lon="4.64084">
        <ele>576.3</ele>
        <time>2020-06-15T12:38:45.000Z</time>
      </trkpt>
      <trkpt lat="45.77451" lon="4.64074">
        <ele>577</ele>
        <time>2020-06-15T12:38:50.000Z</time>
      </trkpt>
      <trkpt lat="45.77456" lon="4.64062">
        <ele>577.7</ele>
        <time>2020-06-15T12:38:55.000Z</time>
      </trkpt>
      <trkpt lat="45.77462" lon="4.64051">
        <ele>578.5</ele>
        <time>2020-06-15T12:39:00.000Z</time>
      </trkpt>
      <trkpt lat="45.77464" lon="4.64048">
        <ele>578.7</ele>
        <time>2020-06-15T12:39:01.000Z</time>
      </trkpt>
      <trkpt lat="45.77473" lon="4.64029">
        <ele>579.8</ele>
        <time>2020-06-15T12:39:08.000Z</time>
      </trkpt>
      <trkpt lat="45.77476" lon="4.64025">
        <ele>580.1</ele>
        <time>2020-06-15T12:39:11.000Z</time>
      </trkpt>
      <trkpt lat="45.77478" lon="4.64023">
        <ele>580.3</ele>
        <time>2020-06-15T12:39:12.000Z</time>
      </trkpt>
      <trkpt lat="45.7749" lon="4.64014">
        <ele>581.3</ele>
        <time>2020-06-15T12:39:19.000Z</time>
      </trkpt>
      <trkpt lat="45.77498" lon="4.64009">
        <ele>582</ele>
        <time>2020-06-15T12:39:23.000Z</time>
      </trkpt>
      <trkpt lat="45.77501" lon="4.64005">
        <ele>582.3</ele>
        <time>2020-06-15T12:39:25.000Z</time>
      </trkpt>
      <trkpt lat="45.77516" lon="4.63994">
        <ele>583.5</ele>
        <time>2020-06-15T12:39:33.000Z</time>
      </trkpt>
      <trkpt lat="45.7753" lon="4.63989">
        <ele>584.4</ele>
        <time>2020-06-15T12:39:39.000Z</time>
      </trkpt>
      <trkpt lat="45.77542" lon="4.6398">
        <ele>585.3</ele>
        <time>2020-06-15T12:39:44.000Z</time>
      </trkpt>
      <trkpt lat="45.77546" lon="4.63978">
        <ele>585.5</ele>
        <time>2020-06-15T12:39:45.000Z</time>
      </trkpt>
      <trkpt lat="45.77562" lon="4.63968">
        <ele>586.8</ele>
        <time>2020-06-15T12:39:51.000Z</time>
      </trkpt>
      <trkpt lat="45.77576" lon="4.6396">
        <ele>587.8</ele>
        <time>2020-06-15T12:39:58.000Z</time>
      </trkpt>
      <trkpt lat="45.77593" lon="4.63956">
        <ele>588.8</ele>
        <time>2020-06-15T12:40:05.000Z</time>
      </trkpt>
      <trkpt lat="45.77612" lon="4.63955">
        <ele>590</ele>
        <time>2020-06-15T12:40:13.000Z</time>
      </trkpt>
      <trkpt lat="45.77624" lon="4.63962">
        <ele>590.8</ele>
        <time>2020-06-15T12:40:19.000Z</time>
      </trkpt>
      <trkpt lat="45.77642" lon="4.63974">
        <ele>591.9</ele>
        <time>2020-06-15T12:40:26.000Z</time>
      </trkpt>
      <trkpt lat="45.77661" lon="4.63986">
        <ele>593</ele>
        <time>2020-06-15T12:40:33.000Z</time>
      </trkpt>
      <trkpt lat="45.77683" lon="4.63993">
        <ele>594.3</ele>
        <time>2020-06-15T12:40:42.000Z</time>
      </trkpt>
      <trkpt lat="45.77703" lon="4.63996">
        <ele>595.6</ele>
        <time>2020-06-15T12:40:51.000Z</time>
      </trkpt>
      <trkpt lat="45.77722" lon="4.63997">
        <ele>596.8</ele>
        <time>2020-06-15T12:40:59.000Z</time>
      </trkpt>
      <trkpt lat="45.77741" lon="4.63999">
        <ele>597.9</ele>
        <time>2020-06-15T12:41:07.000Z</time>
      </trkpt>
      <trkpt lat="45.77757" lon="4.64">
        <ele>598.7</ele>
        <time>2020-06-15T12:41:14.000Z</time>
      </trkpt>
      <trkpt lat="45.77774" lon="4.64004">
        <ele>599.8</ele>
        <time>2020-06-15T12:41:21.000Z</time>
      </trkpt>
      <trkpt lat="45.77789" lon="4.64003">
        <ele>601</ele>
        <time>2020-06-15T12:41:28.000Z</time>
      </trkpt>
      <trkpt lat="45.77797" lon="4.63997">
        <ele>601.7</ele>
        <time>2020-06-15T12:41:32.000Z</time>
      </trkpt>
      <trkpt lat="45.77797" lon="4.63993">
        <ele>601.9</ele>
        <time>2020-06-15T12:41:33.000Z</time>
      </trkpt>
      <trkpt lat="45.77788" lon="4.63983">
        <ele>602.3</ele>
        <time>2020-06-15T12:41:37.000Z</time>
      </trkpt>
      <trkpt lat="45.77775" lon="4.63969">
        <ele>602.9</ele>
        <time>2020-06-15T12:41:44.000Z</time>
      </trkpt>
      <trkpt lat="45.77765" lon="4.6396">
        <ele>603.1</ele>
        <time>2020-06-15T12:41:49.000Z</time>
      </trkpt>
      <trkpt lat="45.77762" lon="4.63958">
        <ele>603.2</ele>
        <time>2020-06-15T12:41:50.000Z</time>
      </trkpt>
      <trkpt lat="45.77757" lon="4.63955">
        <ele>603.3</ele>
        <time>2020-06-15T12:41:52.000Z</time>
      </trkpt>
      <trkpt lat="45.77742" lon="4.63941">
        <ele>604</ele>
        <time>2020-06-15T12:41:58.000Z</time>
      </trkpt>
      <trkpt lat="45.77727" lon="4.63934">
        <ele>604.8</ele>
        <time>2020-06-15T12:42:05.000Z</time>
      </trkpt>
      <trkpt lat="45.77711" lon="4.63934">
        <ele>605.7</ele>
        <time>2020-06-15T12:42:12.000Z</time>
      </trkpt>
      <trkpt lat="45.77697" lon="4.63927">
        <ele>606.4</ele>
        <time>2020-06-15T12:42:18.000Z</time>
      </trkpt>
      <trkpt lat="45.77681" lon="4.63915">
        <ele>606.9</ele>
        <time>2020-06-15T12:42:25.000Z</time>
      </trkpt>
      <trkpt lat="45.77662" lon="4.63903">
        <ele>606.3</ele>
        <time>2020-06-15T12:42:31.000Z</time>
      </trkpt>
      <trkpt lat="45.77643" lon="4.63891">
        <ele>605.3</ele>
        <time>2020-06-15T12:42:35.000Z</time>
      </trkpt>
      <trkpt lat="45.77637" lon="4.63888">
        <ele>605.1</ele>
        <time>2020-06-15T12:42:36.000Z</time>
      </trkpt>
      <trkpt lat="45.77618" lon="4.63874">
        <ele>604.6</ele>
        <time>2020-06-15T12:42:40.000Z</time>
      </trkpt>
      <trkpt lat="45.77599" lon="4.63858">
        <ele>604.8</ele>
        <time>2020-06-15T12:42:45.000Z</time>
      </trkpt>
      <trkpt lat="45.77591" lon="4.63852">
        <ele>605</ele>
        <time>2020-06-15T12:42:49.000Z</time>
      </trkpt>
      <trkpt lat="45.77588" lon="4.63851">
        <ele>605</ele>
        <time>2020-06-15T12:42:52.000Z</time>
      </trkpt>
      <trkpt lat="45.77586" lon="4.63851">
        <ele>605.1</ele>
        <time>2020-06-15T12:42:54.000Z</time>
      </trkpt>
      <trkpt lat="45.77581" lon="4.6385">
        <ele>605.8</ele>
        <time>2020-06-15T12:42:58.000Z</time>
      </trkpt>
      <trkpt lat="45.77578" lon="4.63849">
        <ele>606.1</ele>
        <time>2020-06-15T12:43:00.000Z</time>
      </trkpt>
      <trkpt lat="45.77577" lon="4.63848">
        <ele>606.3</ele>
        <time>2020-06-15T12:43:01.000Z</time>
      </trkpt>
      <trkpt lat="45.77571" lon="4.63842">
        <ele>607</ele>
        <time>2020-06-15T12:43:06.000Z</time>
      </trkpt>
      <trkpt lat="45.77566" lon="4.63835">
        <ele>607.8</ele>
        <time>2020-06-15T12:43:11.000Z</time>
      </trkpt>
      <trkpt lat="45.77565" lon="4.63834">
        <ele>608</ele>
        <time>2020-06-15T12:43:12.000Z</time>
      </trkpt>
      <trkpt lat="45.77561" lon="4.6383">
        <ele>608.6</ele>
        <time>2020-06-15T12:43:15.000Z</time>
      </trkpt>
      <trkpt lat="45.77561" lon="4.63828">
        <ele>608.9</ele>
        <time>2020-06-15T12:43:16.000Z</time>
      </trkpt>
      <trkpt lat="45.77557" lon="4.63822">
        <ele>609.8</ele>
        <time>2020-06-15T12:43:21.000Z</time>
      </trkpt>
      <trkpt lat="45.77556" lon="4.6382">
        <ele>610</ele>
        <time>2020-06-15T12:43:22.000Z</time>
      </trkpt>
      <trkpt lat="45.7755" lon="4.63814">
        <ele>611.3</ele>
        <time>2020-06-15T12:43:28.000Z</time>
      </trkpt>
      <trkpt lat="45.77549" lon="4.63811">
        <ele>611.7</ele>
        <time>2020-06-15T12:43:30.000Z</time>
      </trkpt>
      <trkpt lat="45.77546" lon="4.63807">
        <ele>612.5</ele>
        <time>2020-06-15T12:43:34.000Z</time>
      </trkpt>
      <trkpt lat="45.7754" lon="4.638">
        <ele>613.9</ele>
        <time>2020-06-15T12:43:40.000Z</time>
      </trkpt>
      <trkpt lat="45.77536" lon="4.63795">
        <ele>615.1</ele>
        <time>2020-06-15T12:43:45.000Z</time>
      </trkpt>
      <trkpt lat="45.77536" lon="4.63795">
        <ele>615.1</ele>
        <time>2020-06-15T12:43:53.000Z</time>
      </trkpt>
      <trkpt lat="45.77534" lon="4.63794">
        <ele>615.7</ele>
        <time>2020-06-15T12:43:57.000Z</time>
      </trkpt>
      <trkpt lat="45.77533" lon="4.63793">
        <ele>615.9</ele>
        <time>2020-06-15T12:43:58.000Z</time>
      </trkpt>
      <trkpt lat="45.77532" lon="4.63792">
        <ele>616.4</ele>
        <time>2020-06-15T12:44:04.000Z</time>
      </trkpt>
      <trkpt lat="45.7753" lon="4.6379">
        <ele>616.8</ele>
        <time>2020-06-15T12:44:10.000Z</time>
      </trkpt>
      <trkpt lat="45.77527" lon="4.63787">
        <ele>617.7</ele>
        <time>2020-06-15T12:44:16.000Z</time>
      </trkpt>
      <trkpt lat="45.77526" lon="4.63786">
        <ele>618.2</ele>
        <time>2020-06-15T12:44:22.000Z</time>
      </trkpt>
      <trkpt lat="45.77522" lon="4.63781">
        <ele>619.3</ele>
        <time>2020-06-15T12:44:29.000Z</time>
      </trkpt>
      <trkpt lat="45.77516" lon="4.63777">
        <ele>621</ele>
        <time>2020-06-15T12:44:33.000Z</time>
      </trkpt>
      <trkpt lat="45.77514" lon="4.63775">
        <ele>621.5</ele>
        <time>2020-06-15T12:44:38.000Z</time>
      </trkpt>
      <trkpt lat="45.77508" lon="4.63771">
        <ele>622.9</ele>
        <time>2020-06-15T12:44:42.000Z</time>
      </trkpt>
      <trkpt lat="45.77507" lon="4.6377">
        <ele>623.1</ele>
        <time>2020-06-15T12:44:43.000Z</time>
      </trkpt>
      <trkpt lat="45.77505" lon="4.63766">
        <ele>623.8</ele>
        <time>2020-06-15T12:44:46.000Z</time>
      </trkpt>
      <trkpt lat="45.77502" lon="4.63763">
        <ele>624.3</ele>
        <time>2020-06-15T12:44:49.000Z</time>
      </trkpt>
      <trkpt lat="45.77496" lon="4.63759">
        <ele>625.6</ele>
        <time>2020-06-15T12:44:54.000Z</time>
      </trkpt>
      <trkpt lat="45.77489" lon="4.63755">
        <ele>627.1</ele>
        <time>2020-06-15T12:45:00.000Z</time>
      </trkpt>
      <trkpt lat="45.77482" lon="4.63749">
        <ele>628.8</ele>
        <time>2020-06-15T12:45:06.000Z</time>
      </trkpt>
      <trkpt lat="45.77481" lon="4.63748">
        <ele>629.1</ele>
        <time>2020-06-15T12:45:07.000Z</time>
      </trkpt>
      <trkpt lat="45.77479" lon="4.63747">
        <ele>629.5</ele>
        <time>2020-06-15T12:45:11.000Z</time>
      </trkpt>
      <trkpt lat="45.77478" lon="4.63748">
        <ele>629.9</ele>
        <time>2020-06-15T12:45:14.000Z</time>
      </trkpt>
      <trkpt lat="45.77475" lon="4.63749">
        <ele>630.4</ele>
        <time>2020-06-15T12:45:16.000Z</time>
      </trkpt>
      <trkpt lat="45.7747" lon="4.63752">
        <ele>631.6</ele>
        <time>2020-06-15T12:45:20.000Z</time>
      </trkpt>
      <trkpt lat="45.77468" lon="4.63752">
        <ele>631.9</ele>
        <time>2020-06-15T12:45:21.000Z</time>
      </trkpt>
      <trkpt lat="45.77464" lon="4.63752">
        <ele>632.7</ele>
        <time>2020-06-15T12:45:24.000Z</time>
      </trkpt>
      <trkpt lat="45.77461" lon="4.63751">
        <ele>633.3</ele>
        <time>2020-06-15T12:45:26.000Z</time>
      </trkpt>
      <trkpt lat="45.77457" lon="4.63752">
        <ele>633.9</ele>
        <time>2020-06-15T12:45:29.000Z</time>
      </trkpt>
      <trkpt lat="45.77456" lon="4.63753">
        <ele>634.2</ele>
        <time>2020-06-15T12:45:30.000Z</time>
      </trkpt>
      <trkpt lat="45.77452" lon="4.63757">
        <ele>635</ele>
        <time>2020-06-15T12:45:35.000Z</time>
      </trkpt>
      <trkpt lat="45.77449" lon="4.63762">
        <ele>635.9</ele>
        <time>2020-06-15T12:45:41.000Z</time>
      </trkpt>
      <trkpt lat="45.77446" lon="4.63766">
        <ele>636.5</ele>
        <time>2020-06-15T12:45:47.000Z</time>
      </trkpt>
      <trkpt lat="45.77443" lon="4.63769">
        <ele>637.3</ele>
        <time>2020-06-15T12:45:54.000Z</time>
      </trkpt>
      <trkpt lat="45.77441" lon="4.6377">
        <ele>637.5</ele>
        <time>2020-06-15T12:46:00.000Z</time>
      </trkpt>
      <trkpt lat="45.77441" lon="4.6377">
        <ele>637.5</ele>
        <time>2020-06-15T12:46:06.000Z</time>
      </trkpt>
      <trkpt lat="45.7744" lon="4.63773">
        <ele>637.9</ele>
        <time>2020-06-15T12:46:12.000Z</time>
      </trkpt>
      <trkpt lat="45.7744" lon="4.63773">
        <ele>637.9</ele>
        <time>2020-06-15T12:46:19.000Z</time>
      </trkpt>
      <trkpt lat="45.7744" lon="4.63773">
        <ele>637.9</ele>
        <time>2020-06-15T12:46:26.000Z</time>
      </trkpt>
      <trkpt lat="45.77439" lon="4.63776">
        <ele>638.4</ele>
        <time>2020-06-15T12:46:32.000Z</time>
      </trkpt>
      <trkpt lat="45.77435" lon="4.63779">
        <ele>639.2</ele>
        <time>2020-06-15T12:46:37.000Z</time>
      </trkpt>
      <trkpt lat="45.77433" lon="4.63782">
        <ele>639.6</ele>
        <time>2020-06-15T12:46:42.000Z</time>
      </trkpt>
      <trkpt lat="45.77427" lon="4.63787">
        <ele>640.8</ele>
        <time>2020-06-15T12:46:47.000Z</time>
      </trkpt>
      <trkpt lat="45.7742" lon="4.63793">
        <ele>641.9</ele>
        <time>2020-06-15T12:46:51.000Z</time>
      </trkpt>
      <trkpt lat="45.77411" lon="4.63802">
        <ele>643.4</ele>
        <time>2020-06-15T12:46:57.000Z</time>
      </trkpt>
      <trkpt lat="45.77408" lon="4.63806">
        <ele>644</ele>
        <time>2020-06-15T12:47:03.000Z</time>
      </trkpt>
      <trkpt lat="45.77403" lon="4.63811">
        <ele>644.9</ele>
        <time>2020-06-15T12:47:08.000Z</time>
      </trkpt>
      <trkpt lat="45.77393" lon="4.63821">
        <ele>646.6</ele>
        <time>2020-06-15T12:47:14.000Z</time>
      </trkpt>
      <trkpt lat="45.77392" lon="4.63823">
        <ele>646.8</ele>
        <time>2020-06-15T12:47:15.000Z</time>
      </trkpt>
      <trkpt lat="45.77384" lon="4.63831">
        <ele>648.1</ele>
        <time>2020-06-15T12:47:19.000Z</time>
      </trkpt>
      <trkpt lat="45.77372" lon="4.63835">
        <ele>649.5</ele>
        <time>2020-06-15T12:47:24.000Z</time>
      </trkpt>
      <trkpt lat="45.77369" lon="4.63836">
        <ele>649.8</ele>
        <time>2020-06-15T12:47:25.000Z</time>
      </trkpt>
      <trkpt lat="45.77356" lon="4.63839">
        <ele>651.1</ele>
        <time>2020-06-15T12:47:29.000Z</time>
      </trkpt>
      <trkpt lat="45.77352" lon="4.6384">
        <ele>651.6</ele>
        <time>2020-06-15T12:47:30.000Z</time>
      </trkpt>
      <trkpt lat="45.77338" lon="4.63842">
        <ele>653.2</ele>
        <time>2020-06-15T12:47:36.000Z</time>
      </trkpt>
      <trkpt lat="45.7733" lon="4.63843">
        <ele>654.2</ele>
        <time>2020-06-15T12:47:40.000Z</time>
      </trkpt>
      <trkpt lat="45.77327" lon="4.63843">
        <ele>654.6</ele>
        <time>2020-06-15T12:47:42.000Z</time>
      </trkpt>
      <trkpt lat="45.77316" lon="4.63838">
        <ele>656</ele>
        <time>2020-06-15T12:47:49.000Z</time>
      </trkpt>
      <trkpt lat="45.77307" lon="4.63835">
        <ele>657.3</ele>
        <time>2020-06-15T12:47:55.000Z</time>
      </trkpt>
      <trkpt lat="45.773" lon="4.63831">
        <ele>658.3</ele>
        <time>2020-06-15T12:48:01.000Z</time>
      </trkpt>
      <trkpt lat="45.77292" lon="4.63826">
        <ele>659.4</ele>
        <time>2020-06-15T12:48:08.000Z</time>
      </trkpt>
      <trkpt lat="45.77283" lon="4.63824">
        <ele>660.5</ele>
        <time>2020-06-15T12:48:14.000Z</time>
      </trkpt>
      <trkpt lat="45.7728" lon="4.63823">
        <ele>660.8</ele>
        <time>2020-06-15T12:48:16.000Z</time>
      </trkpt>
      <trkpt lat="45.77278" lon="4.63821">
        <ele>661.1</ele>
        <time>2020-06-15T12:48:18.000Z</time>
      </trkpt>
      <trkpt lat="45.77277" lon="4.63821">
        <ele>661.2</ele>
        <time>2020-06-15T12:48:19.000Z</time>
      </trkpt>
      <trkpt lat="45.77272" lon="4.63818">
        <ele>661.7</ele>
        <time>2020-06-15T12:48:23.000Z</time>
      </trkpt>
      <trkpt lat="45.77265" lon="4.63812">
        <ele>662.5</ele>
        <time>2020-06-15T12:48:28.000Z</time>
      </trkpt>
      <trkpt lat="45.77264" lon="4.63811">
        <ele>662.6</ele>
        <time>2020-06-15T12:48:29.000Z</time>
      </trkpt>
      <trkpt lat="45.77258" lon="4.63805">
        <ele>663.3</ele>
        <time>2020-06-15T12:48:33.000Z</time>
      </trkpt>
      <trkpt lat="45.7725" lon="4.63795">
        <ele>664.3</ele>
        <time>2020-06-15T12:48:39.000Z</time>
      </trkpt>
      <trkpt lat="45.77245" lon="4.63783">
        <ele>665.4</ele>
        <time>2020-06-15T12:48:45.000Z</time>
      </trkpt>
      <trkpt lat="45.7724" lon="4.63773">
        <ele>666.5</ele>
        <time>2020-06-15T12:48:50.000Z</time>
      </trkpt>
      <trkpt lat="45.77239" lon="4.63771">
        <ele>666.7</ele>
        <time>2020-06-15T12:48:51.000Z</time>
      </trkpt>
      <trkpt lat="45.77236" lon="4.63764">
        <ele>667.6</ele>
        <time>2020-06-15T12:48:56.000Z</time>
      </trkpt>
      <trkpt lat="45.77235" lon="4.63754">
        <ele>668.7</ele>
        <time>2020-06-15T12:49:02.000Z</time>
      </trkpt>
      <trkpt lat="45.77233" lon="4.6375">
        <ele>669.2</ele>
        <time>2020-06-15T12:49:04.000Z</time>
      </trkpt>
      <trkpt lat="45.77232" lon="4.63745">
        <ele>669.8</ele>
        <time>2020-06-15T12:49:07.000Z</time>
      </trkpt>
      <trkpt lat="45.77232" lon="4.63744">
        <ele>670</ele>
        <time>2020-06-15T12:49:08.000Z</time>
      </trkpt>
      <trkpt lat="45.77226" lon="4.63735">
        <ele>671.3</ele>
        <time>2020-06-15T12:49:15.000Z</time>
      </trkpt>
      <trkpt lat="45.77223" lon="4.63732">
        <ele>671.9</ele>
        <time>2020-06-15T12:49:21.000Z</time>
      </trkpt>
      <trkpt lat="45.77218" lon="4.63729">
        <ele>673.5</ele>
        <time>2020-06-15T12:49:26.000Z</time>
      </trkpt>
      <trkpt lat="45.77213" lon="4.63727">
        <ele>674.3</ele>
        <time>2020-06-15T12:49:32.000Z</time>
      </trkpt>
      <trkpt lat="45.7721" lon="4.63727">
        <ele>674.8</ele>
        <time>2020-06-15T12:49:34.000Z</time>
      </trkpt>
      <trkpt lat="45.77206" lon="4.63727">
        <ele>675.4</ele>
        <time>2020-06-15T12:49:37.000Z</time>
      </trkpt>
      <trkpt lat="45.77201" lon="4.63727">
        <ele>676.3</ele>
        <time>2020-06-15T12:49:43.000Z</time>
      </trkpt>
      <trkpt lat="45.77201" lon="4.63727">
        <ele>676.3</ele>
        <time>2020-06-15T12:49:59.000Z</time>
      </trkpt>
      <trkpt lat="45.77199" lon="4.63727">
        <ele>676.5</ele>
        <time>2020-06-15T12:50:00.000Z</time>
      </trkpt>
      <trkpt lat="45.77198" lon="4.63725">
        <ele>676.8</ele>
        <time>2020-06-15T12:50:03.000Z</time>
      </trkpt>
      <trkpt lat="45.77194" lon="4.63723">
        <ele>677.5</ele>
        <time>2020-06-15T12:50:08.000Z</time>
      </trkpt>
      <trkpt lat="45.7719" lon="4.6372">
        <ele>678.4</ele>
        <time>2020-06-15T12:50:12.000Z</time>
      </trkpt>
      <trkpt lat="45.77186" lon="4.63719">
        <ele>678.9</ele>
        <time>2020-06-15T12:50:14.000Z</time>
      </trkpt>
      <trkpt lat="45.77184" lon="4.63717">
        <ele>679.4</ele>
        <time>2020-06-15T12:50:16.000Z</time>
      </trkpt>
      <trkpt lat="45.77181" lon="4.63717">
        <ele>679.8</ele>
        <time>2020-06-15T12:50:18.000Z</time>
      </trkpt>
      <trkpt lat="45.77177" lon="4.63716">
        <ele>680.6</ele>
        <time>2020-06-15T12:50:23.000Z</time>
      </trkpt>
      <trkpt lat="45.77169" lon="4.63711">
        <ele>682.1</ele>
        <time>2020-06-15T12:50:30.000Z</time>
      </trkpt>
      <trkpt lat="45.77164" lon="4.63709">
        <ele>683.1</ele>
        <time>2020-06-15T12:50:35.000Z</time>
      </trkpt>
      <trkpt lat="45.7716" lon="4.63708">
        <ele>683.8</ele>
        <time>2020-06-15T12:50:40.000Z</time>
      </trkpt>
      <trkpt lat="45.77151" lon="4.63708">
        <ele>685.4</ele>
        <time>2020-06-15T12:50:47.000Z</time>
      </trkpt>
      <trkpt lat="45.77147" lon="4.63708">
        <ele>686</ele>
        <time>2020-06-15T12:50:53.000Z</time>
      </trkpt>
      <trkpt lat="45.77144" lon="4.63708">
        <ele>686.6</ele>
        <time>2020-06-15T12:51:06.000Z</time>
      </trkpt>
      <trkpt lat="45.7714" lon="4.63706">
        <ele>687.3</ele>
        <time>2020-06-15T12:51:08.000Z</time>
      </trkpt>
      <trkpt lat="45.77135" lon="4.63706">
        <ele>688</ele>
        <time>2020-06-15T12:51:11.000Z</time>
      </trkpt>
      <trkpt lat="45.77126" lon="4.63705">
        <ele>689.3</ele>
        <time>2020-06-15T12:51:17.000Z</time>
      </trkpt>
      <trkpt lat="45.77117" lon="4.63707">
        <ele>690.6</ele>
        <time>2020-06-15T12:51:23.000Z</time>
      </trkpt>
      <trkpt lat="45.77111" lon="4.63705">
        <ele>691.4</ele>
        <time>2020-06-15T12:51:29.000Z</time>
      </trkpt>
      <trkpt lat="45.77109" lon="4.63704">
        <ele>691.6</ele>
        <time>2020-06-15T12:51:30.000Z</time>
      </trkpt>
      <trkpt lat="45.77104" lon="4.63703">
        <ele>692.2</ele>
        <time>2020-06-15T12:51:34.000Z</time>
      </trkpt>
      <trkpt lat="45.771" lon="4.63698">
        <ele>692.8</ele>
        <time>2020-06-15T12:51:38.000Z</time>
      </trkpt>
      <trkpt lat="45.77097" lon="4.63696">
        <ele>693.2</ele>
        <time>2020-06-15T12:51:40.000Z</time>
      </trkpt>
      <trkpt lat="45.7709" lon="4.63692">
        <ele>694.2</ele>
        <time>2020-06-15T12:51:46.000Z</time>
      </trkpt>
      <trkpt lat="45.77083" lon="4.63688">
        <ele>695.2</ele>
        <time>2020-06-15T12:51:53.000Z</time>
      </trkpt>
      <trkpt lat="45.77078" lon="4.63687">
        <ele>695.8</ele>
        <time>2020-06-15T12:51:57.000Z</time>
      </trkpt>
      <trkpt lat="45.77074" lon="4.63687">
        <ele>696.4</ele>
        <time>2020-06-15T12:52:00.000Z</time>
      </trkpt>
      <trkpt lat="45.77068" lon="4.63687">
        <ele>697.1</ele>
        <time>2020-06-15T12:52:05.000Z</time>
      </trkpt>
      <trkpt lat="45.77061" lon="4.63688">
        <ele>698</ele>
        <time>2020-06-15T12:52:10.000Z</time>
      </trkpt>
      <trkpt lat="45.77054" lon="4.63689">
        <ele>698.9</ele>
        <time>2020-06-15T12:52:16.000Z</time>
      </trkpt>
      <trkpt lat="45.77048" lon="4.63688">
        <ele>699.7</ele>
        <time>2020-06-15T12:52:22.000Z</time>
      </trkpt>
      <trkpt lat="45.77045" lon="4.63689">
        <ele>700.1</ele>
        <time>2020-06-15T12:52:27.000Z</time>
      </trkpt>
      <trkpt lat="45.77033" lon="4.63689">
        <ele>701.5</ele>
        <time>2020-06-15T12:52:33.000Z</time>
      </trkpt>
      <trkpt lat="45.77025" lon="4.63688">
        <ele>702.6</ele>
        <time>2020-06-15T12:52:40.000Z</time>
      </trkpt>
      <trkpt lat="45.77019" lon="4.63688">
        <ele>703.4</ele>
        <time>2020-06-15T12:52:47.000Z</time>
      </trkpt>
      <trkpt lat="45.77015" lon="4.6369">
        <ele>704</ele>
        <time>2020-06-15T12:52:52.000Z</time>
      </trkpt>
      <trkpt lat="45.77009" lon="4.63686">
        <ele>705</ele>
        <time>2020-06-15T12:52:57.000Z</time>
      </trkpt>
      <trkpt lat="45.77007" lon="4.63685">
        <ele>705.3</ele>
        <time>2020-06-15T12:52:58.000Z</time>
      </trkpt>
      <trkpt lat="45.77" lon="4.63682">
        <ele>706.3</ele>
        <time>2020-06-15T12:53:03.000Z</time>
      </trkpt>
      <trkpt lat="45.76998" lon="4.63681">
        <ele>706.6</ele>
        <time>2020-06-15T12:53:06.000Z</time>
      </trkpt>
      <trkpt lat="45.76993" lon="4.63681">
        <ele>707.2</ele>
        <time>2020-06-15T12:53:12.000Z</time>
      </trkpt>
      <trkpt lat="45.76985" lon="4.63676">
        <ele>708</ele>
        <time>2020-06-15T12:53:18.000Z</time>
      </trkpt>
      <trkpt lat="45.76981" lon="4.63673">
        <ele>708.5</ele>
        <time>2020-06-15T12:53:22.000Z</time>
      </trkpt>
      <trkpt lat="45.76979" lon="4.63672">
        <ele>708.6</ele>
        <time>2020-06-15T12:53:24.000Z</time>
      </trkpt>
      <trkpt lat="45.76977" lon="4.63669">
        <ele>708.9</ele>
        <time>2020-06-15T12:53:26.000Z</time>
      </trkpt>
      <trkpt lat="45.76973" lon="4.63666">
        <ele>709.2</ele>
        <time>2020-06-15T12:53:29.000Z</time>
      </trkpt>
      <trkpt lat="45.76964" lon="4.63662">
        <ele>709.9</ele>
        <time>2020-06-15T12:53:34.000Z</time>
      </trkpt>
      <trkpt lat="45.76958" lon="4.63658">
        <ele>710.3</ele>
        <time>2020-06-15T12:53:38.000Z</time>
      </trkpt>
      <trkpt lat="45.76957" lon="4.63657">
        <ele>710.4</ele>
        <time>2020-06-15T12:53:39.000Z</time>
      </trkpt>
      <trkpt lat="45.7695" lon="4.63648">
        <ele>711</ele>
        <time>2020-06-15T12:53:44.000Z</time>
      </trkpt>
      <trkpt lat="45.76948" lon="4.63646">
        <ele>711.1</ele>
        <time>2020-06-15T12:53:45.000Z</time>
      </trkpt>
      <trkpt lat="45.7694" lon="4.63632">
        <ele>711.9</ele>
        <time>2020-06-15T12:53:53.000Z</time>
      </trkpt>
      <trkpt lat="45.76935" lon="4.63624">
        <ele>712.3</ele>
        <time>2020-06-15T12:53:59.000Z</time>
      </trkpt>
      <trkpt lat="45.76934" lon="4.63623">
        <ele>712.4</ele>
        <time>2020-06-15T12:54:05.000Z</time>
      </trkpt>
      <trkpt lat="45.76934" lon="4.63623">
        <ele>712.4</ele>
        <time>2020-06-15T12:54:17.000Z</time>
      </trkpt>
      <trkpt lat="45.76934" lon="4.63623">
        <ele>712.4</ele>
        <time>2020-06-15T12:54:31.000Z</time>
      </trkpt>
      <trkpt lat="45.76934" lon="4.63624">
        <ele>712.4</ele>
        <time>2020-06-15T12:54:44.000Z</time>
      </trkpt>
      <trkpt lat="45.76934" lon="4.63624">
        <ele>712.4</ele>
        <time>2020-06-15T12:55:02.000Z</time>
      </trkpt>
      <trkpt lat="45.76934" lon="4.63624">
        <ele>712.4</ele>
        <time>2020-06-15T12:55:17.000Z</time>
      </trkpt>
      <trkpt lat="45.76934" lon="4.63626">
        <ele>712.4</ele>
        <time>2020-06-15T12:55:34.000Z</time>
      </trkpt>
      <trkpt lat="45.76933" lon="4.63622">
        <ele>712.6</ele>
        <time>2020-06-15T12:55:40.000Z</time>
      </trkpt>
      <trkpt lat="45.76933" lon="4.63622">
        <ele>712.6</ele>
        <time>2020-06-15T12:55:49.000Z</time>
      </trkpt>
      <trkpt lat="45.76933" lon="4.63622">
        <ele>712.6</ele>
        <time>2020-06-15T12:56:09.000Z</time>
      </trkpt>
      <trkpt lat="45.76931" lon="4.63621">
        <ele>712.6</ele>
        <time>2020-06-15T12:56:31.000Z</time>
      </trkpt>
      <trkpt lat="45.76931" lon="4.63621">
        <ele>712.6</ele>
        <time>2020-06-15T12:56:57.000Z</time>
      </trkpt>
      <trkpt lat="45.76931" lon="4.63621">
        <ele>712.6</ele>
        <time>2020-06-15T12:57:18.000Z</time>
      </trkpt>
      <trkpt lat="45.76931" lon="4.63621">
        <ele>712.6</ele>
        <time>2020-06-15T12:57:37.000Z</time>
      </trkpt>
      <trkpt lat="45.76931" lon="4.63621">
        <ele>712.6</ele>
        <time>2020-06-15T12:57:55.000Z</time>
      </trkpt>
      <trkpt lat="45.76931" lon="4.63621">
        <ele>712.6</ele>
        <time>2020-06-15T12:58:13.000Z</time>
      </trkpt>
      <trkpt lat="45.76931" lon="4.6362">
        <ele>712.6</ele>
        <time>2020-06-15T12:58:24.000Z</time>
      </trkpt>
      <trkpt lat="45.76931" lon="4.6362">
        <ele>712.6</ele>
        <time>2020-06-15T12:58:40.000Z</time>
      </trkpt>
      <trkpt lat="45.76931" lon="4.6362">
        <ele>712.6</ele>
        <time>2020-06-15T12:58:55.000Z</time>
      </trkpt>
      <trkpt lat="45.76931" lon="4.63621">
        <ele>712.6</ele>
        <time>2020-06-15T12:59:10.000Z</time>
      </trkpt>
      <trkpt lat="45.76929" lon="4.63617">
        <ele>712.7</ele>
        <time>2020-06-15T12:59:19.000Z</time>
      </trkpt>
      <trkpt lat="45.76923" lon="4.63604">
        <ele>712.7</ele>
        <time>2020-06-15T12:59:24.000Z</time>
      </trkpt>
      <trkpt lat="45.76918" lon="4.63596">
        <ele>712.7</ele>
        <time>2020-06-15T12:59:27.000Z</time>
      </trkpt>
      <trkpt lat="45.76917" lon="4.63593">
        <ele>712.7</ele>
        <time>2020-06-15T12:59:28.000Z</time>
      </trkpt>
      <trkpt lat="45.76909" lon="4.63582">
        <ele>712.9</ele>
        <time>2020-06-15T12:59:33.000Z</time>
      </trkpt>
      <trkpt lat="45.769" lon="4.63562">
        <ele>713.1</ele>
        <time>2020-06-15T12:59:38.000Z</time>
      </trkpt>
      <trkpt lat="45.76898" lon="4.63557">
        <ele>713.2</ele>
        <time>2020-06-15T12:59:40.000Z</time>
      </trkpt>
      <trkpt lat="45.76895" lon="4.63552">
        <ele>713.3</ele>
        <time>2020-06-15T12:59:42.000Z</time>
      </trkpt>
      <trkpt lat="45.76894" lon="4.63549">
        <ele>713.4</ele>
        <time>2020-06-15T12:59:43.000Z</time>
      </trkpt>
      <trkpt lat="45.76891" lon="4.63542">
        <ele>713.6</ele>
        <time>2020-06-15T12:59:45.000Z</time>
      </trkpt>
      <trkpt lat="45.76888" lon="4.63535">
        <ele>713.8</ele>
        <time>2020-06-15T12:59:47.000Z</time>
      </trkpt>
      <trkpt lat="45.76886" lon="4.63533">
        <ele>713.9</ele>
        <time>2020-06-15T12:59:48.000Z</time>
      </trkpt>
      <trkpt lat="45.76884" lon="4.63528">
        <ele>714.1</ele>
        <time>2020-06-15T12:59:50.000Z</time>
      </trkpt>
      <trkpt lat="45.76882" lon="4.63526">
        <ele>714.3</ele>
        <time>2020-06-15T12:59:51.000Z</time>
      </trkpt>
      <trkpt lat="45.76877" lon="4.63512">
        <ele>714.9</ele>
        <time>2020-06-15T12:59:55.000Z</time>
      </trkpt>
      <trkpt lat="45.7687" lon="4.63495">
        <ele>715.6</ele>
        <time>2020-06-15T13:00:00.000Z</time>
      </trkpt>
      <trkpt lat="45.76863" lon="4.63481">
        <ele>716.2</ele>
        <time>2020-06-15T13:00:05.000Z</time>
      </trkpt>
      <trkpt lat="45.76857" lon="4.63463">
        <ele>716.9</ele>
        <time>2020-06-15T13:00:11.000Z</time>
      </trkpt>
      <trkpt lat="45.76853" lon="4.63449">
        <ele>717.4</ele>
        <time>2020-06-15T13:00:16.000Z</time>
      </trkpt>
      <trkpt lat="45.76847" lon="4.63433">
        <ele>718.1</ele>
        <time>2020-06-15T13:00:21.000Z</time>
      </trkpt>
      <trkpt lat="45.76845" lon="4.63426">
        <ele>718.4</ele>
        <time>2020-06-15T13:00:23.000Z</time>
      </trkpt>
      <trkpt lat="45.76844" lon="4.63419">
        <ele>718.7</ele>
        <time>2020-06-15T13:00:26.000Z</time>
      </trkpt>
      <trkpt lat="45.76843" lon="4.63414">
        <ele>719</ele>
        <time>2020-06-15T13:00:28.000Z</time>
      </trkpt>
      <trkpt lat="45.7684" lon="4.63405">
        <ele>719.4</ele>
        <time>2020-06-15T13:00:31.000Z</time>
      </trkpt>
      <trkpt lat="45.76832" lon="4.63387">
        <ele>720.3</ele>
        <time>2020-06-15T13:00:37.000Z</time>
      </trkpt>
      <trkpt lat="45.76823" lon="4.63373">
        <ele>721.2</ele>
        <time>2020-06-15T13:00:42.000Z</time>
      </trkpt>
      <trkpt lat="45.76821" lon="4.63371">
        <ele>721.4</ele>
        <time>2020-06-15T13:00:43.000Z</time>
      </trkpt>
      <trkpt lat="45.76816" lon="4.63359">
        <ele>722.1</ele>
        <time>2020-06-15T13:00:48.000Z</time>
      </trkpt>
      <trkpt lat="45.76814" lon="4.63354">
        <ele>722.3</ele>
        <time>2020-06-15T13:00:50.000Z</time>
      </trkpt>
      <trkpt lat="45.7681" lon="4.6335">
        <ele>722.6</ele>
        <time>2020-06-15T13:00:53.000Z</time>
      </trkpt>
      <trkpt lat="45.76799" lon="4.63333">
        <ele>722.8</ele>
        <time>2020-06-15T13:00:59.000Z</time>
      </trkpt>
      <trkpt lat="45.76787" lon="4.63314">
        <ele>723</ele>
        <time>2020-06-15T13:01:04.000Z</time>
      </trkpt>
      <trkpt lat="45.76777" lon="4.63296">
        <ele>723.4</ele>
        <time>2020-06-15T13:01:09.000Z</time>
      </trkpt>
      <trkpt lat="45.76771" lon="4.63281">
        <ele>724.1</ele>
        <time>2020-06-15T13:01:14.000Z</time>
      </trkpt>
      <trkpt lat="45.76764" lon="4.63266">
        <ele>724.9</ele>
        <time>2020-06-15T13:01:19.000Z</time>
      </trkpt>
      <trkpt lat="45.76758" lon="4.63253">
        <ele>725.7</ele>
        <time>2020-06-15T13:01:25.000Z</time>
      </trkpt>
      <trkpt lat="45.7675" lon="4.63236">
        <ele>726.7</ele>
        <time>2020-06-15T13:01:31.000Z</time>
      </trkpt>
      <trkpt lat="45.76747" lon="4.63232">
        <ele>727</ele>
        <time>2020-06-15T13:01:33.000Z</time>
      </trkpt>
      <trkpt lat="45.76742" lon="4.63223">
        <ele>727.3</ele>
        <time>2020-06-15T13:01:36.000Z</time>
      </trkpt>
      <trkpt lat="45.76729" lon="4.63202">
        <ele>727.5</ele>
        <time>2020-06-15T13:01:43.000Z</time>
      </trkpt>
      <trkpt lat="45.76718" lon="4.63183">
        <ele>727.2</ele>
        <time>2020-06-15T13:01:49.000Z</time>
      </trkpt>
      <trkpt lat="45.76703" lon="4.63164">
        <ele>726.5</ele>
        <time>2020-06-15T13:01:54.000Z</time>
      </trkpt>
      <trkpt lat="45.76696" lon="4.63153">
        <ele>726</ele>
        <time>2020-06-15T13:01:57.000Z</time>
      </trkpt>
      <trkpt lat="45.76686" lon="4.63139">
        <ele>725.4</ele>
        <time>2020-06-15T13:02:01.000Z</time>
      </trkpt>
      <trkpt lat="45.76664" lon="4.6312">
        <ele>724.6</ele>
        <time>2020-06-15T13:02:06.000Z</time>
      </trkpt>
      <trkpt lat="45.7666" lon="4.63115">
        <ele>724.6</ele>
        <time>2020-06-15T13:02:07.000Z</time>
      </trkpt>
      <trkpt lat="45.76652" lon="4.6311">
        <ele>724.6</ele>
        <time>2020-06-15T13:02:09.000Z</time>
      </trkpt>
      <trkpt lat="45.76637" lon="4.63101">
        <ele>724.9</ele>
        <time>2020-06-15T13:02:13.000Z</time>
      </trkpt>
      <trkpt lat="45.76625" lon="4.63092">
        <ele>725.5</ele>
        <time>2020-06-15T13:02:17.000Z</time>
      </trkpt>
      <trkpt lat="45.76623" lon="4.63092">
        <ele>725.7</ele>
        <time>2020-06-15T13:02:18.000Z</time>
      </trkpt>
      <trkpt lat="45.76612" lon="4.63088">
        <ele>726.4</ele>
        <time>2020-06-15T13:02:22.000Z</time>
      </trkpt>
      <trkpt lat="45.76601" lon="4.63082">
        <ele>727.1</ele>
        <time>2020-06-15T13:02:27.000Z</time>
      </trkpt>
      <trkpt lat="45.76588" lon="4.63077">
        <ele>727.7</ele>
        <time>2020-06-15T13:02:32.000Z</time>
      </trkpt>
      <trkpt lat="45.76575" lon="4.63076">
        <ele>727.7</ele>
        <time>2020-06-15T13:02:36.000Z</time>
      </trkpt>
      <trkpt lat="45.76571" lon="4.63076">
        <ele>727.6</ele>
        <time>2020-06-15T13:02:37.000Z</time>
      </trkpt>
      <trkpt lat="45.76562" lon="4.63079">
        <ele>727.4</ele>
        <time>2020-06-15T13:02:39.000Z</time>
      </trkpt>
      <trkpt lat="45.76554" lon="4.63081">
        <ele>727.2</ele>
        <time>2020-06-15T13:02:41.000Z</time>
      </trkpt>
      <trkpt lat="45.76548" lon="4.63078">
        <ele>727</ele>
        <time>2020-06-15T13:02:43.000Z</time>
      </trkpt>
      <trkpt lat="45.76539" lon="4.63077">
        <ele>726.9</ele>
        <time>2020-06-15T13:02:47.000Z</time>
      </trkpt>
      <trkpt lat="45.76529" lon="4.63076">
        <ele>726.8</ele>
        <time>2020-06-15T13:02:51.000Z</time>
      </trkpt>
      <trkpt lat="45.76526" lon="4.63076">
        <ele>726.8</ele>
        <time>2020-06-15T13:02:52.000Z</time>
      </trkpt>
      <trkpt lat="45.7652" lon="4.6308">
        <ele>726.8</ele>
        <time>2020-06-15T13:02:54.000Z</time>
      </trkpt>
      <trkpt lat="45.76517" lon="4.6308">
        <ele>726.9</ele>
        <time>2020-06-15T13:02:55.000Z</time>
      </trkpt>
      <trkpt lat="45.76509" lon="4.63078">
        <ele>727</ele>
        <time>2020-06-15T13:02:57.000Z</time>
      </trkpt>
      <trkpt lat="45.76486" lon="4.63076">
        <ele>727.3</ele>
        <time>2020-06-15T13:03:02.000Z</time>
      </trkpt>
      <trkpt lat="45.76465" lon="4.63071">
        <ele>728.1</ele>
        <time>2020-06-15T13:03:07.000Z</time>
      </trkpt>
      <trkpt lat="45.76447" lon="4.63066">
        <ele>729</ele>
        <time>2020-06-15T13:03:12.000Z</time>
      </trkpt>
      <trkpt lat="45.7643" lon="4.63054">
        <ele>729.3</ele>
        <time>2020-06-15T13:03:18.000Z</time>
      </trkpt>
      <trkpt lat="45.76426" lon="4.63049">
        <ele>729.3</ele>
        <time>2020-06-15T13:03:20.000Z</time>
      </trkpt>
      <trkpt lat="45.76419" lon="4.63042">
        <ele>729.4</ele>
        <time>2020-06-15T13:03:23.000Z</time>
      </trkpt>
      <trkpt lat="45.764" lon="4.63027">
        <ele>728.9</ele>
        <time>2020-06-15T13:03:28.000Z</time>
      </trkpt>
      <trkpt lat="45.76391" lon="4.63019">
        <ele>728.2</ele>
        <time>2020-06-15T13:03:30.000Z</time>
      </trkpt>
      <trkpt lat="45.76376" lon="4.63005">
        <ele>727</ele>
        <time>2020-06-15T13:03:33.000Z</time>
      </trkpt>
      <trkpt lat="45.7637" lon="4.63001">
        <ele>726.6</ele>
        <time>2020-06-15T13:03:34.000Z</time>
      </trkpt>
      <trkpt lat="45.76348" lon="4.62982">
        <ele>725.4</ele>
        <time>2020-06-15T13:03:38.000Z</time>
      </trkpt>
      <trkpt lat="45.76343" lon="4.62977">
        <ele>725</ele>
        <time>2020-06-15T13:03:39.000Z</time>
      </trkpt>
      <trkpt lat="45.76326" lon="4.62965">
        <ele>723.4</ele>
        <time>2020-06-15T13:03:42.000Z</time>
      </trkpt>
      <trkpt lat="45.76314" lon="4.62952">
        <ele>721.9</ele>
        <time>2020-06-15T13:03:44.000Z</time>
      </trkpt>
      <trkpt lat="45.76307" lon="4.62948">
        <ele>721.3</ele>
        <time>2020-06-15T13:03:45.000Z</time>
      </trkpt>
      <trkpt lat="45.76301" lon="4.62945">
        <ele>720.9</ele>
        <time>2020-06-15T13:03:46.000Z</time>
      </trkpt>
      <trkpt lat="45.76295" lon="4.62934">
        <ele>720.1</ele>
        <time>2020-06-15T13:03:48.000Z</time>
      </trkpt>
      <trkpt lat="45.76289" lon="4.62913">
        <ele>717.9</ele>
        <time>2020-06-15T13:03:51.000Z</time>
      </trkpt>
      <trkpt lat="45.76283" lon="4.62891">
        <ele>715.8</ele>
        <time>2020-06-15T13:03:55.000Z</time>
      </trkpt>
      <trkpt lat="45.76272" lon="4.62874">
        <ele>718.7</ele>
        <time>2020-06-15T13:04:00.000Z</time>
      </trkpt>
      <trkpt lat="45.76259" lon="4.62869">
        <ele>719.8</ele>
        <time>2020-06-15T13:04:05.000Z</time>
      </trkpt>
      <trkpt lat="45.76248" lon="4.6287">
        <ele>720</ele>
        <time>2020-06-15T13:04:09.000Z</time>
      </trkpt>
      <trkpt lat="45.76235" lon="4.6287">
        <ele>720.4</ele>
        <time>2020-06-15T13:04:14.000Z</time>
      </trkpt>
      <trkpt lat="45.76214" lon="4.6287">
        <ele>720.9</ele>
        <time>2020-06-15T13:04:20.000Z</time>
      </trkpt>
      <trkpt lat="45.76198" lon="4.62862">
        <ele>721.2</ele>
        <time>2020-06-15T13:04:25.000Z</time>
      </trkpt>
      <trkpt lat="45.76183" lon="4.62848">
        <ele>721.3</ele>
        <time>2020-06-15T13:04:31.000Z</time>
      </trkpt>
      <trkpt lat="45.76173" lon="4.62833">
        <ele>722</ele>
        <time>2020-06-15T13:04:36.000Z</time>
      </trkpt>
      <trkpt lat="45.76157" lon="4.62799">
        <ele>723.3</ele>
        <time>2020-06-15T13:04:45.000Z</time>
      </trkpt>
      <trkpt lat="45.7615" lon="4.62783">
        <ele>724</ele>
        <time>2020-06-15T13:04:50.000Z</time>
      </trkpt>
      <trkpt lat="45.76138" lon="4.62765">
        <ele>724.8</ele>
        <time>2020-06-15T13:04:57.000Z</time>
      </trkpt>
      <trkpt lat="45.76124" lon="4.62755">
        <ele>725.8</ele>
        <time>2020-06-15T13:05:04.000Z</time>
      </trkpt>
      <trkpt lat="45.76106" lon="4.62758">
        <ele>727</ele>
        <time>2020-06-15T13:05:12.000Z</time>
      </trkpt>
      <trkpt lat="45.76095" lon="4.62773">
        <ele>727.7</ele>
        <time>2020-06-15T13:05:18.000Z</time>
      </trkpt>
      <trkpt lat="45.76087" lon="4.62793">
        <ele>728.5</ele>
        <time>2020-06-15T13:05:25.000Z</time>
      </trkpt>
      <trkpt lat="45.76082" lon="4.62808">
        <ele>729.2</ele>
        <time>2020-06-15T13:05:31.000Z</time>
      </trkpt>
      <trkpt lat="45.76069" lon="4.62826">
        <ele>730.2</ele>
        <time>2020-06-15T13:05:39.000Z</time>
      </trkpt>
      <trkpt lat="45.76057" lon="4.62841">
        <ele>731.2</ele>
        <time>2020-06-15T13:05:46.000Z</time>
      </trkpt>
      <trkpt lat="45.76052" lon="4.62845">
        <ele>731.7</ele>
        <time>2020-06-15T13:05:49.000Z</time>
      </trkpt>
      <trkpt lat="45.7605" lon="4.62843">
        <ele>731.8</ele>
        <time>2020-06-15T13:05:50.000Z</time>
      </trkpt>
      <trkpt lat="45.76051" lon="4.62832">
        <ele>732.4</ele>
        <time>2020-06-15T13:05:54.000Z</time>
      </trkpt>
      <trkpt lat="45.76059" lon="4.62821">
        <ele>733.1</ele>
        <time>2020-06-15T13:05:59.000Z</time>
      </trkpt>
      <trkpt lat="45.76067" lon="4.628">
        <ele>734</ele>
        <time>2020-06-15T13:06:06.000Z</time>
      </trkpt>
      <trkpt lat="45.7607" lon="4.62772">
        <ele>734.9</ele>
        <time>2020-06-15T13:06:15.000Z</time>
      </trkpt>
      <trkpt lat="45.76068" lon="4.62751">
        <ele>735.6</ele>
        <time>2020-06-15T13:06:22.000Z</time>
      </trkpt>
      <trkpt lat="45.76065" lon="4.62727">
        <ele>736.6</ele>
        <time>2020-06-15T13:06:30.000Z</time>
      </trkpt>
      <trkpt lat="45.76066" lon="4.62709">
        <ele>737.4</ele>
        <time>2020-06-15T13:06:36.000Z</time>
      </trkpt>
      <trkpt lat="45.76076" lon="4.62692">
        <ele>738.3</ele>
        <time>2020-06-15T13:06:43.000Z</time>
      </trkpt>
      <trkpt lat="45.76092" lon="4.62683">
        <ele>739.2</ele>
        <time>2020-06-15T13:06:51.000Z</time>
      </trkpt>
      <trkpt lat="45.76103" lon="4.6268">
        <ele>739.9</ele>
        <time>2020-06-15T13:06:56.000Z</time>
      </trkpt>
      <trkpt lat="45.76116" lon="4.62677">
        <ele>740.6</ele>
        <time>2020-06-15T13:07:02.000Z</time>
      </trkpt>
      <trkpt lat="45.76134" lon="4.62677">
        <ele>741.6</ele>
        <time>2020-06-15T13:07:10.000Z</time>
      </trkpt>
      <trkpt lat="45.76145" lon="4.62671">
        <ele>742.4</ele>
        <time>2020-06-15T13:07:15.000Z</time>
      </trkpt>
      <trkpt lat="45.76145" lon="4.62669">
        <ele>742.5</ele>
        <time>2020-06-15T13:07:16.000Z</time>
      </trkpt>
      <trkpt lat="45.76143" lon="4.62664">
        <ele>742.7</ele>
        <time>2020-06-15T13:07:18.000Z</time>
      </trkpt>
      <trkpt lat="45.76142" lon="4.62662">
        <ele>742.9</ele>
        <time>2020-06-15T13:07:19.000Z</time>
      </trkpt>
      <trkpt lat="45.7614" lon="4.62661">
        <ele>743</ele>
        <time>2020-06-15T13:07:20.000Z</time>
      </trkpt>
      <trkpt lat="45.76135" lon="4.62663">
        <ele>743.3</ele>
        <time>2020-06-15T13:07:23.000Z</time>
      </trkpt>
      <trkpt lat="45.7612" lon="4.62665">
        <ele>744.3</ele>
        <time>2020-06-15T13:07:30.000Z</time>
      </trkpt>
      <trkpt lat="45.76105" lon="4.62667">
        <ele>745.1</ele>
        <time>2020-06-15T13:07:37.000Z</time>
      </trkpt>
      <trkpt lat="45.76092" lon="4.62667">
        <ele>745.7</ele>
        <time>2020-06-15T13:07:43.000Z</time>
      </trkpt>
      <trkpt lat="45.76077" lon="4.62663">
        <ele>746.5</ele>
        <time>2020-06-15T13:07:50.000Z</time>
      </trkpt>
      <trkpt lat="45.76063" lon="4.62656">
        <ele>747.5</ele>
        <time>2020-06-15T13:07:57.000Z</time>
      </trkpt>
      <trkpt lat="45.76055" lon="4.62652">
        <ele>748.1</ele>
        <time>2020-06-15T13:08:01.000Z</time>
      </trkpt>
      <trkpt lat="45.76044" lon="4.62657">
        <ele>748.8</ele>
        <time>2020-06-15T13:08:06.000Z</time>
      </trkpt>
      <trkpt lat="45.76041" lon="4.6266">
        <ele>749</ele>
        <time>2020-06-15T13:08:08.000Z</time>
      </trkpt>
      <trkpt lat="45.7604" lon="4.62664">
        <ele>749.1</ele>
        <time>2020-06-15T13:08:10.000Z</time>
      </trkpt>
      <trkpt lat="45.76029" lon="4.62683">
        <ele>750</ele>
        <time>2020-06-15T13:08:18.000Z</time>
      </trkpt>
      <trkpt lat="45.76021" lon="4.627">
        <ele>750.8</ele>
        <time>2020-06-15T13:08:24.000Z</time>
      </trkpt>
      <trkpt lat="45.76017" lon="4.62715">
        <ele>751.3</ele>
        <time>2020-06-15T13:08:29.000Z</time>
      </trkpt>
      <trkpt lat="45.76011" lon="4.62734">
        <ele>752</ele>
        <time>2020-06-15T13:08:35.000Z</time>
      </trkpt>
      <trkpt lat="45.76008" lon="4.62752">
        <ele>752.6</ele>
        <time>2020-06-15T13:08:40.000Z</time>
      </trkpt>
      <trkpt lat="45.76007" lon="4.62755">
        <ele>752.7</ele>
        <time>2020-06-15T13:08:41.000Z</time>
      </trkpt>
      <trkpt lat="45.76004" lon="4.62761">
        <ele>752.9</ele>
        <time>2020-06-15T13:08:43.000Z</time>
      </trkpt>
      <trkpt lat="45.76001" lon="4.62763">
        <ele>753.1</ele>
        <time>2020-06-15T13:08:44.000Z</time>
      </trkpt>
      <trkpt lat="45.75986" lon="4.62778">
        <ele>753.9</ele>
        <time>2020-06-15T13:08:50.000Z</time>
      </trkpt>
      <trkpt lat="45.75974" lon="4.62796">
        <ele>754.6</ele>
        <time>2020-06-15T13:08:57.000Z</time>
      </trkpt>
      <trkpt lat="45.75954" lon="4.6281">
        <ele>755.5</ele>
        <time>2020-06-15T13:09:05.000Z</time>
      </trkpt>
      <trkpt lat="45.75935" lon="4.62819">
        <ele>756.1</ele>
        <time>2020-06-15T13:09:12.000Z</time>
      </trkpt>
      <trkpt lat="45.75918" lon="4.62822">
        <ele>756.3</ele>
        <time>2020-06-15T13:09:18.000Z</time>
      </trkpt>
      <trkpt lat="45.75903" lon="4.62824">
        <ele>756.4</ele>
        <time>2020-06-15T13:09:23.000Z</time>
      </trkpt>
      <trkpt lat="45.75888" lon="4.62821">
        <ele>756.5</ele>
        <time>2020-06-15T13:09:28.000Z</time>
      </trkpt>
      <trkpt lat="45.7587" lon="4.62818">
        <ele>756.6</ele>
        <time>2020-06-15T13:09:34.000Z</time>
      </trkpt>
      <trkpt lat="45.75854" lon="4.62816">
        <ele>756.7</ele>
        <time>2020-06-15T13:09:40.000Z</time>
      </trkpt>
      <trkpt lat="45.75835" lon="4.62813">
        <ele>756.9</ele>
        <time>2020-06-15T13:09:46.000Z</time>
      </trkpt>
      <trkpt lat="45.7582" lon="4.62809">
        <ele>756.9</ele>
        <time>2020-06-15T13:09:51.000Z</time>
      </trkpt>
      <trkpt lat="45.75802" lon="4.62802">
        <ele>756.9</ele>
        <time>2020-06-15T13:09:57.000Z</time>
      </trkpt>
      <trkpt lat="45.75784" lon="4.62795">
        <ele>757</ele>
        <time>2020-06-15T13:10:04.000Z</time>
      </trkpt>
      <trkpt lat="45.75762" lon="4.62777">
        <ele>757.3</ele>
        <time>2020-06-15T13:10:13.000Z</time>
      </trkpt>
      <trkpt lat="45.75747" lon="4.6276">
        <ele>757.6</ele>
        <time>2020-06-15T13:10:20.000Z</time>
      </trkpt>
      <trkpt lat="45.75735" lon="4.62737">
        <ele>758.2</ele>
        <time>2020-06-15T13:10:28.000Z</time>
      </trkpt>
      <trkpt lat="45.75729" lon="4.62718">
        <ele>758.8</ele>
        <time>2020-06-15T13:10:34.000Z</time>
      </trkpt>
      <trkpt lat="45.75724" lon="4.62698">
        <ele>759.3</ele>
        <time>2020-06-15T13:10:40.000Z</time>
      </trkpt>
      <trkpt lat="45.7572" lon="4.62675">
        <ele>759.8</ele>
        <time>2020-06-15T13:10:47.000Z</time>
      </trkpt>
      <trkpt lat="45.75716" lon="4.62648">
        <ele>760.5</ele>
        <time>2020-06-15T13:10:55.000Z</time>
      </trkpt>
      <trkpt lat="45.75714" lon="4.62633">
        <ele>760.8</ele>
        <time>2020-06-15T13:11:02.000Z</time>
      </trkpt>
      <trkpt lat="45.75714" lon="4.62633">
        <ele>760.8</ele>
        <time>2020-06-15T13:11:16.000Z</time>
      </trkpt>
      <trkpt lat="45.75714" lon="4.62633">
        <ele>760.8</ele>
        <time>2020-06-15T13:11:25.000Z</time>
      </trkpt>
      <trkpt lat="45.75714" lon="4.62633">
        <ele>760.8</ele>
        <time>2020-06-15T13:11:32.000Z</time>
      </trkpt>
      <trkpt lat="45.75714" lon="4.62633">
        <ele>760.8</ele>
        <time>2020-06-15T13:11:46.000Z</time>
      </trkpt>
      <trkpt lat="45.75714" lon="4.62634">
        <ele>760.9</ele>
        <time>2020-06-15T13:12:01.000Z</time>
      </trkpt>
      <trkpt lat="45.75714" lon="4.62634">
        <ele>760.9</ele>
        <time>2020-06-15T13:12:09.000Z</time>
      </trkpt>
      <trkpt lat="45.75714" lon="4.62634">
        <ele>760.9</ele>
        <time>2020-06-15T13:12:16.000Z</time>
      </trkpt>
      <trkpt lat="45.75714" lon="4.62634">
        <ele>760.9</ele>
        <time>2020-06-15T13:12:25.000Z</time>
      </trkpt>
      <trkpt lat="45.75714" lon="4.62634">
        <ele>760.9</ele>
        <time>2020-06-15T13:12:41.000Z</time>
      </trkpt>
      <trkpt lat="45.75715" lon="4.62634">
        <ele>760.9</ele>
        <time>2020-06-15T13:12:59.000Z</time>
      </trkpt>
      <trkpt lat="45.75715" lon="4.62634">
        <ele>760.9</ele>
        <time>2020-06-15T13:13:11.000Z</time>
      </trkpt>
      <trkpt lat="45.75715" lon="4.62634">
        <ele>760.9</ele>
        <time>2020-06-15T13:13:31.000Z</time>
      </trkpt>
      <trkpt lat="45.75714" lon="4.62635">
        <ele>760.9</ele>
        <time>2020-06-15T13:13:42.000Z</time>
      </trkpt>
      <trkpt lat="45.75714" lon="4.62635">
        <ele>760.9</ele>
        <time>2020-06-15T13:13:56.000Z</time>
      </trkpt>
      <trkpt lat="45.75714" lon="4.62635">
        <ele>760.9</ele>
        <time>2020-06-15T13:14:12.000Z</time>
      </trkpt>
      <trkpt lat="45.75715" lon="4.62634">
        <ele>760.9</ele>
        <time>2020-06-15T13:14:29.000Z</time>
      </trkpt>
      <trkpt lat="45.75715" lon="4.62634">
        <ele>760.9</ele>
        <time>2020-06-15T13:14:43.000Z</time>
      </trkpt>
      <trkpt lat="45.75715" lon="4.62634">
        <ele>760.9</ele>
        <time>2020-06-15T13:14:55.000Z</time>
      </trkpt>
      <trkpt lat="45.75708" lon="4.62639">
        <ele>761.1</ele>
        <time>2020-06-15T13:14:58.000Z</time>
      </trkpt>
      <trkpt lat="45.75706" lon="4.6264">
        <ele>761.2</ele>
        <time>2020-06-15T13:14:59.000Z</time>
      </trkpt>
      <trkpt lat="45.75701" lon="4.62637">
        <ele>761.3</ele>
        <time>2020-06-15T13:15:01.000Z</time>
      </trkpt>
      <trkpt lat="45.75692" lon="4.62626">
        <ele>761.6</ele>
        <time>2020-06-15T13:15:05.000Z</time>
      </trkpt>
      <trkpt lat="45.75691" lon="4.62635">
        <ele>761.7</ele>
        <time>2020-06-15T13:15:08.000Z</time>
      </trkpt>
      <trkpt lat="45.75691" lon="4.62649">
        <ele>761.4</ele>
        <time>2020-06-15T13:15:12.000Z</time>
      </trkpt>
      <trkpt lat="45.75691" lon="4.62663">
        <ele>761.1</ele>
        <time>2020-06-15T13:15:15.000Z</time>
      </trkpt>
      <trkpt lat="45.75695" lon="4.62682">
        <ele>760.6</ele>
        <time>2020-06-15T13:15:19.000Z</time>
      </trkpt>
      <trkpt lat="45.75697" lon="4.62705">
        <ele>760</ele>
        <time>2020-06-15T13:15:24.000Z</time>
      </trkpt>
      <trkpt lat="45.75698" lon="4.62709">
        <ele>759.9</ele>
        <time>2020-06-15T13:15:25.000Z</time>
      </trkpt>
      <trkpt lat="45.75698" lon="4.6272">
        <ele>759.6</ele>
        <time>2020-06-15T13:15:27.000Z</time>
      </trkpt>
      <trkpt lat="45.75699" lon="4.62725">
        <ele>759.5</ele>
        <time>2020-06-15T13:15:28.000Z</time>
      </trkpt>
      <trkpt lat="45.75703" lon="4.62733">
        <ele>759.3</ele>
        <time>2020-06-15T13:15:30.000Z</time>
      </trkpt>
      <trkpt lat="45.75703" lon="4.62738">
        <ele>759.1</ele>
        <time>2020-06-15T13:15:31.000Z</time>
      </trkpt>
      <trkpt lat="45.75704" lon="4.62743">
        <ele>759</ele>
        <time>2020-06-15T13:15:32.000Z</time>
      </trkpt>
      <trkpt lat="45.75707" lon="4.62752">
        <ele>758.7</ele>
        <time>2020-06-15T13:15:34.000Z</time>
      </trkpt>
      <trkpt lat="45.75709" lon="4.62762">
        <ele>758.4</ele>
        <time>2020-06-15T13:15:36.000Z</time>
      </trkpt>
      <trkpt lat="45.75712" lon="4.62767">
        <ele>758.2</ele>
        <time>2020-06-15T13:15:38.000Z</time>
      </trkpt>
      <trkpt lat="45.75719" lon="4.62778">
        <ele>757.1</ele>
        <time>2020-06-15T13:15:42.000Z</time>
      </trkpt>
      <trkpt lat="45.75724" lon="4.62786">
        <ele>755.6</ele>
        <time>2020-06-15T13:15:44.000Z</time>
      </trkpt>
      <trkpt lat="45.75726" lon="4.62791">
        <ele>754.8</ele>
        <time>2020-06-15T13:15:45.000Z</time>
      </trkpt>
      <trkpt lat="45.75738" lon="4.62807">
        <ele>753.6</ele>
        <time>2020-06-15T13:15:49.000Z</time>
      </trkpt>
      <trkpt lat="45.75742" lon="4.62813">
        <ele>751.8</ele>
        <time>2020-06-15T13:15:51.000Z</time>
      </trkpt>
      <trkpt lat="45.75742" lon="4.62817">
        <ele>750.4</ele>
        <time>2020-06-15T13:15:52.000Z</time>
      </trkpt>
      <trkpt lat="45.75743" lon="4.62821">
        <ele>748.9</ele>
        <time>2020-06-15T13:15:53.000Z</time>
      </trkpt>
      <trkpt lat="45.7575" lon="4.6283">
        <ele>747.9</ele>
        <time>2020-06-15T13:15:55.000Z</time>
      </trkpt>
      <trkpt lat="45.75763" lon="4.62847">
        <ele>745.2</ele>
        <time>2020-06-15T13:15:59.000Z</time>
      </trkpt>
      <trkpt lat="45.75767" lon="4.62852">
        <ele>744.2</ele>
        <time>2020-06-15T13:16:01.000Z</time>
      </trkpt>
      <trkpt lat="45.75767" lon="4.62855">
        <ele>742.7</ele>
        <time>2020-06-15T13:16:02.000Z</time>
      </trkpt>
      <trkpt lat="45.75764" lon="4.62862">
        <ele>740.7</ele>
        <time>2020-06-15T13:16:05.000Z</time>
      </trkpt>
      <trkpt lat="45.75764" lon="4.62865">
        <ele>739.6</ele>
        <time>2020-06-15T13:16:06.000Z</time>
      </trkpt>
      <trkpt lat="45.75766" lon="4.62868">
        <ele>739</ele>
        <time>2020-06-15T13:16:07.000Z</time>
      </trkpt>
      <trkpt lat="45.75771" lon="4.62873">
        <ele>737.2</ele>
        <time>2020-06-15T13:16:09.000Z</time>
      </trkpt>
      <trkpt lat="45.75776" lon="4.62879">
        <ele>736</ele>
        <time>2020-06-15T13:16:11.000Z</time>
      </trkpt>
      <trkpt lat="45.75776" lon="4.62882">
        <ele>734.3</ele>
        <time>2020-06-15T13:16:12.000Z</time>
      </trkpt>
      <trkpt lat="45.75773" lon="4.62889">
        <ele>732.1</ele>
        <time>2020-06-15T13:16:15.000Z</time>
      </trkpt>
      <trkpt lat="45.75776" lon="4.62893">
        <ele>730.9</ele>
        <time>2020-06-15T13:16:18.000Z</time>
      </trkpt>
      <trkpt lat="45.75782" lon="4.62895">
        <ele>730.2</ele>
        <time>2020-06-15T13:16:22.000Z</time>
      </trkpt>
      <trkpt lat="45.75783" lon="4.62897">
        <ele>730.2</ele>
        <time>2020-06-15T13:16:23.000Z</time>
      </trkpt>
      <trkpt lat="45.75783" lon="4.62904">
        <ele>727.5</ele>
        <time>2020-06-15T13:16:25.000Z</time>
      </trkpt>
      <trkpt lat="45.75782" lon="4.62907">
        <ele>725.5</ele>
        <time>2020-06-15T13:16:26.000Z</time>
      </trkpt>
      <trkpt lat="45.7578" lon="4.6291">
        <ele>724.9</ele>
        <time>2020-06-15T13:16:29.000Z</time>
      </trkpt>
      <trkpt lat="45.7578" lon="4.6291">
        <ele>724.4</ele>
        <time>2020-06-15T13:16:39.000Z</time>
      </trkpt>
      <trkpt lat="45.7578" lon="4.62911">
        <ele>722.7</ele>
        <time>2020-06-15T13:16:40.000Z</time>
      </trkpt>
      <trkpt lat="45.75777" lon="4.62917">
        <ele>720.5</ele>
        <time>2020-06-15T13:16:42.000Z</time>
      </trkpt>
      <trkpt lat="45.75765" lon="4.62932">
        <ele>714.8</ele>
        <time>2020-06-15T13:16:47.000Z</time>
      </trkpt>
      <trkpt lat="45.75765" lon="4.62932">
        <ele>714.3</ele>
        <time>2020-06-15T13:16:52.000Z</time>
      </trkpt>
      <trkpt lat="45.75765" lon="4.62932">
        <ele>713.7</ele>
        <time>2020-06-15T13:17:03.000Z</time>
      </trkpt>
      <trkpt lat="45.75765" lon="4.62932">
        <ele>713.2</ele>
        <time>2020-06-15T13:17:17.000Z</time>
      </trkpt>
      <trkpt lat="45.75764" lon="4.62939">
        <ele>709.9</ele>
        <time>2020-06-15T13:17:19.000Z</time>
      </trkpt>
      <trkpt lat="45.75764" lon="4.62944">
        <ele>708.1</ele>
        <time>2020-06-15T13:17:20.000Z</time>
      </trkpt>
      <trkpt lat="45.75762" lon="4.62954">
        <ele>703.8</ele>
        <time>2020-06-15T13:17:23.000Z</time>
      </trkpt>
      <trkpt lat="45.75763" lon="4.62956">
        <ele>703.2</ele>
        <time>2020-06-15T13:17:31.000Z</time>
      </trkpt>
      <trkpt lat="45.75764" lon="4.62958">
        <ele>701.3</ele>
        <time>2020-06-15T13:17:32.000Z</time>
      </trkpt>
      <trkpt lat="45.75767" lon="4.62967">
        <ele>698</ele>
        <time>2020-06-15T13:17:34.000Z</time>
      </trkpt>
      <trkpt lat="45.75767" lon="4.6297">
        <ele>697.5</ele>
        <time>2020-06-15T13:17:35.000Z</time>
      </trkpt>
      <trkpt lat="45.75767" lon="4.62972">
        <ele>695.8</ele>
        <time>2020-06-15T13:17:37.000Z</time>
      </trkpt>
      <trkpt lat="45.75767" lon="4.62972">
        <ele>695.2</ele>
        <time>2020-06-15T13:17:42.000Z</time>
      </trkpt>
      <trkpt lat="45.75764" lon="4.62978">
        <ele>692.6</ele>
        <time>2020-06-15T13:17:44.000Z</time>
      </trkpt>
      <trkpt lat="45.75755" lon="4.62985">
        <ele>687.4</ele>
        <time>2020-06-15T13:17:48.000Z</time>
      </trkpt>
      <trkpt lat="45.7575" lon="4.62989">
        <ele>685</ele>
        <time>2020-06-15T13:17:50.000Z</time>
      </trkpt>
      <trkpt lat="45.7575" lon="4.62994">
        <ele>683</ele>
        <time>2020-06-15T13:17:52.000Z</time>
      </trkpt>
      <trkpt lat="45.75757" lon="4.63007">
        <ele>678.7</ele>
        <time>2020-06-15T13:17:57.000Z</time>
      </trkpt>
      <trkpt lat="45.75761" lon="4.63018">
        <ele>673.7</ele>
        <time>2020-06-15T13:18:00.000Z</time>
      </trkpt>
      <trkpt lat="45.7576" lon="4.63022">
        <ele>673.2</ele>
        <time>2020-06-15T13:18:01.000Z</time>
      </trkpt>
      <trkpt lat="45.7575" lon="4.63031">
        <ele>666.8</ele>
        <time>2020-06-15T13:18:05.000Z</time>
      </trkpt>
      <trkpt lat="45.75749" lon="4.63043">
        <ele>662.7</ele>
        <time>2020-06-15T13:18:08.000Z</time>
      </trkpt>
      <trkpt lat="45.7575" lon="4.63048">
        <ele>661.1</ele>
        <time>2020-06-15T13:18:09.000Z</time>
      </trkpt>
      <trkpt lat="45.75751" lon="4.63055">
        <ele>657.2</ele>
        <time>2020-06-15T13:18:11.000Z</time>
      </trkpt>
      <trkpt lat="45.75745" lon="4.6306">
        <ele>654</ele>
        <time>2020-06-15T13:18:14.000Z</time>
      </trkpt>
      <trkpt lat="45.75743" lon="4.63067">
        <ele>649.7</ele>
        <time>2020-06-15T13:18:16.000Z</time>
      </trkpt>
      <trkpt lat="45.75743" lon="4.63072">
        <ele>647.6</ele>
        <time>2020-06-15T13:18:17.000Z</time>
      </trkpt>
      <trkpt lat="45.75742" lon="4.63078">
        <ele>644.3</ele>
        <time>2020-06-15T13:18:19.000Z</time>
      </trkpt>
      <trkpt lat="45.75737" lon="4.63081">
        <ele>643.4</ele>
        <time>2020-06-15T13:18:21.000Z</time>
      </trkpt>
      <trkpt lat="45.75731" lon="4.63081">
        <ele>641.7</ele>
        <time>2020-06-15T13:18:23.000Z</time>
      </trkpt>
      <trkpt lat="45.75726" lon="4.63079">
        <ele>641.5</ele>
        <time>2020-06-15T13:18:24.000Z</time>
      </trkpt>
      <trkpt lat="45.75722" lon="4.63076">
        <ele>641.2</ele>
        <time>2020-06-15T13:18:25.000Z</time>
      </trkpt>
      <trkpt lat="45.75715" lon="4.63069">
        <ele>640.7</ele>
        <time>2020-06-15T13:18:27.000Z</time>
      </trkpt>
      <trkpt lat="45.75711" lon="4.63066">
        <ele>640.5</ele>
        <time>2020-06-15T13:18:28.000Z</time>
      </trkpt>
      <trkpt lat="45.75705" lon="4.63063">
        <ele>640.1</ele>
        <time>2020-06-15T13:18:30.000Z</time>
      </trkpt>
      <trkpt lat="45.757" lon="4.63061">
        <ele>639.9</ele>
        <time>2020-06-15T13:18:31.000Z</time>
      </trkpt>
      <trkpt lat="45.75686" lon="4.63054">
        <ele>639.3</ele>
        <time>2020-06-15T13:18:33.000Z</time>
      </trkpt>
      <trkpt lat="45.75663" lon="4.63038">
        <ele>638.6</ele>
        <time>2020-06-15T13:18:36.000Z</time>
      </trkpt>
      <trkpt lat="45.75657" lon="4.63034">
        <ele>638.4</ele>
        <time>2020-06-15T13:18:37.000Z</time>
      </trkpt>
      <trkpt lat="45.75648" lon="4.63028">
        <ele>638.2</ele>
        <time>2020-06-15T13:18:39.000Z</time>
      </trkpt>
      <trkpt lat="45.75646" lon="4.63025">
        <ele>638.1</ele>
        <time>2020-06-15T13:18:42.000Z</time>
      </trkpt>
      <trkpt lat="45.75646" lon="4.63025">
        <ele>638.1</ele>
        <time>2020-06-15T13:18:49.000Z</time>
      </trkpt>
      <trkpt lat="45.75646" lon="4.63027">
        <ele>638.1</ele>
        <time>2020-06-15T13:18:50.000Z</time>
      </trkpt>
      <trkpt lat="45.75651" lon="4.6304">
        <ele>637.7</ele>
        <time>2020-06-15T13:18:54.000Z</time>
      </trkpt>
      <trkpt lat="45.75658" lon="4.63053">
        <ele>637.2</ele>
        <time>2020-06-15T13:18:57.000Z</time>
      </trkpt>
      <trkpt lat="45.7566" lon="4.63062">
        <ele>636.8</ele>
        <time>2020-06-15T13:19:00.000Z</time>
      </trkpt>
      <trkpt lat="45.75659" lon="4.63064">
        <ele>636.7</ele>
        <time>2020-06-15T13:19:02.000Z</time>
      </trkpt>
      <trkpt lat="45.75656" lon="4.63062">
        <ele>636.6</ele>
        <time>2020-06-15T13:19:04.000Z</time>
      </trkpt>
      <trkpt lat="45.75654" lon="4.63062">
        <ele>636.4</ele>
        <time>2020-06-15T13:19:09.000Z</time>
      </trkpt>
      <trkpt lat="45.75654" lon="4.63062">
        <ele>636.4</ele>
        <time>2020-06-15T13:19:21.000Z</time>
      </trkpt>
      <trkpt lat="45.75654" lon="4.63062">
        <ele>636.4</ele>
        <time>2020-06-15T13:19:35.000Z</time>
      </trkpt>
      <trkpt lat="45.7565" lon="4.63061">
        <ele>636.1</ele>
        <time>2020-06-15T13:19:50.000Z</time>
      </trkpt>
      <trkpt lat="45.75649" lon="4.63061">
        <ele>636</ele>
        <time>2020-06-15T13:19:51.000Z</time>
      </trkpt>
      <trkpt lat="45.7564" lon="4.6306">
        <ele>635.3</ele>
        <time>2020-06-15T13:19:55.000Z</time>
      </trkpt>
      <trkpt lat="45.75626" lon="4.63068">
        <ele>634</ele>
        <time>2020-06-15T13:19:59.000Z</time>
      </trkpt>
      <trkpt lat="45.75618" lon="4.63081">
        <ele>632.9</ele>
        <time>2020-06-15T13:20:02.000Z</time>
      </trkpt>
      <trkpt lat="45.75617" lon="4.63088">
        <ele>632.5</ele>
        <time>2020-06-15T13:20:03.000Z</time>
      </trkpt>
      <trkpt lat="45.75613" lon="4.63128">
        <ele>630.4</ele>
        <time>2020-06-15T13:20:08.000Z</time>
      </trkpt>
      <trkpt lat="45.75612" lon="4.63136">
        <ele>630.1</ele>
        <time>2020-06-15T13:20:09.000Z</time>
      </trkpt>
      <trkpt lat="45.75609" lon="4.63168">
        <ele>629</ele>
        <time>2020-06-15T13:20:13.000Z</time>
      </trkpt>
      <trkpt lat="45.75606" lon="4.63176">
        <ele>628.8</ele>
        <time>2020-06-15T13:20:14.000Z</time>
      </trkpt>
      <trkpt lat="45.75597" lon="4.63191">
        <ele>629.2</ele>
        <time>2020-06-15T13:20:16.000Z</time>
      </trkpt>
      <trkpt lat="45.7559" lon="4.63204">
        <ele>630.2</ele>
        <time>2020-06-15T13:20:19.000Z</time>
      </trkpt>
      <trkpt lat="45.75587" lon="4.63214">
        <ele>631.1</ele>
        <time>2020-06-15T13:20:23.000Z</time>
      </trkpt>
      <trkpt lat="45.75586" lon="4.63221">
        <ele>631.7</ele>
        <time>2020-06-15T13:20:27.000Z</time>
      </trkpt>
      <trkpt lat="45.75583" lon="4.63225">
        <ele>632.2</ele>
        <time>2020-06-15T13:20:30.000Z</time>
      </trkpt>
      <trkpt lat="45.75582" lon="4.63227">
        <ele>632.5</ele>
        <time>2020-06-15T13:20:31.000Z</time>
      </trkpt>
      <trkpt lat="45.75577" lon="4.63237">
        <ele>633.6</ele>
        <time>2020-06-15T13:20:36.000Z</time>
      </trkpt>
      <trkpt lat="45.75576" lon="4.63241">
        <ele>634</ele>
        <time>2020-06-15T13:20:38.000Z</time>
      </trkpt>
      <trkpt lat="45.75574" lon="4.63246">
        <ele>634.4</ele>
        <time>2020-06-15T13:20:40.000Z</time>
      </trkpt>
      <trkpt lat="45.75572" lon="4.63255">
        <ele>635.2</ele>
        <time>2020-06-15T13:20:45.000Z</time>
      </trkpt>
      <trkpt lat="45.75571" lon="4.6326">
        <ele>635.5</ele>
        <time>2020-06-15T13:20:48.000Z</time>
      </trkpt>
      <trkpt lat="45.7557" lon="4.63264">
        <ele>635.8</ele>
        <time>2020-06-15T13:20:50.000Z</time>
      </trkpt>
      <trkpt lat="45.7557" lon="4.6328">
        <ele>637</ele>
        <time>2020-06-15T13:20:56.000Z</time>
      </trkpt>
      <trkpt lat="45.75569" lon="4.63282">
        <ele>637.1</ele>
        <time>2020-06-15T13:20:57.000Z</time>
      </trkpt>
      <trkpt lat="45.75566" lon="4.63293">
        <ele>637.8</ele>
        <time>2020-06-15T13:21:01.000Z</time>
      </trkpt>
      <trkpt lat="45.75565" lon="4.63304">
        <ele>638.5</ele>
        <time>2020-06-15T13:21:05.000Z</time>
      </trkpt>
      <trkpt lat="45.75565" lon="4.63308">
        <ele>638.8</ele>
        <time>2020-06-15T13:21:07.000Z</time>
      </trkpt>
      <trkpt lat="45.75563" lon="4.63318">
        <ele>639.5</ele>
        <time>2020-06-15T13:21:11.000Z</time>
      </trkpt>
      <trkpt lat="45.75562" lon="4.63321">
        <ele>639.7</ele>
        <time>2020-06-15T13:21:12.000Z</time>
      </trkpt>
      <trkpt lat="45.75561" lon="4.63326">
        <ele>640</ele>
        <time>2020-06-15T13:21:14.000Z</time>
      </trkpt>
      <trkpt lat="45.7556" lon="4.63335">
        <ele>640.5</ele>
        <time>2020-06-15T13:21:18.000Z</time>
      </trkpt>
      <trkpt lat="45.75559" lon="4.63341">
        <ele>640.8</ele>
        <time>2020-06-15T13:21:21.000Z</time>
      </trkpt>
      <trkpt lat="45.75559" lon="4.63347">
        <ele>641</ele>
        <time>2020-06-15T13:21:23.000Z</time>
      </trkpt>
      <trkpt lat="45.75558" lon="4.63349">
        <ele>641.2</ele>
        <time>2020-06-15T13:21:24.000Z</time>
      </trkpt>
      <trkpt lat="45.75557" lon="4.63354">
        <ele>641.4</ele>
        <time>2020-06-15T13:21:26.000Z</time>
      </trkpt>
      <trkpt lat="45.75557" lon="4.63358">
        <ele>641.5</ele>
        <time>2020-06-15T13:21:28.000Z</time>
      </trkpt>
      <trkpt lat="45.75555" lon="4.63368">
        <ele>642</ele>
        <time>2020-06-15T13:21:31.000Z</time>
      </trkpt>
      <trkpt lat="45.75554" lon="4.63379">
        <ele>642.4</ele>
        <time>2020-06-15T13:21:35.000Z</time>
      </trkpt>
      <trkpt lat="45.75554" lon="4.63381">
        <ele>642.5</ele>
        <time>2020-06-15T13:21:36.000Z</time>
      </trkpt>
      <trkpt lat="45.75554" lon="4.63383">
        <ele>642.6</ele>
        <time>2020-06-15T13:21:37.000Z</time>
      </trkpt>
      <trkpt lat="45.75552" lon="4.63388">
        <ele>642.9</ele>
        <time>2020-06-15T13:21:39.000Z</time>
      </trkpt>
      <trkpt lat="45.75552" lon="4.63393">
        <ele>643.1</ele>
        <time>2020-06-15T13:21:41.000Z</time>
      </trkpt>
      <trkpt lat="45.75551" lon="4.63402">
        <ele>643.4</ele>
        <time>2020-06-15T13:21:44.000Z</time>
      </trkpt>
      <trkpt lat="45.75551" lon="4.63405">
        <ele>643.6</ele>
        <time>2020-06-15T13:21:45.000Z</time>
      </trkpt>
      <trkpt lat="45.7555" lon="4.63412">
        <ele>643.9</ele>
        <time>2020-06-15T13:21:48.000Z</time>
      </trkpt>
      <trkpt lat="45.7555" lon="4.63414">
        <ele>644</ele>
        <time>2020-06-15T13:21:49.000Z</time>
      </trkpt>
      <trkpt lat="45.7555" lon="4.63426">
        <ele>644.4</ele>
        <time>2020-06-15T13:21:53.000Z</time>
      </trkpt>
      <trkpt lat="45.75548" lon="4.63437">
        <ele>644.9</ele>
        <time>2020-06-15T13:21:57.000Z</time>
      </trkpt>
      <trkpt lat="45.75546" lon="4.63442">
        <ele>645.1</ele>
        <time>2020-06-15T13:21:59.000Z</time>
      </trkpt>
      <trkpt lat="45.75545" lon="4.63455">
        <ele>645.5</ele>
        <time>2020-06-15T13:22:03.000Z</time>
      </trkpt>
      <trkpt lat="45.75545" lon="4.6346">
        <ele>645.6</ele>
        <time>2020-06-15T13:22:04.000Z</time>
      </trkpt>
      <trkpt lat="45.75545" lon="4.6347">
        <ele>645.9</ele>
        <time>2020-06-15T13:22:07.000Z</time>
      </trkpt>
      <trkpt lat="45.75545" lon="4.63476">
        <ele>646.1</ele>
        <time>2020-06-15T13:22:09.000Z</time>
      </trkpt>
      <trkpt lat="45.75545" lon="4.63479">
        <ele>646.2</ele>
        <time>2020-06-15T13:22:10.000Z</time>
      </trkpt>
      <trkpt lat="45.75544" lon="4.63491">
        <ele>646.6</ele>
        <time>2020-06-15T13:22:13.000Z</time>
      </trkpt>
      <trkpt lat="45.75543" lon="4.635">
        <ele>646.8</ele>
        <time>2020-06-15T13:22:16.000Z</time>
      </trkpt>
      <trkpt lat="45.75543" lon="4.63502">
        <ele>646.9</ele>
        <time>2020-06-15T13:22:17.000Z</time>
      </trkpt>
      <trkpt lat="45.75543" lon="4.63508">
        <ele>647.1</ele>
        <time>2020-06-15T13:22:19.000Z</time>
      </trkpt>
      <trkpt lat="45.75542" lon="4.63518">
        <ele>647.5</ele>
        <time>2020-06-15T13:22:22.000Z</time>
      </trkpt>
      <trkpt lat="45.7554" lon="4.63526">
        <ele>647.8</ele>
        <time>2020-06-15T13:22:24.000Z</time>
      </trkpt>
      <trkpt lat="45.7554" lon="4.63534">
        <ele>648.1</ele>
        <time>2020-06-15T13:22:26.000Z</time>
      </trkpt>
      <trkpt lat="45.75538" lon="4.6354">
        <ele>648.4</ele>
        <time>2020-06-15T13:22:28.000Z</time>
      </trkpt>
      <trkpt lat="45.75535" lon="4.63551">
        <ele>649</ele>
        <time>2020-06-15T13:22:32.000Z</time>
      </trkpt>
      <trkpt lat="45.75535" lon="4.63553">
        <ele>649.1</ele>
        <time>2020-06-15T13:22:33.000Z</time>
      </trkpt>
      <trkpt lat="45.75533" lon="4.63561">
        <ele>649.6</ele>
        <time>2020-06-15T13:22:36.000Z</time>
      </trkpt>
      <trkpt lat="45.75533" lon="4.63565">
        <ele>649.8</ele>
        <time>2020-06-15T13:22:37.000Z</time>
      </trkpt>
      <trkpt lat="45.75532" lon="4.63568">
        <ele>650</ele>
        <time>2020-06-15T13:22:38.000Z</time>
      </trkpt>
      <trkpt lat="45.7553" lon="4.63577">
        <ele>650.7</ele>
        <time>2020-06-15T13:22:41.000Z</time>
      </trkpt>
      <trkpt lat="45.75527" lon="4.63581">
        <ele>651.1</ele>
        <time>2020-06-15T13:22:43.000Z</time>
      </trkpt>
      <trkpt lat="45.75524" lon="4.63586">
        <ele>651.6</ele>
        <time>2020-06-15T13:22:45.000Z</time>
      </trkpt>
      <trkpt lat="45.75516" lon="4.63597">
        <ele>652.7</ele>
        <time>2020-06-15T13:22:51.000Z</time>
      </trkpt>
      <trkpt lat="45.75506" lon="4.636">
        <ele>653.9</ele>
        <time>2020-06-15T13:22:58.000Z</time>
      </trkpt>
      <trkpt lat="45.75494" lon="4.63602">
        <ele>655.4</ele>
        <time>2020-06-15T13:23:05.000Z</time>
      </trkpt>
      <trkpt lat="45.75487" lon="4.63605">
        <ele>656.4</ele>
        <time>2020-06-15T13:23:11.000Z</time>
      </trkpt>
      <trkpt lat="45.75483" lon="4.63605">
        <ele>656.8</ele>
        <time>2020-06-15T13:23:14.000Z</time>
      </trkpt>
      <trkpt lat="45.7548" lon="4.63606">
        <ele>657.2</ele>
        <time>2020-06-15T13:23:17.000Z</time>
      </trkpt>
      <trkpt lat="45.75471" lon="4.63606">
        <ele>658.3</ele>
        <time>2020-06-15T13:23:23.000Z</time>
      </trkpt>
      <trkpt lat="45.7546" lon="4.63606">
        <ele>659.5</ele>
        <time>2020-06-15T13:23:31.000Z</time>
      </trkpt>
      <trkpt lat="45.75448" lon="4.63606">
        <ele>660.6</ele>
        <time>2020-06-15T13:23:38.000Z</time>
      </trkpt>
      <trkpt lat="45.75432" lon="4.63609">
        <ele>661</ele>
        <time>2020-06-15T13:23:43.000Z</time>
      </trkpt>
      <trkpt lat="45.75409" lon="4.63617">
        <ele>660.8</ele>
        <time>2020-06-15T13:23:49.000Z</time>
      </trkpt>
      <trkpt lat="45.75391" lon="4.63628">
        <ele>660.3</ele>
        <time>2020-06-15T13:23:54.000Z</time>
      </trkpt>
      <trkpt lat="45.7538" lon="4.63638">
        <ele>660.2</ele>
        <time>2020-06-15T13:23:58.000Z</time>
      </trkpt>
      <trkpt lat="45.75377" lon="4.6364">
        <ele>660.1</ele>
        <time>2020-06-15T13:23:59.000Z</time>
      </trkpt>
      <trkpt lat="45.75361" lon="4.63651">
        <ele>660</ele>
        <time>2020-06-15T13:24:03.000Z</time>
      </trkpt>
      <trkpt lat="45.75346" lon="4.63663">
        <ele>659.9</ele>
        <time>2020-06-15T13:24:08.000Z</time>
      </trkpt>
      <trkpt lat="45.75344" lon="4.63665">
        <ele>659.8</ele>
        <time>2020-06-15T13:24:13.000Z</time>
      </trkpt>
      <trkpt lat="45.75344" lon="4.63665">
        <ele>659.8</ele>
        <time>2020-06-15T13:24:25.000Z</time>
      </trkpt>
      <trkpt lat="45.75344" lon="4.63665">
        <ele>659.8</ele>
        <time>2020-06-15T13:24:39.000Z</time>
      </trkpt>
      <trkpt lat="45.75344" lon="4.63665">
        <ele>659.8</ele>
        <time>2020-06-15T13:24:45.000Z</time>
      </trkpt>
      <trkpt lat="45.75343" lon="4.63664">
        <ele>659.8</ele>
        <time>2020-06-15T13:24:51.000Z</time>
      </trkpt>
      <trkpt lat="45.75343" lon="4.63664">
        <ele>659.8</ele>
        <time>2020-06-15T13:24:59.000Z</time>
      </trkpt>
      <trkpt lat="45.75344" lon="4.63664">
        <ele>659.8</ele>
        <time>2020-06-15T13:25:05.000Z</time>
      </trkpt>
      <trkpt lat="45.75343" lon="4.63663">
        <ele>659.8</ele>
        <time>2020-06-15T13:25:13.000Z</time>
      </trkpt>
      <trkpt lat="45.75344" lon="4.63665">
        <ele>659.8</ele>
        <time>2020-06-15T13:25:18.000Z</time>
      </trkpt>
      <trkpt lat="45.75344" lon="4.63665">
        <ele>659.8</ele>
        <time>2020-06-15T13:25:32.000Z</time>
      </trkpt>
      <trkpt lat="45.75343" lon="4.63665">
        <ele>659.8</ele>
        <time>2020-06-15T13:25:43.000Z</time>
      </trkpt>
      <trkpt lat="45.75343" lon="4.63665">
        <ele>659.8</ele>
        <time>2020-06-15T13:25:51.000Z</time>
      </trkpt>
      <trkpt lat="45.75343" lon="4.63665">
        <ele>659.8</ele>
        <time>2020-06-15T13:26:07.000Z</time>
      </trkpt>
      <trkpt lat="45.75343" lon="4.63665">
        <ele>659.8</ele>
        <time>2020-06-15T13:26:14.000Z</time>
      </trkpt>
      <trkpt lat="45.75343" lon="4.63665">
        <ele>659.8</ele>
        <time>2020-06-15T13:26:36.000Z</time>
      </trkpt>
      <trkpt lat="45.75343" lon="4.63665">
        <ele>659.8</ele>
        <time>2020-06-15T13:26:51.000Z</time>
      </trkpt>
      <trkpt lat="45.75343" lon="4.63665">
        <ele>659.8</ele>
        <time>2020-06-15T13:26:56.000Z</time>
      </trkpt>
      <trkpt lat="45.75343" lon="4.63665">
        <ele>659.8</ele>
        <time>2020-06-15T13:27:03.000Z</time>
      </trkpt>
      <trkpt lat="45.75344" lon="4.63667">
        <ele>659.8</ele>
        <time>2020-06-15T13:27:09.000Z</time>
      </trkpt>
      <trkpt lat="45.75344" lon="4.63667">
        <ele>659.8</ele>
        <time>2020-06-15T13:27:10.000Z</time>
      </trkpt>
      <trkpt lat="45.75344" lon="4.63668">
        <ele>659.8</ele>
        <time>2020-06-15T13:27:18.000Z</time>
      </trkpt>
      <trkpt lat="45.75344" lon="4.63668">
        <ele>659.8</ele>
        <time>2020-06-15T13:27:33.000Z</time>
      </trkpt>
      <trkpt lat="45.75344" lon="4.63668">
        <ele>659.8</ele>
        <time>2020-06-15T13:27:43.000Z</time>
      </trkpt>
      <trkpt lat="45.75344" lon="4.63668">
        <ele>659.8</ele>
        <time>2020-06-15T13:27:53.000Z</time>
      </trkpt>
      <trkpt lat="45.75344" lon="4.63668">
        <ele>659.8</ele>
        <time>2020-06-15T13:28:12.000Z</time>
      </trkpt>
      <trkpt lat="45.75344" lon="4.63668">
        <ele>659.8</ele>
        <time>2020-06-15T13:28:29.000Z</time>
      </trkpt>
      <trkpt lat="45.75344" lon="4.63667">
        <ele>659.8</ele>
        <time>2020-06-15T13:28:47.000Z</time>
      </trkpt>
      <trkpt lat="45.75344" lon="4.63667">
        <ele>659.8</ele>
        <time>2020-06-15T13:29:00.000Z</time>
      </trkpt>
      <trkpt lat="45.75344" lon="4.63668">
        <ele>659.8</ele>
        <time>2020-06-15T13:29:22.000Z</time>
      </trkpt>
      <trkpt lat="45.75344" lon="4.63668">
        <ele>659.8</ele>
        <time>2020-06-15T13:29:42.000Z</time>
      </trkpt>
      <trkpt lat="45.75344" lon="4.63668">
        <ele>659.8</ele>
        <time>2020-06-15T13:30:02.000Z</time>
      </trkpt>
      <trkpt lat="45.75344" lon="4.63668">
        <ele>659.8</ele>
        <time>2020-06-15T13:30:13.000Z</time>
      </trkpt>
      <trkpt lat="45.75344" lon="4.63668">
        <ele>659.8</ele>
        <time>2020-06-15T13:30:24.000Z</time>
      </trkpt>
      <trkpt lat="45.75341" lon="4.63668">
        <ele>659.7</ele>
        <time>2020-06-15T13:30:29.000Z</time>
      </trkpt>
      <trkpt lat="45.7533" lon="4.63675">
        <ele>659.6</ele>
        <time>2020-06-15T13:30:33.000Z</time>
      </trkpt>
      <trkpt lat="45.75315" lon="4.63685">
        <ele>659.4</ele>
        <time>2020-06-15T13:30:39.000Z</time>
      </trkpt>
      <trkpt lat="45.75302" lon="4.63691">
        <ele>659.1</ele>
        <time>2020-06-15T13:30:44.000Z</time>
      </trkpt>
      <trkpt lat="45.75289" lon="4.63699">
        <ele>658.8</ele>
        <time>2020-06-15T13:30:49.000Z</time>
      </trkpt>
      <trkpt lat="45.75277" lon="4.637">
        <ele>658.6</ele>
        <time>2020-06-15T13:30:54.000Z</time>
      </trkpt>
      <trkpt lat="45.75275" lon="4.63699">
        <ele>658.6</ele>
        <time>2020-06-15T13:30:55.000Z</time>
      </trkpt>
      <trkpt lat="45.75272" lon="4.63692">
        <ele>659.8</ele>
        <time>2020-06-15T13:30:58.000Z</time>
      </trkpt>
      <trkpt lat="45.75271" lon="4.63681">
        <ele>660.7</ele>
        <time>2020-06-15T13:31:03.000Z</time>
      </trkpt>
      <trkpt lat="45.75271" lon="4.63679">
        <ele>660.8</ele>
        <time>2020-06-15T13:31:04.000Z</time>
      </trkpt>
      <trkpt lat="45.7527" lon="4.63671">
        <ele>661.5</ele>
        <time>2020-06-15T13:31:09.000Z</time>
      </trkpt>
      <trkpt lat="45.75271" lon="4.6367">
        <ele>661.7</ele>
        <time>2020-06-15T13:31:10.000Z</time>
      </trkpt>
      <trkpt lat="45.75271" lon="4.63665">
        <ele>662.1</ele>
        <time>2020-06-15T13:31:12.000Z</time>
      </trkpt>
      <trkpt lat="45.75269" lon="4.6366">
        <ele>662.7</ele>
        <time>2020-06-15T13:31:16.000Z</time>
      </trkpt>
      <trkpt lat="45.75267" lon="4.63651">
        <ele>663.5</ele>
        <time>2020-06-15T13:31:21.000Z</time>
      </trkpt>
      <trkpt lat="45.75266" lon="4.63649">
        <ele>663.8</ele>
        <time>2020-06-15T13:31:22.000Z</time>
      </trkpt>
      <trkpt lat="45.75265" lon="4.63636">
        <ele>665</ele>
        <time>2020-06-15T13:31:28.000Z</time>
      </trkpt>
      <trkpt lat="45.75263" lon="4.63631">
        <ele>665.4</ele>
        <time>2020-06-15T13:31:31.000Z</time>
      </trkpt>
      <trkpt lat="45.75262" lon="4.63627">
        <ele>665.7</ele>
        <time>2020-06-15T13:31:33.000Z</time>
      </trkpt>
      <trkpt lat="45.75262" lon="4.63625">
        <ele>665.8</ele>
        <time>2020-06-15T13:31:34.000Z</time>
      </trkpt>
      <trkpt lat="45.7526" lon="4.63613">
        <ele>666.7</ele>
        <time>2020-06-15T13:31:41.000Z</time>
      </trkpt>
      <trkpt lat="45.75259" lon="4.636">
        <ele>667.6</ele>
        <time>2020-06-15T13:31:47.000Z</time>
      </trkpt>
      <trkpt lat="45.75259" lon="4.63591">
        <ele>668.2</ele>
        <time>2020-06-15T13:31:51.000Z</time>
      </trkpt>
      <trkpt lat="45.75258" lon="4.63586">
        <ele>668.6</ele>
        <time>2020-06-15T13:31:54.000Z</time>
      </trkpt>
      <trkpt lat="45.75257" lon="4.63579">
        <ele>669.1</ele>
        <time>2020-06-15T13:31:57.000Z</time>
      </trkpt>
      <trkpt lat="45.75256" lon="4.63575">
        <ele>669.5</ele>
        <time>2020-06-15T13:31:59.000Z</time>
      </trkpt>
      <trkpt lat="45.75253" lon="4.63566">
        <ele>670.4</ele>
        <time>2020-06-15T13:32:05.000Z</time>
      </trkpt>
      <trkpt lat="45.75251" lon="4.63558">
        <ele>671.2</ele>
        <time>2020-06-15T13:32:10.000Z</time>
      </trkpt>
      <trkpt lat="45.75251" lon="4.63556">
        <ele>671.4</ele>
        <time>2020-06-15T13:32:11.000Z</time>
      </trkpt>
      <trkpt lat="45.75251" lon="4.63545">
        <ele>672.4</ele>
        <time>2020-06-15T13:32:17.000Z</time>
      </trkpt>
      <trkpt lat="45.7525" lon="4.63543">
        <ele>672.6</ele>
        <time>2020-06-15T13:32:18.000Z</time>
      </trkpt>
      <trkpt lat="45.75249" lon="4.63538">
        <ele>673</ele>
        <time>2020-06-15T13:32:20.000Z</time>
      </trkpt>
      <trkpt lat="45.75248" lon="4.63533">
        <ele>673.5</ele>
        <time>2020-06-15T13:32:23.000Z</time>
      </trkpt>
      <trkpt lat="45.75248" lon="4.63527">
        <ele>674.1</ele>
        <time>2020-06-15T13:32:27.000Z</time>
      </trkpt>
      <trkpt lat="45.75247" lon="4.63516">
        <ele>675</ele>
        <time>2020-06-15T13:32:32.000Z</time>
      </trkpt>
      <trkpt lat="45.75246" lon="4.63508">
        <ele>675.7</ele>
        <time>2020-06-15T13:32:36.000Z</time>
      </trkpt>
      <trkpt lat="45.75246" lon="4.63505">
        <ele>675.9</ele>
        <time>2020-06-15T13:32:38.000Z</time>
      </trkpt>
      <trkpt lat="45.75245" lon="4.63499">
        <ele>676.5</ele>
        <time>2020-06-15T13:32:41.000Z</time>
      </trkpt>
      <trkpt lat="45.75244" lon="4.63493">
        <ele>676.9</ele>
        <time>2020-06-15T13:32:44.000Z</time>
      </trkpt>
      <trkpt lat="45.75244" lon="4.63489">
        <ele>677.3</ele>
        <time>2020-06-15T13:32:47.000Z</time>
      </trkpt>
      <trkpt lat="45.75244" lon="4.63486">
        <ele>677.6</ele>
        <time>2020-06-15T13:32:49.000Z</time>
      </trkpt>
      <trkpt lat="45.75244" lon="4.63483">
        <ele>677.9</ele>
        <time>2020-06-15T13:32:51.000Z</time>
      </trkpt>
      <trkpt lat="45.75243" lon="4.63472">
        <ele>678.8</ele>
        <time>2020-06-15T13:32:58.000Z</time>
      </trkpt>
      <trkpt lat="45.75243" lon="4.63459">
        <ele>679.9</ele>
        <time>2020-06-15T13:33:05.000Z</time>
      </trkpt>
      <trkpt lat="45.75244" lon="4.63456">
        <ele>680.2</ele>
        <time>2020-06-15T13:33:07.000Z</time>
      </trkpt>
      <trkpt lat="45.75243" lon="4.63449">
        <ele>680.7</ele>
        <time>2020-06-15T13:33:11.000Z</time>
      </trkpt>
      <trkpt lat="45.75243" lon="4.63439">
        <ele>681.6</ele>
        <time>2020-06-15T13:33:17.000Z</time>
      </trkpt>
      <trkpt lat="45.75245" lon="4.63426">
        <ele>682.6</ele>
        <time>2020-06-15T13:33:25.000Z</time>
      </trkpt>
      <trkpt lat="45.75247" lon="4.63411">
        <ele>683.7</ele>
        <time>2020-06-15T13:33:33.000Z</time>
      </trkpt>
      <trkpt lat="45.75252" lon="4.634">
        <ele>684.5</ele>
        <time>2020-06-15T13:33:41.000Z</time>
      </trkpt>
      <trkpt lat="45.75256" lon="4.63391">
        <ele>685</ele>
        <time>2020-06-15T13:33:47.000Z</time>
      </trkpt>
      <trkpt lat="45.75264" lon="4.63378">
        <ele>685.8</ele>
        <time>2020-06-15T13:33:55.000Z</time>
      </trkpt>
      <trkpt lat="45.7527" lon="4.63364">
        <ele>686.5</ele>
        <time>2020-06-15T13:34:02.000Z</time>
      </trkpt>
      <trkpt lat="45.75278" lon="4.63346">
        <ele>687.6</ele>
        <time>2020-06-15T13:34:11.000Z</time>
      </trkpt>
      <trkpt lat="45.75282" lon="4.63335">
        <ele>688.2</ele>
        <time>2020-06-15T13:34:17.000Z</time>
      </trkpt>
      <trkpt lat="45.75286" lon="4.63323">
        <ele>688.7</ele>
        <time>2020-06-15T13:34:22.000Z</time>
      </trkpt>
      <trkpt lat="45.75294" lon="4.63308">
        <ele>689.3</ele>
        <time>2020-06-15T13:34:29.000Z</time>
      </trkpt>
      <trkpt lat="45.75303" lon="4.6329">
        <ele>689.9</ele>
        <time>2020-06-15T13:34:36.000Z</time>
      </trkpt>
      <trkpt lat="45.75311" lon="4.63274">
        <ele>690.6</ele>
        <time>2020-06-15T13:34:43.000Z</time>
      </trkpt>
      <trkpt lat="45.75318" lon="4.63261">
        <ele>691.5</ele>
        <time>2020-06-15T13:34:49.000Z</time>
      </trkpt>
      <trkpt lat="45.75327" lon="4.63245">
        <ele>692.5</ele>
        <time>2020-06-15T13:34:56.000Z</time>
      </trkpt>
      <trkpt lat="45.75333" lon="4.63231">
        <ele>693.4</ele>
        <time>2020-06-15T13:35:02.000Z</time>
      </trkpt>
      <trkpt lat="45.75343" lon="4.6322">
        <ele>694.4</ele>
        <time>2020-06-15T13:35:09.000Z</time>
      </trkpt>
      <trkpt lat="45.75349" lon="4.63207">
        <ele>695.2</ele>
        <time>2020-06-15T13:35:16.000Z</time>
      </trkpt>
      <trkpt lat="45.75352" lon="4.63203">
        <ele>695.5</ele>
        <time>2020-06-15T13:35:19.000Z</time>
      </trkpt>
      <trkpt lat="45.75355" lon="4.63198">
        <ele>695.7</ele>
        <time>2020-06-15T13:35:21.000Z</time>
      </trkpt>
      <trkpt lat="45.75364" lon="4.63182">
        <ele>695.9</ele>
        <time>2020-06-15T13:35:27.000Z</time>
      </trkpt>
      <trkpt lat="45.7537" lon="4.6317">
        <ele>695.8</ele>
        <time>2020-06-15T13:35:31.000Z</time>
      </trkpt>
      <trkpt lat="45.75386" lon="4.63146">
        <ele>695.7</ele>
        <time>2020-06-15T13:35:37.000Z</time>
      </trkpt>
      <trkpt lat="45.75399" lon="4.63119">
        <ele>695.7</ele>
        <time>2020-06-15T13:35:43.000Z</time>
      </trkpt>
      <trkpt lat="45.75411" lon="4.6309">
        <ele>696.1</ele>
        <time>2020-06-15T13:35:49.000Z</time>
      </trkpt>
      <trkpt lat="45.75423" lon="4.6306">
        <ele>696.3</ele>
        <time>2020-06-15T13:35:56.000Z</time>
      </trkpt>
      <trkpt lat="45.75435" lon="4.63023">
        <ele>696.4</ele>
        <time>2020-06-15T13:36:03.000Z</time>
      </trkpt>
      <trkpt lat="45.75445" lon="4.62992">
        <ele>696.5</ele>
        <time>2020-06-15T13:36:09.000Z</time>
      </trkpt>
      <trkpt lat="45.75459" lon="4.6295">
        <ele>697.2</ele>
        <time>2020-06-15T13:36:17.000Z</time>
      </trkpt>
      <trkpt lat="45.75464" lon="4.62932">
        <ele>697.5</ele>
        <time>2020-06-15T13:36:21.000Z</time>
      </trkpt>
      <trkpt lat="45.75474" lon="4.62905">
        <ele>698.1</ele>
        <time>2020-06-15T13:36:28.000Z</time>
      </trkpt>
      <trkpt lat="45.75483" lon="4.62877">
        <ele>698.5</ele>
        <time>2020-06-15T13:36:35.000Z</time>
      </trkpt>
      <trkpt lat="45.75493" lon="4.62851">
        <ele>698.8</ele>
        <time>2020-06-15T13:36:42.000Z</time>
      </trkpt>
      <trkpt lat="45.75499" lon="4.6283">
        <ele>699.1</ele>
        <time>2020-06-15T13:36:47.000Z</time>
      </trkpt>
      <trkpt lat="45.75506" lon="4.6281">
        <ele>699.4</ele>
        <time>2020-06-15T13:36:53.000Z</time>
      </trkpt>
      <trkpt lat="45.75509" lon="4.62797">
        <ele>699.7</ele>
        <time>2020-06-15T13:36:57.000Z</time>
      </trkpt>
      <trkpt lat="45.75517" lon="4.62773">
        <ele>700.3</ele>
        <time>2020-06-15T13:37:04.000Z</time>
      </trkpt>
      <trkpt lat="45.75524" lon="4.62748">
        <ele>700.9</ele>
        <time>2020-06-15T13:37:11.000Z</time>
      </trkpt>
      <trkpt lat="45.75531" lon="4.62728">
        <ele>701.6</ele>
        <time>2020-06-15T13:37:17.000Z</time>
      </trkpt>
      <trkpt lat="45.75539" lon="4.62706">
        <ele>702.6</ele>
        <time>2020-06-15T13:37:24.000Z</time>
      </trkpt>
      <trkpt lat="45.75547" lon="4.62686">
        <ele>703.8</ele>
        <time>2020-06-15T13:37:32.000Z</time>
      </trkpt>
      <trkpt lat="45.75551" lon="4.62676">
        <ele>704.4</ele>
        <time>2020-06-15T13:37:37.000Z</time>
      </trkpt>
      <trkpt lat="45.75551" lon="4.62674">
        <ele>704.5</ele>
        <time>2020-06-15T13:37:38.000Z</time>
      </trkpt>
      <trkpt lat="45.75553" lon="4.62669">
        <ele>704.8</ele>
        <time>2020-06-15T13:37:40.000Z</time>
      </trkpt>
      <trkpt lat="45.75556" lon="4.62662">
        <ele>705.3</ele>
        <time>2020-06-15T13:37:43.000Z</time>
      </trkpt>
      <trkpt lat="45.75562" lon="4.6265">
        <ele>706.5</ele>
        <time>2020-06-15T13:37:50.000Z</time>
      </trkpt>
      <trkpt lat="45.75566" lon="4.6264">
        <ele>707.4</ele>
        <time>2020-06-15T13:37:56.000Z</time>
      </trkpt>
      <trkpt lat="45.7557" lon="4.6263">
        <ele>708.2</ele>
        <time>2020-06-15T13:38:02.000Z</time>
      </trkpt>
      <trkpt lat="45.75573" lon="4.6262">
        <ele>709</ele>
        <time>2020-06-15T13:38:07.000Z</time>
      </trkpt>
      <trkpt lat="45.75577" lon="4.62615">
        <ele>709.6</ele>
        <time>2020-06-15T13:38:13.000Z</time>
      </trkpt>
      <trkpt lat="45.75577" lon="4.62614">
        <ele>709.7</ele>
        <time>2020-06-15T13:38:27.000Z</time>
      </trkpt>
      <trkpt lat="45.75578" lon="4.62614">
        <ele>709.7</ele>
        <time>2020-06-15T13:38:29.000Z</time>
      </trkpt>
      <trkpt lat="45.7558" lon="4.62612">
        <ele>710</ele>
        <time>2020-06-15T13:38:31.000Z</time>
      </trkpt>
      <trkpt lat="45.75581" lon="4.62605">
        <ele>710.6</ele>
        <time>2020-06-15T13:38:35.000Z</time>
      </trkpt>
      <trkpt lat="45.75582" lon="4.62601">
        <ele>711</ele>
        <time>2020-06-15T13:38:38.000Z</time>
      </trkpt>
      <trkpt lat="45.75585" lon="4.6259">
        <ele>712.1</ele>
        <time>2020-06-15T13:38:45.000Z</time>
      </trkpt>
      <trkpt lat="45.75586" lon="4.62582">
        <ele>712.9</ele>
        <time>2020-06-15T13:38:49.000Z</time>
      </trkpt>
      <trkpt lat="45.75587" lon="4.6258">
        <ele>713.1</ele>
        <time>2020-06-15T13:38:50.000Z</time>
      </trkpt>
      <trkpt lat="45.75588" lon="4.62577">
        <ele>713.4</ele>
        <time>2020-06-15T13:38:52.000Z</time>
      </trkpt>
      <trkpt lat="45.75589" lon="4.62571">
        <ele>714</ele>
        <time>2020-06-15T13:38:55.000Z</time>
      </trkpt>
      <trkpt lat="45.7559" lon="4.62569">
        <ele>714.1</ele>
        <time>2020-06-15T13:38:56.000Z</time>
      </trkpt>
      <trkpt lat="45.75594" lon="4.62558">
        <ele>715.1</ele>
        <time>2020-06-15T13:39:01.000Z</time>
      </trkpt>
      <trkpt lat="45.75596" lon="4.62546">
        <ele>716.1</ele>
        <time>2020-06-15T13:39:06.000Z</time>
      </trkpt>
      <trkpt lat="45.75597" lon="4.62538">
        <ele>716.7</ele>
        <time>2020-06-15T13:39:10.000Z</time>
      </trkpt>
      <trkpt lat="45.75598" lon="4.62534">
        <ele>717</ele>
        <time>2020-06-15T13:39:12.000Z</time>
      </trkpt>
      <trkpt lat="45.75599" lon="4.6252">
        <ele>718.2</ele>
        <time>2020-06-15T13:39:19.000Z</time>
      </trkpt>
      <trkpt lat="45.756" lon="4.62508">
        <ele>719.2</ele>
        <time>2020-06-15T13:39:25.000Z</time>
      </trkpt>
      <trkpt lat="45.756" lon="4.625">
        <ele>719.9</ele>
        <time>2020-06-15T13:39:29.000Z</time>
      </trkpt>
      <trkpt lat="45.756" lon="4.62497">
        <ele>720.1</ele>
        <time>2020-06-15T13:39:31.000Z</time>
      </trkpt>
      <trkpt lat="45.756" lon="4.62493">
        <ele>720.4</ele>
        <time>2020-06-15T13:39:33.000Z</time>
      </trkpt>
      <trkpt lat="45.75601" lon="4.6249">
        <ele>720.7</ele>
        <time>2020-06-15T13:39:35.000Z</time>
      </trkpt>
      <trkpt lat="45.75602" lon="4.62485">
        <ele>721.2</ele>
        <time>2020-06-15T13:39:38.000Z</time>
      </trkpt>
      <trkpt lat="45.75602" lon="4.62483">
        <ele>721.3</ele>
        <time>2020-06-15T13:39:40.000Z</time>
      </trkpt>
      <trkpt lat="45.75601" lon="4.62482">
        <ele>721.4</ele>
        <time>2020-06-15T13:39:42.000Z</time>
      </trkpt>
      <trkpt lat="45.75601" lon="4.62478">
        <ele>721.8</ele>
        <time>2020-06-15T13:39:45.000Z</time>
      </trkpt>
      <trkpt lat="45.75602" lon="4.62467">
        <ele>722.7</ele>
        <time>2020-06-15T13:39:50.000Z</time>
      </trkpt>
      <trkpt lat="45.75603" lon="4.62455">
        <ele>723.7</ele>
        <time>2020-06-15T13:39:56.000Z</time>
      </trkpt>
      <trkpt lat="45.75602" lon="4.62448">
        <ele>724.3</ele>
        <time>2020-06-15T13:40:00.000Z</time>
      </trkpt>
      <trkpt lat="45.75604" lon="4.62443">
        <ele>724.7</ele>
        <time>2020-06-15T13:40:03.000Z</time>
      </trkpt>
      <trkpt lat="45.75604" lon="4.62441">
        <ele>724.8</ele>
        <time>2020-06-15T13:40:04.000Z</time>
      </trkpt>
      <trkpt lat="45.75605" lon="4.62431">
        <ele>725.5</ele>
        <time>2020-06-15T13:40:10.000Z</time>
      </trkpt>
      <trkpt lat="45.75606" lon="4.62428">
        <ele>725.7</ele>
        <time>2020-06-15T13:40:11.000Z</time>
      </trkpt>
      <trkpt lat="45.75606" lon="4.62421">
        <ele>726.1</ele>
        <time>2020-06-15T13:40:15.000Z</time>
      </trkpt>
      <trkpt lat="45.75609" lon="4.62408">
        <ele>726.8</ele>
        <time>2020-06-15T13:40:21.000Z</time>
      </trkpt>
      <trkpt lat="45.7561" lon="4.624">
        <ele>727.1</ele>
        <time>2020-06-15T13:40:25.000Z</time>
      </trkpt>
      <trkpt lat="45.7561" lon="4.62397">
        <ele>727.2</ele>
        <time>2020-06-15T13:40:26.000Z</time>
      </trkpt>
      <trkpt lat="45.7561" lon="4.62389">
        <ele>727.5</ele>
        <time>2020-06-15T13:40:30.000Z</time>
      </trkpt>
      <trkpt lat="45.7561" lon="4.62385">
        <ele>727.6</ele>
        <time>2020-06-15T13:40:31.000Z</time>
      </trkpt>
      <trkpt lat="45.7561" lon="4.6238">
        <ele>727.8</ele>
        <time>2020-06-15T13:40:33.000Z</time>
      </trkpt>
      <trkpt lat="45.7561" lon="4.62373">
        <ele>728</ele>
        <time>2020-06-15T13:40:36.000Z</time>
      </trkpt>
      <trkpt lat="45.7561" lon="4.62368">
        <ele>728.2</ele>
        <time>2020-06-15T13:40:38.000Z</time>
      </trkpt>
      <trkpt lat="45.75609" lon="4.6236">
        <ele>728.4</ele>
        <time>2020-06-15T13:40:41.000Z</time>
      </trkpt>
      <trkpt lat="45.75609" lon="4.62355">
        <ele>728.6</ele>
        <time>2020-06-15T13:40:43.000Z</time>
      </trkpt>
      <trkpt lat="45.75609" lon="4.62352">
        <ele>728.6</ele>
        <time>2020-06-15T13:40:44.000Z</time>
      </trkpt>
      <trkpt lat="45.75608" lon="4.62348">
        <ele>728.7</ele>
        <time>2020-06-15T13:40:47.000Z</time>
      </trkpt>
      <trkpt lat="45.75606" lon="4.62339">
        <ele>729</ele>
        <time>2020-06-15T13:40:51.000Z</time>
      </trkpt>
      <trkpt lat="45.75604" lon="4.62322">
        <ele>729.5</ele>
        <time>2020-06-15T13:40:56.000Z</time>
      </trkpt>
      <trkpt lat="45.75605" lon="4.62313">
        <ele>729.8</ele>
        <time>2020-06-15T13:41:00.000Z</time>
      </trkpt>
      <trkpt lat="45.75605" lon="4.62308">
        <ele>729.9</ele>
        <time>2020-06-15T13:41:02.000Z</time>
      </trkpt>
      <trkpt lat="45.75602" lon="4.62298">
        <ele>730.3</ele>
        <time>2020-06-15T13:41:05.000Z</time>
      </trkpt>
      <trkpt lat="45.75598" lon="4.6228">
        <ele>731.3</ele>
        <time>2020-06-15T13:41:11.000Z</time>
      </trkpt>
      <trkpt lat="45.75595" lon="4.62271">
        <ele>731.9</ele>
        <time>2020-06-15T13:41:16.000Z</time>
      </trkpt>
      <trkpt lat="45.75595" lon="4.62267">
        <ele>732.1</ele>
        <time>2020-06-15T13:41:18.000Z</time>
      </trkpt>
      <trkpt lat="45.75594" lon="4.62259">
        <ele>732.6</ele>
        <time>2020-06-15T13:41:21.000Z</time>
      </trkpt>
      <trkpt lat="45.75595" lon="4.62247">
        <ele>733.5</ele>
        <time>2020-06-15T13:41:26.000Z</time>
      </trkpt>
      <trkpt lat="45.75594" lon="4.62233">
        <ele>734.4</ele>
        <time>2020-06-15T13:41:32.000Z</time>
      </trkpt>
      <trkpt lat="45.75593" lon="4.62226">
        <ele>734.8</ele>
        <time>2020-06-15T13:41:36.000Z</time>
      </trkpt>
      <trkpt lat="45.75594" lon="4.62222">
        <ele>735</ele>
        <time>2020-06-15T13:41:38.000Z</time>
      </trkpt>
      <trkpt lat="45.75593" lon="4.62217">
        <ele>735.3</ele>
        <time>2020-06-15T13:41:41.000Z</time>
      </trkpt>
      <trkpt lat="45.75592" lon="4.62214">
        <ele>735.5</ele>
        <time>2020-06-15T13:41:43.000Z</time>
      </trkpt>
      <trkpt lat="45.75594" lon="4.62204">
        <ele>736.1</ele>
        <time>2020-06-15T13:41:48.000Z</time>
      </trkpt>
      <trkpt lat="45.75593" lon="4.62201">
        <ele>736.3</ele>
        <time>2020-06-15T13:41:49.000Z</time>
      </trkpt>
      <trkpt lat="45.75593" lon="4.62195">
        <ele>736.7</ele>
        <time>2020-06-15T13:41:52.000Z</time>
      </trkpt>
      <trkpt lat="45.75593" lon="4.62193">
        <ele>736.8</ele>
        <time>2020-06-15T13:41:53.000Z</time>
      </trkpt>
      <trkpt lat="45.75593" lon="4.62188">
        <ele>737.2</ele>
        <time>2020-06-15T13:41:56.000Z</time>
      </trkpt>
      <trkpt lat="45.75594" lon="4.62186">
        <ele>737.3</ele>
        <time>2020-06-15T13:41:57.000Z</time>
      </trkpt>
      <trkpt lat="45.75594" lon="4.62171">
        <ele>738.4</ele>
        <time>2020-06-15T13:42:04.000Z</time>
      </trkpt>
      <trkpt lat="45.75595" lon="4.6216">
        <ele>739.2</ele>
        <time>2020-06-15T13:42:10.000Z</time>
      </trkpt>
      <trkpt lat="45.75595" lon="4.62151">
        <ele>739.8</ele>
        <time>2020-06-15T13:42:14.000Z</time>
      </trkpt>
      <trkpt lat="45.75594" lon="4.62135">
        <ele>741</ele>
        <time>2020-06-15T13:42:21.000Z</time>
      </trkpt>
      <trkpt lat="45.75594" lon="4.62125">
        <ele>741.7</ele>
        <time>2020-06-15T13:42:26.000Z</time>
      </trkpt>
      <trkpt lat="45.75595" lon="4.62118">
        <ele>742.3</ele>
        <time>2020-06-15T13:42:30.000Z</time>
      </trkpt>
      <trkpt lat="45.75595" lon="4.62105">
        <ele>743.1</ele>
        <time>2020-06-15T13:42:36.000Z</time>
      </trkpt>
      <trkpt lat="45.75596" lon="4.62096">
        <ele>743.8</ele>
        <time>2020-06-15T13:42:41.000Z</time>
      </trkpt>
      <trkpt lat="45.75596" lon="4.62082">
        <ele>744.8</ele>
        <time>2020-06-15T13:42:48.000Z</time>
      </trkpt>
      <trkpt lat="45.75596" lon="4.62079">
        <ele>745</ele>
        <time>2020-06-15T13:42:49.000Z</time>
      </trkpt>
      <trkpt lat="45.75598" lon="4.62071">
        <ele>745.5</ele>
        <time>2020-06-15T13:42:53.000Z</time>
      </trkpt>
      <trkpt lat="45.75598" lon="4.6207">
        <ele>745.5</ele>
        <time>2020-06-15T13:42:54.000Z</time>
      </trkpt>
      <trkpt lat="45.75597" lon="4.62067">
        <ele>745.7</ele>
        <time>2020-06-15T13:42:56.000Z</time>
      </trkpt>
      <trkpt lat="45.75597" lon="4.62066">
        <ele>745.8</ele>
        <time>2020-06-15T13:42:58.000Z</time>
      </trkpt>
      <trkpt lat="45.75597" lon="4.62055">
        <ele>746.4</ele>
        <time>2020-06-15T13:43:05.000Z</time>
      </trkpt>
      <trkpt lat="45.75597" lon="4.62053">
        <ele>746.5</ele>
        <time>2020-06-15T13:43:06.000Z</time>
      </trkpt>
      <trkpt lat="45.75597" lon="4.62051">
        <ele>746.5</ele>
        <time>2020-06-15T13:43:07.000Z</time>
      </trkpt>
      <trkpt lat="45.75598" lon="4.62042">
        <ele>747</ele>
        <time>2020-06-15T13:43:11.000Z</time>
      </trkpt>
      <trkpt lat="45.75598" lon="4.6204">
        <ele>747.1</ele>
        <time>2020-06-15T13:43:12.000Z</time>
      </trkpt>
      <trkpt lat="45.75598" lon="4.62037">
        <ele>747.2</ele>
        <time>2020-06-15T13:43:14.000Z</time>
      </trkpt>
      <trkpt lat="45.75597" lon="4.62031">
        <ele>747.5</ele>
        <time>2020-06-15T13:43:17.000Z</time>
      </trkpt>
      <trkpt lat="45.75597" lon="4.62022">
        <ele>747.8</ele>
        <time>2020-06-15T13:43:21.000Z</time>
      </trkpt>
      <trkpt lat="45.75597" lon="4.6202">
        <ele>747.9</ele>
        <time>2020-06-15T13:43:22.000Z</time>
      </trkpt>
      <trkpt lat="45.75598" lon="4.62015">
        <ele>748.1</ele>
        <time>2020-06-15T13:43:25.000Z</time>
      </trkpt>
      <trkpt lat="45.75598" lon="4.62004">
        <ele>748.5</ele>
        <time>2020-06-15T13:43:30.000Z</time>
      </trkpt>
      <trkpt lat="45.75598" lon="4.62">
        <ele>748.7</ele>
        <time>2020-06-15T13:43:32.000Z</time>
      </trkpt>
      <trkpt lat="45.75598" lon="4.61994">
        <ele>748.9</ele>
        <time>2020-06-15T13:43:34.000Z</time>
      </trkpt>
      <trkpt lat="45.75599" lon="4.61983">
        <ele>749.3</ele>
        <time>2020-06-15T13:43:39.000Z</time>
      </trkpt>
      <trkpt lat="45.75597" lon="4.61975">
        <ele>749.5</ele>
        <time>2020-06-15T13:43:42.000Z</time>
      </trkpt>
      <trkpt lat="45.75597" lon="4.61967">
        <ele>749.8</ele>
        <time>2020-06-15T13:43:45.000Z</time>
      </trkpt>
      <trkpt lat="45.75596" lon="4.61953">
        <ele>750.3</ele>
        <time>2020-06-15T13:43:50.000Z</time>
      </trkpt>
      <trkpt lat="45.75595" lon="4.61951">
        <ele>750.4</ele>
        <time>2020-06-15T13:43:51.000Z</time>
      </trkpt>
      <trkpt lat="45.75593" lon="4.61937">
        <ele>750.9</ele>
        <time>2020-06-15T13:43:56.000Z</time>
      </trkpt>
      <trkpt lat="45.75594" lon="4.61935">
        <ele>751</ele>
        <time>2020-06-15T13:43:57.000Z</time>
      </trkpt>
      <trkpt lat="45.75595" lon="4.61929">
        <ele>751.2</ele>
        <time>2020-06-15T13:43:59.000Z</time>
      </trkpt>
      <trkpt lat="45.75595" lon="4.61927">
        <ele>751.3</ele>
        <time>2020-06-15T13:44:00.000Z</time>
      </trkpt>
      <trkpt lat="45.75595" lon="4.61907">
        <ele>752.1</ele>
        <time>2020-06-15T13:44:06.000Z</time>
      </trkpt>
      <trkpt lat="45.75594" lon="4.61894">
        <ele>752.6</ele>
        <time>2020-06-15T13:44:11.000Z</time>
      </trkpt>
      <trkpt lat="45.75594" lon="4.61888">
        <ele>752.8</ele>
        <time>2020-06-15T13:44:14.000Z</time>
      </trkpt>
      <trkpt lat="45.75594" lon="4.61884">
        <ele>753</ele>
        <time>2020-06-15T13:44:16.000Z</time>
      </trkpt>
      <trkpt lat="45.75594" lon="4.61882">
        <ele>753</ele>
        <time>2020-06-15T13:44:17.000Z</time>
      </trkpt>
      <trkpt lat="45.75594" lon="4.61877">
        <ele>753.2</ele>
        <time>2020-06-15T13:44:20.000Z</time>
      </trkpt>
      <trkpt lat="45.75593" lon="4.61869">
        <ele>753.5</ele>
        <time>2020-06-15T13:44:23.000Z</time>
      </trkpt>
      <trkpt lat="45.75593" lon="4.61866">
        <ele>753.6</ele>
        <time>2020-06-15T13:44:24.000Z</time>
      </trkpt>
      <trkpt lat="45.75593" lon="4.61864">
        <ele>753.7</ele>
        <time>2020-06-15T13:44:25.000Z</time>
      </trkpt>
      <trkpt lat="45.75591" lon="4.61858">
        <ele>754</ele>
        <time>2020-06-15T13:44:28.000Z</time>
      </trkpt>
      <trkpt lat="45.75589" lon="4.6185">
        <ele>754.3</ele>
        <time>2020-06-15T13:44:31.000Z</time>
      </trkpt>
      <trkpt lat="45.7559" lon="4.61841">
        <ele>754.7</ele>
        <time>2020-06-15T13:44:34.000Z</time>
      </trkpt>
      <trkpt lat="45.75591" lon="4.61839">
        <ele>754.8</ele>
        <time>2020-06-15T13:44:35.000Z</time>
      </trkpt>
      <trkpt lat="45.75592" lon="4.61835">
        <ele>755</ele>
        <time>2020-06-15T13:44:37.000Z</time>
      </trkpt>
      <trkpt lat="45.75597" lon="4.61815">
        <ele>756</ele>
        <time>2020-06-15T13:44:43.000Z</time>
      </trkpt>
      <trkpt lat="45.75603" lon="4.61801">
        <ele>757.6</ele>
        <time>2020-06-15T13:44:49.000Z</time>
      </trkpt>
      <trkpt lat="45.75604" lon="4.61798">
        <ele>757.6</ele>
        <time>2020-06-15T13:44:55.000Z</time>
      </trkpt>
      <trkpt lat="45.75604" lon="4.61798">
        <ele>757.6</ele>
        <time>2020-06-15T13:45:07.000Z</time>
      </trkpt>
      <trkpt lat="45.75604" lon="4.61798">
        <ele>757.6</ele>
        <time>2020-06-15T13:45:21.000Z</time>
      </trkpt>
      <trkpt lat="45.75605" lon="4.61798">
        <ele>757.6</ele>
        <time>2020-06-15T13:45:35.000Z</time>
      </trkpt>
      <trkpt lat="45.75605" lon="4.61798">
        <ele>757.6</ele>
        <time>2020-06-15T13:45:51.000Z</time>
      </trkpt>
      <trkpt lat="45.75605" lon="4.61798">
        <ele>757.6</ele>
        <time>2020-06-15T13:46:10.000Z</time>
      </trkpt>
      <trkpt lat="45.75605" lon="4.61798">
        <ele>757.7</ele>
        <time>2020-06-15T13:46:30.000Z</time>
      </trkpt>
      <trkpt lat="45.75605" lon="4.61798">
        <ele>757.7</ele>
        <time>2020-06-15T13:46:46.000Z</time>
      </trkpt>
      <trkpt lat="45.75604" lon="4.61798">
        <ele>757.7</ele>
        <time>2020-06-15T13:47:00.000Z</time>
      </trkpt>
      <trkpt lat="45.75604" lon="4.61798">
        <ele>757.7</ele>
        <time>2020-06-15T13:47:14.000Z</time>
      </trkpt>
      <trkpt lat="45.75604" lon="4.61798">
        <ele>757.7</ele>
        <time>2020-06-15T13:47:24.000Z</time>
      </trkpt>
      <trkpt lat="45.75604" lon="4.61798">
        <ele>757.7</ele>
        <time>2020-06-15T13:47:35.000Z</time>
      </trkpt>
      <trkpt lat="45.75604" lon="4.61798">
        <ele>757.7</ele>
        <time>2020-06-15T13:47:51.000Z</time>
      </trkpt>
      <trkpt lat="45.75604" lon="4.61798">
        <ele>757.7</ele>
        <time>2020-06-15T13:48:08.000Z</time>
      </trkpt>
      <trkpt lat="45.75604" lon="4.61798">
        <ele>757.7</ele>
        <time>2020-06-15T13:48:23.000Z</time>
      </trkpt>
      <trkpt lat="45.75604" lon="4.61798">
        <ele>757.7</ele>
        <time>2020-06-15T13:48:30.000Z</time>
      </trkpt>
      <trkpt lat="45.75595" lon="4.61794">
        <ele>757.9</ele>
        <time>2020-06-15T13:48:36.000Z</time>
      </trkpt>
      <trkpt lat="45.75588" lon="4.61786">
        <ele>758.2</ele>
        <time>2020-06-15T13:48:42.000Z</time>
      </trkpt>
      <trkpt lat="45.75584" lon="4.61779">
        <ele>758.6</ele>
        <time>2020-06-15T13:48:47.000Z</time>
      </trkpt>
      <trkpt lat="45.75583" lon="4.61777">
        <ele>758.7</ele>
        <time>2020-06-15T13:48:48.000Z</time>
      </trkpt>
      <trkpt lat="45.7558" lon="4.61772">
        <ele>759.1</ele>
        <time>2020-06-15T13:48:51.000Z</time>
      </trkpt>
      <trkpt lat="45.75578" lon="4.61765">
        <ele>759.6</ele>
        <time>2020-06-15T13:48:55.000Z</time>
      </trkpt>
      <trkpt lat="45.75576" lon="4.61762">
        <ele>759.8</ele>
        <time>2020-06-15T13:48:56.000Z</time>
      </trkpt>
      <trkpt lat="45.75567" lon="4.61752">
        <ele>760.7</ele>
        <time>2020-06-15T13:49:00.000Z</time>
      </trkpt>
      <trkpt lat="45.75563" lon="4.61749">
        <ele>761</ele>
        <time>2020-06-15T13:49:03.000Z</time>
      </trkpt>
      <trkpt lat="45.75561" lon="4.61747">
        <ele>761.3</ele>
        <time>2020-06-15T13:49:05.000Z</time>
      </trkpt>
      <trkpt lat="45.75556" lon="4.61741">
        <ele>761.9</ele>
        <time>2020-06-15T13:49:10.000Z</time>
      </trkpt>
      <trkpt lat="45.75551" lon="4.61735">
        <ele>762.5</ele>
        <time>2020-06-15T13:49:15.000Z</time>
      </trkpt>
      <trkpt lat="45.75548" lon="4.61728">
        <ele>763.1</ele>
        <time>2020-06-15T13:49:19.000Z</time>
      </trkpt>
      <trkpt lat="45.75546" lon="4.61724">
        <ele>763.4</ele>
        <time>2020-06-15T13:49:21.000Z</time>
      </trkpt>
      <trkpt lat="45.7554" lon="4.61715">
        <ele>764.3</ele>
        <time>2020-06-15T13:49:28.000Z</time>
      </trkpt>
      <trkpt lat="45.75536" lon="4.61709">
        <ele>764.9</ele>
        <time>2020-06-15T13:49:34.000Z</time>
      </trkpt>
      <trkpt lat="45.75533" lon="4.61704">
        <ele>765.3</ele>
        <time>2020-06-15T13:49:39.000Z</time>
      </trkpt>
      <trkpt lat="45.7553" lon="4.61699">
        <ele>765.7</ele>
        <time>2020-06-15T13:49:43.000Z</time>
      </trkpt>
      <trkpt lat="45.75523" lon="4.61692">
        <ele>766.4</ele>
        <time>2020-06-15T13:49:49.000Z</time>
      </trkpt>
      <trkpt lat="45.75517" lon="4.61685">
        <ele>767.2</ele>
        <time>2020-06-15T13:49:55.000Z</time>
      </trkpt>
      <trkpt lat="45.75515" lon="4.61684">
        <ele>767.3</ele>
        <time>2020-06-15T13:49:56.000Z</time>
      </trkpt>
      <trkpt lat="45.75508" lon="4.61677">
        <ele>768.1</ele>
        <time>2020-06-15T13:50:00.000Z</time>
      </trkpt>
      <trkpt lat="45.75504" lon="4.61675">
        <ele>768.6</ele>
        <time>2020-06-15T13:50:04.000Z</time>
      </trkpt>
      <trkpt lat="45.755" lon="4.61671">
        <ele>769</ele>
        <time>2020-06-15T13:50:07.000Z</time>
      </trkpt>
      <trkpt lat="45.75492" lon="4.61665">
        <ele>769.8</ele>
        <time>2020-06-15T13:50:13.000Z</time>
      </trkpt>
      <trkpt lat="45.75488" lon="4.61661">
        <ele>770.3</ele>
        <time>2020-06-15T13:50:17.000Z</time>
      </trkpt>
      <trkpt lat="45.75487" lon="4.61661">
        <ele>770.5</ele>
        <time>2020-06-15T13:50:18.000Z</time>
      </trkpt>
      <trkpt lat="45.75481" lon="4.61656">
        <ele>771.2</ele>
        <time>2020-06-15T13:50:24.000Z</time>
      </trkpt>
      <trkpt lat="45.7548" lon="4.61655">
        <ele>771.4</ele>
        <time>2020-06-15T13:50:25.000Z</time>
      </trkpt>
      <trkpt lat="45.75474" lon="4.61652">
        <ele>772.2</ele>
        <time>2020-06-15T13:50:30.000Z</time>
      </trkpt>
      <trkpt lat="45.75473" lon="4.61651">
        <ele>772.3</ele>
        <time>2020-06-15T13:50:31.000Z</time>
      </trkpt>
      <trkpt lat="45.75471" lon="4.6165">
        <ele>772.5</ele>
        <time>2020-06-15T13:50:32.000Z</time>
      </trkpt>
      <trkpt lat="45.75468" lon="4.6165">
        <ele>772.9</ele>
        <time>2020-06-15T13:50:34.000Z</time>
      </trkpt>
      <trkpt lat="45.75467" lon="4.6165">
        <ele>773.1</ele>
        <time>2020-06-15T13:50:35.000Z</time>
      </trkpt>
      <trkpt lat="45.75459" lon="4.61646">
        <ele>774.1</ele>
        <time>2020-06-15T13:50:40.000Z</time>
      </trkpt>
      <trkpt lat="45.75456" lon="4.61645">
        <ele>774.6</ele>
        <time>2020-06-15T13:50:42.000Z</time>
      </trkpt>
      <trkpt lat="45.75448" lon="4.61641">
        <ele>775.6</ele>
        <time>2020-06-15T13:50:48.000Z</time>
      </trkpt>
      <trkpt lat="45.75445" lon="4.6164">
        <ele>775.9</ele>
        <time>2020-06-15T13:50:50.000Z</time>
      </trkpt>
      <trkpt lat="45.75441" lon="4.61638">
        <ele>776.3</ele>
        <time>2020-06-15T13:50:53.000Z</time>
      </trkpt>
      <trkpt lat="45.75439" lon="4.61638">
        <ele>776.5</ele>
        <time>2020-06-15T13:50:56.000Z</time>
      </trkpt>
      <trkpt lat="45.75436" lon="4.61637">
        <ele>776.7</ele>
        <time>2020-06-15T13:50:58.000Z</time>
      </trkpt>
      <trkpt lat="45.75424" lon="4.61633">
        <ele>777.6</ele>
        <time>2020-06-15T13:51:05.000Z</time>
      </trkpt>
      <trkpt lat="45.75422" lon="4.61632">
        <ele>777.7</ele>
        <time>2020-06-15T13:51:06.000Z</time>
      </trkpt>
      <trkpt lat="45.75419" lon="4.61631">
        <ele>777.9</ele>
        <time>2020-06-15T13:51:08.000Z</time>
      </trkpt>
      <trkpt lat="45.75417" lon="4.6163">
        <ele>778</ele>
        <time>2020-06-15T13:51:09.000Z</time>
      </trkpt>
      <trkpt lat="45.75407" lon="4.61623">
        <ele>778.7</ele>
        <time>2020-06-15T13:51:15.000Z</time>
      </trkpt>
      <trkpt lat="45.75404" lon="4.61621">
        <ele>778.9</ele>
        <time>2020-06-15T13:51:17.000Z</time>
      </trkpt>
      <trkpt lat="45.75402" lon="4.61618">
        <ele>779.2</ele>
        <time>2020-06-15T13:51:20.000Z</time>
      </trkpt>
      <trkpt lat="45.75392" lon="4.61613">
        <ele>779.8</ele>
        <time>2020-06-15T13:51:26.000Z</time>
      </trkpt>
      <trkpt lat="45.75387" lon="4.61611">
        <ele>780.1</ele>
        <time>2020-06-15T13:51:29.000Z</time>
      </trkpt>
      <trkpt lat="45.75384" lon="4.6161">
        <ele>780.3</ele>
        <time>2020-06-15T13:51:31.000Z</time>
      </trkpt>
      <trkpt lat="45.75382" lon="4.61608">
        <ele>780.4</ele>
        <time>2020-06-15T13:51:33.000Z</time>
      </trkpt>
      <trkpt lat="45.75379" lon="4.61606">
        <ele>780.6</ele>
        <time>2020-06-15T13:51:35.000Z</time>
      </trkpt>
      <trkpt lat="45.75372" lon="4.61602">
        <ele>781</ele>
        <time>2020-06-15T13:51:39.000Z</time>
      </trkpt>
      <trkpt lat="45.75367" lon="4.61597">
        <ele>781.4</ele>
        <time>2020-06-15T13:51:43.000Z</time>
      </trkpt>
      <trkpt lat="45.7536" lon="4.61592">
        <ele>781.8</ele>
        <time>2020-06-15T13:51:48.000Z</time>
      </trkpt>
      <trkpt lat="45.7535" lon="4.61588">
        <ele>782.1</ele>
        <time>2020-06-15T13:51:53.000Z</time>
      </trkpt>
      <trkpt lat="45.75341" lon="4.61585">
        <ele>782.2</ele>
        <time>2020-06-15T13:51:57.000Z</time>
      </trkpt>
      <trkpt lat="45.75338" lon="4.61583">
        <ele>782.3</ele>
        <time>2020-06-15T13:51:58.000Z</time>
      </trkpt>
      <trkpt lat="45.75334" lon="4.61582">
        <ele>782.3</ele>
        <time>2020-06-15T13:52:00.000Z</time>
      </trkpt>
      <trkpt lat="45.75329" lon="4.61581">
        <ele>782.3</ele>
        <time>2020-06-15T13:52:02.000Z</time>
      </trkpt>
      <trkpt lat="45.75316" lon="4.61578">
        <ele>782.2</ele>
        <time>2020-06-15T13:52:07.000Z</time>
      </trkpt>
      <trkpt lat="45.75308" lon="4.61574">
        <ele>782.1</ele>
        <time>2020-06-15T13:52:11.000Z</time>
      </trkpt>
      <trkpt lat="45.75308" lon="4.61574">
        <ele>782.1</ele>
        <time>2020-06-15T13:52:20.000Z</time>
      </trkpt>
      <trkpt lat="45.75308" lon="4.61574">
        <ele>782.1</ele>
        <time>2020-06-15T13:52:27.000Z</time>
      </trkpt>
      <trkpt lat="45.75308" lon="4.61574">
        <ele>782.1</ele>
        <time>2020-06-15T13:52:37.000Z</time>
      </trkpt>
      <trkpt lat="45.75307" lon="4.61574">
        <ele>782.1</ele>
        <time>2020-06-15T13:52:58.000Z</time>
      </trkpt>
      <trkpt lat="45.75307" lon="4.61574">
        <ele>782.1</ele>
        <time>2020-06-15T13:53:10.000Z</time>
      </trkpt>
      <trkpt lat="45.75307" lon="4.61574">
        <ele>782.1</ele>
        <time>2020-06-15T13:53:30.000Z</time>
      </trkpt>
      <trkpt lat="45.75306" lon="4.61573">
        <ele>782.1</ele>
        <time>2020-06-15T13:53:49.000Z</time>
      </trkpt>
      <trkpt lat="45.75304" lon="4.61573">
        <ele>782</ele>
        <time>2020-06-15T13:53:59.000Z</time>
      </trkpt>
      <trkpt lat="45.75298" lon="4.61577">
        <ele>781.2</ele>
        <time>2020-06-15T13:54:01.000Z</time>
      </trkpt>
      <trkpt lat="45.75295" lon="4.61582">
        <ele>780.9</ele>
        <time>2020-06-15T13:54:02.000Z</time>
      </trkpt>
      <trkpt lat="45.75291" lon="4.61587">
        <ele>780.6</ele>
        <time>2020-06-15T13:54:03.000Z</time>
      </trkpt>
      <trkpt lat="45.75277" lon="4.61608">
        <ele>778.7</ele>
        <time>2020-06-15T13:54:07.000Z</time>
      </trkpt>
      <trkpt lat="45.75273" lon="4.61609">
        <ele>778.3</ele>
        <time>2020-06-15T13:54:08.000Z</time>
      </trkpt>
      <trkpt lat="45.75269" lon="4.61608">
        <ele>777.7</ele>
        <time>2020-06-15T13:54:10.000Z</time>
      </trkpt>
      <trkpt lat="45.75266" lon="4.61606">
        <ele>776.8</ele>
        <time>2020-06-15T13:54:12.000Z</time>
      </trkpt>
      <trkpt lat="45.75262" lon="4.61601">
        <ele>775.7</ele>
        <time>2020-06-15T13:54:14.000Z</time>
      </trkpt>
      <trkpt lat="45.75258" lon="4.61596">
        <ele>774.5</ele>
        <time>2020-06-15T13:54:16.000Z</time>
      </trkpt>
      <trkpt lat="45.75256" lon="4.61597">
        <ele>774</ele>
        <time>2020-06-15T13:54:18.000Z</time>
      </trkpt>
      <trkpt lat="45.75255" lon="4.61598">
        <ele>773.8</ele>
        <time>2020-06-15T13:54:19.000Z</time>
      </trkpt>
      <trkpt lat="45.75253" lon="4.616">
        <ele>773.1</ele>
        <time>2020-06-15T13:54:21.000Z</time>
      </trkpt>
      <trkpt lat="45.75251" lon="4.61601">
        <ele>772.7</ele>
        <time>2020-06-15T13:54:22.000Z</time>
      </trkpt>
      <trkpt lat="45.75244" lon="4.6161">
        <ele>770.5</ele>
        <time>2020-06-15T13:54:26.000Z</time>
      </trkpt>
      <trkpt lat="45.75239" lon="4.61617">
        <ele>768.7</ele>
        <time>2020-06-15T13:54:29.000Z</time>
      </trkpt>
      <trkpt lat="45.75237" lon="4.61616">
        <ele>768.3</ele>
        <time>2020-06-15T13:54:30.000Z</time>
      </trkpt>
      <trkpt lat="45.75234" lon="4.6161">
        <ele>767.1</ele>
        <time>2020-06-15T13:54:33.000Z</time>
      </trkpt>
      <trkpt lat="45.75232" lon="4.61609">
        <ele>766.3</ele>
        <time>2020-06-15T13:54:35.000Z</time>
      </trkpt>
      <trkpt lat="45.75229" lon="4.61613">
        <ele>765.2</ele>
        <time>2020-06-15T13:54:39.000Z</time>
      </trkpt>
      <trkpt lat="45.75227" lon="4.61613">
        <ele>764.7</ele>
        <time>2020-06-15T13:54:41.000Z</time>
      </trkpt>
      <trkpt lat="45.75223" lon="4.61612">
        <ele>763.5</ele>
        <time>2020-06-15T13:54:43.000Z</time>
      </trkpt>
      <trkpt lat="45.75219" lon="4.61607">
        <ele>761.9</ele>
        <time>2020-06-15T13:54:46.000Z</time>
      </trkpt>
      <trkpt lat="45.75217" lon="4.61608">
        <ele>761.3</ele>
        <time>2020-06-15T13:54:47.000Z</time>
      </trkpt>
      <trkpt lat="45.75215" lon="4.6161">
        <ele>760.6</ele>
        <time>2020-06-15T13:54:48.000Z</time>
      </trkpt>
      <trkpt lat="45.75211" lon="4.61611">
        <ele>759.4</ele>
        <time>2020-06-15T13:54:50.000Z</time>
      </trkpt>
      <trkpt lat="45.75208" lon="4.61615">
        <ele>758.2</ele>
        <time>2020-06-15T13:54:52.000Z</time>
      </trkpt>
      <trkpt lat="45.75202" lon="4.61629">
        <ele>755.8</ele>
        <time>2020-06-15T13:54:57.000Z</time>
      </trkpt>
      <trkpt lat="45.75198" lon="4.61638">
        <ele>754.7</ele>
        <time>2020-06-15T13:55:00.000Z</time>
      </trkpt>
      <trkpt lat="45.75198" lon="4.6164">
        <ele>754.5</ele>
        <time>2020-06-15T13:55:01.000Z</time>
      </trkpt>
      <trkpt lat="45.75196" lon="4.61642">
        <ele>754.2</ele>
        <time>2020-06-15T13:55:02.000Z</time>
      </trkpt>
      <trkpt lat="45.75192" lon="4.6165">
        <ele>753.5</ele>
        <time>2020-06-15T13:55:05.000Z</time>
      </trkpt>
      <trkpt lat="45.75183" lon="4.61668">
        <ele>752</ele>
        <time>2020-06-15T13:55:09.000Z</time>
      </trkpt>
      <trkpt lat="45.75174" lon="4.61686">
        <ele>751</ele>
        <time>2020-06-15T13:55:12.000Z</time>
      </trkpt>
      <trkpt lat="45.75172" lon="4.61693">
        <ele>750.7</ele>
        <time>2020-06-15T13:55:13.000Z</time>
      </trkpt>
      <trkpt lat="45.75167" lon="4.61716">
        <ele>750.1</ele>
        <time>2020-06-15T13:55:17.000Z</time>
      </trkpt>
      <trkpt lat="45.75163" lon="4.61731">
        <ele>749.9</ele>
        <time>2020-06-15T13:55:20.000Z</time>
      </trkpt>
      <trkpt lat="45.7516" lon="4.61741">
        <ele>749.6</ele>
        <time>2020-06-15T13:55:23.000Z</time>
      </trkpt>
      <trkpt lat="45.75158" lon="4.61744">
        <ele>749.4</ele>
        <time>2020-06-15T13:55:24.000Z</time>
      </trkpt>
      <trkpt lat="45.7515" lon="4.61756">
        <ele>748.3</ele>
        <time>2020-06-15T13:55:27.000Z</time>
      </trkpt>
      <trkpt lat="45.75145" lon="4.61755">
        <ele>747.5</ele>
        <time>2020-06-15T13:55:30.000Z</time>
      </trkpt>
      <trkpt lat="45.75138" lon="4.61765">
        <ele>746.1</ele>
        <time>2020-06-15T13:55:33.000Z</time>
      </trkpt>
      <trkpt lat="45.75137" lon="4.6177">
        <ele>745.5</ele>
        <time>2020-06-15T13:55:34.000Z</time>
      </trkpt>
      <trkpt lat="45.75136" lon="4.61785">
        <ele>744</ele>
        <time>2020-06-15T13:55:37.000Z</time>
      </trkpt>
      <trkpt lat="45.75134" lon="4.61807">
        <ele>742.6</ele>
        <time>2020-06-15T13:55:42.000Z</time>
      </trkpt>
      <trkpt lat="45.7513" lon="4.61823">
        <ele>741.8</ele>
        <time>2020-06-15T13:55:45.000Z</time>
      </trkpt>
      <trkpt lat="45.75127" lon="4.61825">
        <ele>741.6</ele>
        <time>2020-06-15T13:55:46.000Z</time>
      </trkpt>
      <trkpt lat="45.75122" lon="4.61832">
        <ele>740.9</ele>
        <time>2020-06-15T13:55:49.000Z</time>
      </trkpt>
      <trkpt lat="45.75114" lon="4.61854">
        <ele>738.9</ele>
        <time>2020-06-15T13:55:53.000Z</time>
      </trkpt>
      <trkpt lat="45.75113" lon="4.61866">
        <ele>737.6</ele>
        <time>2020-06-15T13:55:56.000Z</time>
      </trkpt>
      <trkpt lat="45.75109" lon="4.61866">
        <ele>736.9</ele>
        <time>2020-06-15T13:55:58.000Z</time>
      </trkpt>
      <trkpt lat="45.75107" lon="4.6187">
        <ele>736.2</ele>
        <time>2020-06-15T13:56:00.000Z</time>
      </trkpt>
      <trkpt lat="45.75103" lon="4.61871">
        <ele>735.4</ele>
        <time>2020-06-15T13:56:02.000Z</time>
      </trkpt>
      <trkpt lat="45.75101" lon="4.61872">
        <ele>735</ele>
        <time>2020-06-15T13:56:03.000Z</time>
      </trkpt>
      <trkpt lat="45.75099" lon="4.61878">
        <ele>734</ele>
        <time>2020-06-15T13:56:05.000Z</time>
      </trkpt>
      <trkpt lat="45.75098" lon="4.61883">
        <ele>733.1</ele>
        <time>2020-06-15T13:56:07.000Z</time>
      </trkpt>
      <trkpt lat="45.75095" lon="4.61885">
        <ele>732.4</ele>
        <time>2020-06-15T13:56:12.000Z</time>
      </trkpt>
      <trkpt lat="45.75095" lon="4.61888">
        <ele>732</ele>
        <time>2020-06-15T13:56:16.000Z</time>
      </trkpt>
      <trkpt lat="45.75095" lon="4.61888">
        <ele>732</ele>
        <time>2020-06-15T13:56:29.000Z</time>
      </trkpt>
      <trkpt lat="45.75095" lon="4.61888">
        <ele>732</ele>
        <time>2020-06-15T13:56:31.000Z</time>
      </trkpt>
      <trkpt lat="45.75092" lon="4.61885">
        <ele>731</ele>
        <time>2020-06-15T13:56:33.000Z</time>
      </trkpt>
      <trkpt lat="45.7509" lon="4.61882">
        <ele>730.4</ele>
        <time>2020-06-15T13:56:34.000Z</time>
      </trkpt>
      <trkpt lat="45.75081" lon="4.61876">
        <ele>728.4</ele>
        <time>2020-06-15T13:56:37.000Z</time>
      </trkpt>
      <trkpt lat="45.75073" lon="4.6188">
        <ele>726.7</ele>
        <time>2020-06-15T13:56:40.000Z</time>
      </trkpt>
      <trkpt lat="45.75071" lon="4.61879">
        <ele>726.2</ele>
        <time>2020-06-15T13:56:41.000Z</time>
      </trkpt>
      <trkpt lat="45.75063" lon="4.61878">
        <ele>724.5</ele>
        <time>2020-06-15T13:56:45.000Z</time>
      </trkpt>
      <trkpt lat="45.75062" lon="4.61878">
        <ele>724.3</ele>
        <time>2020-06-15T13:56:51.000Z</time>
      </trkpt>
      <trkpt lat="45.75062" lon="4.61878">
        <ele>724.3</ele>
        <time>2020-06-15T13:56:56.000Z</time>
      </trkpt>
      <trkpt lat="45.75061" lon="4.61882">
        <ele>723.7</ele>
        <time>2020-06-15T13:56:57.000Z</time>
      </trkpt>
      <trkpt lat="45.7506" lon="4.61885">
        <ele>723</ele>
        <time>2020-06-15T13:56:58.000Z</time>
      </trkpt>
      <trkpt lat="45.75056" lon="4.61888">
        <ele>721.9</ele>
        <time>2020-06-15T13:57:00.000Z</time>
      </trkpt>
      <trkpt lat="45.75055" lon="4.6189">
        <ele>721.5</ele>
        <time>2020-06-15T13:57:01.000Z</time>
      </trkpt>
      <trkpt lat="45.75055" lon="4.61897">
        <ele>720.2</ele>
        <time>2020-06-15T13:57:03.000Z</time>
      </trkpt>
      <trkpt lat="45.75055" lon="4.61902">
        <ele>719.4</ele>
        <time>2020-06-15T13:57:04.000Z</time>
      </trkpt>
      <trkpt lat="45.75056" lon="4.61914">
        <ele>717.6</ele>
        <time>2020-06-15T13:57:06.000Z</time>
      </trkpt>
      <trkpt lat="45.75055" lon="4.61921">
        <ele>716.7</ele>
        <time>2020-06-15T13:57:07.000Z</time>
      </trkpt>
      <trkpt lat="45.75052" lon="4.61941">
        <ele>714.3</ele>
        <time>2020-06-15T13:57:10.000Z</time>
      </trkpt>
      <trkpt lat="45.7505" lon="4.61947">
        <ele>713.5</ele>
        <time>2020-06-15T13:57:11.000Z</time>
      </trkpt>
      <trkpt lat="45.75041" lon="4.61967">
        <ele>711.1</ele>
        <time>2020-06-15T13:57:15.000Z</time>
      </trkpt>
      <trkpt lat="45.7503" lon="4.61983">
        <ele>708.6</ele>
        <time>2020-06-15T13:57:19.000Z</time>
      </trkpt>
      <trkpt lat="45.75026" lon="4.61992">
        <ele>707.4</ele>
        <time>2020-06-15T13:57:21.000Z</time>
      </trkpt>
      <trkpt lat="45.75024" lon="4.61994">
        <ele>707</ele>
        <time>2020-06-15T13:57:22.000Z</time>
      </trkpt>
      <trkpt lat="45.75016" lon="4.61995">
        <ele>705.5</ele>
        <time>2020-06-15T13:57:25.000Z</time>
      </trkpt>
      <trkpt lat="45.75014" lon="4.61996">
        <ele>704.9</ele>
        <time>2020-06-15T13:57:26.000Z</time>
      </trkpt>
      <trkpt lat="45.75008" lon="4.62004">
        <ele>703.3</ele>
        <time>2020-06-15T13:57:28.000Z</time>
      </trkpt>
      <trkpt lat="45.75003" lon="4.62012">
        <ele>701.7</ele>
        <time>2020-06-15T13:57:30.000Z</time>
      </trkpt>
      <trkpt lat="45.75" lon="4.62012">
        <ele>701.2</ele>
        <time>2020-06-15T13:57:31.000Z</time>
      </trkpt>
      <trkpt lat="45.74994" lon="4.62013">
        <ele>699.9</ele>
        <time>2020-06-15T13:57:34.000Z</time>
      </trkpt>
      <trkpt lat="45.74991" lon="4.62013">
        <ele>699.4</ele>
        <time>2020-06-15T13:57:35.000Z</time>
      </trkpt>
      <trkpt lat="45.74984" lon="4.62016">
        <ele>697.9</ele>
        <time>2020-06-15T13:57:37.000Z</time>
      </trkpt>
      <trkpt lat="45.74981" lon="4.62021">
        <ele>697.1</ele>
        <time>2020-06-15T13:57:38.000Z</time>
      </trkpt>
      <trkpt lat="45.7498" lon="4.62026">
        <ele>696.4</ele>
        <time>2020-06-15T13:57:39.000Z</time>
      </trkpt>
      <trkpt lat="45.74978" lon="4.62035">
        <ele>695.3</ele>
        <time>2020-06-15T13:57:41.000Z</time>
      </trkpt>
      <trkpt lat="45.74973" lon="4.62061">
        <ele>692.7</ele>
        <time>2020-06-15T13:57:46.000Z</time>
      </trkpt>
      <trkpt lat="45.74966" lon="4.62073">
        <ele>691.8</ele>
        <time>2020-06-15T13:57:49.000Z</time>
      </trkpt>
      <trkpt lat="45.74963" lon="4.62075">
        <ele>691.5</ele>
        <time>2020-06-15T13:57:50.000Z</time>
      </trkpt>
      <trkpt lat="45.74951" lon="4.62077">
        <ele>690.2</ele>
        <time>2020-06-15T13:57:53.000Z</time>
      </trkpt>
      <trkpt lat="45.74949" lon="4.62075">
        <ele>689.8</ele>
        <time>2020-06-15T13:57:54.000Z</time>
      </trkpt>
      <trkpt lat="45.74948" lon="4.62073">
        <ele>689.5</ele>
        <time>2020-06-15T13:57:55.000Z</time>
      </trkpt>
      <trkpt lat="45.74948" lon="4.62073">
        <ele>689.4</ele>
        <time>2020-06-15T13:57:59.000Z</time>
      </trkpt>
      <trkpt lat="45.74948" lon="4.62073">
        <ele>689.4</ele>
        <time>2020-06-15T13:58:06.000Z</time>
      </trkpt>
      <trkpt lat="45.74946" lon="4.62074">
        <ele>689.1</ele>
        <time>2020-06-15T13:58:09.000Z</time>
      </trkpt>
      <trkpt lat="45.74943" lon="4.62081">
        <ele>688.1</ele>
        <time>2020-06-15T13:58:11.000Z</time>
      </trkpt>
      <trkpt lat="45.74937" lon="4.62099">
        <ele>684.8</ele>
        <time>2020-06-15T13:58:15.000Z</time>
      </trkpt>
      <trkpt lat="45.74929" lon="4.62102">
        <ele>683</ele>
        <time>2020-06-15T13:58:18.000Z</time>
      </trkpt>
      <trkpt lat="45.74916" lon="4.62114">
        <ele>680.1</ele>
        <time>2020-06-15T13:58:22.000Z</time>
      </trkpt>
      <trkpt lat="45.74913" lon="4.62115">
        <ele>679.6</ele>
        <time>2020-06-15T13:58:23.000Z</time>
      </trkpt>
      <trkpt lat="45.74906" lon="4.62115">
        <ele>678.4</ele>
        <time>2020-06-15T13:58:25.000Z</time>
      </trkpt>
      <trkpt lat="45.74897" lon="4.62116">
        <ele>676.9</ele>
        <time>2020-06-15T13:58:27.000Z</time>
      </trkpt>
      <trkpt lat="45.74889" lon="4.62122">
        <ele>675.5</ele>
        <time>2020-06-15T13:58:29.000Z</time>
      </trkpt>
      <trkpt lat="45.74879" lon="4.62134">
        <ele>673.6</ele>
        <time>2020-06-15T13:58:32.000Z</time>
      </trkpt>
      <trkpt lat="45.74876" lon="4.62143">
        <ele>672.7</ele>
        <time>2020-06-15T13:58:34.000Z</time>
      </trkpt>
      <trkpt lat="45.74874" lon="4.62154">
        <ele>671.8</ele>
        <time>2020-06-15T13:58:38.000Z</time>
      </trkpt>
      <trkpt lat="45.74871" lon="4.62165">
        <ele>671.1</ele>
        <time>2020-06-15T13:58:42.000Z</time>
      </trkpt>
      <trkpt lat="45.74867" lon="4.62177">
        <ele>670.5</ele>
        <time>2020-06-15T13:58:46.000Z</time>
      </trkpt>
      <trkpt lat="45.74865" lon="4.62194">
        <ele>669.8</ele>
        <time>2020-06-15T13:58:52.000Z</time>
      </trkpt>
      <trkpt lat="45.74861" lon="4.62218">
        <ele>669</ele>
        <time>2020-06-15T13:58:56.000Z</time>
      </trkpt>
      <trkpt lat="45.74858" lon="4.62242">
        <ele>668</ele>
        <time>2020-06-15T13:59:00.000Z</time>
      </trkpt>
      <trkpt lat="45.74853" lon="4.6226">
        <ele>667.4</ele>
        <time>2020-06-15T13:59:03.000Z</time>
      </trkpt>
      <trkpt lat="45.74844" lon="4.6228">
        <ele>666.6</ele>
        <time>2020-06-15T13:59:06.000Z</time>
      </trkpt>
      <trkpt lat="45.74843" lon="4.62287">
        <ele>666.3</ele>
        <time>2020-06-15T13:59:07.000Z</time>
      </trkpt>
      <trkpt lat="45.7484" lon="4.62316">
        <ele>664.4</ele>
        <time>2020-06-15T13:59:12.000Z</time>
      </trkpt>
      <trkpt lat="45.74842" lon="4.62326">
        <ele>663.9</ele>
        <time>2020-06-15T13:59:15.000Z</time>
      </trkpt>
      <trkpt lat="45.74844" lon="4.62331">
        <ele>663.6</ele>
        <time>2020-06-15T13:59:17.000Z</time>
      </trkpt>
      <trkpt lat="45.74843" lon="4.6234">
        <ele>663.3</ele>
        <time>2020-06-15T13:59:19.000Z</time>
      </trkpt>
      <trkpt lat="45.74841" lon="4.62362">
        <ele>662.8</ele>
        <time>2020-06-15T13:59:24.000Z</time>
      </trkpt>
      <trkpt lat="45.74838" lon="4.62373">
        <ele>662.4</ele>
        <time>2020-06-15T13:59:26.000Z</time>
      </trkpt>
      <trkpt lat="45.74838" lon="4.62378">
        <ele>662.1</ele>
        <time>2020-06-15T13:59:27.000Z</time>
      </trkpt>
      <trkpt lat="45.74839" lon="4.62389">
        <ele>661.5</ele>
        <time>2020-06-15T13:59:29.000Z</time>
      </trkpt>
      <trkpt lat="45.74841" lon="4.624">
        <ele>660.8</ele>
        <time>2020-06-15T13:59:31.000Z</time>
      </trkpt>
      <trkpt lat="45.74843" lon="4.62411">
        <ele>660.1</ele>
        <time>2020-06-15T13:59:34.000Z</time>
      </trkpt>
      <trkpt lat="45.74841" lon="4.62414">
        <ele>659.9</ele>
        <time>2020-06-15T13:59:35.000Z</time>
      </trkpt>
      <trkpt lat="45.74835" lon="4.62413">
        <ele>659.3</ele>
        <time>2020-06-15T13:59:38.000Z</time>
      </trkpt>
      <trkpt lat="45.74835" lon="4.62413">
        <ele>659.3</ele>
        <time>2020-06-15T13:59:39.000Z</time>
      </trkpt>
      <trkpt lat="45.74832" lon="4.62414">
        <ele>654.1</ele>
        <time>2020-06-15T13:59:41.000Z</time>
      </trkpt>
      <trkpt lat="45.7483" lon="4.62413">
        <ele>654.2</ele>
        <time>2020-06-15T13:59:42.000Z</time>
      </trkpt>
      <trkpt lat="45.74825" lon="4.62412">
        <ele>654.5</ele>
        <time>2020-06-15T13:59:44.000Z</time>
      </trkpt>
      <trkpt lat="45.74821" lon="4.62397">
        <ele>655.2</ele>
        <time>2020-06-15T13:59:47.000Z</time>
      </trkpt>
      <trkpt lat="45.74819" lon="4.62383">
        <ele>655.9</ele>
        <time>2020-06-15T13:59:50.000Z</time>
      </trkpt>
      <trkpt lat="45.74819" lon="4.62382">
        <ele>655.9</ele>
        <time>2020-06-15T13:59:53.000Z</time>
      </trkpt>
      <trkpt lat="45.74819" lon="4.62382">
        <ele>655.9</ele>
        <time>2020-06-15T14:00:04.000Z</time>
      </trkpt>
      <trkpt lat="45.74819" lon="4.62382">
        <ele>655.9</ele>
        <time>2020-06-15T14:00:17.000Z</time>
      </trkpt>
      <trkpt lat="45.74819" lon="4.62382">
        <ele>655.9</ele>
        <time>2020-06-15T14:00:28.000Z</time>
      </trkpt>
      <trkpt lat="45.74819" lon="4.62383">
        <ele>656</ele>
        <time>2020-06-15T14:00:40.000Z</time>
      </trkpt>
      <trkpt lat="45.74819" lon="4.62383">
        <ele>656</ele>
        <time>2020-06-15T14:00:51.000Z</time>
      </trkpt>
      <trkpt lat="45.74819" lon="4.62383">
        <ele>656</ele>
        <time>2020-06-15T14:00:52.000Z</time>
      </trkpt>
      <trkpt lat="45.74817" lon="4.62381">
        <ele>656.1</ele>
        <time>2020-06-15T14:00:54.000Z</time>
      </trkpt>
      <trkpt lat="45.74817" lon="4.62379">
        <ele>656.2</ele>
        <time>2020-06-15T14:00:55.000Z</time>
      </trkpt>
      <trkpt lat="45.74816" lon="4.62366">
        <ele>656.8</ele>
        <time>2020-06-15T14:01:01.000Z</time>
      </trkpt>
      <trkpt lat="45.74816" lon="4.6235">
        <ele>657.5</ele>
        <time>2020-06-15T14:01:07.000Z</time>
      </trkpt>
      <trkpt lat="45.74817" lon="4.62326">
        <ele>658.6</ele>
        <time>2020-06-15T14:01:15.000Z</time>
      </trkpt>
      <trkpt lat="45.74819" lon="4.62301">
        <ele>659.6</ele>
        <time>2020-06-15T14:01:24.000Z</time>
      </trkpt>
      <trkpt lat="45.74823" lon="4.62279">
        <ele>660.6</ele>
        <time>2020-06-15T14:01:32.000Z</time>
      </trkpt>
      <trkpt lat="45.74829" lon="4.62258">
        <ele>661.6</ele>
        <time>2020-06-15T14:01:40.000Z</time>
      </trkpt>
      <trkpt lat="45.74835" lon="4.6224">
        <ele>662.3</ele>
        <time>2020-06-15T14:01:47.000Z</time>
      </trkpt>
      <trkpt lat="45.74839" lon="4.62221">
        <ele>663.2</ele>
        <time>2020-06-15T14:01:55.000Z</time>
      </trkpt>
      <trkpt lat="45.74844" lon="4.62207">
        <ele>663.9</ele>
        <time>2020-06-15T14:02:01.000Z</time>
      </trkpt>
      <trkpt lat="45.74848" lon="4.62188">
        <ele>664.7</ele>
        <time>2020-06-15T14:02:07.000Z</time>
      </trkpt>
      <trkpt lat="45.74853" lon="4.62166">
        <ele>665.6</ele>
        <time>2020-06-15T14:02:14.000Z</time>
      </trkpt>
      <trkpt lat="45.74857" lon="4.62147">
        <ele>666.2</ele>
        <time>2020-06-15T14:02:20.000Z</time>
      </trkpt>
      <trkpt lat="45.74863" lon="4.62128">
        <ele>667</ele>
        <time>2020-06-15T14:02:27.000Z</time>
      </trkpt>
      <trkpt lat="45.74869" lon="4.62111">
        <ele>667.8</ele>
        <time>2020-06-15T14:02:34.000Z</time>
      </trkpt>
      <trkpt lat="45.74877" lon="4.62097">
        <ele>668.5</ele>
        <time>2020-06-15T14:02:40.000Z</time>
      </trkpt>
      <trkpt lat="45.74886" lon="4.62081">
        <ele>669.3</ele>
        <time>2020-06-15T14:02:47.000Z</time>
      </trkpt>
      <trkpt lat="45.74896" lon="4.62066">
        <ele>670.2</ele>
        <time>2020-06-15T14:02:54.000Z</time>
      </trkpt>
      <trkpt lat="45.74902" lon="4.62055">
        <ele>670.7</ele>
        <time>2020-06-15T14:02:59.000Z</time>
      </trkpt>
      <trkpt lat="45.74902" lon="4.62053">
        <ele>670.8</ele>
        <time>2020-06-15T14:03:00.000Z</time>
      </trkpt>
      <trkpt lat="45.74907" lon="4.62041">
        <ele>671.5</ele>
        <time>2020-06-15T14:03:05.000Z</time>
      </trkpt>
      <trkpt lat="45.74913" lon="4.62027">
        <ele>672.3</ele>
        <time>2020-06-15T14:03:11.000Z</time>
      </trkpt>
      <trkpt lat="45.74921" lon="4.62006">
        <ele>673.5</ele>
        <time>2020-06-15T14:03:19.000Z</time>
      </trkpt>
      <trkpt lat="45.74927" lon="4.61991">
        <ele>674.3</ele>
        <time>2020-06-15T14:03:25.000Z</time>
      </trkpt>
      <trkpt lat="45.74934" lon="4.6197">
        <ele>675.5</ele>
        <time>2020-06-15T14:03:33.000Z</time>
      </trkpt>
      <trkpt lat="45.74942" lon="4.61952">
        <ele>676.4</ele>
        <time>2020-06-15T14:03:40.000Z</time>
      </trkpt>
      <trkpt lat="45.74946" lon="4.6194">
        <ele>677.1</ele>
        <time>2020-06-15T14:03:45.000Z</time>
      </trkpt>
      <trkpt lat="45.74951" lon="4.6192">
        <ele>678.2</ele>
        <time>2020-06-15T14:03:52.000Z</time>
      </trkpt>
      <trkpt lat="45.74955" lon="4.61901">
        <ele>679</ele>
        <time>2020-06-15T14:03:58.000Z</time>
      </trkpt>
      <trkpt lat="45.74959" lon="4.61884">
        <ele>679.8</ele>
        <time>2020-06-15T14:04:04.000Z</time>
      </trkpt>
      <trkpt lat="45.74965" lon="4.61863">
        <ele>680.9</ele>
        <time>2020-06-15T14:04:12.000Z</time>
      </trkpt>
      <trkpt lat="45.74969" lon="4.61845">
        <ele>681.8</ele>
        <time>2020-06-15T14:04:19.000Z</time>
      </trkpt>
      <trkpt lat="45.74973" lon="4.61826">
        <ele>682.6</ele>
        <time>2020-06-15T14:04:26.000Z</time>
      </trkpt>
      <trkpt lat="45.74976" lon="4.61812">
        <ele>683.3</ele>
        <time>2020-06-15T14:04:31.000Z</time>
      </trkpt>
      <trkpt lat="45.7498" lon="4.61794">
        <ele>684.2</ele>
        <time>2020-06-15T14:04:38.000Z</time>
      </trkpt>
      <trkpt lat="45.74986" lon="4.61767">
        <ele>685.6</ele>
        <time>2020-06-15T14:04:48.000Z</time>
      </trkpt>
      <trkpt lat="45.7499" lon="4.61753">
        <ele>686.3</ele>
        <time>2020-06-15T14:04:53.000Z</time>
      </trkpt>
      <trkpt lat="45.74993" lon="4.61742">
        <ele>686.9</ele>
        <time>2020-06-15T14:04:57.000Z</time>
      </trkpt>
      <trkpt lat="45.74996" lon="4.61731">
        <ele>687.5</ele>
        <time>2020-06-15T14:05:01.000Z</time>
      </trkpt>
      <trkpt lat="45.74997" lon="4.61727">
        <ele>687.6</ele>
        <time>2020-06-15T14:05:02.000Z</time>
      </trkpt>
      <trkpt lat="45.75" lon="4.61711">
        <ele>688.4</ele>
        <time>2020-06-15T14:05:08.000Z</time>
      </trkpt>
      <trkpt lat="45.75004" lon="4.61693">
        <ele>689.3</ele>
        <time>2020-06-15T14:05:14.000Z</time>
      </trkpt>
      <trkpt lat="45.75009" lon="4.61675">
        <ele>690.1</ele>
        <time>2020-06-15T14:05:20.000Z</time>
      </trkpt>
      <trkpt lat="45.75013" lon="4.61658">
        <ele>690.9</ele>
        <time>2020-06-15T14:05:26.000Z</time>
      </trkpt>
      <trkpt lat="45.75019" lon="4.61639">
        <ele>691.9</ele>
        <time>2020-06-15T14:05:33.000Z</time>
      </trkpt>
      <trkpt lat="45.75024" lon="4.61624">
        <ele>692.7</ele>
        <time>2020-06-15T14:05:40.000Z</time>
      </trkpt>
      <trkpt lat="45.7503" lon="4.61609">
        <ele>693.5</ele>
        <time>2020-06-15T14:05:46.000Z</time>
      </trkpt>
      <trkpt lat="45.75037" lon="4.61591">
        <ele>694.4</ele>
        <time>2020-06-15T14:05:53.000Z</time>
      </trkpt>
      <trkpt lat="45.75046" lon="4.61571">
        <ele>695.5</ele>
        <time>2020-06-15T14:06:00.000Z</time>
      </trkpt>
      <trkpt lat="45.75053" lon="4.61556">
        <ele>696.2</ele>
        <time>2020-06-15T14:06:06.000Z</time>
      </trkpt>
      <trkpt lat="45.75061" lon="4.61538">
        <ele>697.1</ele>
        <time>2020-06-15T14:06:13.000Z</time>
      </trkpt>
      <trkpt lat="45.75067" lon="4.61519">
        <ele>698.1</ele>
        <time>2020-06-15T14:06:20.000Z</time>
      </trkpt>
      <trkpt lat="45.75072" lon="4.615">
        <ele>699</ele>
        <time>2020-06-15T14:06:26.000Z</time>
      </trkpt>
      <trkpt lat="45.75076" lon="4.61484">
        <ele>699.7</ele>
        <time>2020-06-15T14:06:31.000Z</time>
      </trkpt>
      <trkpt lat="45.75078" lon="4.61465">
        <ele>700.6</ele>
        <time>2020-06-15T14:06:38.000Z</time>
      </trkpt>
      <trkpt lat="45.7508" lon="4.61448">
        <ele>701.3</ele>
        <time>2020-06-15T14:06:44.000Z</time>
      </trkpt>
      <trkpt lat="45.75083" lon="4.61427">
        <ele>702.3</ele>
        <time>2020-06-15T14:06:51.000Z</time>
      </trkpt>
      <trkpt lat="45.75086" lon="4.61401">
        <ele>703.5</ele>
        <time>2020-06-15T14:06:59.000Z</time>
      </trkpt>
      <trkpt lat="45.7509" lon="4.61379">
        <ele>704.5</ele>
        <time>2020-06-15T14:07:05.000Z</time>
      </trkpt>
      <trkpt lat="45.75092" lon="4.61368">
        <ele>705.1</ele>
        <time>2020-06-15T14:07:09.000Z</time>
      </trkpt>
      <trkpt lat="45.75092" lon="4.61364">
        <ele>705.3</ele>
        <time>2020-06-15T14:07:11.000Z</time>
      </trkpt>
      <trkpt lat="45.75093" lon="4.6135">
        <ele>705.9</ele>
        <time>2020-06-15T14:07:16.000Z</time>
      </trkpt>
      <trkpt lat="45.75092" lon="4.61333">
        <ele>706.7</ele>
        <time>2020-06-15T14:07:22.000Z</time>
      </trkpt>
      <trkpt lat="45.7509" lon="4.61311">
        <ele>707.7</ele>
        <time>2020-06-15T14:07:29.000Z</time>
      </trkpt>
      <trkpt lat="45.75088" lon="4.61293">
        <ele>708.5</ele>
        <time>2020-06-15T14:07:35.000Z</time>
      </trkpt>
      <trkpt lat="45.75085" lon="4.61285">
        <ele>708.9</ele>
        <time>2020-06-15T14:07:39.000Z</time>
      </trkpt>
      <trkpt lat="45.75082" lon="4.61276">
        <ele>709.3</ele>
        <time>2020-06-15T14:07:43.000Z</time>
      </trkpt>
      <trkpt lat="45.75081" lon="4.61274">
        <ele>709.4</ele>
        <time>2020-06-15T14:07:44.000Z</time>
      </trkpt>
      <trkpt lat="45.75075" lon="4.61264">
        <ele>710</ele>
        <time>2020-06-15T14:07:49.000Z</time>
      </trkpt>
      <trkpt lat="45.75064" lon="4.61252">
        <ele>710.9</ele>
        <time>2020-06-15T14:07:56.000Z</time>
      </trkpt>
      <trkpt lat="45.75056" lon="4.61243">
        <ele>711.6</ele>
        <time>2020-06-15T14:08:02.000Z</time>
      </trkpt>
      <trkpt lat="45.75046" lon="4.61234">
        <ele>712.4</ele>
        <time>2020-06-15T14:08:08.000Z</time>
      </trkpt>
      <trkpt lat="45.75036" lon="4.61223">
        <ele>713.3</ele>
        <time>2020-06-15T14:08:15.000Z</time>
      </trkpt>
      <trkpt lat="45.75024" lon="4.61214">
        <ele>714.3</ele>
        <time>2020-06-15T14:08:22.000Z</time>
      </trkpt>
      <trkpt lat="45.75018" lon="4.61207">
        <ele>714.8</ele>
        <time>2020-06-15T14:08:27.000Z</time>
      </trkpt>
      <trkpt lat="45.75017" lon="4.61206">
        <ele>715</ele>
        <time>2020-06-15T14:08:28.000Z</time>
      </trkpt>
      <trkpt lat="45.75012" lon="4.61201">
        <ele>715.4</ele>
        <time>2020-06-15T14:08:31.000Z</time>
      </trkpt>
      <trkpt lat="45.75011" lon="4.612">
        <ele>715.6</ele>
        <time>2020-06-15T14:08:32.000Z</time>
      </trkpt>
      <trkpt lat="45.75005" lon="4.61194">
        <ele>716</ele>
        <time>2020-06-15T14:08:36.000Z</time>
      </trkpt>
      <trkpt lat="45.74998" lon="4.61187">
        <ele>716.7</ele>
        <time>2020-06-15T14:08:40.000Z</time>
      </trkpt>
      <trkpt lat="45.74994" lon="4.61185">
        <ele>717</ele>
        <time>2020-06-15T14:08:42.000Z</time>
      </trkpt>
      <trkpt lat="45.74993" lon="4.61183">
        <ele>717.2</ele>
        <time>2020-06-15T14:08:44.000Z</time>
      </trkpt>
      <trkpt lat="45.74991" lon="4.61182">
        <ele>717.3</ele>
        <time>2020-06-15T14:08:46.000Z</time>
      </trkpt>
      <trkpt lat="45.74989" lon="4.61181">
        <ele>717.5</ele>
        <time>2020-06-15T14:08:47.000Z</time>
      </trkpt>
      <trkpt lat="45.74982" lon="4.61178">
        <ele>718</ele>
        <time>2020-06-15T14:08:52.000Z</time>
      </trkpt>
      <trkpt lat="45.74971" lon="4.61176">
        <ele>718.8</ele>
        <time>2020-06-15T14:08:59.000Z</time>
      </trkpt>
      <trkpt lat="45.74969" lon="4.61177">
        <ele>718.9</ele>
        <time>2020-06-15T14:09:00.000Z</time>
      </trkpt>
      <trkpt lat="45.74963" lon="4.61179">
        <ele>719.4</ele>
        <time>2020-06-15T14:09:04.000Z</time>
      </trkpt>
      <trkpt lat="45.74956" lon="4.6118">
        <ele>719.9</ele>
        <time>2020-06-15T14:09:08.000Z</time>
      </trkpt>
      <trkpt lat="45.74952" lon="4.61181">
        <ele>720.2</ele>
        <time>2020-06-15T14:09:10.000Z</time>
      </trkpt>
      <trkpt lat="45.74946" lon="4.61183">
        <ele>720.7</ele>
        <time>2020-06-15T14:09:15.000Z</time>
      </trkpt>
      <trkpt lat="45.74937" lon="4.61188">
        <ele>721.3</ele>
        <time>2020-06-15T14:09:20.000Z</time>
      </trkpt>
      <trkpt lat="45.74927" lon="4.61192">
        <ele>721.9</ele>
        <time>2020-06-15T14:09:25.000Z</time>
      </trkpt>
      <trkpt lat="45.74914" lon="4.61198">
        <ele>722.8</ele>
        <time>2020-06-15T14:09:31.000Z</time>
      </trkpt>
      <trkpt lat="45.74911" lon="4.612">
        <ele>723</ele>
        <time>2020-06-15T14:09:32.000Z</time>
      </trkpt>
      <trkpt lat="45.74905" lon="4.61203">
        <ele>723.4</ele>
        <time>2020-06-15T14:09:35.000Z</time>
      </trkpt>
      <trkpt lat="45.749" lon="4.61206">
        <ele>723.7</ele>
        <time>2020-06-15T14:09:38.000Z</time>
      </trkpt>
      <trkpt lat="45.74898" lon="4.61207">
        <ele>723.9</ele>
        <time>2020-06-15T14:09:39.000Z</time>
      </trkpt>
      <trkpt lat="45.74897" lon="4.61209">
        <ele>724</ele>
        <time>2020-06-15T14:09:40.000Z</time>
      </trkpt>
      <trkpt lat="45.74889" lon="4.61209">
        <ele>724.5</ele>
        <time>2020-06-15T14:09:44.000Z</time>
      </trkpt>
      <trkpt lat="45.7488" lon="4.61209">
        <ele>725.1</ele>
        <time>2020-06-15T14:09:49.000Z</time>
      </trkpt>
      <trkpt lat="45.74871" lon="4.61212">
        <ele>725.6</ele>
        <time>2020-06-15T14:09:54.000Z</time>
      </trkpt>
      <trkpt lat="45.74868" lon="4.61213">
        <ele>725.9</ele>
        <time>2020-06-15T14:09:57.000Z</time>
      </trkpt>
      <trkpt lat="45.74867" lon="4.61214">
        <ele>725.9</ele>
        <time>2020-06-15T14:09:58.000Z</time>
      </trkpt>
      <trkpt lat="45.74862" lon="4.61215">
        <ele>726.2</ele>
        <time>2020-06-15T14:10:02.000Z</time>
      </trkpt>
      <trkpt lat="45.7486" lon="4.61215">
        <ele>726.4</ele>
        <time>2020-06-15T14:10:03.000Z</time>
      </trkpt>
      <trkpt lat="45.74852" lon="4.61213">
        <ele>726.8</ele>
        <time>2020-06-15T14:10:08.000Z</time>
      </trkpt>
      <trkpt lat="45.74838" lon="4.61209">
        <ele>727.7</ele>
        <time>2020-06-15T14:10:14.000Z</time>
      </trkpt>
      <trkpt lat="45.74834" lon="4.61208">
        <ele>728</ele>
        <time>2020-06-15T14:10:15.000Z</time>
      </trkpt>
      <trkpt lat="45.74828" lon="4.61206">
        <ele>728.3</ele>
        <time>2020-06-15T14:10:19.000Z</time>
      </trkpt>
      <trkpt lat="45.74826" lon="4.61203">
        <ele>728.6</ele>
        <time>2020-06-15T14:10:21.000Z</time>
      </trkpt>
      <trkpt lat="45.74821" lon="4.61201">
        <ele>728.9</ele>
        <time>2020-06-15T14:10:24.000Z</time>
      </trkpt>
      <trkpt lat="45.74817" lon="4.61199">
        <ele>729.2</ele>
        <time>2020-06-15T14:10:27.000Z</time>
      </trkpt>
      <trkpt lat="45.74814" lon="4.61196">
        <ele>729.4</ele>
        <time>2020-06-15T14:10:30.000Z</time>
      </trkpt>
      <trkpt lat="45.74808" lon="4.61187">
        <ele>730</ele>
        <time>2020-06-15T14:10:35.000Z</time>
      </trkpt>
      <trkpt lat="45.74808" lon="4.61185">
        <ele>730.1</ele>
        <time>2020-06-15T14:10:36.000Z</time>
      </trkpt>
      <trkpt lat="45.74809" lon="4.61178">
        <ele>730.3</ele>
        <time>2020-06-15T14:10:40.000Z</time>
      </trkpt>
      <trkpt lat="45.74809" lon="4.61178">
        <ele>730.4</ele>
        <time>2020-06-15T14:10:47.000Z</time>
      </trkpt>
      <trkpt lat="45.74809" lon="4.61178">
        <ele>730.4</ele>
        <time>2020-06-15T14:10:55.000Z</time>
      </trkpt>
      <trkpt lat="45.74809" lon="4.61178">
        <ele>730.4</ele>
        <time>2020-06-15T14:11:12.000Z</time>
      </trkpt>
      <trkpt lat="45.74803" lon="4.61177">
        <ele>730.7</ele>
        <time>2020-06-15T14:11:30.000Z</time>
      </trkpt>
      <trkpt lat="45.74803" lon="4.61177">
        <ele>730.7</ele>
        <time>2020-06-15T14:11:45.000Z</time>
      </trkpt>
      <trkpt lat="45.74803" lon="4.61177">
        <ele>730.7</ele>
        <time>2020-06-15T14:12:00.000Z</time>
      </trkpt>
      <trkpt lat="45.74803" lon="4.61175">
        <ele>730.7</ele>
        <time>2020-06-15T14:12:10.000Z</time>
      </trkpt>
      <trkpt lat="45.74803" lon="4.61175">
        <ele>730.7</ele>
        <time>2020-06-15T14:12:23.000Z</time>
      </trkpt>
      <trkpt lat="45.74791" lon="4.61172">
        <ele>730.9</ele>
        <time>2020-06-15T14:12:27.000Z</time>
      </trkpt>
      <trkpt lat="45.74784" lon="4.61182">
        <ele>731.2</ele>
        <time>2020-06-15T14:12:33.000Z</time>
      </trkpt>
      <trkpt lat="45.74778" lon="4.61196">
        <ele>731.5</ele>
        <time>2020-06-15T14:12:38.000Z</time>
      </trkpt>
      <trkpt lat="45.74766" lon="4.6121">
        <ele>731.9</ele>
        <time>2020-06-15T14:12:44.000Z</time>
      </trkpt>
      <trkpt lat="45.74758" lon="4.61221">
        <ele>732.1</ele>
        <time>2020-06-15T14:12:49.000Z</time>
      </trkpt>
      <trkpt lat="45.74744" lon="4.61238">
        <ele>732.6</ele>
        <time>2020-06-15T14:12:56.000Z</time>
      </trkpt>
      <trkpt lat="45.74733" lon="4.61259">
        <ele>733.3</ele>
        <time>2020-06-15T14:13:04.000Z</time>
      </trkpt>
      <trkpt lat="45.74723" lon="4.61271">
        <ele>733.8</ele>
        <time>2020-06-15T14:13:10.000Z</time>
      </trkpt>
      <trkpt lat="45.74713" lon="4.61285">
        <ele>734.6</ele>
        <time>2020-06-15T14:13:17.000Z</time>
      </trkpt>
      <trkpt lat="45.74702" lon="4.61292">
        <ele>735.3</ele>
        <time>2020-06-15T14:13:22.000Z</time>
      </trkpt>
      <trkpt lat="45.74693" lon="4.61301">
        <ele>736</ele>
        <time>2020-06-15T14:13:27.000Z</time>
      </trkpt>
      <trkpt lat="45.74685" lon="4.61308">
        <ele>736.7</ele>
        <time>2020-06-15T14:13:32.000Z</time>
      </trkpt>
      <trkpt lat="45.74676" lon="4.61315">
        <ele>737.4</ele>
        <time>2020-06-15T14:13:38.000Z</time>
      </trkpt>
      <trkpt lat="45.74661" lon="4.61324">
        <ele>738.4</ele>
        <time>2020-06-15T14:13:46.000Z</time>
      </trkpt>
      <trkpt lat="45.74646" lon="4.6133">
        <ele>739.4</ele>
        <time>2020-06-15T14:13:53.000Z</time>
      </trkpt>
      <trkpt lat="45.7463" lon="4.61331">
        <ele>740.2</ele>
        <time>2020-06-15T14:13:59.000Z</time>
      </trkpt>
      <trkpt lat="45.74617" lon="4.61332">
        <ele>741</ele>
        <time>2020-06-15T14:14:04.000Z</time>
      </trkpt>
      <trkpt lat="45.74601" lon="4.61334">
        <ele>741.9</ele>
        <time>2020-06-15T14:14:11.000Z</time>
      </trkpt>
      <trkpt lat="45.74584" lon="4.61336">
        <ele>742.9</ele>
        <time>2020-06-15T14:14:19.000Z</time>
      </trkpt>
      <trkpt lat="45.74572" lon="4.61339">
        <ele>743.6</ele>
        <time>2020-06-15T14:14:26.000Z</time>
      </trkpt>
      <trkpt lat="45.74558" lon="4.6134">
        <ele>744.4</ele>
        <time>2020-06-15T14:14:32.000Z</time>
      </trkpt>
      <trkpt lat="45.74544" lon="4.61341">
        <ele>745.3</ele>
        <time>2020-06-15T14:14:38.000Z</time>
      </trkpt>
      <trkpt lat="45.74532" lon="4.61342">
        <ele>746</ele>
        <time>2020-06-15T14:14:44.000Z</time>
      </trkpt>
      <trkpt lat="45.74522" lon="4.61342">
        <ele>746.7</ele>
        <time>2020-06-15T14:14:50.000Z</time>
      </trkpt>
      <trkpt lat="45.7451" lon="4.61344">
        <ele>747.5</ele>
        <time>2020-06-15T14:14:57.000Z</time>
      </trkpt>
      <trkpt lat="45.74501" lon="4.61349">
        <ele>748.1</ele>
        <time>2020-06-15T14:15:03.000Z</time>
      </trkpt>
      <trkpt lat="45.74487" lon="4.61354">
        <ele>748.9</ele>
        <time>2020-06-15T14:15:10.000Z</time>
      </trkpt>
      <trkpt lat="45.74476" lon="4.61359">
        <ele>749.6</ele>
        <time>2020-06-15T14:15:16.000Z</time>
      </trkpt>
      <trkpt lat="45.74461" lon="4.61362">
        <ele>750.6</ele>
        <time>2020-06-15T14:15:22.000Z</time>
      </trkpt>
      <trkpt lat="45.74443" lon="4.61361">
        <ele>751.7</ele>
        <time>2020-06-15T14:15:29.000Z</time>
      </trkpt>
      <trkpt lat="45.74421" lon="4.61357">
        <ele>753</ele>
        <time>2020-06-15T14:15:36.000Z</time>
      </trkpt>
      <trkpt lat="45.74404" lon="4.61349">
        <ele>753.9</ele>
        <time>2020-06-15T14:15:44.000Z</time>
      </trkpt>
      <trkpt lat="45.74391" lon="4.61334">
        <ele>755</ele>
        <time>2020-06-15T14:15:52.000Z</time>
      </trkpt>
      <trkpt lat="45.74384" lon="4.61324">
        <ele>755.6</ele>
        <time>2020-06-15T14:15:57.000Z</time>
      </trkpt>
      <trkpt lat="45.74384" lon="4.61322">
        <ele>755.7</ele>
        <time>2020-06-15T14:15:58.000Z</time>
      </trkpt>
      <trkpt lat="45.74379" lon="4.6131">
        <ele>756.3</ele>
        <time>2020-06-15T14:16:02.000Z</time>
      </trkpt>
      <trkpt lat="45.74376" lon="4.613">
        <ele>756.8</ele>
        <time>2020-06-15T14:16:06.000Z</time>
      </trkpt>
      <trkpt lat="45.7437" lon="4.61289">
        <ele>757.4</ele>
        <time>2020-06-15T14:16:11.000Z</time>
      </trkpt>
      <trkpt lat="45.74361" lon="4.61276">
        <ele>758.3</ele>
        <time>2020-06-15T14:16:17.000Z</time>
      </trkpt>
      <trkpt lat="45.74345" lon="4.61264">
        <ele>759.7</ele>
        <time>2020-06-15T14:16:25.000Z</time>
      </trkpt>
      <trkpt lat="45.74327" lon="4.61258">
        <ele>761.1</ele>
        <time>2020-06-15T14:16:34.000Z</time>
      </trkpt>
      <trkpt lat="45.74316" lon="4.61254">
        <ele>762</ele>
        <time>2020-06-15T14:16:40.000Z</time>
      </trkpt>
      <trkpt lat="45.74301" lon="4.61247">
        <ele>763.2</ele>
        <time>2020-06-15T14:16:49.000Z</time>
      </trkpt>
      <trkpt lat="45.74284" lon="4.61243">
        <ele>764.5</ele>
        <time>2020-06-15T14:16:57.000Z</time>
      </trkpt>
      <trkpt lat="45.74266" lon="4.61239">
        <ele>765.9</ele>
        <time>2020-06-15T14:17:06.000Z</time>
      </trkpt>
      <trkpt lat="45.74255" lon="4.61237">
        <ele>766.8</ele>
        <time>2020-06-15T14:17:12.000Z</time>
      </trkpt>
      <trkpt lat="45.74242" lon="4.61237">
        <ele>767.8</ele>
        <time>2020-06-15T14:17:20.000Z</time>
      </trkpt>
      <trkpt lat="45.7423" lon="4.61238">
        <ele>768.8</ele>
        <time>2020-06-15T14:17:26.000Z</time>
      </trkpt>
      <trkpt lat="45.74218" lon="4.61242">
        <ele>769.8</ele>
        <time>2020-06-15T14:17:33.000Z</time>
      </trkpt>
      <trkpt lat="45.74207" lon="4.61246">
        <ele>770.7</ele>
        <time>2020-06-15T14:17:40.000Z</time>
      </trkpt>
      <trkpt lat="45.74197" lon="4.6125">
        <ele>771.5</ele>
        <time>2020-06-15T14:17:45.000Z</time>
      </trkpt>
      <trkpt lat="45.74186" lon="4.61255">
        <ele>772.3</ele>
        <time>2020-06-15T14:17:51.000Z</time>
      </trkpt>
      <trkpt lat="45.74175" lon="4.61258">
        <ele>773.2</ele>
        <time>2020-06-15T14:17:57.000Z</time>
      </trkpt>
      <trkpt lat="45.74163" lon="4.61262">
        <ele>774.1</ele>
        <time>2020-06-15T14:18:04.000Z</time>
      </trkpt>
      <trkpt lat="45.7415" lon="4.61268">
        <ele>775.1</ele>
        <time>2020-06-15T14:18:10.000Z</time>
      </trkpt>
      <trkpt lat="45.74136" lon="4.61273">
        <ele>776</ele>
        <time>2020-06-15T14:18:16.000Z</time>
      </trkpt>
      <trkpt lat="45.74134" lon="4.61274">
        <ele>776.2</ele>
        <time>2020-06-15T14:18:17.000Z</time>
      </trkpt>
      <trkpt lat="45.74116" lon="4.61282">
        <ele>775.5</ele>
        <time>2020-06-15T14:18:25.000Z</time>
      </trkpt>
      <trkpt lat="45.74106" lon="4.61288">
        <ele>776.1</ele>
        <time>2020-06-15T14:18:31.000Z</time>
      </trkpt>
      <trkpt lat="45.74099" lon="4.6129">
        <ele>776.5</ele>
        <time>2020-06-15T14:18:35.000Z</time>
      </trkpt>
      <trkpt lat="45.74097" lon="4.61291">
        <ele>776.6</ele>
        <time>2020-06-15T14:18:36.000Z</time>
      </trkpt>
      <trkpt lat="45.74091" lon="4.61296">
        <ele>777</ele>
        <time>2020-06-15T14:18:40.000Z</time>
      </trkpt>
      <trkpt lat="45.7409" lon="4.61296">
        <ele>777.1</ele>
        <time>2020-06-15T14:18:41.000Z</time>
      </trkpt>
      <trkpt lat="45.74079" lon="4.61306">
        <ele>777.9</ele>
        <time>2020-06-15T14:18:48.000Z</time>
      </trkpt>
      <trkpt lat="45.74071" lon="4.61312">
        <ele>778.5</ele>
        <time>2020-06-15T14:18:54.000Z</time>
      </trkpt>
      <trkpt lat="45.74061" lon="4.61318">
        <ele>779.2</ele>
        <time>2020-06-15T14:19:00.000Z</time>
      </trkpt>
      <trkpt lat="45.74049" lon="4.61322">
        <ele>780</ele>
        <time>2020-06-15T14:19:06.000Z</time>
      </trkpt>
      <trkpt lat="45.74041" lon="4.61326">
        <ele>780.6</ele>
        <time>2020-06-15T14:19:11.000Z</time>
      </trkpt>
      <trkpt lat="45.74029" lon="4.6133">
        <ele>781.4</ele>
        <time>2020-06-15T14:19:17.000Z</time>
      </trkpt>
      <trkpt lat="45.74013" lon="4.61332">
        <ele>782.3</ele>
        <time>2020-06-15T14:19:25.000Z</time>
      </trkpt>
      <trkpt lat="45.73994" lon="4.61327">
        <ele>783.5</ele>
        <time>2020-06-15T14:19:33.000Z</time>
      </trkpt>
      <trkpt lat="45.73976" lon="4.61322">
        <ele>784.6</ele>
        <time>2020-06-15T14:19:40.000Z</time>
      </trkpt>
      <trkpt lat="45.73965" lon="4.6132">
        <ele>785.4</ele>
        <time>2020-06-15T14:19:45.000Z</time>
      </trkpt>
      <trkpt lat="45.73956" lon="4.6132">
        <ele>786</ele>
        <time>2020-06-15T14:19:51.000Z</time>
      </trkpt>
      <trkpt lat="45.73947" lon="4.61319">
        <ele>786.7</ele>
        <time>2020-06-15T14:19:57.000Z</time>
      </trkpt>
      <trkpt lat="45.73934" lon="4.61321">
        <ele>787.6</ele>
        <time>2020-06-15T14:20:04.000Z</time>
      </trkpt>
      <trkpt lat="45.73922" lon="4.61323">
        <ele>788.5</ele>
        <time>2020-06-15T14:20:11.000Z</time>
      </trkpt>
      <trkpt lat="45.73915" lon="4.61326">
        <ele>789.1</ele>
        <time>2020-06-15T14:20:16.000Z</time>
      </trkpt>
      <trkpt lat="45.73907" lon="4.61328">
        <ele>789.6</ele>
        <time>2020-06-15T14:20:21.000Z</time>
      </trkpt>
      <trkpt lat="45.739" lon="4.61328">
        <ele>790</ele>
        <time>2020-06-15T14:20:26.000Z</time>
      </trkpt>
      <trkpt lat="45.73891" lon="4.6133">
        <ele>790.5</ele>
        <time>2020-06-15T14:20:31.000Z</time>
      </trkpt>
      <trkpt lat="45.73883" lon="4.61329">
        <ele>790.9</ele>
        <time>2020-06-15T14:20:36.000Z</time>
      </trkpt>
      <trkpt lat="45.73875" lon="4.61328">
        <ele>791.3</ele>
        <time>2020-06-15T14:20:41.000Z</time>
      </trkpt>
      <trkpt lat="45.73866" lon="4.61323">
        <ele>791.9</ele>
        <time>2020-06-15T14:20:47.000Z</time>
      </trkpt>
      <trkpt lat="45.73856" lon="4.61315">
        <ele>792.6</ele>
        <time>2020-06-15T14:20:52.000Z</time>
      </trkpt>
      <trkpt lat="45.73845" lon="4.61305">
        <ele>793.4</ele>
        <time>2020-06-15T14:20:58.000Z</time>
      </trkpt>
      <trkpt lat="45.7383" lon="4.61294">
        <ele>794.6</ele>
        <time>2020-06-15T14:21:03.000Z</time>
      </trkpt>
      <trkpt lat="45.73817" lon="4.6128">
        <ele>795.6</ele>
        <time>2020-06-15T14:21:09.000Z</time>
      </trkpt>
      <trkpt lat="45.73811" lon="4.61272">
        <ele>796.1</ele>
        <time>2020-06-15T14:21:13.000Z</time>
      </trkpt>
      <trkpt lat="45.73797" lon="4.61257">
        <ele>797.3</ele>
        <time>2020-06-15T14:21:20.000Z</time>
      </trkpt>
      <trkpt lat="45.73784" lon="4.61245">
        <ele>798.4</ele>
        <time>2020-06-15T14:21:26.000Z</time>
      </trkpt>
      <trkpt lat="45.73778" lon="4.61234">
        <ele>799.1</ele>
        <time>2020-06-15T14:21:31.000Z</time>
      </trkpt>
      <trkpt lat="45.7377" lon="4.61223">
        <ele>799.8</ele>
        <time>2020-06-15T14:21:36.000Z</time>
      </trkpt>
      <trkpt lat="45.73762" lon="4.61205">
        <ele>800.7</ele>
        <time>2020-06-15T14:21:43.000Z</time>
      </trkpt>
      <trkpt lat="45.73756" lon="4.61192">
        <ele>801.4</ele>
        <time>2020-06-15T14:21:49.000Z</time>
      </trkpt>
      <trkpt lat="45.73752" lon="4.61179">
        <ele>802</ele>
        <time>2020-06-15T14:21:54.000Z</time>
      </trkpt>
      <trkpt lat="45.73752" lon="4.61177">
        <ele>802.1</ele>
        <time>2020-06-15T14:21:55.000Z</time>
      </trkpt>
      <trkpt lat="45.73748" lon="4.61163">
        <ele>802.8</ele>
        <time>2020-06-15T14:22:01.000Z</time>
      </trkpt>
      <trkpt lat="45.73745" lon="4.61147">
        <ele>803.5</ele>
        <time>2020-06-15T14:22:07.000Z</time>
      </trkpt>
      <trkpt lat="45.73743" lon="4.61133">
        <ele>804.2</ele>
        <time>2020-06-15T14:22:13.000Z</time>
      </trkpt>
      <trkpt lat="45.73747" lon="4.61109">
        <ele>805.3</ele>
        <time>2020-06-15T14:22:20.000Z</time>
      </trkpt>
      <trkpt lat="45.73753" lon="4.61086">
        <ele>806.4</ele>
        <time>2020-06-15T14:22:26.000Z</time>
      </trkpt>
      <trkpt lat="45.73755" lon="4.61069">
        <ele>807.2</ele>
        <time>2020-06-15T14:22:32.000Z</time>
      </trkpt>
      <trkpt lat="45.73756" lon="4.61064">
        <ele>807.4</ele>
        <time>2020-06-15T14:22:34.000Z</time>
      </trkpt>
      <trkpt lat="45.73756" lon="4.61058">
        <ele>807.6</ele>
        <time>2020-06-15T14:22:36.000Z</time>
      </trkpt>
      <trkpt lat="45.73756" lon="4.61049">
        <ele>808</ele>
        <time>2020-06-15T14:22:39.000Z</time>
      </trkpt>
      <trkpt lat="45.73756" lon="4.61044">
        <ele>808.3</ele>
        <time>2020-06-15T14:22:41.000Z</time>
      </trkpt>
      <trkpt lat="45.73759" lon="4.61028">
        <ele>808.9</ele>
        <time>2020-06-15T14:22:47.000Z</time>
      </trkpt>
      <trkpt lat="45.73759" lon="4.61018">
        <ele>809.3</ele>
        <time>2020-06-15T14:22:51.000Z</time>
      </trkpt>
      <trkpt lat="45.73761" lon="4.61002">
        <ele>809.9</ele>
        <time>2020-06-15T14:22:57.000Z</time>
      </trkpt>
      <trkpt lat="45.73763" lon="4.60989">
        <ele>810.5</ele>
        <time>2020-06-15T14:23:02.000Z</time>
      </trkpt>
      <trkpt lat="45.73763" lon="4.60971">
        <ele>811.3</ele>
        <time>2020-06-15T14:23:08.000Z</time>
      </trkpt>
      <trkpt lat="45.73764" lon="4.60966">
        <ele>811.5</ele>
        <time>2020-06-15T14:23:10.000Z</time>
      </trkpt>
      <trkpt lat="45.73764" lon="4.60959">
        <ele>811.9</ele>
        <time>2020-06-15T14:23:13.000Z</time>
      </trkpt>
      <trkpt lat="45.73766" lon="4.60943">
        <ele>812.6</ele>
        <time>2020-06-15T14:23:18.000Z</time>
      </trkpt>
      <trkpt lat="45.73766" lon="4.60939">
        <ele>812.8</ele>
        <time>2020-06-15T14:23:21.000Z</time>
      </trkpt>
      <trkpt lat="45.73767" lon="4.60936">
        <ele>812.9</ele>
        <time>2020-06-15T14:23:22.000Z</time>
      </trkpt>
      <trkpt lat="45.73768" lon="4.60932">
        <ele>813.1</ele>
        <time>2020-06-15T14:23:23.000Z</time>
      </trkpt>
      <trkpt lat="45.7377" lon="4.60923">
        <ele>813.6</ele>
        <time>2020-06-15T14:23:26.000Z</time>
      </trkpt>
      <trkpt lat="45.73771" lon="4.60913">
        <ele>814</ele>
        <time>2020-06-15T14:23:29.000Z</time>
      </trkpt>
      <trkpt lat="45.73772" lon="4.60905">
        <ele>814.4</ele>
        <time>2020-06-15T14:23:31.000Z</time>
      </trkpt>
      <trkpt lat="45.73775" lon="4.60884">
        <ele>815.4</ele>
        <time>2020-06-15T14:23:38.000Z</time>
      </trkpt>
      <trkpt lat="45.73778" lon="4.60869">
        <ele>816.1</ele>
        <time>2020-06-15T14:23:43.000Z</time>
      </trkpt>
      <trkpt lat="45.7378" lon="4.60849">
        <ele>817</ele>
        <time>2020-06-15T14:23:49.000Z</time>
      </trkpt>
      <trkpt lat="45.73782" lon="4.6084">
        <ele>817.4</ele>
        <time>2020-06-15T14:23:52.000Z</time>
      </trkpt>
      <trkpt lat="45.73781" lon="4.60829">
        <ele>817.8</ele>
        <time>2020-06-15T14:23:56.000Z</time>
      </trkpt>
      <trkpt lat="45.73782" lon="4.60823">
        <ele>818.1</ele>
        <time>2020-06-15T14:23:58.000Z</time>
      </trkpt>
      <trkpt lat="45.73784" lon="4.60818">
        <ele>818.3</ele>
        <time>2020-06-15T14:24:00.000Z</time>
      </trkpt>
      <trkpt lat="45.73784" lon="4.60814">
        <ele>818.5</ele>
        <time>2020-06-15T14:24:02.000Z</time>
      </trkpt>
      <trkpt lat="45.73785" lon="4.60809">
        <ele>818.7</ele>
        <time>2020-06-15T14:24:04.000Z</time>
      </trkpt>
      <trkpt lat="45.7379" lon="4.60793">
        <ele>819.4</ele>
        <time>2020-06-15T14:24:10.000Z</time>
      </trkpt>
      <trkpt lat="45.73796" lon="4.60777">
        <ele>820.2</ele>
        <time>2020-06-15T14:24:16.000Z</time>
      </trkpt>
      <trkpt lat="45.73805" lon="4.60756">
        <ele>821.3</ele>
        <time>2020-06-15T14:24:24.000Z</time>
      </trkpt>
      <trkpt lat="45.73811" lon="4.6074">
        <ele>822</ele>
        <time>2020-06-15T14:24:30.000Z</time>
      </trkpt>
      <trkpt lat="45.73815" lon="4.60727">
        <ele>822.6</ele>
        <time>2020-06-15T14:24:35.000Z</time>
      </trkpt>
      <trkpt lat="45.73822" lon="4.60709">
        <ele>823.7</ele>
        <time>2020-06-15T14:24:42.000Z</time>
      </trkpt>
      <trkpt lat="45.73828" lon="4.60693">
        <ele>824.5</ele>
        <time>2020-06-15T14:24:48.000Z</time>
      </trkpt>
      <trkpt lat="45.73829" lon="4.6069">
        <ele>824.7</ele>
        <time>2020-06-15T14:24:49.000Z</time>
      </trkpt>
      <trkpt lat="45.73831" lon="4.60682">
        <ele>825</ele>
        <time>2020-06-15T14:24:52.000Z</time>
      </trkpt>
      <trkpt lat="45.73839" lon="4.60663">
        <ele>826.1</ele>
        <time>2020-06-15T14:25:00.000Z</time>
      </trkpt>
      <trkpt lat="45.73851" lon="4.60645">
        <ele>827.1</ele>
        <time>2020-06-15T14:25:08.000Z</time>
      </trkpt>
      <trkpt lat="45.73857" lon="4.60633">
        <ele>827.6</ele>
        <time>2020-06-15T14:25:13.000Z</time>
      </trkpt>
      <trkpt lat="45.73868" lon="4.60615">
        <ele>828.2</ele>
        <time>2020-06-15T14:25:20.000Z</time>
      </trkpt>
      <trkpt lat="45.73876" lon="4.60601">
        <ele>828.5</ele>
        <time>2020-06-15T14:25:25.000Z</time>
      </trkpt>
      <trkpt lat="45.73883" lon="4.6059">
        <ele>828.6</ele>
        <time>2020-06-15T14:25:29.000Z</time>
      </trkpt>
      <trkpt lat="45.73893" lon="4.60575">
        <ele>828.7</ele>
        <time>2020-06-15T14:25:35.000Z</time>
      </trkpt>
      <trkpt lat="45.739" lon="4.60562">
        <ele>828.7</ele>
        <time>2020-06-15T14:25:40.000Z</time>
      </trkpt>
      <trkpt lat="45.73911" lon="4.60542">
        <ele>828.5</ele>
        <time>2020-06-15T14:25:45.000Z</time>
      </trkpt>
      <trkpt lat="45.73921" lon="4.60512">
        <ele>827.8</ele>
        <time>2020-06-15T14:25:51.000Z</time>
      </trkpt>
      <trkpt lat="45.73929" lon="4.60479">
        <ele>826.8</ele>
        <time>2020-06-15T14:25:56.000Z</time>
      </trkpt>
      <trkpt lat="45.73931" lon="4.60472">
        <ele>826.5</ele>
        <time>2020-06-15T14:25:57.000Z</time>
      </trkpt>
      <trkpt lat="45.73933" lon="4.60457">
        <ele>826</ele>
        <time>2020-06-15T14:25:59.000Z</time>
      </trkpt>
      <trkpt lat="45.73934" lon="4.60436">
        <ele>825.1</ele>
        <time>2020-06-15T14:26:02.000Z</time>
      </trkpt>
      <trkpt lat="45.73933" lon="4.60412">
        <ele>824.1</ele>
        <time>2020-06-15T14:26:05.000Z</time>
      </trkpt>
      <trkpt lat="45.73932" lon="4.60404">
        <ele>823.7</ele>
        <time>2020-06-15T14:26:06.000Z</time>
      </trkpt>
      <trkpt lat="45.73928" lon="4.60388">
        <ele>823</ele>
        <time>2020-06-15T14:26:08.000Z</time>
      </trkpt>
      <trkpt lat="45.73923" lon="4.60372">
        <ele>822.1</ele>
        <time>2020-06-15T14:26:10.000Z</time>
      </trkpt>
      <trkpt lat="45.7392" lon="4.60365">
        <ele>821.7</ele>
        <time>2020-06-15T14:26:11.000Z</time>
      </trkpt>
      <trkpt lat="45.73914" lon="4.6035">
        <ele>820.9</ele>
        <time>2020-06-15T14:26:13.000Z</time>
      </trkpt>
      <trkpt lat="45.73909" lon="4.60332">
        <ele>820.1</ele>
        <time>2020-06-15T14:26:15.000Z</time>
      </trkpt>
      <trkpt lat="45.73907" lon="4.60323">
        <ele>819.7</ele>
        <time>2020-06-15T14:26:16.000Z</time>
      </trkpt>
      <trkpt lat="45.73898" lon="4.60301">
        <ele>818.8</ele>
        <time>2020-06-15T14:26:19.000Z</time>
      </trkpt>
      <trkpt lat="45.73896" lon="4.60286">
        <ele>818.5</ele>
        <time>2020-06-15T14:26:21.000Z</time>
      </trkpt>
      <trkpt lat="45.73896" lon="4.60282">
        <ele>819</ele>
        <time>2020-06-15T14:26:22.000Z</time>
      </trkpt>
      <trkpt lat="45.73898" lon="4.6028">
        <ele>819</ele>
        <time>2020-06-15T14:26:23.000Z</time>
      </trkpt>
      <trkpt lat="45.73903" lon="4.60282">
        <ele>819.9</ele>
        <time>2020-06-15T14:26:25.000Z</time>
      </trkpt>
      <trkpt lat="45.73914" lon="4.60291">
        <ele>822.2</ele>
        <time>2020-06-15T14:26:29.000Z</time>
      </trkpt>
      <trkpt lat="45.73927" lon="4.60298">
        <ele>824.8</ele>
        <time>2020-06-15T14:26:34.000Z</time>
      </trkpt>
      <trkpt lat="45.73928" lon="4.60299">
        <ele>824.8</ele>
        <time>2020-06-15T14:26:35.000Z</time>
      </trkpt>
      <trkpt lat="45.73937" lon="4.60304">
        <ele>826.7</ele>
        <time>2020-06-15T14:26:39.000Z</time>
      </trkpt>
      <trkpt lat="45.73944" lon="4.60303">
        <ele>828.6</ele>
        <time>2020-06-15T14:26:43.000Z</time>
      </trkpt>
      <trkpt lat="45.73951" lon="4.60301">
        <ele>829.6</ele>
        <time>2020-06-15T14:26:47.000Z</time>
      </trkpt>
      <trkpt lat="45.7396" lon="4.60297">
        <ele>830.6</ele>
        <time>2020-06-15T14:26:52.000Z</time>
      </trkpt>
      <trkpt lat="45.73966" lon="4.60295">
        <ele>831</ele>
        <time>2020-06-15T14:26:55.000Z</time>
      </trkpt>
      <trkpt lat="45.73971" lon="4.60295">
        <ele>831.1</ele>
        <time>2020-06-15T14:26:57.000Z</time>
      </trkpt>
      <trkpt lat="45.73979" lon="4.60288">
        <ele>831</ele>
        <time>2020-06-15T14:27:02.000Z</time>
      </trkpt>
      <trkpt lat="45.73987" lon="4.60281">
        <ele>830.4</ele>
        <time>2020-06-15T14:27:07.000Z</time>
      </trkpt>
      <trkpt lat="45.73994" lon="4.60277">
        <ele>829.8</ele>
        <time>2020-06-15T14:27:13.000Z</time>
      </trkpt>
      <trkpt lat="45.73998" lon="4.60274">
        <ele>829.2</ele>
        <time>2020-06-15T14:27:18.000Z</time>
      </trkpt>
      <trkpt lat="45.74006" lon="4.60269">
        <ele>828.7</ele>
        <time>2020-06-15T14:27:22.000Z</time>
      </trkpt>
      <trkpt lat="45.74009" lon="4.60267">
        <ele>828.5</ele>
        <time>2020-06-15T14:27:24.000Z</time>
      </trkpt>
      <trkpt lat="45.7401" lon="4.60265">
        <ele>828.2</ele>
        <time>2020-06-15T14:27:25.000Z</time>
      </trkpt>
      <trkpt lat="45.74012" lon="4.60259">
        <ele>828.3</ele>
        <time>2020-06-15T14:27:28.000Z</time>
      </trkpt>
      <trkpt lat="45.74011" lon="4.6025">
        <ele>828.8</ele>
        <time>2020-06-15T14:27:34.000Z</time>
      </trkpt>
      <trkpt lat="45.7401" lon="4.6024">
        <ele>829</ele>
        <time>2020-06-15T14:27:39.000Z</time>
      </trkpt>
      <trkpt lat="45.74011" lon="4.60235">
        <ele>829.1</ele>
        <time>2020-06-15T14:27:43.000Z</time>
      </trkpt>
      <trkpt lat="45.7401" lon="4.60225">
        <ele>829.4</ele>
        <time>2020-06-15T14:27:48.000Z</time>
      </trkpt>
      <trkpt lat="45.74011" lon="4.60219">
        <ele>829.7</ele>
        <time>2020-06-15T14:27:52.000Z</time>
      </trkpt>
      <trkpt lat="45.74014" lon="4.60211">
        <ele>829.6</ele>
        <time>2020-06-15T14:27:58.000Z</time>
      </trkpt>
      <trkpt lat="45.74017" lon="4.60205">
        <ele>829.4</ele>
        <time>2020-06-15T14:28:03.000Z</time>
      </trkpt>
      <trkpt lat="45.74021" lon="4.60199">
        <ele>829.1</ele>
        <time>2020-06-15T14:28:07.000Z</time>
      </trkpt>
      <trkpt lat="45.74023" lon="4.60196">
        <ele>829</ele>
        <time>2020-06-15T14:28:09.000Z</time>
      </trkpt>
      <trkpt lat="45.74029" lon="4.6019">
        <ele>828.5</ele>
        <time>2020-06-15T14:28:13.000Z</time>
      </trkpt>
      <trkpt lat="45.74033" lon="4.60188">
        <ele>828.3</ele>
        <time>2020-06-15T14:28:17.000Z</time>
      </trkpt>
      <trkpt lat="45.74034" lon="4.60186">
        <ele>828</ele>
        <time>2020-06-15T14:28:18.000Z</time>
      </trkpt>
      <trkpt lat="45.74035" lon="4.60183">
        <ele>828.1</ele>
        <time>2020-06-15T14:28:20.000Z</time>
      </trkpt>
      <trkpt lat="45.74033" lon="4.6018">
        <ele>828.5</ele>
        <time>2020-06-15T14:28:24.000Z</time>
      </trkpt>
      <trkpt lat="45.74032" lon="4.60179">
        <ele>828.5</ele>
        <time>2020-06-15T14:28:25.000Z</time>
      </trkpt>
      <trkpt lat="45.74029" lon="4.60173">
        <ele>829</ele>
        <time>2020-06-15T14:28:29.000Z</time>
      </trkpt>
      <trkpt lat="45.74028" lon="4.60166">
        <ele>829.2</ele>
        <time>2020-06-15T14:28:33.000Z</time>
      </trkpt>
      <trkpt lat="45.74027" lon="4.60164">
        <ele>829.7</ele>
        <time>2020-06-15T14:28:34.000Z</time>
      </trkpt>
      <trkpt lat="45.74026" lon="4.6016">
        <ele>829.8</ele>
        <time>2020-06-15T14:28:36.000Z</time>
      </trkpt>
      <trkpt lat="45.74025" lon="4.60156">
        <ele>829.8</ele>
        <time>2020-06-15T14:28:38.000Z</time>
      </trkpt>
      <trkpt lat="45.74022" lon="4.6015">
        <ele>830.4</ele>
        <time>2020-06-15T14:28:43.000Z</time>
      </trkpt>
      <trkpt lat="45.74017" lon="4.60142">
        <ele>831.1</ele>
        <time>2020-06-15T14:28:48.000Z</time>
      </trkpt>
      <trkpt lat="45.74016" lon="4.60138">
        <ele>831.1</ele>
        <time>2020-06-15T14:28:50.000Z</time>
      </trkpt>
      <trkpt lat="45.74015" lon="4.60136">
        <ele>831.5</ele>
        <time>2020-06-15T14:28:52.000Z</time>
      </trkpt>
      <trkpt lat="45.74014" lon="4.6013">
        <ele>831.6</ele>
        <time>2020-06-15T14:28:55.000Z</time>
      </trkpt>
      <trkpt lat="45.74014" lon="4.60126">
        <ele>831.7</ele>
        <time>2020-06-15T14:28:57.000Z</time>
      </trkpt>
      <trkpt lat="45.74014" lon="4.60117">
        <ele>831.9</ele>
        <time>2020-06-15T14:29:02.000Z</time>
      </trkpt>
      <trkpt lat="45.74016" lon="4.6011">
        <ele>831.9</ele>
        <time>2020-06-15T14:29:07.000Z</time>
      </trkpt>
      <trkpt lat="45.74015" lon="4.60107">
        <ele>832.2</ele>
        <time>2020-06-15T14:29:11.000Z</time>
      </trkpt>
      <trkpt lat="45.74014" lon="4.60107">
        <ele>832.2</ele>
        <time>2020-06-15T14:29:12.000Z</time>
      </trkpt>
      <trkpt lat="45.74014" lon="4.60104">
        <ele>832.3</ele>
        <time>2020-06-15T14:29:14.000Z</time>
      </trkpt>
      <trkpt lat="45.74011" lon="4.60097">
        <ele>832.6</ele>
        <time>2020-06-15T14:29:18.000Z</time>
      </trkpt>
      <trkpt lat="45.74006" lon="4.60092">
        <ele>833.1</ele>
        <time>2020-06-15T14:29:23.000Z</time>
      </trkpt>
      <trkpt lat="45.74005" lon="4.60088">
        <ele>833.2</ele>
        <time>2020-06-15T14:29:28.000Z</time>
      </trkpt>
      <trkpt lat="45.74" lon="4.60075">
        <ele>833.6</ele>
        <time>2020-06-15T14:29:33.000Z</time>
      </trkpt>
      <trkpt lat="45.73997" lon="4.60068">
        <ele>833.7</ele>
        <time>2020-06-15T14:29:37.000Z</time>
      </trkpt>
      <trkpt lat="45.73992" lon="4.6006">
        <ele>833.9</ele>
        <time>2020-06-15T14:29:41.000Z</time>
      </trkpt>
      <trkpt lat="45.73991" lon="4.60059">
        <ele>833.8</ele>
        <time>2020-06-15T14:29:42.000Z</time>
      </trkpt>
      <trkpt lat="45.73989" lon="4.60052">
        <ele>833.9</ele>
        <time>2020-06-15T14:29:45.000Z</time>
      </trkpt>
      <trkpt lat="45.73988" lon="4.60044">
        <ele>833.9</ele>
        <time>2020-06-15T14:29:48.000Z</time>
      </trkpt>
      <trkpt lat="45.73987" lon="4.60041">
        <ele>833.9</ele>
        <time>2020-06-15T14:29:49.000Z</time>
      </trkpt>
      <trkpt lat="45.73986" lon="4.60033">
        <ele>833.9</ele>
        <time>2020-06-15T14:29:53.000Z</time>
      </trkpt>
      <trkpt lat="45.73984" lon="4.60029">
        <ele>833.7</ele>
        <time>2020-06-15T14:29:57.000Z</time>
      </trkpt>
      <trkpt lat="45.73984" lon="4.60027">
        <ele>833.7</ele>
        <time>2020-06-15T14:30:06.000Z</time>
      </trkpt>
      <trkpt lat="45.73984" lon="4.60027">
        <ele>833.7</ele>
        <time>2020-06-15T14:30:20.000Z</time>
      </trkpt>
      <trkpt lat="45.73984" lon="4.60027">
        <ele>833.7</ele>
        <time>2020-06-15T14:30:31.000Z</time>
      </trkpt>
      <trkpt lat="45.73985" lon="4.60027">
        <ele>833.7</ele>
        <time>2020-06-15T14:30:45.000Z</time>
      </trkpt>
      <trkpt lat="45.73985" lon="4.60027">
        <ele>833.7</ele>
        <time>2020-06-15T14:31:02.000Z</time>
      </trkpt>
      <trkpt lat="45.73985" lon="4.60027">
        <ele>833.7</ele>
        <time>2020-06-15T14:31:16.000Z</time>
      </trkpt>
      <trkpt lat="45.73985" lon="4.60027">
        <ele>833.7</ele>
        <time>2020-06-15T14:31:32.000Z</time>
      </trkpt>
      <trkpt lat="45.73985" lon="4.60027">
        <ele>833.8</ele>
        <time>2020-06-15T14:31:45.000Z</time>
      </trkpt>
      <trkpt lat="45.73985" lon="4.60027">
        <ele>833.8</ele>
        <time>2020-06-15T14:31:56.000Z</time>
      </trkpt>
      <trkpt lat="45.73985" lon="4.60027">
        <ele>833.8</ele>
        <time>2020-06-15T14:32:09.000Z</time>
      </trkpt>
      <trkpt lat="45.73985" lon="4.60027">
        <ele>833.8</ele>
        <time>2020-06-15T14:32:19.000Z</time>
      </trkpt>
      <trkpt lat="45.73985" lon="4.60027">
        <ele>833.8</ele>
        <time>2020-06-15T14:32:31.000Z</time>
      </trkpt>
      <trkpt lat="45.73985" lon="4.60027">
        <ele>833.8</ele>
        <time>2020-06-15T14:32:40.000Z</time>
      </trkpt>
      <trkpt lat="45.73985" lon="4.60027">
        <ele>833.8</ele>
        <time>2020-06-15T14:32:51.000Z</time>
      </trkpt>
      <trkpt lat="45.73985" lon="4.60027">
        <ele>833.8</ele>
        <time>2020-06-15T14:33:07.000Z</time>
      </trkpt>
      <trkpt lat="45.73985" lon="4.60026">
        <ele>833.8</ele>
        <time>2020-06-15T14:33:23.000Z</time>
      </trkpt>
      <trkpt lat="45.73985" lon="4.60026">
        <ele>833.8</ele>
        <time>2020-06-15T14:33:40.000Z</time>
      </trkpt>
      <trkpt lat="45.73985" lon="4.60027">
        <ele>833.8</ele>
        <time>2020-06-15T14:33:58.000Z</time>
      </trkpt>
      <trkpt lat="45.73985" lon="4.60027">
        <ele>833.8</ele>
        <time>2020-06-15T14:34:17.000Z</time>
      </trkpt>
      <trkpt lat="45.73985" lon="4.60027">
        <ele>833.8</ele>
        <time>2020-06-15T14:34:34.000Z</time>
      </trkpt>
      <trkpt lat="45.73985" lon="4.60026">
        <ele>833.8</ele>
        <time>2020-06-15T14:34:54.000Z</time>
      </trkpt>
      <trkpt lat="45.73985" lon="4.60026">
        <ele>833.8</ele>
        <time>2020-06-15T14:35:15.000Z</time>
      </trkpt>
      <trkpt lat="45.73984" lon="4.60026">
        <ele>833.8</ele>
        <time>2020-06-15T14:35:30.000Z</time>
      </trkpt>
      <trkpt lat="45.73984" lon="4.60026">
        <ele>833.8</ele>
        <time>2020-06-15T14:35:39.000Z</time>
      </trkpt>
      <trkpt lat="45.73984" lon="4.60026">
        <ele>833.8</ele>
        <time>2020-06-15T14:35:53.000Z</time>
      </trkpt>
      <trkpt lat="45.73983" lon="4.60026">
        <ele>833.8</ele>
        <time>2020-06-15T14:36:10.000Z</time>
      </trkpt>
      <trkpt lat="45.73983" lon="4.60026">
        <ele>833.9</ele>
        <time>2020-06-15T14:36:23.000Z</time>
      </trkpt>
      <trkpt lat="45.73983" lon="4.60026">
        <ele>833.9</ele>
        <time>2020-06-15T14:36:36.000Z</time>
      </trkpt>
      <trkpt lat="45.73984" lon="4.60026">
        <ele>833.9</ele>
        <time>2020-06-15T14:36:51.000Z</time>
      </trkpt>
      <trkpt lat="45.73984" lon="4.60026">
        <ele>833.9</ele>
        <time>2020-06-15T14:37:07.000Z</time>
      </trkpt>
      <trkpt lat="45.73984" lon="4.60026">
        <ele>833.9</ele>
        <time>2020-06-15T14:37:19.000Z</time>
      </trkpt>
      <trkpt lat="45.73984" lon="4.60026">
        <ele>833.9</ele>
        <time>2020-06-15T14:37:35.000Z</time>
      </trkpt>
      <trkpt lat="45.73984" lon="4.60026">
        <ele>833.9</ele>
        <time>2020-06-15T14:37:47.000Z</time>
      </trkpt>
      <trkpt lat="45.73984" lon="4.60026">
        <ele>833.9</ele>
        <time>2020-06-15T14:38:05.000Z</time>
      </trkpt>
      <trkpt lat="45.73984" lon="4.60026">
        <ele>833.9</ele>
        <time>2020-06-15T14:38:19.000Z</time>
      </trkpt>
      <trkpt lat="45.73985" lon="4.60026">
        <ele>833.9</ele>
        <time>2020-06-15T14:38:23.000Z</time>
      </trkpt>
      <trkpt lat="45.73985" lon="4.60026">
        <ele>833.9</ele>
        <time>2020-06-15T14:38:24.000Z</time>
      </trkpt>
      <trkpt lat="45.73985" lon="4.60026">
        <ele>833.9</ele>
        <time>2020-06-15T14:38:33.000Z</time>
      </trkpt>
      <trkpt lat="45.73985" lon="4.60026">
        <ele>833.9</ele>
        <time>2020-06-15T14:38:49.000Z</time>
      </trkpt>
      <trkpt lat="45.73984" lon="4.60028">
        <ele>834</ele>
        <time>2020-06-15T14:38:53.000Z</time>
      </trkpt>
      <trkpt lat="45.73984" lon="4.6003">
        <ele>834</ele>
        <time>2020-06-15T14:38:54.000Z</time>
      </trkpt>
      <trkpt lat="45.73985" lon="4.60033">
        <ele>834</ele>
        <time>2020-06-15T14:38:56.000Z</time>
      </trkpt>
      <trkpt lat="45.73986" lon="4.60035">
        <ele>834.2</ele>
        <time>2020-06-15T14:38:57.000Z</time>
      </trkpt>
      <trkpt lat="45.73987" lon="4.60049">
        <ele>834.2</ele>
        <time>2020-06-15T14:39:01.000Z</time>
      </trkpt>
      <trkpt lat="45.73988" lon="4.60054">
        <ele>834.1</ele>
        <time>2020-06-15T14:39:02.000Z</time>
      </trkpt>
      <trkpt lat="45.73993" lon="4.60075">
        <ele>834</ele>
        <time>2020-06-15T14:39:06.000Z</time>
      </trkpt>
      <trkpt lat="45.74005" lon="4.60091">
        <ele>833.6</ele>
        <time>2020-06-15T14:39:10.000Z</time>
      </trkpt>
      <trkpt lat="45.74016" lon="4.60104">
        <ele>832.4</ele>
        <time>2020-06-15T14:39:14.000Z</time>
      </trkpt>
      <trkpt lat="45.74011" lon="4.60114">
        <ele>832.7</ele>
        <time>2020-06-15T14:39:17.000Z</time>
      </trkpt>
      <trkpt lat="45.74006" lon="4.60122">
        <ele>832.9</ele>
        <time>2020-06-15T14:39:19.000Z</time>
      </trkpt>
      <trkpt lat="45.74006" lon="4.60128">
        <ele>832.8</ele>
        <time>2020-06-15T14:39:20.000Z</time>
      </trkpt>
      <trkpt lat="45.7401" lon="4.60143">
        <ele>832.1</ele>
        <time>2020-06-15T14:39:23.000Z</time>
      </trkpt>
      <trkpt lat="45.74021" lon="4.60161">
        <ele>830.8</ele>
        <time>2020-06-15T14:39:27.000Z</time>
      </trkpt>
      <trkpt lat="45.74038" lon="4.60176">
        <ele>828.6</ele>
        <time>2020-06-15T14:39:31.000Z</time>
      </trkpt>
      <trkpt lat="45.74049" lon="4.60183">
        <ele>826.8</ele>
        <time>2020-06-15T14:39:34.000Z</time>
      </trkpt>
      <trkpt lat="45.74052" lon="4.60187">
        <ele>826.2</ele>
        <time>2020-06-15T14:39:35.000Z</time>
      </trkpt>
      <trkpt lat="45.74067" lon="4.60208">
        <ele>822.6</ele>
        <time>2020-06-15T14:39:39.000Z</time>
      </trkpt>
      <trkpt lat="45.74077" lon="4.60221">
        <ele>820.5</ele>
        <time>2020-06-15T14:39:43.000Z</time>
      </trkpt>
      <trkpt lat="45.74079" lon="4.60221">
        <ele>819.8</ele>
        <time>2020-06-15T14:39:44.000Z</time>
      </trkpt>
      <trkpt lat="45.74083" lon="4.60217">
        <ele>819.3</ele>
        <time>2020-06-15T14:39:46.000Z</time>
      </trkpt>
      <trkpt lat="45.74086" lon="4.60215">
        <ele>818.8</ele>
        <time>2020-06-15T14:39:47.000Z</time>
      </trkpt>
      <trkpt lat="45.74091" lon="4.60214">
        <ele>817.5</ele>
        <time>2020-06-15T14:39:50.000Z</time>
      </trkpt>
      <trkpt lat="45.74093" lon="4.60214">
        <ele>817.5</ele>
        <time>2020-06-15T14:39:58.000Z</time>
      </trkpt>
      <trkpt lat="45.74092" lon="4.60215">
        <ele>817.5</ele>
        <time>2020-06-15T14:40:06.000Z</time>
      </trkpt>
      <trkpt lat="45.74095" lon="4.60218">
        <ele>816.7</ele>
        <time>2020-06-15T14:40:10.000Z</time>
      </trkpt>
      <trkpt lat="45.74094" lon="4.60224">
        <ele>816.5</ele>
        <time>2020-06-15T14:40:14.000Z</time>
      </trkpt>
      <trkpt lat="45.74094" lon="4.60227">
        <ele>816.4</ele>
        <time>2020-06-15T14:40:16.000Z</time>
      </trkpt>
      <trkpt lat="45.7409" lon="4.60228">
        <ele>817.7</ele>
        <time>2020-06-15T14:40:19.000Z</time>
      </trkpt>
      <trkpt lat="45.74087" lon="4.6023">
        <ele>818.2</ele>
        <time>2020-06-15T14:40:22.000Z</time>
      </trkpt>
      <trkpt lat="45.74085" lon="4.60231">
        <ele>818.2</ele>
        <time>2020-06-15T14:40:28.000Z</time>
      </trkpt>
      <trkpt lat="45.74085" lon="4.6023">
        <ele>818.2</ele>
        <time>2020-06-15T14:40:30.000Z</time>
      </trkpt>
      <trkpt lat="45.74083" lon="4.6023">
        <ele>818.9</ele>
        <time>2020-06-15T14:40:34.000Z</time>
      </trkpt>
      <trkpt lat="45.7408" lon="4.60228">
        <ele>819.8</ele>
        <time>2020-06-15T14:40:39.000Z</time>
      </trkpt>
      <trkpt lat="45.74075" lon="4.60221">
        <ele>821.2</ele>
        <time>2020-06-15T14:40:43.000Z</time>
      </trkpt>
      <trkpt lat="45.74074" lon="4.60216">
        <ele>821.4</ele>
        <time>2020-06-15T14:40:46.000Z</time>
      </trkpt>
      <trkpt lat="45.74071" lon="4.6021">
        <ele>822.2</ele>
        <time>2020-06-15T14:40:51.000Z</time>
      </trkpt>
      <trkpt lat="45.7407" lon="4.60208">
        <ele>822.2</ele>
        <time>2020-06-15T14:40:55.000Z</time>
      </trkpt>
      <trkpt lat="45.74067" lon="4.60204">
        <ele>822.9</ele>
        <time>2020-06-15T14:40:59.000Z</time>
      </trkpt>
      <trkpt lat="45.74065" lon="4.60202">
        <ele>823.6</ele>
        <time>2020-06-15T14:41:05.000Z</time>
      </trkpt>
      <trkpt lat="45.74062" lon="4.60198">
        <ele>824.3</ele>
        <time>2020-06-15T14:41:10.000Z</time>
      </trkpt>
      <trkpt lat="45.74062" lon="4.60196">
        <ele>824.3</ele>
        <time>2020-06-15T14:41:17.000Z</time>
      </trkpt>
      <trkpt lat="45.74062" lon="4.60196">
        <ele>824.3</ele>
        <time>2020-06-15T14:41:21.000Z</time>
      </trkpt>
      <trkpt lat="45.7406" lon="4.60195">
        <ele>824.9</ele>
        <time>2020-06-15T14:41:22.000Z</time>
      </trkpt>
      <trkpt lat="45.74056" lon="4.60193">
        <ele>825.7</ele>
        <time>2020-06-15T14:41:27.000Z</time>
      </trkpt>
      <trkpt lat="45.74056" lon="4.60193">
        <ele>825.7</ele>
        <time>2020-06-15T14:41:34.000Z</time>
      </trkpt>
      <trkpt lat="45.74052" lon="4.60188">
        <ele>826.4</ele>
        <time>2020-06-15T14:41:39.000Z</time>
      </trkpt>
      <trkpt lat="45.74045" lon="4.60181">
        <ele>828</ele>
        <time>2020-06-15T14:41:44.000Z</time>
      </trkpt>
      <trkpt lat="45.74038" lon="4.60175">
        <ele>828.9</ele>
        <time>2020-06-15T14:41:48.000Z</time>
      </trkpt>
      <trkpt lat="45.74036" lon="4.60169">
        <ele>829.3</ele>
        <time>2020-06-15T14:41:52.000Z</time>
      </trkpt>
      <trkpt lat="45.74028" lon="4.60157">
        <ele>830.3</ele>
        <time>2020-06-15T14:41:58.000Z</time>
      </trkpt>
      <trkpt lat="45.74022" lon="4.60151">
        <ele>831.2</ele>
        <time>2020-06-15T14:42:03.000Z</time>
      </trkpt>
      <trkpt lat="45.7402" lon="4.60146">
        <ele>831.6</ele>
        <time>2020-06-15T14:42:07.000Z</time>
      </trkpt>
      <trkpt lat="45.74017" lon="4.60137">
        <ele>832.1</ele>
        <time>2020-06-15T14:42:11.000Z</time>
      </trkpt>
      <trkpt lat="45.74017" lon="4.60133">
        <ele>832.2</ele>
        <time>2020-06-15T14:42:13.000Z</time>
      </trkpt>
      <trkpt lat="45.74017" lon="4.6013">
        <ele>832.2</ele>
        <time>2020-06-15T14:42:19.000Z</time>
      </trkpt>
      <trkpt lat="45.74018" lon="4.60123">
        <ele>832.4</ele>
        <time>2020-06-15T14:42:23.000Z</time>
      </trkpt>
      <trkpt lat="45.74018" lon="4.60117">
        <ele>832.5</ele>
        <time>2020-06-15T14:42:26.000Z</time>
      </trkpt>
      <trkpt lat="45.74019" lon="4.60116">
        <ele>832.3</ele>
        <time>2020-06-15T14:42:27.000Z</time>
      </trkpt>
      <trkpt lat="45.74019" lon="4.60116">
        <ele>832.3</ele>
        <time>2020-06-15T14:42:33.000Z</time>
      </trkpt>
      <trkpt lat="45.74019" lon="4.60116">
        <ele>832.3</ele>
        <time>2020-06-15T14:42:46.000Z</time>
      </trkpt>
      <trkpt lat="45.74019" lon="4.60116">
        <ele>832.4</ele>
        <time>2020-06-15T14:42:55.000Z</time>
      </trkpt>
      <trkpt lat="45.74021" lon="4.60116">
        <ele>832.4</ele>
        <time>2020-06-15T14:42:59.000Z</time>
      </trkpt>
      <trkpt lat="45.74022" lon="4.60117">
        <ele>832.1</ele>
        <time>2020-06-15T14:43:00.000Z</time>
      </trkpt>
      <trkpt lat="45.74031" lon="4.60124">
        <ele>831</ele>
        <time>2020-06-15T14:43:04.000Z</time>
      </trkpt>
      <trkpt lat="45.74034" lon="4.60125">
        <ele>830.7</ele>
        <time>2020-06-15T14:43:06.000Z</time>
      </trkpt>
      <trkpt lat="45.74033" lon="4.60125">
        <ele>831</ele>
        <time>2020-06-15T14:43:11.000Z</time>
      </trkpt>
      <trkpt lat="45.74035" lon="4.60126">
        <ele>830.6</ele>
        <time>2020-06-15T14:43:15.000Z</time>
      </trkpt>
      <trkpt lat="45.74037" lon="4.6013">
        <ele>830.1</ele>
        <time>2020-06-15T14:43:19.000Z</time>
      </trkpt>
      <trkpt lat="45.7405" lon="4.60133">
        <ele>828.4</ele>
        <time>2020-06-15T14:43:22.000Z</time>
      </trkpt>
      <trkpt lat="45.74058" lon="4.60134">
        <ele>826.6</ele>
        <time>2020-06-15T14:43:24.000Z</time>
      </trkpt>
      <trkpt lat="45.74062" lon="4.60133">
        <ele>826.1</ele>
        <time>2020-06-15T14:43:25.000Z</time>
      </trkpt>
      <trkpt lat="45.74065" lon="4.6013">
        <ele>825.6</ele>
        <time>2020-06-15T14:43:26.000Z</time>
      </trkpt>
      <trkpt lat="45.74075" lon="4.60123">
        <ele>824.2</ele>
        <time>2020-06-15T14:43:29.000Z</time>
      </trkpt>
      <trkpt lat="45.74085" lon="4.60118">
        <ele>821.7</ele>
        <time>2020-06-15T14:43:33.000Z</time>
      </trkpt>
      <trkpt lat="45.74095" lon="4.60119">
        <ele>819.8</ele>
        <time>2020-06-15T14:43:40.000Z</time>
      </trkpt>
      <trkpt lat="45.74099" lon="4.60119">
        <ele>819.2</ele>
        <time>2020-06-15T14:43:45.000Z</time>
      </trkpt>
      <trkpt lat="45.74102" lon="4.60119">
        <ele>818.5</ele>
        <time>2020-06-15T14:43:50.000Z</time>
      </trkpt>
      <trkpt lat="45.74103" lon="4.60122">
        <ele>817.7</ele>
        <time>2020-06-15T14:43:52.000Z</time>
      </trkpt>
      <trkpt lat="45.74108" lon="4.60125">
        <ele>817</ele>
        <time>2020-06-15T14:43:55.000Z</time>
      </trkpt>
      <trkpt lat="45.74112" lon="4.60123">
        <ele>815.4</ele>
        <time>2020-06-15T14:43:58.000Z</time>
      </trkpt>
      <trkpt lat="45.74116" lon="4.60124">
        <ele>814.6</ele>
        <time>2020-06-15T14:44:00.000Z</time>
      </trkpt>
      <trkpt lat="45.74122" lon="4.60127">
        <ele>812.9</ele>
        <time>2020-06-15T14:44:02.000Z</time>
      </trkpt>
      <trkpt lat="45.74125" lon="4.60128">
        <ele>812.1</ele>
        <time>2020-06-15T14:44:03.000Z</time>
      </trkpt>
      <trkpt lat="45.74146" lon="4.6012">
        <ele>805.3</ele>
        <time>2020-06-15T14:44:08.000Z</time>
      </trkpt>
      <trkpt lat="45.74156" lon="4.60126">
        <ele>802.9</ele>
        <time>2020-06-15T14:44:11.000Z</time>
      </trkpt>
      <trkpt lat="45.74163" lon="4.60133">
        <ele>800.4</ele>
        <time>2020-06-15T14:44:14.000Z</time>
      </trkpt>
      <trkpt lat="45.74163" lon="4.60133">
        <ele>800.4</ele>
        <time>2020-06-15T14:44:22.000Z</time>
      </trkpt>
      <trkpt lat="45.74163" lon="4.60133">
        <ele>800.4</ele>
        <time>2020-06-15T14:44:35.000Z</time>
      </trkpt>
      <trkpt lat="45.74163" lon="4.60133">
        <ele>800.4</ele>
        <time>2020-06-15T14:44:47.000Z</time>
      </trkpt>
      <trkpt lat="45.74164" lon="4.60133">
        <ele>800.4</ele>
        <time>2020-06-15T14:45:00.000Z</time>
      </trkpt>
      <trkpt lat="45.74167" lon="4.60134">
        <ele>799.6</ele>
        <time>2020-06-15T14:45:06.000Z</time>
      </trkpt>
      <trkpt lat="45.74167" lon="4.60136">
        <ele>799.6</ele>
        <time>2020-06-15T14:45:07.000Z</time>
      </trkpt>
      <trkpt lat="45.74168" lon="4.60143">
        <ele>799</ele>
        <time>2020-06-15T14:45:09.000Z</time>
      </trkpt>
      <trkpt lat="45.74172" lon="4.60149">
        <ele>798.4</ele>
        <time>2020-06-15T14:45:12.000Z</time>
      </trkpt>
      <trkpt lat="45.74174" lon="4.60149">
        <ele>797.6</ele>
        <time>2020-06-15T14:45:13.000Z</time>
      </trkpt>
      <trkpt lat="45.7418" lon="4.60142">
        <ele>796.4</ele>
        <time>2020-06-15T14:45:15.000Z</time>
      </trkpt>
      <trkpt lat="45.74182" lon="4.60141">
        <ele>795.7</ele>
        <time>2020-06-15T14:45:16.000Z</time>
      </trkpt>
      <trkpt lat="45.74189" lon="4.60147">
        <ele>794.2</ele>
        <time>2020-06-15T14:45:18.000Z</time>
      </trkpt>
      <trkpt lat="45.74191" lon="4.6015">
        <ele>793.3</ele>
        <time>2020-06-15T14:45:19.000Z</time>
      </trkpt>
      <trkpt lat="45.74199" lon="4.60151">
        <ele>790.5</ele>
        <time>2020-06-15T14:45:23.000Z</time>
      </trkpt>
      <trkpt lat="45.74206" lon="4.60153">
        <ele>788.5</ele>
        <time>2020-06-15T14:45:26.000Z</time>
      </trkpt>
      <trkpt lat="45.74211" lon="4.6016">
        <ele>786.9</ele>
        <time>2020-06-15T14:45:28.000Z</time>
      </trkpt>
      <trkpt lat="45.74213" lon="4.6016">
        <ele>787</ele>
        <time>2020-06-15T14:45:29.000Z</time>
      </trkpt>
      <trkpt lat="45.74223" lon="4.60158">
        <ele>782.8</ele>
        <time>2020-06-15T14:45:33.000Z</time>
      </trkpt>
      <trkpt lat="45.74227" lon="4.60156">
        <ele>781.6</ele>
        <time>2020-06-15T14:45:35.000Z</time>
      </trkpt>
      <trkpt lat="45.74231" lon="4.60149">
        <ele>780.5</ele>
        <time>2020-06-15T14:45:37.000Z</time>
      </trkpt>
      <trkpt lat="45.74237" lon="4.60146">
        <ele>778.7</ele>
        <time>2020-06-15T14:45:40.000Z</time>
      </trkpt>
      <trkpt lat="45.74242" lon="4.60149">
        <ele>776.9</ele>
        <time>2020-06-15T14:45:42.000Z</time>
      </trkpt>
      <trkpt lat="45.74249" lon="4.60154">
        <ele>774.9</ele>
        <time>2020-06-15T14:45:44.000Z</time>
      </trkpt>
      <trkpt lat="45.74253" lon="4.60156">
        <ele>772.5</ele>
        <time>2020-06-15T14:45:45.000Z</time>
      </trkpt>
      <trkpt lat="45.74259" lon="4.60157">
        <ele>770.5</ele>
        <time>2020-06-15T14:45:47.000Z</time>
      </trkpt>
      <trkpt lat="45.74267" lon="4.60149">
        <ele>768.7</ele>
        <time>2020-06-15T14:45:50.000Z</time>
      </trkpt>
      <trkpt lat="45.74276" lon="4.60136">
        <ele>764.2</ele>
        <time>2020-06-15T14:45:53.000Z</time>
      </trkpt>
      <trkpt lat="45.7428" lon="4.60133">
        <ele>763.1</ele>
        <time>2020-06-15T14:45:54.000Z</time>
      </trkpt>
      <trkpt lat="45.74284" lon="4.60133">
        <ele>761.9</ele>
        <time>2020-06-15T14:45:55.000Z</time>
      </trkpt>
      <trkpt lat="45.74286" lon="4.60134">
        <ele>760.6</ele>
        <time>2020-06-15T14:45:56.000Z</time>
      </trkpt>
      <trkpt lat="45.74292" lon="4.60141">
        <ele>758.2</ele>
        <time>2020-06-15T14:45:58.000Z</time>
      </trkpt>
      <trkpt lat="45.74301" lon="4.60148">
        <ele>754.3</ele>
        <time>2020-06-15T14:46:01.000Z</time>
      </trkpt>
      <trkpt lat="45.74304" lon="4.6015">
        <ele>753</ele>
        <time>2020-06-15T14:46:02.000Z</time>
      </trkpt>
      <trkpt lat="45.74309" lon="4.6015">
        <ele>750.2</ele>
        <time>2020-06-15T14:46:04.000Z</time>
      </trkpt>
      <trkpt lat="45.74313" lon="4.60148">
        <ele>748.9</ele>
        <time>2020-06-15T14:46:05.000Z</time>
      </trkpt>
      <trkpt lat="45.74325" lon="4.60136">
        <ele>744.2</ele>
        <time>2020-06-15T14:46:08.000Z</time>
      </trkpt>
      <trkpt lat="45.74329" lon="4.60131">
        <ele>742.9</ele>
        <time>2020-06-15T14:46:09.000Z</time>
      </trkpt>
      <trkpt lat="45.74333" lon="4.60129">
        <ele>741.5</ele>
        <time>2020-06-15T14:46:10.000Z</time>
      </trkpt>
      <trkpt lat="45.74339" lon="4.60126">
        <ele>737.1</ele>
        <time>2020-06-15T14:46:12.000Z</time>
      </trkpt>
      <trkpt lat="45.74351" lon="4.60118">
        <ele>731.9</ele>
        <time>2020-06-15T14:46:15.000Z</time>
      </trkpt>
      <trkpt lat="45.7436" lon="4.60115">
        <ele>728.8</ele>
        <time>2020-06-15T14:46:17.000Z</time>
      </trkpt>
      <trkpt lat="45.74363" lon="4.60111">
        <ele>727.2</ele>
        <time>2020-06-15T14:46:18.000Z</time>
      </trkpt>
      <trkpt lat="45.74368" lon="4.60101">
        <ele>724.2</ele>
        <time>2020-06-15T14:46:20.000Z</time>
      </trkpt>
      <trkpt lat="45.74372" lon="4.60096">
        <ele>721.5</ele>
        <time>2020-06-15T14:46:21.000Z</time>
      </trkpt>
      <trkpt lat="45.74376" lon="4.60094">
        <ele>720.1</ele>
        <time>2020-06-15T14:46:22.000Z</time>
      </trkpt>
      <trkpt lat="45.74385" lon="4.60095">
        <ele>716.2</ele>
        <time>2020-06-15T14:46:24.000Z</time>
      </trkpt>
      <trkpt lat="45.74388" lon="4.60096">
        <ele>714.9</ele>
        <time>2020-06-15T14:46:25.000Z</time>
      </trkpt>
      <trkpt lat="45.74393" lon="4.60094">
        <ele>712.1</ele>
        <time>2020-06-15T14:46:27.000Z</time>
      </trkpt>
      <trkpt lat="45.74407" lon="4.60084">
        <ele>707.3</ele>
        <time>2020-06-15T14:46:31.000Z</time>
      </trkpt>
      <trkpt lat="45.74416" lon="4.60087">
        <ele>704</ele>
        <time>2020-06-15T14:46:33.000Z</time>
      </trkpt>
      <trkpt lat="45.74417" lon="4.6009">
        <ele>702.8</ele>
        <time>2020-06-15T14:46:34.000Z</time>
      </trkpt>
      <trkpt lat="45.74419" lon="4.60092">
        <ele>702.8</ele>
        <time>2020-06-15T14:46:35.000Z</time>
      </trkpt>
      <trkpt lat="45.74425" lon="4.60089">
        <ele>700.5</ele>
        <time>2020-06-15T14:46:37.000Z</time>
      </trkpt>
      <trkpt lat="45.74429" lon="4.60087">
        <ele>698.5</ele>
        <time>2020-06-15T14:46:38.000Z</time>
      </trkpt>
      <trkpt lat="45.74436" lon="4.60092">
        <ele>696.7</ele>
        <time>2020-06-15T14:46:40.000Z</time>
      </trkpt>
      <trkpt lat="45.74439" lon="4.60094">
        <ele>695.7</ele>
        <time>2020-06-15T14:46:41.000Z</time>
      </trkpt>
      <trkpt lat="45.74448" lon="4.60092">
        <ele>692.3</ele>
        <time>2020-06-15T14:46:43.000Z</time>
      </trkpt>
      <trkpt lat="45.74452" lon="4.60092">
        <ele>691.3</ele>
        <time>2020-06-15T14:46:44.000Z</time>
      </trkpt>
      <trkpt lat="45.74457" lon="4.60099">
        <ele>688.8</ele>
        <time>2020-06-15T14:46:46.000Z</time>
      </trkpt>
      <trkpt lat="45.74463" lon="4.60106">
        <ele>686.8</ele>
        <time>2020-06-15T14:46:48.000Z</time>
      </trkpt>
      <trkpt lat="45.74465" lon="4.60107">
        <ele>685.8</ele>
        <time>2020-06-15T14:46:49.000Z</time>
      </trkpt>
      <trkpt lat="45.74465" lon="4.60107">
        <ele>685.8</ele>
        <time>2020-06-15T14:46:54.000Z</time>
      </trkpt>
      <trkpt lat="45.74467" lon="4.60105">
        <ele>685.8</ele>
        <time>2020-06-15T14:46:58.000Z</time>
      </trkpt>
      <trkpt lat="45.7447" lon="4.60102">
        <ele>685</ele>
        <time>2020-06-15T14:46:59.000Z</time>
      </trkpt>
      <trkpt lat="45.74477" lon="4.60088">
        <ele>682.6</ele>
        <time>2020-06-15T14:47:02.000Z</time>
      </trkpt>
      <trkpt lat="45.74482" lon="4.60079">
        <ele>682</ele>
        <time>2020-06-15T14:47:05.000Z</time>
      </trkpt>
      <trkpt lat="45.74489" lon="4.60083">
        <ele>679.6</ele>
        <time>2020-06-15T14:47:08.000Z</time>
      </trkpt>
      <trkpt lat="45.74491" lon="4.60084">
        <ele>679.6</ele>
        <time>2020-06-15T14:47:12.000Z</time>
      </trkpt>
      <trkpt lat="45.74491" lon="4.60086">
        <ele>679.6</ele>
        <time>2020-06-15T14:47:13.000Z</time>
      </trkpt>
      <trkpt lat="45.74492" lon="4.60088">
        <ele>678.7</ele>
        <time>2020-06-15T14:47:14.000Z</time>
      </trkpt>
      <trkpt lat="45.74493" lon="4.60096">
        <ele>678.3</ele>
        <time>2020-06-15T14:47:17.000Z</time>
      </trkpt>
      <trkpt lat="45.74493" lon="4.60096">
        <ele>678.3</ele>
        <time>2020-06-15T14:47:23.000Z</time>
      </trkpt>
      <trkpt lat="45.74493" lon="4.60096">
        <ele>678.3</ele>
        <time>2020-06-15T14:47:35.000Z</time>
      </trkpt>
      <trkpt lat="45.74493" lon="4.60096">
        <ele>678.3</ele>
        <time>2020-06-15T14:47:47.000Z</time>
      </trkpt>
      <trkpt lat="45.74493" lon="4.60099">
        <ele>678.1</ele>
        <time>2020-06-15T14:47:54.000Z</time>
      </trkpt>
      <trkpt lat="45.74489" lon="4.60113">
        <ele>677.4</ele>
        <time>2020-06-15T14:47:59.000Z</time>
      </trkpt>
      <trkpt lat="45.74485" lon="4.60125">
        <ele>676.4</ele>
        <time>2020-06-15T14:48:02.000Z</time>
      </trkpt>
      <trkpt lat="45.74481" lon="4.6013">
        <ele>675.9</ele>
        <time>2020-06-15T14:48:03.000Z</time>
      </trkpt>
      <trkpt lat="45.74477" lon="4.60134">
        <ele>675.3</ele>
        <time>2020-06-15T14:48:04.000Z</time>
      </trkpt>
      <trkpt lat="45.7447" lon="4.60148">
        <ele>674</ele>
        <time>2020-06-15T14:48:06.000Z</time>
      </trkpt>
      <trkpt lat="45.74465" lon="4.60166">
        <ele>674.9</ele>
        <time>2020-06-15T14:48:08.000Z</time>
      </trkpt>
      <trkpt lat="45.7446" lon="4.60178">
        <ele>675.6</ele>
        <time>2020-06-15T14:48:10.000Z</time>
      </trkpt>
      <trkpt lat="45.74453" lon="4.60198">
        <ele>676.6</ele>
        <time>2020-06-15T14:48:14.000Z</time>
      </trkpt>
      <trkpt lat="45.74449" lon="4.60203">
        <ele>677</ele>
        <time>2020-06-15T14:48:16.000Z</time>
      </trkpt>
      <trkpt lat="45.74443" lon="4.60209">
        <ele>677.5</ele>
        <time>2020-06-15T14:48:18.000Z</time>
      </trkpt>
      <trkpt lat="45.74433" lon="4.60225">
        <ele>678.4</ele>
        <time>2020-06-15T14:48:24.000Z</time>
      </trkpt>
      <trkpt lat="45.74432" lon="4.60228">
        <ele>678.6</ele>
        <time>2020-06-15T14:48:25.000Z</time>
      </trkpt>
      <trkpt lat="45.74429" lon="4.60235">
        <ele>678.9</ele>
        <time>2020-06-15T14:48:28.000Z</time>
      </trkpt>
      <trkpt lat="45.74423" lon="4.60244">
        <ele>679.5</ele>
        <time>2020-06-15T14:48:32.000Z</time>
      </trkpt>
      <trkpt lat="45.74421" lon="4.60246">
        <ele>679.6</ele>
        <time>2020-06-15T14:48:33.000Z</time>
      </trkpt>
      <trkpt lat="45.74412" lon="4.60261">
        <ele>680.3</ele>
        <time>2020-06-15T14:48:39.000Z</time>
      </trkpt>
      <trkpt lat="45.74403" lon="4.6027">
        <ele>681</ele>
        <time>2020-06-15T14:48:44.000Z</time>
      </trkpt>
      <trkpt lat="45.74403" lon="4.60291">
        <ele>681.9</ele>
        <time>2020-06-15T14:48:50.000Z</time>
      </trkpt>
      <trkpt lat="45.74403" lon="4.60298">
        <ele>682.3</ele>
        <time>2020-06-15T14:48:52.000Z</time>
      </trkpt>
      <trkpt lat="45.74406" lon="4.60303">
        <ele>682.6</ele>
        <time>2020-06-15T14:48:54.000Z</time>
      </trkpt>
      <trkpt lat="45.74408" lon="4.60309">
        <ele>682.9</ele>
        <time>2020-06-15T14:48:56.000Z</time>
      </trkpt>
      <trkpt lat="45.74409" lon="4.60315">
        <ele>683.2</ele>
        <time>2020-06-15T14:48:58.000Z</time>
      </trkpt>
      <trkpt lat="45.74411" lon="4.60318">
        <ele>683.4</ele>
        <time>2020-06-15T14:48:59.000Z</time>
      </trkpt>
      <trkpt lat="45.74414" lon="4.60325">
        <ele>683.8</ele>
        <time>2020-06-15T14:49:02.000Z</time>
      </trkpt>
      <trkpt lat="45.74421" lon="4.60338">
        <ele>684.5</ele>
        <time>2020-06-15T14:49:07.000Z</time>
      </trkpt>
      <trkpt lat="45.74429" lon="4.60352">
        <ele>685.3</ele>
        <time>2020-06-15T14:49:12.000Z</time>
      </trkpt>
      <trkpt lat="45.74434" lon="4.60364">
        <ele>685.9</ele>
        <time>2020-06-15T14:49:16.000Z</time>
      </trkpt>
      <trkpt lat="45.74441" lon="4.60378">
        <ele>686.6</ele>
        <time>2020-06-15T14:49:22.000Z</time>
      </trkpt>
      <trkpt lat="45.74449" lon="4.60395">
        <ele>687.4</ele>
        <time>2020-06-15T14:49:29.000Z</time>
      </trkpt>
      <trkpt lat="45.74451" lon="4.60401">
        <ele>687.7</ele>
        <time>2020-06-15T14:49:32.000Z</time>
      </trkpt>
      <trkpt lat="45.74455" lon="4.60406">
        <ele>688</ele>
        <time>2020-06-15T14:49:34.000Z</time>
      </trkpt>
      <trkpt lat="45.74465" lon="4.60418">
        <ele>688.9</ele>
        <time>2020-06-15T14:49:39.000Z</time>
      </trkpt>
      <trkpt lat="45.74471" lon="4.60429">
        <ele>689.5</ele>
        <time>2020-06-15T14:49:44.000Z</time>
      </trkpt>
      <trkpt lat="45.7448" lon="4.6044">
        <ele>690.4</ele>
        <time>2020-06-15T14:49:48.000Z</time>
      </trkpt>
      <trkpt lat="45.74484" lon="4.60453">
        <ele>691.1</ele>
        <time>2020-06-15T14:49:53.000Z</time>
      </trkpt>
      <trkpt lat="45.74489" lon="4.60464">
        <ele>691.7</ele>
        <time>2020-06-15T14:49:58.000Z</time>
      </trkpt>
      <trkpt lat="45.74494" lon="4.60472">
        <ele>692.3</ele>
        <time>2020-06-15T14:50:02.000Z</time>
      </trkpt>
      <trkpt lat="45.74502" lon="4.60486">
        <ele>693.1</ele>
        <time>2020-06-15T14:50:08.000Z</time>
      </trkpt>
      <trkpt lat="45.74504" lon="4.60491">
        <ele>693.3</ele>
        <time>2020-06-15T14:50:11.000Z</time>
      </trkpt>
      <trkpt lat="45.74504" lon="4.60493">
        <ele>693.4</ele>
        <time>2020-06-15T14:50:12.000Z</time>
      </trkpt>
      <trkpt lat="45.74512" lon="4.60504">
        <ele>694.1</ele>
        <time>2020-06-15T14:50:17.000Z</time>
      </trkpt>
      <trkpt lat="45.74522" lon="4.60519">
        <ele>695</ele>
        <time>2020-06-15T14:50:23.000Z</time>
      </trkpt>
      <trkpt lat="45.74531" lon="4.60533">
        <ele>695.8</ele>
        <time>2020-06-15T14:50:29.000Z</time>
      </trkpt>
      <trkpt lat="45.74537" lon="4.60549">
        <ele>696.7</ele>
        <time>2020-06-15T14:50:36.000Z</time>
      </trkpt>
      <trkpt lat="45.74535" lon="4.6056">
        <ele>697.2</ele>
        <time>2020-06-15T14:50:41.000Z</time>
      </trkpt>
      <trkpt lat="45.7454" lon="4.60574">
        <ele>697.9</ele>
        <time>2020-06-15T14:50:48.000Z</time>
      </trkpt>
      <trkpt lat="45.74543" lon="4.60588">
        <ele>698.5</ele>
        <time>2020-06-15T14:50:55.000Z</time>
      </trkpt>
      <trkpt lat="45.74546" lon="4.606">
        <ele>699.1</ele>
        <time>2020-06-15T14:51:00.000Z</time>
      </trkpt>
      <trkpt lat="45.7455" lon="4.60611">
        <ele>699.7</ele>
        <time>2020-06-15T14:51:05.000Z</time>
      </trkpt>
      <trkpt lat="45.74551" lon="4.60623">
        <ele>700.2</ele>
        <time>2020-06-15T14:51:11.000Z</time>
      </trkpt>
      <trkpt lat="45.74551" lon="4.60627">
        <ele>700.4</ele>
        <time>2020-06-15T14:51:13.000Z</time>
      </trkpt>
      <trkpt lat="45.74555" lon="4.60634">
        <ele>700.8</ele>
        <time>2020-06-15T14:51:16.000Z</time>
      </trkpt>
      <trkpt lat="45.7456" lon="4.60646">
        <ele>701.4</ele>
        <time>2020-06-15T14:51:21.000Z</time>
      </trkpt>
      <trkpt lat="45.7456" lon="4.60648">
        <ele>701.6</ele>
        <time>2020-06-15T14:51:22.000Z</time>
      </trkpt>
      <trkpt lat="45.74563" lon="4.60655">
        <ele>701.9</ele>
        <time>2020-06-15T14:51:25.000Z</time>
      </trkpt>
      <trkpt lat="45.74567" lon="4.6067">
        <ele>702.6</ele>
        <time>2020-06-15T14:51:31.000Z</time>
      </trkpt>
      <trkpt lat="45.74574" lon="4.60691">
        <ele>703.6</ele>
        <time>2020-06-15T14:51:38.000Z</time>
      </trkpt>
      <trkpt lat="45.74575" lon="4.60693">
        <ele>703.8</ele>
        <time>2020-06-15T14:51:39.000Z</time>
      </trkpt>
      <trkpt lat="45.74576" lon="4.60701">
        <ele>704.1</ele>
        <time>2020-06-15T14:51:42.000Z</time>
      </trkpt>
      <trkpt lat="45.74578" lon="4.60708">
        <ele>704.4</ele>
        <time>2020-06-15T14:51:45.000Z</time>
      </trkpt>
      <trkpt lat="45.74579" lon="4.60712">
        <ele>704.7</ele>
        <time>2020-06-15T14:51:47.000Z</time>
      </trkpt>
      <trkpt lat="45.74586" lon="4.60729">
        <ele>705.6</ele>
        <time>2020-06-15T14:51:53.000Z</time>
      </trkpt>
      <trkpt lat="45.7459" lon="4.60745">
        <ele>706.4</ele>
        <time>2020-06-15T14:51:59.000Z</time>
      </trkpt>
      <trkpt lat="45.74594" lon="4.60758">
        <ele>707</ele>
        <time>2020-06-15T14:52:04.000Z</time>
      </trkpt>
      <trkpt lat="45.746" lon="4.60777">
        <ele>708</ele>
        <time>2020-06-15T14:52:11.000Z</time>
      </trkpt>
      <trkpt lat="45.74603" lon="4.60793">
        <ele>708.7</ele>
        <time>2020-06-15T14:52:17.000Z</time>
      </trkpt>
      <trkpt lat="45.74603" lon="4.60796">
        <ele>708.8</ele>
        <time>2020-06-15T14:52:18.000Z</time>
      </trkpt>
      <trkpt lat="45.74605" lon="4.60809">
        <ele>709.4</ele>
        <time>2020-06-15T14:52:23.000Z</time>
      </trkpt>
      <trkpt lat="45.74605" lon="4.60811">
        <ele>709.5</ele>
        <time>2020-06-15T14:52:24.000Z</time>
      </trkpt>
      <trkpt lat="45.74606" lon="4.60829">
        <ele>710.3</ele>
        <time>2020-06-15T14:52:30.000Z</time>
      </trkpt>
      <trkpt lat="45.74608" lon="4.60839">
        <ele>710.8</ele>
        <time>2020-06-15T14:52:34.000Z</time>
      </trkpt>
      <trkpt lat="45.7461" lon="4.60842">
        <ele>710.9</ele>
        <time>2020-06-15T14:52:35.000Z</time>
      </trkpt>
      <trkpt lat="45.7461" lon="4.60844">
        <ele>711</ele>
        <time>2020-06-15T14:52:36.000Z</time>
      </trkpt>
      <trkpt lat="45.74612" lon="4.60853">
        <ele>711.4</ele>
        <time>2020-06-15T14:52:40.000Z</time>
      </trkpt>
      <trkpt lat="45.74615" lon="4.60866">
        <ele>712</ele>
        <time>2020-06-15T14:52:45.000Z</time>
      </trkpt>
      <trkpt lat="45.74615" lon="4.60872">
        <ele>712.3</ele>
        <time>2020-06-15T14:52:48.000Z</time>
      </trkpt>
      <trkpt lat="45.74615" lon="4.60874">
        <ele>712.4</ele>
        <time>2020-06-15T14:52:49.000Z</time>
      </trkpt>
      <trkpt lat="45.74611" lon="4.60879">
        <ele>712.7</ele>
        <time>2020-06-15T14:52:52.000Z</time>
      </trkpt>
      <trkpt lat="45.74609" lon="4.60883">
        <ele>712.9</ele>
        <time>2020-06-15T14:52:55.000Z</time>
      </trkpt>
      <trkpt lat="45.74609" lon="4.60885">
        <ele>713</ele>
        <time>2020-06-15T14:52:57.000Z</time>
      </trkpt>
      <trkpt lat="45.74604" lon="4.60893">
        <ele>713.6</ele>
        <time>2020-06-15T14:53:04.000Z</time>
      </trkpt>
      <trkpt lat="45.74602" lon="4.60901">
        <ele>714</ele>
        <time>2020-06-15T14:53:10.000Z</time>
      </trkpt>
      <trkpt lat="45.746" lon="4.60912">
        <ele>714.8</ele>
        <time>2020-06-15T14:53:16.000Z</time>
      </trkpt>
      <trkpt lat="45.74603" lon="4.6092">
        <ele>715.3</ele>
        <time>2020-06-15T14:53:22.000Z</time>
      </trkpt>
      <trkpt lat="45.74603" lon="4.60929">
        <ele>715.7</ele>
        <time>2020-06-15T14:53:27.000Z</time>
      </trkpt>
      <trkpt lat="45.74606" lon="4.60941">
        <ele>716.4</ele>
        <time>2020-06-15T14:53:35.000Z</time>
      </trkpt>
      <trkpt lat="45.74611" lon="4.60949">
        <ele>717</ele>
        <time>2020-06-15T14:53:41.000Z</time>
      </trkpt>
      <trkpt lat="45.74617" lon="4.60957">
        <ele>717.6</ele>
        <time>2020-06-15T14:53:46.000Z</time>
      </trkpt>
      <trkpt lat="45.74623" lon="4.60966">
        <ele>718.3</ele>
        <time>2020-06-15T14:53:53.000Z</time>
      </trkpt>
      <trkpt lat="45.74624" lon="4.60972">
        <ele>718.5</ele>
        <time>2020-06-15T14:53:59.000Z</time>
      </trkpt>
      <trkpt lat="45.74624" lon="4.60972">
        <ele>718.5</ele>
        <time>2020-06-15T14:54:06.000Z</time>
      </trkpt>
      <trkpt lat="45.74624" lon="4.60972">
        <ele>718.5</ele>
        <time>2020-06-15T14:54:11.000Z</time>
      </trkpt>
      <trkpt lat="45.74626" lon="4.60972">
        <ele>718.7</ele>
        <time>2020-06-15T14:54:17.000Z</time>
      </trkpt>
      <trkpt lat="45.74635" lon="4.60981">
        <ele>719.5</ele>
        <time>2020-06-15T14:54:21.000Z</time>
      </trkpt>
      <trkpt lat="45.74644" lon="4.60996">
        <ele>720.4</ele>
        <time>2020-06-15T14:54:26.000Z</time>
      </trkpt>
      <trkpt lat="45.74652" lon="4.61008">
        <ele>721.1</ele>
        <time>2020-06-15T14:54:30.000Z</time>
      </trkpt>
      <trkpt lat="45.74662" lon="4.61015">
        <ele>721.9</ele>
        <time>2020-06-15T14:54:34.000Z</time>
      </trkpt>
      <trkpt lat="45.74673" lon="4.61024">
        <ele>722.7</ele>
        <time>2020-06-15T14:54:39.000Z</time>
      </trkpt>
      <trkpt lat="45.7468" lon="4.61031">
        <ele>723.2</ele>
        <time>2020-06-15T14:54:44.000Z</time>
      </trkpt>
      <trkpt lat="45.74692" lon="4.61045">
        <ele>724.3</ele>
        <time>2020-06-15T14:54:50.000Z</time>
      </trkpt>
      <trkpt lat="45.74708" lon="4.61066">
        <ele>726</ele>
        <time>2020-06-15T14:54:56.000Z</time>
      </trkpt>
      <trkpt lat="45.74713" lon="4.61076">
        <ele>726.7</ele>
        <time>2020-06-15T14:55:02.000Z</time>
      </trkpt>
      <trkpt lat="45.74719" lon="4.61094">
        <ele>727.9</ele>
        <time>2020-06-15T14:55:08.000Z</time>
      </trkpt>
      <trkpt lat="45.74727" lon="4.61113">
        <ele>729.3</ele>
        <time>2020-06-15T14:55:14.000Z</time>
      </trkpt>
      <trkpt lat="45.74739" lon="4.61119">
        <ele>730.4</ele>
        <time>2020-06-15T14:55:16.000Z</time>
      </trkpt>
      <trkpt lat="45.74746" lon="4.61121">
        <ele>730.9</ele>
        <time>2020-06-15T14:55:17.000Z</time>
      </trkpt>
      <trkpt lat="45.74765" lon="4.61125">
        <ele>732.7</ele>
        <time>2020-06-15T14:55:20.000Z</time>
      </trkpt>
      <trkpt lat="45.74768" lon="4.61126">
        <ele>732.7</ele>
        <time>2020-06-15T14:55:21.000Z</time>
      </trkpt>
      <trkpt lat="45.74777" lon="4.61136">
        <ele>732.8</ele>
        <time>2020-06-15T14:55:23.000Z</time>
      </trkpt>
      <trkpt lat="45.74789" lon="4.61148">
        <ele>731.7</ele>
        <time>2020-06-15T14:55:26.000Z</time>
      </trkpt>
      <trkpt lat="45.748" lon="4.61157">
        <ele>733</ele>
        <time>2020-06-15T14:55:31.000Z</time>
      </trkpt>
      <trkpt lat="45.74806" lon="4.61162">
        <ele>733.9</ele>
        <time>2020-06-15T14:55:34.000Z</time>
      </trkpt>
      <trkpt lat="45.7481" lon="4.61164">
        <ele>734.5</ele>
        <time>2020-06-15T14:55:36.000Z</time>
      </trkpt>
      <trkpt lat="45.74815" lon="4.61166">
        <ele>735.3</ele>
        <time>2020-06-15T14:55:39.000Z</time>
      </trkpt>
      <trkpt lat="45.74816" lon="4.61168">
        <ele>735.6</ele>
        <time>2020-06-15T14:55:40.000Z</time>
      </trkpt>
      <trkpt lat="45.74819" lon="4.61169">
        <ele>736.1</ele>
        <time>2020-06-15T14:55:43.000Z</time>
      </trkpt>
      <trkpt lat="45.74822" lon="4.6117">
        <ele>736.6</ele>
        <time>2020-06-15T14:55:45.000Z</time>
      </trkpt>
      <trkpt lat="45.74829" lon="4.61169">
        <ele>737.8</ele>
        <time>2020-06-15T14:55:50.000Z</time>
      </trkpt>
      <trkpt lat="45.74836" lon="4.61168">
        <ele>739</ele>
        <time>2020-06-15T14:55:55.000Z</time>
      </trkpt>
      <trkpt lat="45.74838" lon="4.61168">
        <ele>739.4</ele>
        <time>2020-06-15T14:55:58.000Z</time>
      </trkpt>
      <trkpt lat="45.74838" lon="4.61168">
        <ele>739.4</ele>
        <time>2020-06-15T14:55:59.000Z</time>
      </trkpt>
      <trkpt lat="45.74843" lon="4.61165">
        <ele>740.3</ele>
        <time>2020-06-15T14:56:03.000Z</time>
      </trkpt>
      <trkpt lat="45.74845" lon="4.61165">
        <ele>740.7</ele>
        <time>2020-06-15T14:56:04.000Z</time>
      </trkpt>
      <trkpt lat="45.74849" lon="4.61163">
        <ele>741.5</ele>
        <time>2020-06-15T14:56:08.000Z</time>
      </trkpt>
      <trkpt lat="45.74857" lon="4.61165">
        <ele>743</ele>
        <time>2020-06-15T14:56:14.000Z</time>
      </trkpt>
      <trkpt lat="45.74858" lon="4.61164">
        <ele>743.2</ele>
        <time>2020-06-15T14:56:17.000Z</time>
      </trkpt>
      <trkpt lat="45.74859" lon="4.61162">
        <ele>743.4</ele>
        <time>2020-06-15T14:56:18.000Z</time>
      </trkpt>
      <trkpt lat="45.74861" lon="4.61158">
        <ele>743.9</ele>
        <time>2020-06-15T14:56:21.000Z</time>
      </trkpt>
      <trkpt lat="45.74863" lon="4.61156">
        <ele>744.2</ele>
        <time>2020-06-15T14:56:23.000Z</time>
      </trkpt>
      <trkpt lat="45.74866" lon="4.61151">
        <ele>744.8</ele>
        <time>2020-06-15T14:56:29.000Z</time>
      </trkpt>
      <trkpt lat="45.7487" lon="4.61144">
        <ele>745.6</ele>
        <time>2020-06-15T14:56:35.000Z</time>
      </trkpt>
      <trkpt lat="45.74871" lon="4.6114">
        <ele>746</ele>
        <time>2020-06-15T14:56:40.000Z</time>
      </trkpt>
      <trkpt lat="45.74871" lon="4.61136">
        <ele>746.3</ele>
        <time>2020-06-15T14:56:45.000Z</time>
      </trkpt>
      <trkpt lat="45.74872" lon="4.61133">
        <ele>746.5</ele>
        <time>2020-06-15T14:56:57.000Z</time>
      </trkpt>
      <trkpt lat="45.74873" lon="4.61132">
        <ele>746.6</ele>
        <time>2020-06-15T14:56:58.000Z</time>
      </trkpt>
      <trkpt lat="45.74874" lon="4.61126">
        <ele>747</ele>
        <time>2020-06-15T14:57:01.000Z</time>
      </trkpt>
      <trkpt lat="45.74875" lon="4.61125">
        <ele>747.1</ele>
        <time>2020-06-15T14:57:02.000Z</time>
      </trkpt>
      <trkpt lat="45.74876" lon="4.61123">
        <ele>747.2</ele>
        <time>2020-06-15T14:57:03.000Z</time>
      </trkpt>
      <trkpt lat="45.7488" lon="4.61116">
        <ele>747.6</ele>
        <time>2020-06-15T14:57:07.000Z</time>
      </trkpt>
      <trkpt lat="45.74884" lon="4.61109">
        <ele>747.8</ele>
        <time>2020-06-15T14:57:12.000Z</time>
      </trkpt>
      <trkpt lat="45.74886" lon="4.61108">
        <ele>747.9</ele>
        <time>2020-06-15T14:57:14.000Z</time>
      </trkpt>
      <trkpt lat="45.74891" lon="4.61107">
        <ele>748</ele>
        <time>2020-06-15T14:57:17.000Z</time>
      </trkpt>
      <trkpt lat="45.74896" lon="4.61107">
        <ele>748.2</ele>
        <time>2020-06-15T14:57:20.000Z</time>
      </trkpt>
      <trkpt lat="45.74898" lon="4.61107">
        <ele>748.2</ele>
        <time>2020-06-15T14:57:22.000Z</time>
      </trkpt>
      <trkpt lat="45.74901" lon="4.61105">
        <ele>748.3</ele>
        <time>2020-06-15T14:57:24.000Z</time>
      </trkpt>
      <trkpt lat="45.74905" lon="4.61099">
        <ele>748.5</ele>
        <time>2020-06-15T14:57:26.000Z</time>
      </trkpt>
      <trkpt lat="45.74909" lon="4.61095">
        <ele>748.7</ele>
        <time>2020-06-15T14:57:29.000Z</time>
      </trkpt>
      <trkpt lat="45.7491" lon="4.61093">
        <ele>748.8</ele>
        <time>2020-06-15T14:57:35.000Z</time>
      </trkpt>
      <trkpt lat="45.7491" lon="4.61093">
        <ele>748.8</ele>
        <time>2020-06-15T14:57:47.000Z</time>
      </trkpt>
      <trkpt lat="45.7491" lon="4.61093">
        <ele>748.8</ele>
        <time>2020-06-15T14:57:57.000Z</time>
      </trkpt>
      <trkpt lat="45.74912" lon="4.61092">
        <ele>748.9</ele>
        <time>2020-06-15T14:58:06.000Z</time>
      </trkpt>
      <trkpt lat="45.74918" lon="4.61086">
        <ele>749.2</ele>
        <time>2020-06-15T14:58:11.000Z</time>
      </trkpt>
      <trkpt lat="45.74923" lon="4.61083">
        <ele>749.5</ele>
        <time>2020-06-15T14:58:15.000Z</time>
      </trkpt>
      <trkpt lat="45.74925" lon="4.61082">
        <ele>749.6</ele>
        <time>2020-06-15T14:58:16.000Z</time>
      </trkpt>
      <trkpt lat="45.74932" lon="4.61079">
        <ele>750.1</ele>
        <time>2020-06-15T14:58:21.000Z</time>
      </trkpt>
      <trkpt lat="45.74937" lon="4.61074">
        <ele>750.6</ele>
        <time>2020-06-15T14:58:25.000Z</time>
      </trkpt>
      <trkpt lat="45.7494" lon="4.61071">
        <ele>750.8</ele>
        <time>2020-06-15T14:58:27.000Z</time>
      </trkpt>
      <trkpt lat="45.74943" lon="4.6107">
        <ele>751</ele>
        <time>2020-06-15T14:58:29.000Z</time>
      </trkpt>
      <trkpt lat="45.74952" lon="4.61065">
        <ele>751.8</ele>
        <time>2020-06-15T14:58:34.000Z</time>
      </trkpt>
      <trkpt lat="45.74961" lon="4.61062">
        <ele>752.5</ele>
        <time>2020-06-15T14:58:40.000Z</time>
      </trkpt>
      <trkpt lat="45.74968" lon="4.61057">
        <ele>753.1</ele>
        <time>2020-06-15T14:58:45.000Z</time>
      </trkpt>
      <trkpt lat="45.74973" lon="4.61055">
        <ele>753.4</ele>
        <time>2020-06-15T14:58:50.000Z</time>
      </trkpt>
      <trkpt lat="45.74976" lon="4.61053">
        <ele>753.6</ele>
        <time>2020-06-15T14:58:55.000Z</time>
      </trkpt>
      <trkpt lat="45.74982" lon="4.6105">
        <ele>753.9</ele>
        <time>2020-06-15T14:58:58.000Z</time>
      </trkpt>
      <trkpt lat="45.74984" lon="4.61049">
        <ele>753.9</ele>
        <time>2020-06-15T14:58:59.000Z</time>
      </trkpt>
      <trkpt lat="45.74992" lon="4.61044">
        <ele>754.1</ele>
        <time>2020-06-15T14:59:04.000Z</time>
      </trkpt>
      <trkpt lat="45.74996" lon="4.61038">
        <ele>754</ele>
        <time>2020-06-15T14:59:08.000Z</time>
      </trkpt>
      <trkpt lat="45.75001" lon="4.61035">
        <ele>753.9</ele>
        <time>2020-06-15T14:59:10.000Z</time>
      </trkpt>
      <trkpt lat="45.75009" lon="4.61033">
        <ele>753.6</ele>
        <time>2020-06-15T14:59:12.000Z</time>
      </trkpt>
      <trkpt lat="45.75022" lon="4.6103">
        <ele>753.2</ele>
        <time>2020-06-15T14:59:15.000Z</time>
      </trkpt>
      <trkpt lat="45.75033" lon="4.61028">
        <ele>752.8</ele>
        <time>2020-06-15T14:59:17.000Z</time>
      </trkpt>
      <trkpt lat="45.75038" lon="4.61027">
        <ele>752.7</ele>
        <time>2020-06-15T14:59:18.000Z</time>
      </trkpt>
      <trkpt lat="45.75053" lon="4.61024">
        <ele>752.6</ele>
        <time>2020-06-15T14:59:21.000Z</time>
      </trkpt>
      <trkpt lat="45.75062" lon="4.61023">
        <ele>752.7</ele>
        <time>2020-06-15T14:59:24.000Z</time>
      </trkpt>
      <trkpt lat="45.75064" lon="4.61023">
        <ele>752.8</ele>
        <time>2020-06-15T14:59:25.000Z</time>
      </trkpt>
      <trkpt lat="45.75086" lon="4.6102">
        <ele>753.1</ele>
        <time>2020-06-15T14:59:31.000Z</time>
      </trkpt>
      <trkpt lat="45.75104" lon="4.6102">
        <ele>753.5</ele>
        <time>2020-06-15T14:59:36.000Z</time>
      </trkpt>
      <trkpt lat="45.75107" lon="4.61021">
        <ele>753.6</ele>
        <time>2020-06-15T14:59:37.000Z</time>
      </trkpt>
      <trkpt lat="45.75113" lon="4.61023">
        <ele>754</ele>
        <time>2020-06-15T14:59:39.000Z</time>
      </trkpt>
      <trkpt lat="45.75121" lon="4.61026">
        <ele>754.6</ele>
        <time>2020-06-15T14:59:42.000Z</time>
      </trkpt>
      <trkpt lat="45.75123" lon="4.61028">
        <ele>754.8</ele>
        <time>2020-06-15T14:59:43.000Z</time>
      </trkpt>
      <trkpt lat="45.75135" lon="4.61039">
        <ele>756</ele>
        <time>2020-06-15T14:59:49.000Z</time>
      </trkpt>
      <trkpt lat="45.75138" lon="4.61046">
        <ele>756.4</ele>
        <time>2020-06-15T14:59:54.000Z</time>
      </trkpt>
      <trkpt lat="45.75141" lon="4.61052">
        <ele>756.7</ele>
        <time>2020-06-15T14:59:57.000Z</time>
      </trkpt>
      <trkpt lat="45.75144" lon="4.61056">
        <ele>756.9</ele>
        <time>2020-06-15T14:59:59.000Z</time>
      </trkpt>
      <trkpt lat="45.75148" lon="4.61073">
        <ele>757.3</ele>
        <time>2020-06-15T15:00:04.000Z</time>
      </trkpt>
      <trkpt lat="45.75153" lon="4.61086">
        <ele>757.4</ele>
        <time>2020-06-15T15:00:09.000Z</time>
      </trkpt>
      <trkpt lat="45.75155" lon="4.61088">
        <ele>757.5</ele>
        <time>2020-06-15T15:00:10.000Z</time>
      </trkpt>
      <trkpt lat="45.75159" lon="4.61097">
        <ele>757.6</ele>
        <time>2020-06-15T15:00:12.000Z</time>
      </trkpt>
      <trkpt lat="45.7517" lon="4.61112">
        <ele>757.8</ele>
        <time>2020-06-15T15:00:16.000Z</time>
      </trkpt>
      <trkpt lat="45.75182" lon="4.6113">
        <ele>758.3</ele>
        <time>2020-06-15T15:00:21.000Z</time>
      </trkpt>
      <trkpt lat="45.75187" lon="4.61137">
        <ele>758.5</ele>
        <time>2020-06-15T15:00:25.000Z</time>
      </trkpt>
      <trkpt lat="45.75189" lon="4.61143">
        <ele>758.6</ele>
        <time>2020-06-15T15:00:30.000Z</time>
      </trkpt>
      <trkpt lat="45.75198" lon="4.61153">
        <ele>759.1</ele>
        <time>2020-06-15T15:00:37.000Z</time>
      </trkpt>
      <trkpt lat="45.75206" lon="4.61163">
        <ele>759.6</ele>
        <time>2020-06-15T15:00:42.000Z</time>
      </trkpt>
      <trkpt lat="45.75211" lon="4.61171">
        <ele>760.1</ele>
        <time>2020-06-15T15:00:46.000Z</time>
      </trkpt>
      <trkpt lat="45.75219" lon="4.61182">
        <ele>760.9</ele>
        <time>2020-06-15T15:00:50.000Z</time>
      </trkpt>
      <trkpt lat="45.75226" lon="4.61194">
        <ele>761.7</ele>
        <time>2020-06-15T15:00:55.000Z</time>
      </trkpt>
      <trkpt lat="45.75227" lon="4.61197">
        <ele>761.8</ele>
        <time>2020-06-15T15:00:56.000Z</time>
      </trkpt>
      <trkpt lat="45.75228" lon="4.61199">
        <ele>762</ele>
        <time>2020-06-15T15:00:57.000Z</time>
      </trkpt>
      <trkpt lat="45.75233" lon="4.61211">
        <ele>762.6</ele>
        <time>2020-06-15T15:01:02.000Z</time>
      </trkpt>
      <trkpt lat="45.75235" lon="4.61224">
        <ele>763.2</ele>
        <time>2020-06-15T15:01:07.000Z</time>
      </trkpt>
      <trkpt lat="45.75238" lon="4.6124">
        <ele>764</ele>
        <time>2020-06-15T15:01:13.000Z</time>
      </trkpt>
      <trkpt lat="45.75242" lon="4.61253">
        <ele>764.9</ele>
        <time>2020-06-15T15:01:19.000Z</time>
      </trkpt>
      <trkpt lat="45.75246" lon="4.61271">
        <ele>766.1</ele>
        <time>2020-06-15T15:01:26.000Z</time>
      </trkpt>
      <trkpt lat="45.75248" lon="4.61275">
        <ele>766.4</ele>
        <time>2020-06-15T15:01:27.000Z</time>
      </trkpt>
      <trkpt lat="45.7525" lon="4.61281">
        <ele>766.7</ele>
        <time>2020-06-15T15:01:29.000Z</time>
      </trkpt>
      <trkpt lat="45.75255" lon="4.61295">
        <ele>767.6</ele>
        <time>2020-06-15T15:01:33.000Z</time>
      </trkpt>
      <trkpt lat="45.75256" lon="4.61299">
        <ele>767.8</ele>
        <time>2020-06-15T15:01:34.000Z</time>
      </trkpt>
      <trkpt lat="45.75258" lon="4.61309">
        <ele>768.3</ele>
        <time>2020-06-15T15:01:38.000Z</time>
      </trkpt>
      <trkpt lat="45.75259" lon="4.61311">
        <ele>768.4</ele>
        <time>2020-06-15T15:01:39.000Z</time>
      </trkpt>
      <trkpt lat="45.7526" lon="4.61319">
        <ele>768.8</ele>
        <time>2020-06-15T15:01:43.000Z</time>
      </trkpt>
      <trkpt lat="45.7526" lon="4.6132">
        <ele>768.8</ele>
        <time>2020-06-15T15:01:44.000Z</time>
      </trkpt>
      <trkpt lat="45.7526" lon="4.61325">
        <ele>769.1</ele>
        <time>2020-06-15T15:01:46.000Z</time>
      </trkpt>
      <trkpt lat="45.7526" lon="4.61329">
        <ele>769.3</ele>
        <time>2020-06-15T15:01:48.000Z</time>
      </trkpt>
      <trkpt lat="45.75259" lon="4.61334">
        <ele>769.5</ele>
        <time>2020-06-15T15:01:50.000Z</time>
      </trkpt>
      <trkpt lat="45.75259" lon="4.61336">
        <ele>769.6</ele>
        <time>2020-06-15T15:01:51.000Z</time>
      </trkpt>
      <trkpt lat="45.75262" lon="4.61342">
        <ele>770</ele>
        <time>2020-06-15T15:01:54.000Z</time>
      </trkpt>
      <trkpt lat="45.75265" lon="4.61352">
        <ele>770.6</ele>
        <time>2020-06-15T15:01:56.000Z</time>
      </trkpt>
      <trkpt lat="45.75266" lon="4.61358">
        <ele>771</ele>
        <time>2020-06-15T15:01:58.000Z</time>
      </trkpt>
      <trkpt lat="45.75267" lon="4.61362">
        <ele>771.3</ele>
        <time>2020-06-15T15:02:00.000Z</time>
      </trkpt>
      <trkpt lat="45.75271" lon="4.61373">
        <ele>771.7</ele>
        <time>2020-06-15T15:02:04.000Z</time>
      </trkpt>
      <trkpt lat="45.75271" lon="4.61376">
        <ele>771.8</ele>
        <time>2020-06-15T15:02:05.000Z</time>
      </trkpt>
      <trkpt lat="45.75273" lon="4.61383">
        <ele>772.2</ele>
        <time>2020-06-15T15:02:09.000Z</time>
      </trkpt>
      <trkpt lat="45.75274" lon="4.61391">
        <ele>772.6</ele>
        <time>2020-06-15T15:02:13.000Z</time>
      </trkpt>
      <trkpt lat="45.75274" lon="4.61393">
        <ele>772.6</ele>
        <time>2020-06-15T15:02:14.000Z</time>
      </trkpt>
      <trkpt lat="45.75274" lon="4.61398">
        <ele>772.8</ele>
        <time>2020-06-15T15:02:16.000Z</time>
      </trkpt>
      <trkpt lat="45.75274" lon="4.61403">
        <ele>773</ele>
        <time>2020-06-15T15:02:18.000Z</time>
      </trkpt>
      <trkpt lat="45.75273" lon="4.61406">
        <ele>773.1</ele>
        <time>2020-06-15T15:02:19.000Z</time>
      </trkpt>
      <trkpt lat="45.7527" lon="4.61415">
        <ele>773.4</ele>
        <time>2020-06-15T15:02:23.000Z</time>
      </trkpt>
      <trkpt lat="45.75269" lon="4.61423">
        <ele>773.7</ele>
        <time>2020-06-15T15:02:28.000Z</time>
      </trkpt>
      <trkpt lat="45.75268" lon="4.61438">
        <ele>774.2</ele>
        <time>2020-06-15T15:02:33.000Z</time>
      </trkpt>
      <trkpt lat="45.75269" lon="4.61451">
        <ele>774.8</ele>
        <time>2020-06-15T15:02:38.000Z</time>
      </trkpt>
      <trkpt lat="45.75269" lon="4.61461">
        <ele>775.3</ele>
        <time>2020-06-15T15:02:42.000Z</time>
      </trkpt>
      <trkpt lat="45.75269" lon="4.61472">
        <ele>775.9</ele>
        <time>2020-06-15T15:02:47.000Z</time>
      </trkpt>
      <trkpt lat="45.7527" lon="4.61475">
        <ele>776.1</ele>
        <time>2020-06-15T15:02:48.000Z</time>
      </trkpt>
      <trkpt lat="45.75272" lon="4.61481">
        <ele>776.4</ele>
        <time>2020-06-15T15:02:50.000Z</time>
      </trkpt>
      <trkpt lat="45.75273" lon="4.61485">
        <ele>776.6</ele>
        <time>2020-06-15T15:02:51.000Z</time>
      </trkpt>
      <trkpt lat="45.75276" lon="4.61498">
        <ele>777.5</ele>
        <time>2020-06-15T15:02:56.000Z</time>
      </trkpt>
      <trkpt lat="45.75279" lon="4.61509">
        <ele>778.2</ele>
        <time>2020-06-15T15:03:00.000Z</time>
      </trkpt>
      <trkpt lat="45.7528" lon="4.61519">
        <ele>778.8</ele>
        <time>2020-06-15T15:03:04.000Z</time>
      </trkpt>
      <trkpt lat="45.75281" lon="4.61532">
        <ele>779.5</ele>
        <time>2020-06-15T15:03:10.000Z</time>
      </trkpt>
      <trkpt lat="45.75285" lon="4.61544">
        <ele>780.3</ele>
        <time>2020-06-15T15:03:15.000Z</time>
      </trkpt>
      <trkpt lat="45.75287" lon="4.6155">
        <ele>780.7</ele>
        <time>2020-06-15T15:03:17.000Z</time>
      </trkpt>
      <trkpt lat="45.75289" lon="4.61555">
        <ele>781</ele>
        <time>2020-06-15T15:03:19.000Z</time>
      </trkpt>
      <trkpt lat="45.75288" lon="4.61556">
        <ele>781.1</ele>
        <time>2020-06-15T15:03:20.000Z</time>
      </trkpt>
      <trkpt lat="45.75287" lon="4.61561">
        <ele>781.3</ele>
        <time>2020-06-15T15:03:24.000Z</time>
      </trkpt>
      <trkpt lat="45.75291" lon="4.61566">
        <ele>781.5</ele>
        <time>2020-06-15T15:03:26.000Z</time>
      </trkpt>
      <trkpt lat="45.75295" lon="4.61569">
        <ele>781.8</ele>
        <time>2020-06-15T15:03:28.000Z</time>
      </trkpt>
      <trkpt lat="45.75304" lon="4.61573">
        <ele>782.1</ele>
        <time>2020-06-15T15:03:32.000Z</time>
      </trkpt>
      <trkpt lat="45.75307" lon="4.61574">
        <ele>782.1</ele>
        <time>2020-06-15T15:03:33.000Z</time>
      </trkpt>
      <trkpt lat="45.75319" lon="4.61578">
        <ele>782.3</ele>
        <time>2020-06-15T15:03:37.000Z</time>
      </trkpt>
      <trkpt lat="45.75324" lon="4.61578">
        <ele>782.3</ele>
        <time>2020-06-15T15:03:39.000Z</time>
      </trkpt>
      <trkpt lat="45.75329" lon="4.61578">
        <ele>782.3</ele>
        <time>2020-06-15T15:03:41.000Z</time>
      </trkpt>
      <trkpt lat="45.75339" lon="4.6158">
        <ele>782.3</ele>
        <time>2020-06-15T15:03:45.000Z</time>
      </trkpt>
      <trkpt lat="45.75345" lon="4.61583">
        <ele>782.2</ele>
        <time>2020-06-15T15:03:48.000Z</time>
      </trkpt>
      <trkpt lat="45.75362" lon="4.61594">
        <ele>781.5</ele>
        <time>2020-06-15T15:03:53.000Z</time>
      </trkpt>
      <trkpt lat="45.75384" lon="4.6161">
        <ele>780.1</ele>
        <time>2020-06-15T15:03:57.000Z</time>
      </trkpt>
      <trkpt lat="45.75389" lon="4.61613">
        <ele>779.8</ele>
        <time>2020-06-15T15:03:58.000Z</time>
      </trkpt>
      <trkpt lat="45.75394" lon="4.61617">
        <ele>779.5</ele>
        <time>2020-06-15T15:03:59.000Z</time>
      </trkpt>
      <trkpt lat="45.75411" lon="4.61628">
        <ele>778.4</ele>
        <time>2020-06-15T15:04:02.000Z</time>
      </trkpt>
      <trkpt lat="45.75424" lon="4.61635">
        <ele>777.5</ele>
        <time>2020-06-15T15:04:05.000Z</time>
      </trkpt>
      <trkpt lat="45.75427" lon="4.61635">
        <ele>777.3</ele>
        <time>2020-06-15T15:04:06.000Z</time>
      </trkpt>
      <trkpt lat="45.75437" lon="4.61635">
        <ele>776.5</ele>
        <time>2020-06-15T15:04:10.000Z</time>
      </trkpt>
      <trkpt lat="45.75444" lon="4.61637">
        <ele>775.9</ele>
        <time>2020-06-15T15:04:13.000Z</time>
      </trkpt>
      <trkpt lat="45.75458" lon="4.61644">
        <ele>774.1</ele>
        <time>2020-06-15T15:04:16.000Z</time>
      </trkpt>
      <trkpt lat="45.75486" lon="4.61663">
        <ele>770.2</ele>
        <time>2020-06-15T15:04:20.000Z</time>
      </trkpt>
      <trkpt lat="45.75493" lon="4.61669">
        <ele>769.4</ele>
        <time>2020-06-15T15:04:21.000Z</time>
      </trkpt>
      <trkpt lat="45.75505" lon="4.61682">
        <ele>768</ele>
        <time>2020-06-15T15:04:23.000Z</time>
      </trkpt>
      <trkpt lat="45.75512" lon="4.61689">
        <ele>767.2</ele>
        <time>2020-06-15T15:04:24.000Z</time>
      </trkpt>
      <trkpt lat="45.75538" lon="4.61723">
        <ele>764</ele>
        <time>2020-06-15T15:04:28.000Z</time>
      </trkpt>
      <trkpt lat="45.75561" lon="4.61756">
        <ele>760.8</ele>
        <time>2020-06-15T15:04:32.000Z</time>
      </trkpt>
      <trkpt lat="45.75566" lon="4.61764">
        <ele>760.2</ele>
        <time>2020-06-15T15:04:33.000Z</time>
      </trkpt>
      <trkpt lat="45.75576" lon="4.61783">
        <ele>758.9</ele>
        <time>2020-06-15T15:04:36.000Z</time>
      </trkpt>
      <trkpt lat="45.75586" lon="4.61793">
        <ele>758.2</ele>
        <time>2020-06-15T15:04:39.000Z</time>
      </trkpt>
      <trkpt lat="45.7559" lon="4.61795">
        <ele>758</ele>
        <time>2020-06-15T15:04:40.000Z</time>
      </trkpt>
      <trkpt lat="45.756" lon="4.61791">
        <ele>757.7</ele>
        <time>2020-06-15T15:04:42.000Z</time>
      </trkpt>
      <trkpt lat="45.75603" lon="4.61788">
        <ele>757.5</ele>
        <time>2020-06-15T15:04:43.000Z</time>
      </trkpt>
      <trkpt lat="45.75608" lon="4.61782">
        <ele>757.4</ele>
        <time>2020-06-15T15:04:45.000Z</time>
      </trkpt>
      <trkpt lat="45.7561" lon="4.6178">
        <ele>757.3</ele>
        <time>2020-06-15T15:04:48.000Z</time>
      </trkpt>
      <trkpt lat="45.7561" lon="4.6178">
        <ele>757.3</ele>
        <time>2020-06-15T15:04:52.000Z</time>
      </trkpt>
      <trkpt lat="45.75612" lon="4.61778">
        <ele>757.3</ele>
        <time>2020-06-15T15:04:53.000Z</time>
      </trkpt>
      <trkpt lat="45.75614" lon="4.61777">
        <ele>757.2</ele>
        <time>2020-06-15T15:04:54.000Z</time>
      </trkpt>
      <trkpt lat="45.75617" lon="4.61776">
        <ele>757.3</ele>
        <time>2020-06-15T15:04:56.000Z</time>
      </trkpt>
      <trkpt lat="45.75618" lon="4.61778">
        <ele>757.4</ele>
        <time>2020-06-15T15:04:57.000Z</time>
      </trkpt>
      <trkpt lat="45.75622" lon="4.61785">
        <ele>757.7</ele>
        <time>2020-06-15T15:05:01.000Z</time>
      </trkpt>
      <trkpt lat="45.75622" lon="4.61788">
        <ele>757.9</ele>
        <time>2020-06-15T15:05:03.000Z</time>
      </trkpt>
      <trkpt lat="45.75622" lon="4.6179">
        <ele>757.9</ele>
        <time>2020-06-15T15:05:05.000Z</time>
      </trkpt>
      <trkpt lat="45.75625" lon="4.61795">
        <ele>758.2</ele>
        <time>2020-06-15T15:05:08.000Z</time>
      </trkpt>
      <trkpt lat="45.75627" lon="4.61801">
        <ele>758.5</ele>
        <time>2020-06-15T15:05:11.000Z</time>
      </trkpt>
      <trkpt lat="45.75627" lon="4.61804">
        <ele>758.6</ele>
        <time>2020-06-15T15:05:13.000Z</time>
      </trkpt>
      <trkpt lat="45.75629" lon="4.61813">
        <ele>759</ele>
        <time>2020-06-15T15:05:18.000Z</time>
      </trkpt>
      <trkpt lat="45.75631" lon="4.61817">
        <ele>759.2</ele>
        <time>2020-06-15T15:05:19.000Z</time>
      </trkpt>
      <trkpt lat="45.75633" lon="4.61823">
        <ele>759.5</ele>
        <time>2020-06-15T15:05:21.000Z</time>
      </trkpt>
      <trkpt lat="45.75634" lon="4.61833">
        <ele>759.8</ele>
        <time>2020-06-15T15:05:24.000Z</time>
      </trkpt>
      <trkpt lat="45.75634" lon="4.61835">
        <ele>759.9</ele>
        <time>2020-06-15T15:05:25.000Z</time>
      </trkpt>
      <trkpt lat="45.7563" lon="4.61841">
        <ele>760.2</ele>
        <time>2020-06-15T15:05:28.000Z</time>
      </trkpt>
      <trkpt lat="45.7563" lon="4.61847">
        <ele>760.4</ele>
        <time>2020-06-15T15:05:31.000Z</time>
      </trkpt>
      <trkpt lat="45.75631" lon="4.61849">
        <ele>760.5</ele>
        <time>2020-06-15T15:05:32.000Z</time>
      </trkpt>
      <trkpt lat="45.75632" lon="4.61852">
        <ele>760.6</ele>
        <time>2020-06-15T15:05:34.000Z</time>
      </trkpt>
      <trkpt lat="45.75635" lon="4.61856">
        <ele>760.8</ele>
        <time>2020-06-15T15:05:37.000Z</time>
      </trkpt>
      <trkpt lat="45.75637" lon="4.61858">
        <ele>761</ele>
        <time>2020-06-15T15:05:42.000Z</time>
      </trkpt>
      <trkpt lat="45.75646" lon="4.61872">
        <ele>761.6</ele>
        <time>2020-06-15T15:05:46.000Z</time>
      </trkpt>
      <trkpt lat="45.75653" lon="4.61888">
        <ele>762.3</ele>
        <time>2020-06-15T15:05:52.000Z</time>
      </trkpt>
      <trkpt lat="45.75657" lon="4.61901">
        <ele>762.7</ele>
        <time>2020-06-15T15:05:57.000Z</time>
      </trkpt>
      <trkpt lat="45.75657" lon="4.61903">
        <ele>762.8</ele>
        <time>2020-06-15T15:05:58.000Z</time>
      </trkpt>
      <trkpt lat="45.75659" lon="4.61908">
        <ele>762.9</ele>
        <time>2020-06-15T15:06:00.000Z</time>
      </trkpt>
      <trkpt lat="45.75662" lon="4.61922">
        <ele>763.2</ele>
        <time>2020-06-15T15:06:05.000Z</time>
      </trkpt>
      <trkpt lat="45.75662" lon="4.61926">
        <ele>763.3</ele>
        <time>2020-06-15T15:06:07.000Z</time>
      </trkpt>
      <trkpt lat="45.75663" lon="4.61932">
        <ele>763.4</ele>
        <time>2020-06-15T15:06:09.000Z</time>
      </trkpt>
      <trkpt lat="45.75667" lon="4.6195">
        <ele>763.6</ele>
        <time>2020-06-15T15:06:15.000Z</time>
      </trkpt>
      <trkpt lat="45.75668" lon="4.61968">
        <ele>763.7</ele>
        <time>2020-06-15T15:06:20.000Z</time>
      </trkpt>
      <trkpt lat="45.75672" lon="4.61984">
        <ele>763.9</ele>
        <time>2020-06-15T15:06:25.000Z</time>
      </trkpt>
      <trkpt lat="45.75674" lon="4.6199">
        <ele>764</ele>
        <time>2020-06-15T15:06:27.000Z</time>
      </trkpt>
      <trkpt lat="45.75676" lon="4.61995">
        <ele>764</ele>
        <time>2020-06-15T15:06:29.000Z</time>
      </trkpt>
      <trkpt lat="45.75676" lon="4.62001">
        <ele>764.1</ele>
        <time>2020-06-15T15:06:31.000Z</time>
      </trkpt>
      <trkpt lat="45.75673" lon="4.62014">
        <ele>764.1</ele>
        <time>2020-06-15T15:06:35.000Z</time>
      </trkpt>
      <trkpt lat="45.75674" lon="4.62034">
        <ele>764.2</ele>
        <time>2020-06-15T15:06:41.000Z</time>
      </trkpt>
      <trkpt lat="45.75676" lon="4.62049">
        <ele>764.3</ele>
        <time>2020-06-15T15:06:45.000Z</time>
      </trkpt>
      <trkpt lat="45.75676" lon="4.62059">
        <ele>764.4</ele>
        <time>2020-06-15T15:06:48.000Z</time>
      </trkpt>
      <trkpt lat="45.75677" lon="4.62062">
        <ele>764.4</ele>
        <time>2020-06-15T15:06:49.000Z</time>
      </trkpt>
      <trkpt lat="45.75679" lon="4.62087">
        <ele>764.7</ele>
        <time>2020-06-15T15:06:55.000Z</time>
      </trkpt>
      <trkpt lat="45.75683" lon="4.62104">
        <ele>764.7</ele>
        <time>2020-06-15T15:06:59.000Z</time>
      </trkpt>
      <trkpt lat="45.75683" lon="4.6211">
        <ele>764.8</ele>
        <time>2020-06-15T15:07:01.000Z</time>
      </trkpt>
      <trkpt lat="45.75682" lon="4.62113">
        <ele>764.8</ele>
        <time>2020-06-15T15:07:02.000Z</time>
      </trkpt>
      <trkpt lat="45.75681" lon="4.62122">
        <ele>764.9</ele>
        <time>2020-06-15T15:07:05.000Z</time>
      </trkpt>
      <trkpt lat="45.75682" lon="4.62125">
        <ele>764.9</ele>
        <time>2020-06-15T15:07:06.000Z</time>
      </trkpt>
      <trkpt lat="45.75684" lon="4.6214">
        <ele>765.2</ele>
        <time>2020-06-15T15:07:10.000Z</time>
      </trkpt>
      <trkpt lat="45.75686" lon="4.62145">
        <ele>765.4</ele>
        <time>2020-06-15T15:07:12.000Z</time>
      </trkpt>
      <trkpt lat="45.75686" lon="4.6215">
        <ele>765.5</ele>
        <time>2020-06-15T15:07:14.000Z</time>
      </trkpt>
      <trkpt lat="45.75692" lon="4.62163">
        <ele>766.1</ele>
        <time>2020-06-15T15:07:19.000Z</time>
      </trkpt>
      <trkpt lat="45.75699" lon="4.62177">
        <ele>766.8</ele>
        <time>2020-06-15T15:07:25.000Z</time>
      </trkpt>
      <trkpt lat="45.75702" lon="4.62185">
        <ele>767.2</ele>
        <time>2020-06-15T15:07:28.000Z</time>
      </trkpt>
      <trkpt lat="45.75703" lon="4.62187">
        <ele>767.3</ele>
        <time>2020-06-15T15:07:29.000Z</time>
      </trkpt>
      <trkpt lat="45.75712" lon="4.62206">
        <ele>767.9</ele>
        <time>2020-06-15T15:07:36.000Z</time>
      </trkpt>
      <trkpt lat="45.7572" lon="4.62228">
        <ele>768.4</ele>
        <time>2020-06-15T15:07:43.000Z</time>
      </trkpt>
      <trkpt lat="45.75727" lon="4.62254">
        <ele>769</ele>
        <time>2020-06-15T15:07:50.000Z</time>
      </trkpt>
      <trkpt lat="45.75734" lon="4.6227">
        <ele>769.6</ele>
        <time>2020-06-15T15:07:55.000Z</time>
      </trkpt>
      <trkpt lat="45.75736" lon="4.62274">
        <ele>769.7</ele>
        <time>2020-06-15T15:07:56.000Z</time>
      </trkpt>
      <trkpt lat="45.75737" lon="4.62283">
        <ele>770</ele>
        <time>2020-06-15T15:07:59.000Z</time>
      </trkpt>
      <trkpt lat="45.75739" lon="4.62287">
        <ele>770.2</ele>
        <time>2020-06-15T15:08:01.000Z</time>
      </trkpt>
      <trkpt lat="45.75741" lon="4.62294">
        <ele>770.4</ele>
        <time>2020-06-15T15:08:03.000Z</time>
      </trkpt>
      <trkpt lat="45.75747" lon="4.62314">
        <ele>771.4</ele>
        <time>2020-06-15T15:08:09.000Z</time>
      </trkpt>
      <trkpt lat="45.75754" lon="4.62327">
        <ele>772.4</ele>
        <time>2020-06-15T15:08:15.000Z</time>
      </trkpt>
      <trkpt lat="45.75757" lon="4.6233">
        <ele>772.9</ele>
        <time>2020-06-15T15:08:19.000Z</time>
      </trkpt>
      <trkpt lat="45.75759" lon="4.6233">
        <ele>773.2</ele>
        <time>2020-06-15T15:08:23.000Z</time>
      </trkpt>
      <trkpt lat="45.75768" lon="4.62331">
        <ele>774.4</ele>
        <time>2020-06-15T15:08:29.000Z</time>
      </trkpt>
      <trkpt lat="45.75769" lon="4.62331">
        <ele>774.6</ele>
        <time>2020-06-15T15:08:30.000Z</time>
      </trkpt>
      <trkpt lat="45.75776" lon="4.62334">
        <ele>775.6</ele>
        <time>2020-06-15T15:08:36.000Z</time>
      </trkpt>
      <trkpt lat="45.75777" lon="4.62335">
        <ele>775.8</ele>
        <time>2020-06-15T15:08:48.000Z</time>
      </trkpt>
      <trkpt lat="45.75778" lon="4.62336">
        <ele>776</ele>
        <time>2020-06-15T15:08:52.000Z</time>
      </trkpt>
      <trkpt lat="45.75779" lon="4.62336">
        <ele>776.1</ele>
        <time>2020-06-15T15:08:57.000Z</time>
      </trkpt>
      <trkpt lat="45.75786" lon="4.62341">
        <ele>777.1</ele>
        <time>2020-06-15T15:09:02.000Z</time>
      </trkpt>
      <trkpt lat="45.75795" lon="4.62345">
        <ele>778.2</ele>
        <time>2020-06-15T15:09:08.000Z</time>
      </trkpt>
      <trkpt lat="45.75805" lon="4.62349">
        <ele>779.2</ele>
        <time>2020-06-15T15:09:15.000Z</time>
      </trkpt>
      <trkpt lat="45.75805" lon="4.62351">
        <ele>779.3</ele>
        <time>2020-06-15T15:09:16.000Z</time>
      </trkpt>
      <trkpt lat="45.7581" lon="4.62356">
        <ele>779.7</ele>
        <time>2020-06-15T15:09:20.000Z</time>
      </trkpt>
      <trkpt lat="45.75818" lon="4.62362">
        <ele>780.2</ele>
        <time>2020-06-15T15:09:26.000Z</time>
      </trkpt>
      <trkpt lat="45.75824" lon="4.62361">
        <ele>780.1</ele>
        <time>2020-06-15T15:09:31.000Z</time>
      </trkpt>
      <trkpt lat="45.75824" lon="4.62361">
        <ele>780.1</ele>
        <time>2020-06-15T15:09:32.000Z</time>
      </trkpt>
      <trkpt lat="45.75828" lon="4.62364">
        <ele>780.1</ele>
        <time>2020-06-15T15:09:36.000Z</time>
      </trkpt>
      <trkpt lat="45.75828" lon="4.62364">
        <ele>780.1</ele>
        <time>2020-06-15T15:09:48.000Z</time>
      </trkpt>
      <trkpt lat="45.75828" lon="4.62364">
        <ele>780.1</ele>
        <time>2020-06-15T15:09:58.000Z</time>
      </trkpt>
      <trkpt lat="45.75832" lon="4.62366">
        <ele>780</ele>
        <time>2020-06-15T15:10:00.000Z</time>
      </trkpt>
      <trkpt lat="45.75838" lon="4.62365">
        <ele>779.9</ele>
        <time>2020-06-15T15:10:03.000Z</time>
      </trkpt>
      <trkpt lat="45.75854" lon="4.62365">
        <ele>779.2</ele>
        <time>2020-06-15T15:10:07.000Z</time>
      </trkpt>
      <trkpt lat="45.75865" lon="4.62367">
        <ele>778.5</ele>
        <time>2020-06-15T15:10:11.000Z</time>
      </trkpt>
      <trkpt lat="45.75875" lon="4.62371">
        <ele>777.8</ele>
        <time>2020-06-15T15:10:14.000Z</time>
      </trkpt>
      <trkpt lat="45.75879" lon="4.62374">
        <ele>777.5</ele>
        <time>2020-06-15T15:10:15.000Z</time>
      </trkpt>
      <trkpt lat="45.75883" lon="4.62379">
        <ele>777</ele>
        <time>2020-06-15T15:10:16.000Z</time>
      </trkpt>
      <trkpt lat="45.75893" lon="4.6239">
        <ele>775.8</ele>
        <time>2020-06-15T15:10:19.000Z</time>
      </trkpt>
      <trkpt lat="45.75896" lon="4.6239">
        <ele>775.4</ele>
        <time>2020-06-15T15:10:20.000Z</time>
      </trkpt>
      <trkpt lat="45.75906" lon="4.62384">
        <ele>773.7</ele>
        <time>2020-06-15T15:10:22.000Z</time>
      </trkpt>
      <trkpt lat="45.75915" lon="4.62378">
        <ele>771.4</ele>
        <time>2020-06-15T15:10:24.000Z</time>
      </trkpt>
      <trkpt lat="45.75919" lon="4.62379">
        <ele>770.6</ele>
        <time>2020-06-15T15:10:25.000Z</time>
      </trkpt>
      <trkpt lat="45.75933" lon="4.62393">
        <ele>766.7</ele>
        <time>2020-06-15T15:10:29.000Z</time>
      </trkpt>
      <trkpt lat="45.75935" lon="4.62412">
        <ele>767.3</ele>
        <time>2020-06-15T15:10:34.000Z</time>
      </trkpt>
      <trkpt lat="45.75937" lon="4.62429">
        <ele>768</ele>
        <time>2020-06-15T15:10:38.000Z</time>
      </trkpt>
      <trkpt lat="45.75943" lon="4.62457">
        <ele>768.7</ele>
        <time>2020-06-15T15:10:45.000Z</time>
      </trkpt>
      <trkpt lat="45.75951" lon="4.62485">
        <ele>769</ele>
        <time>2020-06-15T15:10:51.000Z</time>
      </trkpt>
      <trkpt lat="45.75954" lon="4.62496">
        <ele>769</ele>
        <time>2020-06-15T15:10:53.000Z</time>
      </trkpt>
      <trkpt lat="45.75954" lon="4.62508">
        <ele>769.1</ele>
        <time>2020-06-15T15:10:55.000Z</time>
      </trkpt>
      <trkpt lat="45.75954" lon="4.62534">
        <ele>769.1</ele>
        <time>2020-06-15T15:11:00.000Z</time>
      </trkpt>
      <trkpt lat="45.75957" lon="4.62554">
        <ele>768.6</ele>
        <time>2020-06-15T15:11:04.000Z</time>
      </trkpt>
      <trkpt lat="45.75965" lon="4.6258">
        <ele>767.5</ele>
        <time>2020-06-15T15:11:08.000Z</time>
      </trkpt>
      <trkpt lat="45.75966" lon="4.62589">
        <ele>767.1</ele>
        <time>2020-06-15T15:11:09.000Z</time>
      </trkpt>
      <trkpt lat="45.7597" lon="4.62607">
        <ele>766.1</ele>
        <time>2020-06-15T15:11:11.000Z</time>
      </trkpt>
      <trkpt lat="45.75972" lon="4.62628">
        <ele>765</ele>
        <time>2020-06-15T15:11:13.000Z</time>
      </trkpt>
      <trkpt lat="45.75972" lon="4.62639">
        <ele>764.3</ele>
        <time>2020-06-15T15:11:14.000Z</time>
      </trkpt>
      <trkpt lat="45.75971" lon="4.62674">
        <ele>762.2</ele>
        <time>2020-06-15T15:11:17.000Z</time>
      </trkpt>
      <trkpt lat="45.75972" lon="4.62717">
        <ele>759.7</ele>
        <time>2020-06-15T15:11:21.000Z</time>
      </trkpt>
      <trkpt lat="45.75975" lon="4.62734">
        <ele>758.3</ele>
        <time>2020-06-15T15:11:23.000Z</time>
      </trkpt>
      <trkpt lat="45.75978" lon="4.6274">
        <ele>757.6</ele>
        <time>2020-06-15T15:11:24.000Z</time>
      </trkpt>
      <trkpt lat="45.75981" lon="4.62742">
        <ele>756.8</ele>
        <time>2020-06-15T15:11:25.000Z</time>
      </trkpt>
      <trkpt lat="45.75985" lon="4.6274">
        <ele>756.5</ele>
        <time>2020-06-15T15:11:26.000Z</time>
      </trkpt>
      <trkpt lat="45.7599" lon="4.62736">
        <ele>756.3</ele>
        <time>2020-06-15T15:11:27.000Z</time>
      </trkpt>
      <trkpt lat="45.75996" lon="4.62726">
        <ele>754.4</ele>
        <time>2020-06-15T15:11:29.000Z</time>
      </trkpt>
      <trkpt lat="45.76001" lon="4.62707">
        <ele>754.9</ele>
        <time>2020-06-15T15:11:32.000Z</time>
      </trkpt>
      <trkpt lat="45.76003" lon="4.627">
        <ele>755</ele>
        <time>2020-06-15T15:11:33.000Z</time>
      </trkpt>
      <trkpt lat="45.76007" lon="4.62683">
        <ele>755.6</ele>
        <time>2020-06-15T15:11:36.000Z</time>
      </trkpt>
      <trkpt lat="45.76008" lon="4.6268">
        <ele>755.7</ele>
        <time>2020-06-15T15:11:37.000Z</time>
      </trkpt>
      <trkpt lat="45.7601" lon="4.62674">
        <ele>755.9</ele>
        <time>2020-06-15T15:11:39.000Z</time>
      </trkpt>
      <trkpt lat="45.7601" lon="4.62668">
        <ele>756.1</ele>
        <time>2020-06-15T15:11:41.000Z</time>
      </trkpt>
      <trkpt lat="45.7601" lon="4.62663">
        <ele>756.2</ele>
        <time>2020-06-15T15:11:43.000Z</time>
      </trkpt>
      <trkpt lat="45.7601" lon="4.62656">
        <ele>756.4</ele>
        <time>2020-06-15T15:11:45.000Z</time>
      </trkpt>
      <trkpt lat="45.76011" lon="4.62654">
        <ele>756.5</ele>
        <time>2020-06-15T15:11:46.000Z</time>
      </trkpt>
      <trkpt lat="45.76014" lon="4.62643">
        <ele>757</ele>
        <time>2020-06-15T15:11:50.000Z</time>
      </trkpt>
      <trkpt lat="45.76021" lon="4.62627">
        <ele>757.7</ele>
        <time>2020-06-15T15:11:55.000Z</time>
      </trkpt>
      <trkpt lat="45.76022" lon="4.62623">
        <ele>757.9</ele>
        <time>2020-06-15T15:11:56.000Z</time>
      </trkpt>
      <trkpt lat="45.76025" lon="4.62616">
        <ele>758.2</ele>
        <time>2020-06-15T15:11:58.000Z</time>
      </trkpt>
      <trkpt lat="45.76026" lon="4.62613">
        <ele>758.4</ele>
        <time>2020-06-15T15:11:59.000Z</time>
      </trkpt>
      <trkpt lat="45.76027" lon="4.62606">
        <ele>758.6</ele>
        <time>2020-06-15T15:12:01.000Z</time>
      </trkpt>
      <trkpt lat="45.76031" lon="4.62601">
        <ele>758.8</ele>
        <time>2020-06-15T15:12:03.000Z</time>
      </trkpt>
      <trkpt lat="45.76041" lon="4.62591">
        <ele>758.6</ele>
        <time>2020-06-15T15:12:08.000Z</time>
      </trkpt>
      <trkpt lat="45.76047" lon="4.6259">
        <ele>758.2</ele>
        <time>2020-06-15T15:12:13.000Z</time>
      </trkpt>
      <trkpt lat="45.7606" lon="4.62592">
        <ele>757.1</ele>
        <time>2020-06-15T15:12:18.000Z</time>
      </trkpt>
      <trkpt lat="45.76064" lon="4.62592">
        <ele>756.6</ele>
        <time>2020-06-15T15:12:20.000Z</time>
      </trkpt>
      <trkpt lat="45.76065" lon="4.62594">
        <ele>756.4</ele>
        <time>2020-06-15T15:12:21.000Z</time>
      </trkpt>
      <trkpt lat="45.76068" lon="4.62599">
        <ele>755.9</ele>
        <time>2020-06-15T15:12:24.000Z</time>
      </trkpt>
      <trkpt lat="45.76071" lon="4.626">
        <ele>755.5</ele>
        <time>2020-06-15T15:12:25.000Z</time>
      </trkpt>
      <trkpt lat="45.76074" lon="4.62602">
        <ele>755</ele>
        <time>2020-06-15T15:12:26.000Z</time>
      </trkpt>
      <trkpt lat="45.76077" lon="4.62603">
        <ele>754.6</ele>
        <time>2020-06-15T15:12:28.000Z</time>
      </trkpt>
      <trkpt lat="45.76078" lon="4.62605">
        <ele>754.3</ele>
        <time>2020-06-15T15:12:29.000Z</time>
      </trkpt>
      <trkpt lat="45.76083" lon="4.62608">
        <ele>753.6</ele>
        <time>2020-06-15T15:12:31.000Z</time>
      </trkpt>
      <trkpt lat="45.76089" lon="4.62609">
        <ele>752.7</ele>
        <time>2020-06-15T15:12:33.000Z</time>
      </trkpt>
      <trkpt lat="45.76095" lon="4.6261">
        <ele>751.9</ele>
        <time>2020-06-15T15:12:35.000Z</time>
      </trkpt>
      <trkpt lat="45.76098" lon="4.62611">
        <ele>751.5</ele>
        <time>2020-06-15T15:12:36.000Z</time>
      </trkpt>
      <trkpt lat="45.76104" lon="4.62611">
        <ele>750.7</ele>
        <time>2020-06-15T15:12:38.000Z</time>
      </trkpt>
      <trkpt lat="45.76108" lon="4.62609">
        <ele>750.1</ele>
        <time>2020-06-15T15:12:39.000Z</time>
      </trkpt>
      <trkpt lat="45.76112" lon="4.62609">
        <ele>749.6</ele>
        <time>2020-06-15T15:12:40.000Z</time>
      </trkpt>
      <trkpt lat="45.76118" lon="4.62614">
        <ele>748.6</ele>
        <time>2020-06-15T15:12:42.000Z</time>
      </trkpt>
      <trkpt lat="45.7612" lon="4.6262">
        <ele>748</ele>
        <time>2020-06-15T15:12:43.000Z</time>
      </trkpt>
      <trkpt lat="45.76128" lon="4.62634">
        <ele>746.4</ele>
        <time>2020-06-15T15:12:45.000Z</time>
      </trkpt>
      <trkpt lat="45.76139" lon="4.6264">
        <ele>744.8</ele>
        <time>2020-06-15T15:12:47.000Z</time>
      </trkpt>
      <trkpt lat="45.76145" lon="4.62643">
        <ele>744.1</ele>
        <time>2020-06-15T15:12:48.000Z</time>
      </trkpt>
      <trkpt lat="45.76151" lon="4.62646">
        <ele>743.4</ele>
        <time>2020-06-15T15:12:49.000Z</time>
      </trkpt>
      <trkpt lat="45.76161" lon="4.6265">
        <ele>742.3</ele>
        <time>2020-06-15T15:12:51.000Z</time>
      </trkpt>
      <trkpt lat="45.76177" lon="4.62665">
        <ele>740.4</ele>
        <time>2020-06-15T15:12:54.000Z</time>
      </trkpt>
      <trkpt lat="45.7618" lon="4.62674">
        <ele>739.8</ele>
        <time>2020-06-15T15:12:56.000Z</time>
      </trkpt>
      <trkpt lat="45.76179" lon="4.62678">
        <ele>739.4</ele>
        <time>2020-06-15T15:12:57.000Z</time>
      </trkpt>
      <trkpt lat="45.7618" lon="4.62685">
        <ele>739</ele>
        <time>2020-06-15T15:12:58.000Z</time>
      </trkpt>
      <trkpt lat="45.76183" lon="4.6269">
        <ele>738.6</ele>
        <time>2020-06-15T15:12:59.000Z</time>
      </trkpt>
      <trkpt lat="45.76196" lon="4.62709">
        <ele>737.4</ele>
        <time>2020-06-15T15:13:03.000Z</time>
      </trkpt>
      <trkpt lat="45.762" lon="4.62719">
        <ele>736.8</ele>
        <time>2020-06-15T15:13:05.000Z</time>
      </trkpt>
      <trkpt lat="45.762" lon="4.62723">
        <ele>736.6</ele>
        <time>2020-06-15T15:13:06.000Z</time>
      </trkpt>
      <trkpt lat="45.76201" lon="4.62726">
        <ele>736.4</ele>
        <time>2020-06-15T15:13:07.000Z</time>
      </trkpt>
      <trkpt lat="45.76202" lon="4.62733">
        <ele>735.9</ele>
        <time>2020-06-15T15:13:09.000Z</time>
      </trkpt>
      <trkpt lat="45.76204" lon="4.62736">
        <ele>735.6</ele>
        <time>2020-06-15T15:13:10.000Z</time>
      </trkpt>
      <trkpt lat="45.76213" lon="4.6275">
        <ele>734.1</ele>
        <time>2020-06-15T15:13:14.000Z</time>
      </trkpt>
      <trkpt lat="45.76217" lon="4.62757">
        <ele>733.4</ele>
        <time>2020-06-15T15:13:17.000Z</time>
      </trkpt>
      <trkpt lat="45.76219" lon="4.62759">
        <ele>733</ele>
        <time>2020-06-15T15:13:18.000Z</time>
      </trkpt>
      <trkpt lat="45.76222" lon="4.62766">
        <ele>732.3</ele>
        <time>2020-06-15T15:13:20.000Z</time>
      </trkpt>
      <trkpt lat="45.76228" lon="4.62779">
        <ele>730.8</ele>
        <time>2020-06-15T15:13:23.000Z</time>
      </trkpt>
      <trkpt lat="45.76229" lon="4.62785">
        <ele>730.1</ele>
        <time>2020-06-15T15:13:24.000Z</time>
      </trkpt>
      <trkpt lat="45.7623" lon="4.62792">
        <ele>729.4</ele>
        <time>2020-06-15T15:13:25.000Z</time>
      </trkpt>
      <trkpt lat="45.76235" lon="4.62805">
        <ele>727.7</ele>
        <time>2020-06-15T15:13:27.000Z</time>
      </trkpt>
      <trkpt lat="45.7624" lon="4.62819">
        <ele>725.8</ele>
        <time>2020-06-15T15:13:30.000Z</time>
      </trkpt>
      <trkpt lat="45.76251" lon="4.62831">
        <ele>723.7</ele>
        <time>2020-06-15T15:13:34.000Z</time>
      </trkpt>
      <trkpt lat="45.76257" lon="4.62844">
        <ele>722.2</ele>
        <time>2020-06-15T15:13:37.000Z</time>
      </trkpt>
      <trkpt lat="45.7626" lon="4.62852">
        <ele>721.5</ele>
        <time>2020-06-15T15:13:39.000Z</time>
      </trkpt>
      <trkpt lat="45.76271" lon="4.6287">
        <ele>719.2</ele>
        <time>2020-06-15T15:13:43.000Z</time>
      </trkpt>
      <trkpt lat="45.76273" lon="4.62872">
        <ele>718.7</ele>
        <time>2020-06-15T15:13:48.000Z</time>
      </trkpt>
      <trkpt lat="45.76276" lon="4.62881">
        <ele>717.5</ele>
        <time>2020-06-15T15:13:58.000Z</time>
      </trkpt>
      <trkpt lat="45.76277" lon="4.62884">
        <ele>717.2</ele>
        <time>2020-06-15T15:13:59.000Z</time>
      </trkpt>
      <trkpt lat="45.76278" lon="4.6289">
        <ele>715.7</ele>
        <time>2020-06-15T15:14:01.000Z</time>
      </trkpt>
      <trkpt lat="45.76281" lon="4.62895">
        <ele>716.2</ele>
        <time>2020-06-15T15:14:02.000Z</time>
      </trkpt>
      <trkpt lat="45.76291" lon="4.62913">
        <ele>718</ele>
        <time>2020-06-15T15:14:07.000Z</time>
      </trkpt>
      <trkpt lat="45.76296" lon="4.62927">
        <ele>720.1</ele>
        <time>2020-06-15T15:14:12.000Z</time>
      </trkpt>
      <trkpt lat="45.76305" lon="4.62934">
        <ele>720.8</ele>
        <time>2020-06-15T15:14:17.000Z</time>
      </trkpt>
      <trkpt lat="45.76315" lon="4.62943">
        <ele>721.7</ele>
        <time>2020-06-15T15:14:23.000Z</time>
      </trkpt>
      <trkpt lat="45.76323" lon="4.62952">
        <ele>722.6</ele>
        <time>2020-06-15T15:14:29.000Z</time>
      </trkpt>
      <trkpt lat="45.76331" lon="4.6296">
        <ele>723.6</ele>
        <time>2020-06-15T15:14:35.000Z</time>
      </trkpt>
      <trkpt lat="45.76337" lon="4.62966">
        <ele>724.4</ele>
        <time>2020-06-15T15:14:40.000Z</time>
      </trkpt>
      <trkpt lat="45.76346" lon="4.62972">
        <ele>725.1</ele>
        <time>2020-06-15T15:14:46.000Z</time>
      </trkpt>
      <trkpt lat="45.76353" lon="4.62978">
        <ele>725.6</ele>
        <time>2020-06-15T15:14:50.000Z</time>
      </trkpt>
      <trkpt lat="45.76366" lon="4.62989">
        <ele>726.2</ele>
        <time>2020-06-15T15:14:56.000Z</time>
      </trkpt>
      <trkpt lat="45.76373" lon="4.62994">
        <ele>726.6</ele>
        <time>2020-06-15T15:15:01.000Z</time>
      </trkpt>
      <trkpt lat="45.76382" lon="4.63002">
        <ele>727.2</ele>
        <time>2020-06-15T15:15:06.000Z</time>
      </trkpt>
      <trkpt lat="45.7639" lon="4.63011">
        <ele>727.9</ele>
        <time>2020-06-15T15:15:11.000Z</time>
      </trkpt>
      <trkpt lat="45.76397" lon="4.63019">
        <ele>728.5</ele>
        <time>2020-06-15T15:15:15.000Z</time>
      </trkpt>
      <trkpt lat="45.76406" lon="4.63028">
        <ele>729.1</ele>
        <time>2020-06-15T15:15:20.000Z</time>
      </trkpt>
      <trkpt lat="45.76407" lon="4.63029">
        <ele>729.2</ele>
        <time>2020-06-15T15:15:21.000Z</time>
      </trkpt>
      <trkpt lat="45.76416" lon="4.6304">
        <ele>729.4</ele>
        <time>2020-06-15T15:15:26.000Z</time>
      </trkpt>
      <trkpt lat="45.76421" lon="4.63044">
        <ele>729.4</ele>
        <time>2020-06-15T15:15:30.000Z</time>
      </trkpt>
      <trkpt lat="45.76429" lon="4.63051">
        <ele>729.3</ele>
        <time>2020-06-15T15:15:35.000Z</time>
      </trkpt>
      <trkpt lat="45.76432" lon="4.63055">
        <ele>729.3</ele>
        <time>2020-06-15T15:15:37.000Z</time>
      </trkpt>
      <trkpt lat="45.76437" lon="4.63056">
        <ele>729.3</ele>
        <time>2020-06-15T15:15:39.000Z</time>
      </trkpt>
      <trkpt lat="45.76447" lon="4.63059">
        <ele>729.1</ele>
        <time>2020-06-15T15:15:42.000Z</time>
      </trkpt>
      <trkpt lat="45.7645" lon="4.6306">
        <ele>728.9</ele>
        <time>2020-06-15T15:15:43.000Z</time>
      </trkpt>
      <trkpt lat="45.76464" lon="4.63064">
        <ele>728.2</ele>
        <time>2020-06-15T15:15:47.000Z</time>
      </trkpt>
      <trkpt lat="45.76487" lon="4.63065">
        <ele>727.3</ele>
        <time>2020-06-15T15:15:52.000Z</time>
      </trkpt>
      <trkpt lat="45.765" lon="4.63069">
        <ele>727.1</ele>
        <time>2020-06-15T15:15:55.000Z</time>
      </trkpt>
      <trkpt lat="45.76504" lon="4.6307">
        <ele>727</ele>
        <time>2020-06-15T15:15:56.000Z</time>
      </trkpt>
      <trkpt lat="45.7652" lon="4.63072">
        <ele>726.8</ele>
        <time>2020-06-15T15:16:00.000Z</time>
      </trkpt>
      <trkpt lat="45.76539" lon="4.63073">
        <ele>726.9</ele>
        <time>2020-06-15T15:16:05.000Z</time>
      </trkpt>
      <trkpt lat="45.76542" lon="4.63073">
        <ele>727</ele>
        <time>2020-06-15T15:16:06.000Z</time>
      </trkpt>
      <trkpt lat="45.7655" lon="4.63073">
        <ele>727.1</ele>
        <time>2020-06-15T15:16:09.000Z</time>
      </trkpt>
      <trkpt lat="45.76553" lon="4.63072">
        <ele>727.2</ele>
        <time>2020-06-15T15:16:10.000Z</time>
      </trkpt>
      <trkpt lat="45.7656" lon="4.63069">
        <ele>727.3</ele>
        <time>2020-06-15T15:16:13.000Z</time>
      </trkpt>
      <trkpt lat="45.76562" lon="4.63069">
        <ele>727.4</ele>
        <time>2020-06-15T15:16:14.000Z</time>
      </trkpt>
      <trkpt lat="45.76569" lon="4.63068">
        <ele>727.4</ele>
        <time>2020-06-15T15:16:19.000Z</time>
      </trkpt>
      <trkpt lat="45.76571" lon="4.63067">
        <ele>727.4</ele>
        <time>2020-06-15T15:16:24.000Z</time>
      </trkpt>
      <trkpt lat="45.76571" lon="4.63067">
        <ele>727.4</ele>
        <time>2020-06-15T15:16:33.000Z</time>
      </trkpt>
      <trkpt lat="45.76571" lon="4.63067">
        <ele>727.4</ele>
        <time>2020-06-15T15:16:45.000Z</time>
      </trkpt>
      <trkpt lat="45.76571" lon="4.63067">
        <ele>727.4</ele>
        <time>2020-06-15T15:16:59.000Z</time>
      </trkpt>
      <trkpt lat="45.76572" lon="4.63067">
        <ele>727.4</ele>
        <time>2020-06-15T15:17:13.000Z</time>
      </trkpt>
      <trkpt lat="45.76572" lon="4.63067">
        <ele>727.4</ele>
        <time>2020-06-15T15:17:28.000Z</time>
      </trkpt>
      <trkpt lat="45.76572" lon="4.63067">
        <ele>727.4</ele>
        <time>2020-06-15T15:17:40.000Z</time>
      </trkpt>
      <trkpt lat="45.76573" lon="4.63067">
        <ele>727.4</ele>
        <time>2020-06-15T15:17:55.000Z</time>
      </trkpt>
      <trkpt lat="45.76573" lon="4.63067">
        <ele>727.4</ele>
        <time>2020-06-15T15:18:09.000Z</time>
      </trkpt>
      <trkpt lat="45.76573" lon="4.63067">
        <ele>727.4</ele>
        <time>2020-06-15T15:18:24.000Z</time>
      </trkpt>
      <trkpt lat="45.76573" lon="4.63067">
        <ele>727.4</ele>
        <time>2020-06-15T15:18:43.000Z</time>
      </trkpt>
      <trkpt lat="45.76573" lon="4.63067">
        <ele>727.4</ele>
        <time>2020-06-15T15:18:56.000Z</time>
      </trkpt>
      <trkpt lat="45.76573" lon="4.63067">
        <ele>727.4</ele>
        <time>2020-06-15T15:19:10.000Z</time>
      </trkpt>
      <trkpt lat="45.76573" lon="4.63067">
        <ele>727.4</ele>
        <time>2020-06-15T15:19:22.000Z</time>
      </trkpt>
      <trkpt lat="45.76573" lon="4.63067">
        <ele>727.4</ele>
        <time>2020-06-15T15:19:34.000Z</time>
      </trkpt>
      <trkpt lat="45.76576" lon="4.63069">
        <ele>727.2</ele>
        <time>2020-06-15T15:19:39.000Z</time>
      </trkpt>
      <trkpt lat="45.76578" lon="4.6307">
        <ele>727.1</ele>
        <time>2020-06-15T15:19:40.000Z</time>
      </trkpt>
      <trkpt lat="45.76585" lon="4.63078">
        <ele>726.3</ele>
        <time>2020-06-15T15:19:44.000Z</time>
      </trkpt>
      <trkpt lat="45.76584" lon="4.63084">
        <ele>725.6</ele>
        <time>2020-06-15T15:19:47.000Z</time>
      </trkpt>
      <trkpt lat="45.76585" lon="4.63087">
        <ele>725.4</ele>
        <time>2020-06-15T15:19:48.000Z</time>
      </trkpt>
      <trkpt lat="45.76591" lon="4.63092">
        <ele>724.1</ele>
        <time>2020-06-15T15:19:51.000Z</time>
      </trkpt>
      <trkpt lat="45.76605" lon="4.63095">
        <ele>722</ele>
        <time>2020-06-15T15:19:55.000Z</time>
      </trkpt>
      <trkpt lat="45.76611" lon="4.63099">
        <ele>721.1</ele>
        <time>2020-06-15T15:19:57.000Z</time>
      </trkpt>
      <trkpt lat="45.76615" lon="4.63102">
        <ele>720.5</ele>
        <time>2020-06-15T15:19:58.000Z</time>
      </trkpt>
      <trkpt lat="45.76621" lon="4.63109">
        <ele>719.3</ele>
        <time>2020-06-15T15:20:01.000Z</time>
      </trkpt>
      <trkpt lat="45.76624" lon="4.63111">
        <ele>719</ele>
        <time>2020-06-15T15:20:02.000Z</time>
      </trkpt>
      <trkpt lat="45.7663" lon="4.63119">
        <ele>717.5</ele>
        <time>2020-06-15T15:20:05.000Z</time>
      </trkpt>
      <trkpt lat="45.76628" lon="4.63123">
        <ele>716.8</ele>
        <time>2020-06-15T15:20:07.000Z</time>
      </trkpt>
      <trkpt lat="45.76627" lon="4.63122">
        <ele>716.6</ele>
        <time>2020-06-15T15:20:08.000Z</time>
      </trkpt>
      <trkpt lat="45.76625" lon="4.63125">
        <ele>716</ele>
        <time>2020-06-15T15:20:10.000Z</time>
      </trkpt>
      <trkpt lat="45.76624" lon="4.63128">
        <ele>715.5</ele>
        <time>2020-06-15T15:20:12.000Z</time>
      </trkpt>
      <trkpt lat="45.76627" lon="4.6313">
        <ele>714.8</ele>
        <time>2020-06-15T15:20:14.000Z</time>
      </trkpt>
      <trkpt lat="45.76629" lon="4.63132">
        <ele>714.1</ele>
        <time>2020-06-15T15:20:16.000Z</time>
      </trkpt>
      <trkpt lat="45.7663" lon="4.63134">
        <ele>713.8</ele>
        <time>2020-06-15T15:20:17.000Z</time>
      </trkpt>
      <trkpt lat="45.76632" lon="4.63139">
        <ele>712.8</ele>
        <time>2020-06-15T15:20:19.000Z</time>
      </trkpt>
      <trkpt lat="45.76636" lon="4.63144">
        <ele>711.8</ele>
        <time>2020-06-15T15:20:20.000Z</time>
      </trkpt>
      <trkpt lat="45.76649" lon="4.63162">
        <ele>709.1</ele>
        <time>2020-06-15T15:20:24.000Z</time>
      </trkpt>
      <trkpt lat="45.76665" lon="4.6318">
        <ele>707</ele>
        <time>2020-06-15T15:20:28.000Z</time>
      </trkpt>
      <trkpt lat="45.76672" lon="4.6319">
        <ele>706.3</ele>
        <time>2020-06-15T15:20:32.000Z</time>
      </trkpt>
      <trkpt lat="45.76678" lon="4.63199">
        <ele>705.8</ele>
        <time>2020-06-15T15:20:35.000Z</time>
      </trkpt>
      <trkpt lat="45.76678" lon="4.63202">
        <ele>705.7</ele>
        <time>2020-06-15T15:20:36.000Z</time>
      </trkpt>
      <trkpt lat="45.76679" lon="4.63206">
        <ele>705.5</ele>
        <time>2020-06-15T15:20:37.000Z</time>
      </trkpt>
      <trkpt lat="45.76683" lon="4.63218">
        <ele>705.2</ele>
        <time>2020-06-15T15:20:40.000Z</time>
      </trkpt>
      <trkpt lat="45.76684" lon="4.63223">
        <ele>705.1</ele>
        <time>2020-06-15T15:20:41.000Z</time>
      </trkpt>
      <trkpt lat="45.76685" lon="4.63228">
        <ele>704.9</ele>
        <time>2020-06-15T15:20:43.000Z</time>
      </trkpt>
      <trkpt lat="45.76682" lon="4.63225">
        <ele>704.8</ele>
        <time>2020-06-15T15:20:47.000Z</time>
      </trkpt>
      <trkpt lat="45.76673" lon="4.63211">
        <ele>704.3</ele>
        <time>2020-06-15T15:20:52.000Z</time>
      </trkpt>
      <trkpt lat="45.76671" lon="4.63209">
        <ele>704.1</ele>
        <time>2020-06-15T15:20:53.000Z</time>
      </trkpt>
      <trkpt lat="45.76668" lon="4.63209">
        <ele>704</ele>
        <time>2020-06-15T15:20:55.000Z</time>
      </trkpt>
      <trkpt lat="45.76671" lon="4.63218">
        <ele>703.4</ele>
        <time>2020-06-15T15:20:58.000Z</time>
      </trkpt>
      <trkpt lat="45.76672" lon="4.63223">
        <ele>703.1</ele>
        <time>2020-06-15T15:20:59.000Z</time>
      </trkpt>
      <trkpt lat="45.76675" lon="4.63239">
        <ele>701.9</ele>
        <time>2020-06-15T15:21:03.000Z</time>
      </trkpt>
      <trkpt lat="45.76673" lon="4.63256">
        <ele>700.4</ele>
        <time>2020-06-15T15:21:07.000Z</time>
      </trkpt>
      <trkpt lat="45.76677" lon="4.63278">
        <ele>698.3</ele>
        <time>2020-06-15T15:21:11.000Z</time>
      </trkpt>
      <trkpt lat="45.76679" lon="4.63288">
        <ele>697.3</ele>
        <time>2020-06-15T15:21:13.000Z</time>
      </trkpt>
      <trkpt lat="45.76683" lon="4.63298">
        <ele>696.2</ele>
        <time>2020-06-15T15:21:15.000Z</time>
      </trkpt>
      <trkpt lat="45.76689" lon="4.63323">
        <ele>693.7</ele>
        <time>2020-06-15T15:21:20.000Z</time>
      </trkpt>
      <trkpt lat="45.76693" lon="4.63338">
        <ele>692.1</ele>
        <time>2020-06-15T15:21:23.000Z</time>
      </trkpt>
      <trkpt lat="45.76694" lon="4.63342">
        <ele>691.7</ele>
        <time>2020-06-15T15:21:24.000Z</time>
      </trkpt>
      <trkpt lat="45.76695" lon="4.63354">
        <ele>690.4</ele>
        <time>2020-06-15T15:21:28.000Z</time>
      </trkpt>
      <trkpt lat="45.76695" lon="4.63356">
        <ele>690.2</ele>
        <time>2020-06-15T15:21:32.000Z</time>
      </trkpt>
      <trkpt lat="45.76694" lon="4.63356">
        <ele>690.1</ele>
        <time>2020-06-15T15:21:34.000Z</time>
      </trkpt>
      <trkpt lat="45.76692" lon="4.63356">
        <ele>689.8</ele>
        <time>2020-06-15T15:21:36.000Z</time>
      </trkpt>
      <trkpt lat="45.7669" lon="4.63353">
        <ele>689.3</ele>
        <time>2020-06-15T15:21:38.000Z</time>
      </trkpt>
      <trkpt lat="45.76686" lon="4.6335">
        <ele>688.8</ele>
        <time>2020-06-15T15:21:40.000Z</time>
      </trkpt>
      <trkpt lat="45.76686" lon="4.63352">
        <ele>688.6</ele>
        <time>2020-06-15T15:21:42.000Z</time>
      </trkpt>
      <trkpt lat="45.76686" lon="4.63354">
        <ele>688.4</ele>
        <time>2020-06-15T15:21:43.000Z</time>
      </trkpt>
      <trkpt lat="45.76693" lon="4.63361">
        <ele>687.4</ele>
        <time>2020-06-15T15:21:46.000Z</time>
      </trkpt>
      <trkpt lat="45.76695" lon="4.63364">
        <ele>687</ele>
        <time>2020-06-15T15:21:47.000Z</time>
      </trkpt>
      <trkpt lat="45.76698" lon="4.63372">
        <ele>686.2</ele>
        <time>2020-06-15T15:21:49.000Z</time>
      </trkpt>
      <trkpt lat="45.76708" lon="4.63388">
        <ele>683.9</ele>
        <time>2020-06-15T15:21:53.000Z</time>
      </trkpt>
      <trkpt lat="45.76713" lon="4.63396">
        <ele>682.6</ele>
        <time>2020-06-15T15:21:55.000Z</time>
      </trkpt>
      <trkpt lat="45.76715" lon="4.63402">
        <ele>681.8</ele>
        <time>2020-06-15T15:21:56.000Z</time>
      </trkpt>
      <trkpt lat="45.76721" lon="4.63424">
        <ele>679.3</ele>
        <time>2020-06-15T15:22:00.000Z</time>
      </trkpt>
      <trkpt lat="45.76722" lon="4.63428">
        <ele>678.9</ele>
        <time>2020-06-15T15:22:01.000Z</time>
      </trkpt>
      <trkpt lat="45.76722" lon="4.63433">
        <ele>678.4</ele>
        <time>2020-06-15T15:22:03.000Z</time>
      </trkpt>
      <trkpt lat="45.7672" lon="4.63431">
        <ele>678.1</ele>
        <time>2020-06-15T15:22:05.000Z</time>
      </trkpt>
      <trkpt lat="45.76717" lon="4.63425">
        <ele>677.5</ele>
        <time>2020-06-15T15:22:07.000Z</time>
      </trkpt>
      <trkpt lat="45.76714" lon="4.6342">
        <ele>676.9</ele>
        <time>2020-06-15T15:22:09.000Z</time>
      </trkpt>
      <trkpt lat="45.76711" lon="4.63418">
        <ele>676.5</ele>
        <time>2020-06-15T15:22:11.000Z</time>
      </trkpt>
      <trkpt lat="45.76708" lon="4.63418">
        <ele>676.1</ele>
        <time>2020-06-15T15:22:18.000Z</time>
      </trkpt>
      <trkpt lat="45.76708" lon="4.63419">
        <ele>676</ele>
        <time>2020-06-15T15:22:24.000Z</time>
      </trkpt>
      <trkpt lat="45.76708" lon="4.6342">
        <ele>675.9</ele>
        <time>2020-06-15T15:22:25.000Z</time>
      </trkpt>
      <trkpt lat="45.7671" lon="4.63425">
        <ele>675.5</ele>
        <time>2020-06-15T15:22:29.000Z</time>
      </trkpt>
      <trkpt lat="45.76712" lon="4.63434">
        <ele>674.7</ele>
        <time>2020-06-15T15:22:33.000Z</time>
      </trkpt>
      <trkpt lat="45.76713" lon="4.63441">
        <ele>674.1</ele>
        <time>2020-06-15T15:22:35.000Z</time>
      </trkpt>
      <trkpt lat="45.76715" lon="4.63446">
        <ele>673.6</ele>
        <time>2020-06-15T15:22:36.000Z</time>
      </trkpt>
      <trkpt lat="45.76716" lon="4.6345">
        <ele>673.2</ele>
        <time>2020-06-15T15:22:37.000Z</time>
      </trkpt>
      <trkpt lat="45.76716" lon="4.6346">
        <ele>672.4</ele>
        <time>2020-06-15T15:22:39.000Z</time>
      </trkpt>
      <trkpt lat="45.76718" lon="4.63478">
        <ele>670.7</ele>
        <time>2020-06-15T15:22:42.000Z</time>
      </trkpt>
      <trkpt lat="45.76721" lon="4.63497">
        <ele>668.9</ele>
        <time>2020-06-15T15:22:46.000Z</time>
      </trkpt>
      <trkpt lat="45.76724" lon="4.63515">
        <ele>667.3</ele>
        <time>2020-06-15T15:22:50.000Z</time>
      </trkpt>
      <trkpt lat="45.76724" lon="4.63522">
        <ele>666.8</ele>
        <time>2020-06-15T15:22:52.000Z</time>
      </trkpt>
      <trkpt lat="45.76724" lon="4.63529">
        <ele>666.3</ele>
        <time>2020-06-15T15:22:54.000Z</time>
      </trkpt>
      <trkpt lat="45.76722" lon="4.63547">
        <ele>665</ele>
        <time>2020-06-15T15:22:58.000Z</time>
      </trkpt>
      <trkpt lat="45.76717" lon="4.63569">
        <ele>663.7</ele>
        <time>2020-06-15T15:23:02.000Z</time>
      </trkpt>
      <trkpt lat="45.76715" lon="4.63574">
        <ele>663.4</ele>
        <time>2020-06-15T15:23:03.000Z</time>
      </trkpt>
      <trkpt lat="45.76711" lon="4.63586">
        <ele>662.8</ele>
        <time>2020-06-15T15:23:05.000Z</time>
      </trkpt>
      <trkpt lat="45.76707" lon="4.63603">
        <ele>661.9</ele>
        <time>2020-06-15T15:23:09.000Z</time>
      </trkpt>
      <trkpt lat="45.76703" lon="4.63628">
        <ele>660.8</ele>
        <time>2020-06-15T15:23:14.000Z</time>
      </trkpt>
      <trkpt lat="45.76704" lon="4.63636">
        <ele>660.4</ele>
        <time>2020-06-15T15:23:16.000Z</time>
      </trkpt>
      <trkpt lat="45.76704" lon="4.63645">
        <ele>660</ele>
        <time>2020-06-15T15:23:18.000Z</time>
      </trkpt>
      <trkpt lat="45.76699" lon="4.63665">
        <ele>659</ele>
        <time>2020-06-15T15:23:21.000Z</time>
      </trkpt>
      <trkpt lat="45.76697" lon="4.63672">
        <ele>658.7</ele>
        <time>2020-06-15T15:23:22.000Z</time>
      </trkpt>
      <trkpt lat="45.76695" lon="4.63679">
        <ele>658.4</ele>
        <time>2020-06-15T15:23:23.000Z</time>
      </trkpt>
      <trkpt lat="45.76691" lon="4.63692">
        <ele>657.8</ele>
        <time>2020-06-15T15:23:25.000Z</time>
      </trkpt>
      <trkpt lat="45.76689" lon="4.63698">
        <ele>657.5</ele>
        <time>2020-06-15T15:23:26.000Z</time>
      </trkpt>
      <trkpt lat="45.76685" lon="4.6371">
        <ele>656.9</ele>
        <time>2020-06-15T15:23:29.000Z</time>
      </trkpt>
      <trkpt lat="45.76684" lon="4.6371">
        <ele>656.8</ele>
        <time>2020-06-15T15:23:31.000Z</time>
      </trkpt>
      <trkpt lat="45.76683" lon="4.63708">
        <ele>656.7</ele>
        <time>2020-06-15T15:23:32.000Z</time>
      </trkpt>
      <trkpt lat="45.76681" lon="4.63691">
        <ele>655.7</ele>
        <time>2020-06-15T15:23:36.000Z</time>
      </trkpt>
      <trkpt lat="45.76681" lon="4.63677">
        <ele>655</ele>
        <time>2020-06-15T15:23:39.000Z</time>
      </trkpt>
      <trkpt lat="45.76678" lon="4.63674">
        <ele>654.7</ele>
        <time>2020-06-15T15:23:41.000Z</time>
      </trkpt>
      <trkpt lat="45.76677" lon="4.63676">
        <ele>654.5</ele>
        <time>2020-06-15T15:23:42.000Z</time>
      </trkpt>
      <trkpt lat="45.76675" lon="4.63678">
        <ele>654.3</ele>
        <time>2020-06-15T15:23:43.000Z</time>
      </trkpt>
      <trkpt lat="45.7667" lon="4.63691">
        <ele>653.5</ele>
        <time>2020-06-15T15:23:46.000Z</time>
      </trkpt>
      <trkpt lat="45.76664" lon="4.63706">
        <ele>652.6</ele>
        <time>2020-06-15T15:23:50.000Z</time>
      </trkpt>
      <trkpt lat="45.76663" lon="4.63697">
        <ele>652.1</ele>
        <time>2020-06-15T15:23:54.000Z</time>
      </trkpt>
      <trkpt lat="45.76663" lon="4.63694">
        <ele>652.3</ele>
        <time>2020-06-15T15:23:55.000Z</time>
      </trkpt>
      <trkpt lat="45.76663" lon="4.63688">
        <ele>652.5</ele>
        <time>2020-06-15T15:23:57.000Z</time>
      </trkpt>
      <trkpt lat="45.76659" lon="4.63691">
        <ele>651.4</ele>
        <time>2020-06-15T15:23:59.000Z</time>
      </trkpt>
      <trkpt lat="45.76649" lon="4.63713">
        <ele>648.4</ele>
        <time>2020-06-15T15:24:03.000Z</time>
      </trkpt>
      <trkpt lat="45.76646" lon="4.63723">
        <ele>647</ele>
        <time>2020-06-15T15:24:05.000Z</time>
      </trkpt>
      <trkpt lat="45.76645" lon="4.63727">
        <ele>646.7</ele>
        <time>2020-06-15T15:24:06.000Z</time>
      </trkpt>
      <trkpt lat="45.76644" lon="4.63731">
        <ele>645.7</ele>
        <time>2020-06-15T15:24:07.000Z</time>
      </trkpt>
      <trkpt lat="45.76642" lon="4.63739">
        <ele>645</ele>
        <time>2020-06-15T15:24:09.000Z</time>
      </trkpt>
      <trkpt lat="45.76643" lon="4.63742">
        <ele>645</ele>
        <time>2020-06-15T15:24:10.000Z</time>
      </trkpt>
      <trkpt lat="45.76644" lon="4.63746">
        <ele>644.6</ele>
        <time>2020-06-15T15:24:13.000Z</time>
      </trkpt>
      <trkpt lat="45.76646" lon="4.63759">
        <ele>644.2</ele>
        <time>2020-06-15T15:24:18.000Z</time>
      </trkpt>
      <trkpt lat="45.76647" lon="4.63762">
        <ele>643.7</ele>
        <time>2020-06-15T15:24:19.000Z</time>
      </trkpt>
      <trkpt lat="45.76649" lon="4.6377">
        <ele>643.4</ele>
        <time>2020-06-15T15:24:22.000Z</time>
      </trkpt>
      <trkpt lat="45.76653" lon="4.63777">
        <ele>643.5</ele>
        <time>2020-06-15T15:24:24.000Z</time>
      </trkpt>
      <trkpt lat="45.76654" lon="4.63781">
        <ele>643.4</ele>
        <time>2020-06-15T15:24:27.000Z</time>
      </trkpt>
      <trkpt lat="45.76653" lon="4.63781">
        <ele>642.8</ele>
        <time>2020-06-15T15:24:28.000Z</time>
      </trkpt>
      <trkpt lat="45.76652" lon="4.63783">
        <ele>642.1</ele>
        <time>2020-06-15T15:24:31.000Z</time>
      </trkpt>
      <trkpt lat="45.76656" lon="4.638">
        <ele>640.6</ele>
        <time>2020-06-15T15:24:35.000Z</time>
      </trkpt>
      <trkpt lat="45.76656" lon="4.63818">
        <ele>638.8</ele>
        <time>2020-06-15T15:24:39.000Z</time>
      </trkpt>
      <trkpt lat="45.76655" lon="4.6382">
        <ele>638.7</ele>
        <time>2020-06-15T15:24:40.000Z</time>
      </trkpt>
      <trkpt lat="45.76652" lon="4.63819">
        <ele>638</ele>
        <time>2020-06-15T15:24:42.000Z</time>
      </trkpt>
      <trkpt lat="45.76649" lon="4.63815">
        <ele>637.7</ele>
        <time>2020-06-15T15:24:45.000Z</time>
      </trkpt>
      <trkpt lat="45.76649" lon="4.63815">
        <ele>637.7</ele>
        <time>2020-06-15T15:24:46.000Z</time>
      </trkpt>
      <trkpt lat="45.76648" lon="4.63823">
        <ele>636.6</ele>
        <time>2020-06-15T15:24:48.000Z</time>
      </trkpt>
      <trkpt lat="45.76649" lon="4.63829">
        <ele>635.5</ele>
        <time>2020-06-15T15:24:49.000Z</time>
      </trkpt>
      <trkpt lat="45.76652" lon="4.63843">
        <ele>633.2</ele>
        <time>2020-06-15T15:24:51.000Z</time>
      </trkpt>
      <trkpt lat="45.76654" lon="4.63855">
        <ele>631.4</ele>
        <time>2020-06-15T15:24:53.000Z</time>
      </trkpt>
      <trkpt lat="45.76656" lon="4.63858">
        <ele>630.8</ele>
        <time>2020-06-15T15:24:54.000Z</time>
      </trkpt>
      <trkpt lat="45.76663" lon="4.63873">
        <ele>627.7</ele>
        <time>2020-06-15T15:24:58.000Z</time>
      </trkpt>
      <trkpt lat="45.76665" lon="4.63876">
        <ele>627.1</ele>
        <time>2020-06-15T15:24:59.000Z</time>
      </trkpt>
      <trkpt lat="45.76669" lon="4.6388">
        <ele>626.1</ele>
        <time>2020-06-15T15:25:01.000Z</time>
      </trkpt>
      <trkpt lat="45.76674" lon="4.63891">
        <ele>624.2</ele>
        <time>2020-06-15T15:25:05.000Z</time>
      </trkpt>
      <trkpt lat="45.76676" lon="4.63894">
        <ele>623.7</ele>
        <time>2020-06-15T15:25:09.000Z</time>
      </trkpt>
      <trkpt lat="45.76676" lon="4.63894">
        <ele>623.7</ele>
        <time>2020-06-15T15:25:19.000Z</time>
      </trkpt>
      <trkpt lat="45.76676" lon="4.63894">
        <ele>623.6</ele>
        <time>2020-06-15T15:25:27.000Z</time>
      </trkpt>
      <trkpt lat="45.76676" lon="4.63894">
        <ele>623.6</ele>
        <time>2020-06-15T15:25:39.000Z</time>
      </trkpt>
      <trkpt lat="45.76676" lon="4.63894">
        <ele>623.6</ele>
        <time>2020-06-15T15:26:00.000Z</time>
      </trkpt>
      <trkpt lat="45.76676" lon="4.63894">
        <ele>623.5</ele>
        <time>2020-06-15T15:26:13.000Z</time>
      </trkpt>
      <trkpt lat="45.76677" lon="4.63897">
        <ele>623.1</ele>
        <time>2020-06-15T15:26:19.000Z</time>
      </trkpt>
      <trkpt lat="45.76678" lon="4.63901">
        <ele>622.1</ele>
        <time>2020-06-15T15:26:20.000Z</time>
      </trkpt>
      <trkpt lat="45.76677" lon="4.63909">
        <ele>621.2</ele>
        <time>2020-06-15T15:26:22.000Z</time>
      </trkpt>
      <trkpt lat="45.76675" lon="4.63919">
        <ele>620</ele>
        <time>2020-06-15T15:26:24.000Z</time>
      </trkpt>
      <trkpt lat="45.76675" lon="4.63923">
        <ele>619.6</ele>
        <time>2020-06-15T15:26:25.000Z</time>
      </trkpt>
      <trkpt lat="45.76677" lon="4.63934">
        <ele>618.5</ele>
        <time>2020-06-15T15:26:27.000Z</time>
      </trkpt>
      <trkpt lat="45.7668" lon="4.63941">
        <ele>617.8</ele>
        <time>2020-06-15T15:26:28.000Z</time>
      </trkpt>
      <trkpt lat="45.76686" lon="4.63949">
        <ele>616.8</ele>
        <time>2020-06-15T15:26:30.000Z</time>
      </trkpt>
      <trkpt lat="45.76691" lon="4.63956">
        <ele>616</ele>
        <time>2020-06-15T15:26:33.000Z</time>
      </trkpt>
      <trkpt lat="45.76693" lon="4.6397">
        <ele>614.9</ele>
        <time>2020-06-15T15:26:36.000Z</time>
      </trkpt>
      <trkpt lat="45.76692" lon="4.63976">
        <ele>614.3</ele>
        <time>2020-06-15T15:26:38.000Z</time>
      </trkpt>
      <trkpt lat="45.76691" lon="4.63977">
        <ele>614.2</ele>
        <time>2020-06-15T15:26:39.000Z</time>
      </trkpt>
      <trkpt lat="45.76691" lon="4.63979">
        <ele>614</ele>
        <time>2020-06-15T15:26:40.000Z</time>
      </trkpt>
      <trkpt lat="45.76693" lon="4.63986">
        <ele>613.4</ele>
        <time>2020-06-15T15:26:42.000Z</time>
      </trkpt>
      <trkpt lat="45.76698" lon="4.64001">
        <ele>611.8</ele>
        <time>2020-06-15T15:26:46.000Z</time>
      </trkpt>
      <trkpt lat="45.76698" lon="4.64004">
        <ele>611.6</ele>
        <time>2020-06-15T15:26:47.000Z</time>
      </trkpt>
      <trkpt lat="45.76696" lon="4.6401">
        <ele>610.8</ele>
        <time>2020-06-15T15:26:51.000Z</time>
      </trkpt>
      <trkpt lat="45.76694" lon="4.6401">
        <ele>610.5</ele>
        <time>2020-06-15T15:26:52.000Z</time>
      </trkpt>
      <trkpt lat="45.76682" lon="4.64003">
        <ele>608.2</ele>
        <time>2020-06-15T15:26:56.000Z</time>
      </trkpt>
      <trkpt lat="45.7668" lon="4.64003">
        <ele>607.8</ele>
        <time>2020-06-15T15:26:57.000Z</time>
      </trkpt>
      <trkpt lat="45.76676" lon="4.64003">
        <ele>606.9</ele>
        <time>2020-06-15T15:26:59.000Z</time>
      </trkpt>
      <trkpt lat="45.76672" lon="4.63999">
        <ele>606.1</ele>
        <time>2020-06-15T15:27:01.000Z</time>
      </trkpt>
      <trkpt lat="45.76668" lon="4.63994">
        <ele>605</ele>
        <time>2020-06-15T15:27:03.000Z</time>
      </trkpt>
      <trkpt lat="45.76663" lon="4.6399">
        <ele>603.9</ele>
        <time>2020-06-15T15:27:05.000Z</time>
      </trkpt>
      <trkpt lat="45.7666" lon="4.63992">
        <ele>603.4</ele>
        <time>2020-06-15T15:27:06.000Z</time>
      </trkpt>
      <trkpt lat="45.76658" lon="4.63995">
        <ele>602.9</ele>
        <time>2020-06-15T15:27:07.000Z</time>
      </trkpt>
      <trkpt lat="45.76656" lon="4.64003">
        <ele>601.6</ele>
        <time>2020-06-15T15:27:09.000Z</time>
      </trkpt>
      <trkpt lat="45.76659" lon="4.64023">
        <ele>598.7</ele>
        <time>2020-06-15T15:27:13.000Z</time>
      </trkpt>
      <trkpt lat="45.76659" lon="4.64027">
        <ele>598.2</ele>
        <time>2020-06-15T15:27:14.000Z</time>
      </trkpt>
      <trkpt lat="45.76656" lon="4.64033">
        <ele>597.2</ele>
        <time>2020-06-15T15:27:16.000Z</time>
      </trkpt>
      <trkpt lat="45.7665" lon="4.64039">
        <ele>595.9</ele>
        <time>2020-06-15T15:27:18.000Z</time>
      </trkpt>
      <trkpt lat="45.76646" lon="4.64044">
        <ele>594.7</ele>
        <time>2020-06-15T15:27:19.000Z</time>
      </trkpt>
      <trkpt lat="45.76641" lon="4.64048">
        <ele>593.5</ele>
        <time>2020-06-15T15:27:20.000Z</time>
      </trkpt>
      <trkpt lat="45.76629" lon="4.64057">
        <ele>590.1</ele>
        <time>2020-06-15T15:27:23.000Z</time>
      </trkpt>
      <trkpt lat="45.76627" lon="4.6406">
        <ele>589.5</ele>
        <time>2020-06-15T15:27:24.000Z</time>
      </trkpt>
      <trkpt lat="45.76624" lon="4.64065">
        <ele>588.4</ele>
        <time>2020-06-15T15:27:26.000Z</time>
      </trkpt>
      <trkpt lat="45.76626" lon="4.64072">
        <ele>587.3</ele>
        <time>2020-06-15T15:27:27.000Z</time>
      </trkpt>
      <trkpt lat="45.76628" lon="4.64079">
        <ele>586.2</ele>
        <time>2020-06-15T15:27:28.000Z</time>
      </trkpt>
      <trkpt lat="45.76633" lon="4.64094">
        <ele>584.1</ele>
        <time>2020-06-15T15:27:30.000Z</time>
      </trkpt>
      <trkpt lat="45.76637" lon="4.64108">
        <ele>582.5</ele>
        <time>2020-06-15T15:27:32.000Z</time>
      </trkpt>
      <trkpt lat="45.76643" lon="4.64128">
        <ele>580.1</ele>
        <time>2020-06-15T15:27:35.000Z</time>
      </trkpt>
      <trkpt lat="45.76646" lon="4.64141">
        <ele>578.5</ele>
        <time>2020-06-15T15:27:37.000Z</time>
      </trkpt>
      <trkpt lat="45.76646" lon="4.64161">
        <ele>576.1</ele>
        <time>2020-06-15T15:27:40.000Z</time>
      </trkpt>
      <trkpt lat="45.76648" lon="4.64175">
        <ele>574.3</ele>
        <time>2020-06-15T15:27:42.000Z</time>
      </trkpt>
      <trkpt lat="45.7665" lon="4.64194">
        <ele>572.1</ele>
        <time>2020-06-15T15:27:45.000Z</time>
      </trkpt>
      <trkpt lat="45.76651" lon="4.642">
        <ele>571.4</ele>
        <time>2020-06-15T15:27:46.000Z</time>
      </trkpt>
      <trkpt lat="45.76656" lon="4.64225">
        <ele>568.9</ele>
        <time>2020-06-15T15:27:50.000Z</time>
      </trkpt>
      <trkpt lat="45.76658" lon="4.64237">
        <ele>567.8</ele>
        <time>2020-06-15T15:27:52.000Z</time>
      </trkpt>
      <trkpt lat="45.76658" lon="4.64252">
        <ele>566.5</ele>
        <time>2020-06-15T15:27:54.000Z</time>
      </trkpt>
      <trkpt lat="45.76658" lon="4.64263">
        <ele>565.5</ele>
        <time>2020-06-15T15:27:56.000Z</time>
      </trkpt>
      <trkpt lat="45.76657" lon="4.64269">
        <ele>564.9</ele>
        <time>2020-06-15T15:27:57.000Z</time>
      </trkpt>
      <trkpt lat="45.76654" lon="4.64287">
        <ele>563.1</ele>
        <time>2020-06-15T15:28:00.000Z</time>
      </trkpt>
      <trkpt lat="45.76654" lon="4.64293">
        <ele>562.5</ele>
        <time>2020-06-15T15:28:01.000Z</time>
      </trkpt>
      <trkpt lat="45.76654" lon="4.64303">
        <ele>561.5</ele>
        <time>2020-06-15T15:28:03.000Z</time>
      </trkpt>
      <trkpt lat="45.76655" lon="4.64313">
        <ele>560.5</ele>
        <time>2020-06-15T15:28:05.000Z</time>
      </trkpt>
      <trkpt lat="45.76652" lon="4.64332">
        <ele>558.5</ele>
        <time>2020-06-15T15:28:09.000Z</time>
      </trkpt>
      <trkpt lat="45.76647" lon="4.64365">
        <ele>554.6</ele>
        <time>2020-06-15T15:28:14.000Z</time>
      </trkpt>
      <trkpt lat="45.76646" lon="4.6438">
        <ele>552.8</ele>
        <time>2020-06-15T15:28:16.000Z</time>
      </trkpt>
      <trkpt lat="45.76647" lon="4.64397">
        <ele>551.1</ele>
        <time>2020-06-15T15:28:18.000Z</time>
      </trkpt>
      <trkpt lat="45.76646" lon="4.64404">
        <ele>550.3</ele>
        <time>2020-06-15T15:28:19.000Z</time>
      </trkpt>
      <trkpt lat="45.76646" lon="4.64417">
        <ele>548.7</ele>
        <time>2020-06-15T15:28:22.000Z</time>
      </trkpt>
      <trkpt lat="45.76645" lon="4.64429">
        <ele>546.9</ele>
        <time>2020-06-15T15:28:25.000Z</time>
      </trkpt>
      <trkpt lat="45.76645" lon="4.64433">
        <ele>546.4</ele>
        <time>2020-06-15T15:28:26.000Z</time>
      </trkpt>
      <trkpt lat="45.76644" lon="4.64436">
        <ele>545.8</ele>
        <time>2020-06-15T15:28:27.000Z</time>
      </trkpt>
      <trkpt lat="45.76644" lon="4.64444">
        <ele>544.6</ele>
        <time>2020-06-15T15:28:30.000Z</time>
      </trkpt>
      <trkpt lat="45.76642" lon="4.64454">
        <ele>543</ele>
        <time>2020-06-15T15:28:33.000Z</time>
      </trkpt>
      <trkpt lat="45.76642" lon="4.64456">
        <ele>542.6</ele>
        <time>2020-06-15T15:28:34.000Z</time>
      </trkpt>
      <trkpt lat="45.76637" lon="4.64461">
        <ele>541.5</ele>
        <time>2020-06-15T15:28:36.000Z</time>
      </trkpt>
      <trkpt lat="45.76633" lon="4.64464">
        <ele>540.8</ele>
        <time>2020-06-15T15:28:37.000Z</time>
      </trkpt>
      <trkpt lat="45.76625" lon="4.64476">
        <ele>539.4</ele>
        <time>2020-06-15T15:28:40.000Z</time>
      </trkpt>
      <trkpt lat="45.76625" lon="4.64476">
        <ele>539.4</ele>
        <time>2020-06-15T15:28:53.000Z</time>
      </trkpt>
      <trkpt lat="45.76625" lon="4.64476">
        <ele>539.4</ele>
        <time>2020-06-15T15:29:07.000Z</time>
      </trkpt>
      <trkpt lat="45.76625" lon="4.64476">
        <ele>539.4</ele>
        <time>2020-06-15T15:29:24.000Z</time>
      </trkpt>
      <trkpt lat="45.76625" lon="4.64476">
        <ele>539.4</ele>
        <time>2020-06-15T15:29:37.000Z</time>
      </trkpt>
      <trkpt lat="45.76624" lon="4.64478">
        <ele>539.2</ele>
        <time>2020-06-15T15:29:40.000Z</time>
      </trkpt>
      <trkpt lat="45.76623" lon="4.64481">
        <ele>538.9</ele>
        <time>2020-06-15T15:29:41.000Z</time>
      </trkpt>
      <trkpt lat="45.76622" lon="4.64484">
        <ele>538.7</ele>
        <time>2020-06-15T15:29:42.000Z</time>
      </trkpt>
      <trkpt lat="45.76622" lon="4.6449">
        <ele>538.3</ele>
        <time>2020-06-15T15:29:44.000Z</time>
      </trkpt>
      <trkpt lat="45.76626" lon="4.64498">
        <ele>537.7</ele>
        <time>2020-06-15T15:29:47.000Z</time>
      </trkpt>
      <trkpt lat="45.76634" lon="4.64508">
        <ele>535.3</ele>
        <time>2020-06-15T15:29:50.000Z</time>
      </trkpt>
      <trkpt lat="45.76642" lon="4.64519">
        <ele>534.3</ele>
        <time>2020-06-15T15:29:52.000Z</time>
      </trkpt>
      <trkpt lat="45.76647" lon="4.64525">
        <ele>533.8</ele>
        <time>2020-06-15T15:29:53.000Z</time>
      </trkpt>
      <trkpt lat="45.76651" lon="4.6453">
        <ele>533.5</ele>
        <time>2020-06-15T15:29:54.000Z</time>
      </trkpt>
      <trkpt lat="45.76654" lon="4.64544">
        <ele>533</ele>
        <time>2020-06-15T15:29:56.000Z</time>
      </trkpt>
      <trkpt lat="45.76662" lon="4.64561">
        <ele>532.5</ele>
        <time>2020-06-15T15:30:00.000Z</time>
      </trkpt>
      <trkpt lat="45.76672" lon="4.64576">
        <ele>532.3</ele>
        <time>2020-06-15T15:30:04.000Z</time>
      </trkpt>
      <trkpt lat="45.76675" lon="4.64586">
        <ele>532.1</ele>
        <time>2020-06-15T15:30:06.000Z</time>
      </trkpt>
      <trkpt lat="45.76677" lon="4.64591">
        <ele>532</ele>
        <time>2020-06-15T15:30:07.000Z</time>
      </trkpt>
      <trkpt lat="45.76678" lon="4.64595">
        <ele>531.9</ele>
        <time>2020-06-15T15:30:08.000Z</time>
      </trkpt>
      <trkpt lat="45.76678" lon="4.64608">
        <ele>531.6</ele>
        <time>2020-06-15T15:30:11.000Z</time>
      </trkpt>
      <trkpt lat="45.7668" lon="4.64613">
        <ele>531.3</ele>
        <time>2020-06-15T15:30:15.000Z</time>
      </trkpt>
      <trkpt lat="45.76685" lon="4.6462">
        <ele>530.7</ele>
        <time>2020-06-15T15:30:25.000Z</time>
      </trkpt>
      <trkpt lat="45.76693" lon="4.64638">
        <ele>529</ele>
        <time>2020-06-15T15:30:29.000Z</time>
      </trkpt>
      <trkpt lat="45.76695" lon="4.64642">
        <ele>528.5</ele>
        <time>2020-06-15T15:30:30.000Z</time>
      </trkpt>
      <trkpt lat="45.76702" lon="4.64653">
        <ele>527</ele>
        <time>2020-06-15T15:30:32.000Z</time>
      </trkpt>
      <trkpt lat="45.76705" lon="4.6466">
        <ele>526.2</ele>
        <time>2020-06-15T15:30:33.000Z</time>
      </trkpt>
      <trkpt lat="45.7671" lon="4.64674">
        <ele>524.8</ele>
        <time>2020-06-15T15:30:36.000Z</time>
      </trkpt>
      <trkpt lat="45.76712" lon="4.64685">
        <ele>524.1</ele>
        <time>2020-06-15T15:30:39.000Z</time>
      </trkpt>
      <trkpt lat="45.76712" lon="4.64689">
        <ele>523.9</ele>
        <time>2020-06-15T15:30:40.000Z</time>
      </trkpt>
      <trkpt lat="45.76713" lon="4.64696">
        <ele>523.7</ele>
        <time>2020-06-15T15:30:42.000Z</time>
      </trkpt>
      <trkpt lat="45.76715" lon="4.64704">
        <ele>523.6</ele>
        <time>2020-06-15T15:30:45.000Z</time>
      </trkpt>
      <trkpt lat="45.7672" lon="4.64721">
        <ele>523.6</ele>
        <time>2020-06-15T15:30:50.000Z</time>
      </trkpt>
      <trkpt lat="45.76728" lon="4.64728">
        <ele>523.5</ele>
        <time>2020-06-15T15:30:53.000Z</time>
      </trkpt>
      <trkpt lat="45.76729" lon="4.64734">
        <ele>523.4</ele>
        <time>2020-06-15T15:30:54.000Z</time>
      </trkpt>
      <trkpt lat="45.76729" lon="4.64739">
        <ele>523.2</ele>
        <time>2020-06-15T15:30:55.000Z</time>
      </trkpt>
      <trkpt lat="45.76729" lon="4.64749">
        <ele>522.8</ele>
        <time>2020-06-15T15:30:57.000Z</time>
      </trkpt>
      <trkpt lat="45.76731" lon="4.64759">
        <ele>522.3</ele>
        <time>2020-06-15T15:30:59.000Z</time>
      </trkpt>
      <trkpt lat="45.76727" lon="4.64765">
        <ele>521.9</ele>
        <time>2020-06-15T15:31:01.000Z</time>
      </trkpt>
      <trkpt lat="45.76721" lon="4.64779">
        <ele>520.9</ele>
        <time>2020-06-15T15:31:04.000Z</time>
      </trkpt>
      <trkpt lat="45.76715" lon="4.64794">
        <ele>519.8</ele>
        <time>2020-06-15T15:31:07.000Z</time>
      </trkpt>
      <trkpt lat="45.76711" lon="4.64798">
        <ele>519.4</ele>
        <time>2020-06-15T15:31:08.000Z</time>
      </trkpt>
      <trkpt lat="45.76704" lon="4.64804">
        <ele>518.7</ele>
        <time>2020-06-15T15:31:10.000Z</time>
      </trkpt>
      <trkpt lat="45.76703" lon="4.64808">
        <ele>518.4</ele>
        <time>2020-06-15T15:31:11.000Z</time>
      </trkpt>
      <trkpt lat="45.76703" lon="4.64812">
        <ele>518.1</ele>
        <time>2020-06-15T15:31:12.000Z</time>
      </trkpt>
      <trkpt lat="45.76702" lon="4.64816">
        <ele>517.8</ele>
        <time>2020-06-15T15:31:13.000Z</time>
      </trkpt>
      <trkpt lat="45.767" lon="4.64825">
        <ele>517</ele>
        <time>2020-06-15T15:31:15.000Z</time>
      </trkpt>
      <trkpt lat="45.767" lon="4.64833">
        <ele>516.3</ele>
        <time>2020-06-15T15:31:17.000Z</time>
      </trkpt>
      <trkpt lat="45.76698" lon="4.64837">
        <ele>515.8</ele>
        <time>2020-06-15T15:31:18.000Z</time>
      </trkpt>
      <trkpt lat="45.76696" lon="4.64842">
        <ele>515.3</ele>
        <time>2020-06-15T15:31:19.000Z</time>
      </trkpt>
      <trkpt lat="45.76695" lon="4.64855">
        <ele>514.2</ele>
        <time>2020-06-15T15:31:21.000Z</time>
      </trkpt>
      <trkpt lat="45.76694" lon="4.64862">
        <ele>513.7</ele>
        <time>2020-06-15T15:31:22.000Z</time>
      </trkpt>
      <trkpt lat="45.76694" lon="4.64872">
        <ele>512.8</ele>
        <time>2020-06-15T15:31:24.000Z</time>
      </trkpt>
      <trkpt lat="45.76693" lon="4.64885">
        <ele>511.7</ele>
        <time>2020-06-15T15:31:26.000Z</time>
      </trkpt>
      <trkpt lat="45.76692" lon="4.64892">
        <ele>511</ele>
        <time>2020-06-15T15:31:27.000Z</time>
      </trkpt>
      <trkpt lat="45.76691" lon="4.64899">
        <ele>510.3</ele>
        <time>2020-06-15T15:31:28.000Z</time>
      </trkpt>
      <trkpt lat="45.76683" lon="4.64917">
        <ele>507.8</ele>
        <time>2020-06-15T15:31:31.000Z</time>
      </trkpt>
      <trkpt lat="45.76684" lon="4.64926">
        <ele>506.5</ele>
        <time>2020-06-15T15:31:34.000Z</time>
      </trkpt>
      <trkpt lat="45.76683" lon="4.6493">
        <ele>505.9</ele>
        <time>2020-06-15T15:31:35.000Z</time>
      </trkpt>
      <trkpt lat="45.76683" lon="4.64942">
        <ele>504.2</ele>
        <time>2020-06-15T15:31:37.000Z</time>
      </trkpt>
      <trkpt lat="45.76681" lon="4.64948">
        <ele>503.1</ele>
        <time>2020-06-15T15:31:38.000Z</time>
      </trkpt>
      <trkpt lat="45.76675" lon="4.64961">
        <ele>501.1</ele>
        <time>2020-06-15T15:31:40.000Z</time>
      </trkpt>
      <trkpt lat="45.76668" lon="4.64964">
        <ele>499.8</ele>
        <time>2020-06-15T15:31:42.000Z</time>
      </trkpt>
      <trkpt lat="45.76664" lon="4.64963">
        <ele>499.1</ele>
        <time>2020-06-15T15:31:43.000Z</time>
      </trkpt>
      <trkpt lat="45.76658" lon="4.64963">
        <ele>498</ele>
        <time>2020-06-15T15:31:46.000Z</time>
      </trkpt>
      <trkpt lat="45.76657" lon="4.64963">
        <ele>497.8</ele>
        <time>2020-06-15T15:31:50.000Z</time>
      </trkpt>
      <trkpt lat="45.76652" lon="4.64966">
        <ele>496.7</ele>
        <time>2020-06-15T15:31:52.000Z</time>
      </trkpt>
      <trkpt lat="45.76649" lon="4.6498">
        <ele>492.3</ele>
        <time>2020-06-15T15:31:55.000Z</time>
      </trkpt>
      <trkpt lat="45.76649" lon="4.64987">
        <ele>491.4</ele>
        <time>2020-06-15T15:31:58.000Z</time>
      </trkpt>
      <trkpt lat="45.76649" lon="4.64987">
        <ele>491.4</ele>
        <time>2020-06-15T15:32:10.000Z</time>
      </trkpt>
      <trkpt lat="45.7665" lon="4.6499">
        <ele>491.2</ele>
        <time>2020-06-15T15:32:11.000Z</time>
      </trkpt>
      <trkpt lat="45.76654" lon="4.65011">
        <ele>489.2</ele>
        <time>2020-06-15T15:32:15.000Z</time>
      </trkpt>
      <trkpt lat="45.76656" lon="4.65022">
        <ele>488.3</ele>
        <time>2020-06-15T15:32:17.000Z</time>
      </trkpt>
      <trkpt lat="45.76658" lon="4.65035">
        <ele>487.1</ele>
        <time>2020-06-15T15:32:19.000Z</time>
      </trkpt>
      <trkpt lat="45.7666" lon="4.65071">
        <ele>484.2</ele>
        <time>2020-06-15T15:32:23.000Z</time>
      </trkpt>
      <trkpt lat="45.76661" lon="4.65082">
        <ele>483.4</ele>
        <time>2020-06-15T15:32:24.000Z</time>
      </trkpt>
      <trkpt lat="45.76663" lon="4.651">
        <ele>482</ele>
        <time>2020-06-15T15:32:26.000Z</time>
      </trkpt>
      <trkpt lat="45.76665" lon="4.65107">
        <ele>481.5</ele>
        <time>2020-06-15T15:32:27.000Z</time>
      </trkpt>
      <trkpt lat="45.76668" lon="4.65113">
        <ele>481.1</ele>
        <time>2020-06-15T15:32:28.000Z</time>
      </trkpt>
      <trkpt lat="45.76674" lon="4.6512">
        <ele>480.5</ele>
        <time>2020-06-15T15:32:30.000Z</time>
      </trkpt>
      <trkpt lat="45.76682" lon="4.6513">
        <ele>479.9</ele>
        <time>2020-06-15T15:32:32.000Z</time>
      </trkpt>
      <trkpt lat="45.76685" lon="4.65137">
        <ele>479.5</ele>
        <time>2020-06-15T15:32:33.000Z</time>
      </trkpt>
      <trkpt lat="45.76688" lon="4.65144">
        <ele>479.2</ele>
        <time>2020-06-15T15:32:34.000Z</time>
      </trkpt>
      <trkpt lat="45.76696" lon="4.65158">
        <ele>478.6</ele>
        <time>2020-06-15T15:32:37.000Z</time>
      </trkpt>
      <trkpt lat="45.76712" lon="4.65178">
        <ele>478</ele>
        <time>2020-06-15T15:32:43.000Z</time>
      </trkpt>
      <trkpt lat="45.76715" lon="4.65179">
        <ele>478.1</ele>
        <time>2020-06-15T15:32:44.000Z</time>
      </trkpt>
      <trkpt lat="45.76721" lon="4.65177">
        <ele>478.1</ele>
        <time>2020-06-15T15:32:46.000Z</time>
      </trkpt>
      <trkpt lat="45.76731" lon="4.65167">
        <ele>478.3</ele>
        <time>2020-06-15T15:32:51.000Z</time>
      </trkpt>
      <trkpt lat="45.76734" lon="4.65165">
        <ele>478.4</ele>
        <time>2020-06-15T15:32:55.000Z</time>
      </trkpt>
      <trkpt lat="45.76734" lon="4.65165">
        <ele>478.4</ele>
        <time>2020-06-15T15:32:56.000Z</time>
      </trkpt>
    </trkseg>
  </trk>
</gpx>